<?xml version="1.0" encoding="UTF-8" standalone="no" ?>
<gpx xmlns="http://www.topografix.com/GPX/1/1" xmlns:xsi="http://www.w3.org/2001/XMLSchema-instance" xsi:schemaLocation="http://www.topografix.com/GPX/1/1 http://www.topografix.com/GPX/1/1/gpx.xsd" version="1.1" creator="VisuGPX - https://www.visugpx.com">
  <metadata>
    <name>Grusse,La Reculée de Rotalier</name>
    <desc><![CDATA[
]]></desc>
  </metadata>
  <trk>
    <name><![CDATA[Grusse,La Reculée de Rotalier_1]]></name>
    <trkseg>
      <trkpt lat="46.60025" lon="5.50513">
        <ele>359.7</ele>
        <time>2020-02-24T08:39:55Z</time>
      </trkpt>
      <trkpt lat="46.60023" lon="5.50519">
        <ele>360.7</ele>
        <time>2020-02-24T08:40:06Z</time>
      </trkpt>
      <trkpt lat="46.60026" lon="5.50525">
        <ele>362.9</ele>
        <time>2020-02-24T08:40:13Z</time>
      </trkpt>
      <trkpt lat="46.6003" lon="5.5053">
        <ele>363.7</ele>
        <time>2020-02-24T08:40:20Z</time>
      </trkpt>
      <trkpt lat="46.60034" lon="5.50534">
        <ele>364.1</ele>
        <time>2020-02-24T08:40:24Z</time>
      </trkpt>
      <trkpt lat="46.60036" lon="5.5054">
        <ele>364.3</ele>
        <time>2020-02-24T08:40:28Z</time>
      </trkpt>
      <trkpt lat="46.60032" lon="5.50544">
        <ele>364.2</ele>
        <time>2020-02-24T08:40:34Z</time>
      </trkpt>
      <trkpt lat="46.60028" lon="5.50541">
        <ele>364.6</ele>
        <time>2020-02-24T08:40:45Z</time>
      </trkpt>
      <trkpt lat="46.60023" lon="5.50538">
        <ele>365.2</ele>
        <time>2020-02-24T08:40:59Z</time>
      </trkpt>
      <trkpt lat="46.60015" lon="5.50534">
        <ele>365.6</ele>
        <time>2020-02-24T08:41:07Z</time>
      </trkpt>
      <trkpt lat="46.60007" lon="5.5053">
        <ele>366.3</ele>
        <time>2020-02-24T08:41:15Z</time>
      </trkpt>
      <trkpt lat="46.60003" lon="5.50528">
        <ele>366.4</ele>
        <time>2020-02-24T08:41:18Z</time>
      </trkpt>
      <trkpt lat="46.59997" lon="5.50527">
        <ele>366.6</ele>
        <time>2020-02-24T08:41:22Z</time>
      </trkpt>
      <trkpt lat="46.59992" lon="5.50527">
        <ele>367.1</ele>
        <time>2020-02-24T08:41:28Z</time>
      </trkpt>
      <trkpt lat="46.59987" lon="5.50525">
        <ele>367.8</ele>
        <time>2020-02-24T08:41:34Z</time>
      </trkpt>
      <trkpt lat="46.59982" lon="5.50524">
        <ele>368.3</ele>
        <time>2020-02-24T08:41:39Z</time>
      </trkpt>
      <trkpt lat="46.59978" lon="5.50523">
        <ele>369</ele>
        <time>2020-02-24T08:41:45Z</time>
      </trkpt>
      <trkpt lat="46.59973" lon="5.50522">
        <ele>369.5</ele>
        <time>2020-02-24T08:41:50Z</time>
      </trkpt>
      <trkpt lat="46.59968" lon="5.50521">
        <ele>369.9</ele>
        <time>2020-02-24T08:41:56Z</time>
      </trkpt>
      <trkpt lat="46.59963" lon="5.50519">
        <ele>370</ele>
        <time>2020-02-24T08:42:00Z</time>
      </trkpt>
      <trkpt lat="46.59959" lon="5.5052">
        <ele>370.2</ele>
        <time>2020-02-24T08:42:06Z</time>
      </trkpt>
      <trkpt lat="46.59954" lon="5.50522">
        <ele>370.3</ele>
        <time>2020-02-24T08:42:11Z</time>
      </trkpt>
      <trkpt lat="46.5995" lon="5.50526">
        <ele>370.4</ele>
        <time>2020-02-24T08:42:18Z</time>
      </trkpt>
      <trkpt lat="46.59946" lon="5.50531">
        <ele>370.7</ele>
        <time>2020-02-24T08:42:23Z</time>
      </trkpt>
      <trkpt lat="46.59943" lon="5.50537">
        <ele>371.1</ele>
        <time>2020-02-24T08:42:28Z</time>
      </trkpt>
      <trkpt lat="46.5994" lon="5.50542">
        <ele>371.7</ele>
        <time>2020-02-24T08:42:33Z</time>
      </trkpt>
      <trkpt lat="46.59939" lon="5.50549">
        <ele>372.7</ele>
        <time>2020-02-24T08:42:39Z</time>
      </trkpt>
      <trkpt lat="46.5994" lon="5.50557">
        <ele>373.6</ele>
        <time>2020-02-24T08:42:45Z</time>
      </trkpt>
      <trkpt lat="46.5994" lon="5.50564">
        <ele>374.1</ele>
        <time>2020-02-24T08:42:49Z</time>
      </trkpt>
      <trkpt lat="46.59941" lon="5.50571">
        <ele>374.7</ele>
        <time>2020-02-24T08:42:53Z</time>
      </trkpt>
      <trkpt lat="46.59941" lon="5.50578">
        <ele>375.5</ele>
        <time>2020-02-24T08:43:01Z</time>
      </trkpt>
      <trkpt lat="46.59938" lon="5.50583">
        <ele>375.9</ele>
        <time>2020-02-24T08:43:06Z</time>
      </trkpt>
      <trkpt lat="46.59937" lon="5.50591">
        <ele>376.8</ele>
        <time>2020-02-24T08:43:13Z</time>
      </trkpt>
      <trkpt lat="46.59937" lon="5.50598">
        <ele>377.9</ele>
        <time>2020-02-24T08:43:24Z</time>
      </trkpt>
      <trkpt lat="46.59938" lon="5.50605">
        <ele>378.6</ele>
        <time>2020-02-24T08:43:31Z</time>
      </trkpt>
      <trkpt lat="46.59943" lon="5.50608">
        <ele>379.4</ele>
        <time>2020-02-24T08:43:40Z</time>
      </trkpt>
      <trkpt lat="46.59947" lon="5.50605">
        <ele>379.9</ele>
        <time>2020-02-24T08:43:49Z</time>
      </trkpt>
      <trkpt lat="46.59952" lon="5.50604">
        <ele>380.5</ele>
        <time>2020-02-24T08:43:57Z</time>
      </trkpt>
      <trkpt lat="46.59957" lon="5.50602">
        <ele>381.6</ele>
        <time>2020-02-24T08:44:06Z</time>
      </trkpt>
      <trkpt lat="46.59961" lon="5.506">
        <ele>383</ele>
        <time>2020-02-24T08:44:13Z</time>
      </trkpt>
      <trkpt lat="46.59966" lon="5.506">
        <ele>383.9</ele>
        <time>2020-02-24T08:44:19Z</time>
      </trkpt>
      <trkpt lat="46.5997" lon="5.50604">
        <ele>384.4</ele>
        <time>2020-02-24T08:44:29Z</time>
      </trkpt>
      <trkpt lat="46.59973" lon="5.50609">
        <ele>385</ele>
        <time>2020-02-24T08:44:37Z</time>
      </trkpt>
      <trkpt lat="46.59977" lon="5.50613">
        <ele>385.4</ele>
        <time>2020-02-24T08:44:43Z</time>
      </trkpt>
      <trkpt lat="46.59981" lon="5.50618">
        <ele>385.6</ele>
        <time>2020-02-24T08:44:50Z</time>
      </trkpt>
      <trkpt lat="46.59986" lon="5.50621">
        <ele>385.7</ele>
        <time>2020-02-24T08:44:57Z</time>
      </trkpt>
      <trkpt lat="46.5999" lon="5.50625">
        <ele>385.3</ele>
        <time>2020-02-24T08:45:04Z</time>
      </trkpt>
      <trkpt lat="46.59994" lon="5.50631">
        <ele>385.1</ele>
        <time>2020-02-24T08:45:09Z</time>
      </trkpt>
      <trkpt lat="46.60003" lon="5.50654">
        <ele>384.7</ele>
        <time>2020-02-24T08:45:36Z</time>
      </trkpt>
      <trkpt lat="46.60005" lon="5.5066">
        <ele>384.8</ele>
        <time>2020-02-24T08:45:41Z</time>
      </trkpt>
      <trkpt lat="46.60008" lon="5.50666">
        <ele>385</ele>
        <time>2020-02-24T08:45:46Z</time>
      </trkpt>
      <trkpt lat="46.60012" lon="5.5067">
        <ele>385.5</ele>
        <time>2020-02-24T08:45:52Z</time>
      </trkpt>
      <trkpt lat="46.60017" lon="5.50672">
        <ele>385.7</ele>
        <time>2020-02-24T08:45:57Z</time>
      </trkpt>
      <trkpt lat="46.60021" lon="5.50674">
        <ele>386.2</ele>
        <time>2020-02-24T08:46:03Z</time>
      </trkpt>
      <trkpt lat="46.60026" lon="5.50676">
        <ele>386.6</ele>
        <time>2020-02-24T08:46:08Z</time>
      </trkpt>
      <trkpt lat="46.6003" lon="5.50679">
        <ele>387</ele>
        <time>2020-02-24T08:46:14Z</time>
      </trkpt>
      <trkpt lat="46.60034" lon="5.50683">
        <ele>387.5</ele>
        <time>2020-02-24T08:46:19Z</time>
      </trkpt>
      <trkpt lat="46.60039" lon="5.50686">
        <ele>388.5</ele>
        <time>2020-02-24T08:46:27Z</time>
      </trkpt>
      <trkpt lat="46.60043" lon="5.5069">
        <ele>389.4</ele>
        <time>2020-02-24T08:46:35Z</time>
      </trkpt>
      <trkpt lat="46.60048" lon="5.50694">
        <ele>390.6</ele>
        <time>2020-02-24T08:46:42Z</time>
      </trkpt>
      <trkpt lat="46.60052" lon="5.50698">
        <ele>391.4</ele>
        <time>2020-02-24T08:46:46Z</time>
      </trkpt>
      <trkpt lat="46.60056" lon="5.50702">
        <ele>392.2</ele>
        <time>2020-02-24T08:46:51Z</time>
      </trkpt>
      <trkpt lat="46.6006" lon="5.50706">
        <ele>393.2</ele>
        <time>2020-02-24T08:46:59Z</time>
      </trkpt>
      <trkpt lat="46.60064" lon="5.50709">
        <ele>394.1</ele>
        <time>2020-02-24T08:47:05Z</time>
      </trkpt>
      <trkpt lat="46.60068" lon="5.50714">
        <ele>394.8</ele>
        <time>2020-02-24T08:47:11Z</time>
      </trkpt>
      <trkpt lat="46.60072" lon="5.50719">
        <ele>395.5</ele>
        <time>2020-02-24T08:47:17Z</time>
      </trkpt>
      <trkpt lat="46.60076" lon="5.50725">
        <ele>396</ele>
        <time>2020-02-24T08:47:25Z</time>
      </trkpt>
      <trkpt lat="46.60079" lon="5.5073">
        <ele>396</ele>
        <time>2020-02-24T08:47:29Z</time>
      </trkpt>
      <trkpt lat="46.60082" lon="5.50736">
        <ele>396</ele>
        <time>2020-02-24T08:47:33Z</time>
      </trkpt>
      <trkpt lat="46.60085" lon="5.50742">
        <ele>395.8</ele>
        <time>2020-02-24T08:47:40Z</time>
      </trkpt>
      <trkpt lat="46.60089" lon="5.50746">
        <ele>395.7</ele>
        <time>2020-02-24T08:47:45Z</time>
      </trkpt>
      <trkpt lat="46.60093" lon="5.50751">
        <ele>395.4</ele>
        <time>2020-02-24T08:47:51Z</time>
      </trkpt>
      <trkpt lat="46.60097" lon="5.50754">
        <ele>395.2</ele>
        <time>2020-02-24T08:47:57Z</time>
      </trkpt>
      <trkpt lat="46.60099" lon="5.5076">
        <ele>395</ele>
        <time>2020-02-24T08:48:02Z</time>
      </trkpt>
      <trkpt lat="46.60103" lon="5.50764">
        <ele>395.1</ele>
        <time>2020-02-24T08:48:08Z</time>
      </trkpt>
      <trkpt lat="46.60107" lon="5.50769">
        <ele>395.1</ele>
        <time>2020-02-24T08:48:12Z</time>
      </trkpt>
      <trkpt lat="46.6011" lon="5.50774">
        <ele>395</ele>
        <time>2020-02-24T08:48:16Z</time>
      </trkpt>
      <trkpt lat="46.60118" lon="5.50782">
        <ele>395.3</ele>
        <time>2020-02-24T08:48:30Z</time>
      </trkpt>
      <trkpt lat="46.6013" lon="5.50796">
        <ele>397.1</ele>
        <time>2020-02-24T08:48:49Z</time>
      </trkpt>
      <trkpt lat="46.60134" lon="5.508">
        <ele>397.6</ele>
        <time>2020-02-24T08:48:58Z</time>
      </trkpt>
      <trkpt lat="46.60137" lon="5.50804">
        <ele>397.8</ele>
        <time>2020-02-24T08:49:02Z</time>
      </trkpt>
      <trkpt lat="46.60142" lon="5.50809">
        <ele>398</ele>
        <time>2020-02-24T08:49:05Z</time>
      </trkpt>
      <trkpt lat="46.60146" lon="5.50812">
        <ele>398.2</ele>
        <time>2020-02-24T08:49:09Z</time>
      </trkpt>
      <trkpt lat="46.6015" lon="5.50816">
        <ele>398.6</ele>
        <time>2020-02-24T08:49:14Z</time>
      </trkpt>
      <trkpt lat="46.60154" lon="5.50821">
        <ele>398.8</ele>
        <time>2020-02-24T08:49:18Z</time>
      </trkpt>
      <trkpt lat="46.60159" lon="5.50824">
        <ele>399</ele>
        <time>2020-02-24T08:49:23Z</time>
      </trkpt>
      <trkpt lat="46.60163" lon="5.50829">
        <ele>399.3</ele>
        <time>2020-02-24T08:49:30Z</time>
      </trkpt>
      <trkpt lat="46.60166" lon="5.50833">
        <ele>400</ele>
        <time>2020-02-24T08:49:37Z</time>
      </trkpt>
      <trkpt lat="46.6017" lon="5.50837">
        <ele>400.8</ele>
        <time>2020-02-24T08:49:44Z</time>
      </trkpt>
      <trkpt lat="46.60174" lon="5.5084">
        <ele>401.4</ele>
        <time>2020-02-24T08:49:50Z</time>
      </trkpt>
      <trkpt lat="46.60178" lon="5.50844">
        <ele>401.7</ele>
        <time>2020-02-24T08:49:57Z</time>
      </trkpt>
      <trkpt lat="46.60182" lon="5.50848">
        <ele>402</ele>
        <time>2020-02-24T08:50:03Z</time>
      </trkpt>
      <trkpt lat="46.60186" lon="5.50851">
        <ele>402.3</ele>
        <time>2020-02-24T08:50:09Z</time>
      </trkpt>
      <trkpt lat="46.6019" lon="5.50855">
        <ele>402.6</ele>
        <time>2020-02-24T08:50:14Z</time>
      </trkpt>
      <trkpt lat="46.60193" lon="5.50861">
        <ele>402.8</ele>
        <time>2020-02-24T08:50:19Z</time>
      </trkpt>
      <trkpt lat="46.60196" lon="5.50866">
        <ele>403</ele>
        <time>2020-02-24T08:50:23Z</time>
      </trkpt>
      <trkpt lat="46.602" lon="5.50871">
        <ele>403.6</ele>
        <time>2020-02-24T08:50:28Z</time>
      </trkpt>
      <trkpt lat="46.60204" lon="5.50874">
        <ele>404</ele>
        <time>2020-02-24T08:50:34Z</time>
      </trkpt>
      <trkpt lat="46.60208" lon="5.50879">
        <ele>404.3</ele>
        <time>2020-02-24T08:50:41Z</time>
      </trkpt>
      <trkpt lat="46.60211" lon="5.50884">
        <ele>404.6</ele>
        <time>2020-02-24T08:50:48Z</time>
      </trkpt>
      <trkpt lat="46.60216" lon="5.50888">
        <ele>404.6</ele>
        <time>2020-02-24T08:50:55Z</time>
      </trkpt>
      <trkpt lat="46.6022" lon="5.50892">
        <ele>404.6</ele>
        <time>2020-02-24T08:51:02Z</time>
      </trkpt>
      <trkpt lat="46.60229" lon="5.509">
        <ele>405.4</ele>
        <time>2020-02-24T08:51:14Z</time>
      </trkpt>
      <trkpt lat="46.60233" lon="5.50903">
        <ele>405.9</ele>
        <time>2020-02-24T08:51:18Z</time>
      </trkpt>
      <trkpt lat="46.60238" lon="5.50906">
        <ele>406.6</ele>
        <time>2020-02-24T08:51:22Z</time>
      </trkpt>
      <trkpt lat="46.60242" lon="5.50908">
        <ele>407.6</ele>
        <time>2020-02-24T08:51:27Z</time>
      </trkpt>
      <trkpt lat="46.60247" lon="5.5091">
        <ele>408.8</ele>
        <time>2020-02-24T08:51:33Z</time>
      </trkpt>
      <trkpt lat="46.60251" lon="5.50913">
        <ele>409.8</ele>
        <time>2020-02-24T08:51:38Z</time>
      </trkpt>
      <trkpt lat="46.60254" lon="5.50918">
        <ele>410.9</ele>
        <time>2020-02-24T08:51:43Z</time>
      </trkpt>
      <trkpt lat="46.60258" lon="5.50924">
        <ele>411.8</ele>
        <time>2020-02-24T08:51:48Z</time>
      </trkpt>
      <trkpt lat="46.60263" lon="5.50927">
        <ele>412.4</ele>
        <time>2020-02-24T08:51:54Z</time>
      </trkpt>
      <trkpt lat="46.60267" lon="5.50929">
        <ele>412.8</ele>
        <time>2020-02-24T08:51:59Z</time>
      </trkpt>
      <trkpt lat="46.60271" lon="5.50932">
        <ele>413.2</ele>
        <time>2020-02-24T08:52:05Z</time>
      </trkpt>
      <trkpt lat="46.60276" lon="5.50934">
        <ele>413.4</ele>
        <time>2020-02-24T08:52:10Z</time>
      </trkpt>
      <trkpt lat="46.6028" lon="5.50938">
        <ele>413.6</ele>
        <time>2020-02-24T08:52:16Z</time>
      </trkpt>
      <trkpt lat="46.60284" lon="5.50942">
        <ele>413.9</ele>
        <time>2020-02-24T08:52:20Z</time>
      </trkpt>
      <trkpt lat="46.60288" lon="5.50946">
        <ele>414.6</ele>
        <time>2020-02-24T08:52:25Z</time>
      </trkpt>
      <trkpt lat="46.6029" lon="5.50951">
        <ele>415.8</ele>
        <time>2020-02-24T08:52:32Z</time>
      </trkpt>
      <trkpt lat="46.60292" lon="5.50958">
        <ele>416.7</ele>
        <time>2020-02-24T08:52:39Z</time>
      </trkpt>
      <trkpt lat="46.6029" lon="5.50965">
        <ele>418.3</ele>
        <time>2020-02-24T08:52:50Z</time>
      </trkpt>
      <trkpt lat="46.60286" lon="5.50965">
        <ele>419.4</ele>
        <time>2020-02-24T08:53:05Z</time>
      </trkpt>
      <trkpt lat="46.60285" lon="5.50972">
        <ele>417.3</ele>
        <time>2020-02-24T08:53:25Z</time>
      </trkpt>
      <trkpt lat="46.6028" lon="5.50969">
        <ele>416.2</ele>
        <time>2020-02-24T08:53:43Z</time>
      </trkpt>
      <trkpt lat="46.60276" lon="5.50965">
        <ele>415.7</ele>
        <time>2020-02-24T08:53:50Z</time>
      </trkpt>
      <trkpt lat="46.6027" lon="5.5096">
        <ele>415.7</ele>
        <time>2020-02-24T08:53:53Z</time>
      </trkpt>
      <trkpt lat="46.60266" lon="5.50958">
        <ele>416</ele>
        <time>2020-02-24T08:53:57Z</time>
      </trkpt>
      <trkpt lat="46.6027" lon="5.50957">
        <ele>419.8</ele>
        <time>2020-02-24T08:54:55Z</time>
      </trkpt>
      <trkpt lat="46.60274" lon="5.50959">
        <ele>421.4</ele>
        <time>2020-02-24T08:55:00Z</time>
      </trkpt>
      <trkpt lat="46.60279" lon="5.50959">
        <ele>422.8</ele>
        <time>2020-02-24T08:55:05Z</time>
      </trkpt>
      <trkpt lat="46.60289" lon="5.50956">
        <ele>437.3</ele>
        <time>2020-02-24T09:02:54Z</time>
      </trkpt>
      <trkpt lat="46.60294" lon="5.50957">
        <ele>438.8</ele>
        <time>2020-02-24T09:03:05Z</time>
      </trkpt>
      <trkpt lat="46.60299" lon="5.50958">
        <ele>439.7</ele>
        <time>2020-02-24T09:03:12Z</time>
      </trkpt>
      <trkpt lat="46.60305" lon="5.50959">
        <ele>439.8</ele>
        <time>2020-02-24T09:03:18Z</time>
      </trkpt>
      <trkpt lat="46.6031" lon="5.50959">
        <ele>439.6</ele>
        <time>2020-02-24T09:03:25Z</time>
      </trkpt>
      <trkpt lat="46.60315" lon="5.50959">
        <ele>439.1</ele>
        <time>2020-02-24T09:03:31Z</time>
      </trkpt>
      <trkpt lat="46.6032" lon="5.5096">
        <ele>438.4</ele>
        <time>2020-02-24T09:03:41Z</time>
      </trkpt>
      <trkpt lat="46.60325" lon="5.5096">
        <ele>438.2</ele>
        <time>2020-02-24T09:03:47Z</time>
      </trkpt>
      <trkpt lat="46.60329" lon="5.50961">
        <ele>438</ele>
        <time>2020-02-24T09:03:52Z</time>
      </trkpt>
      <trkpt lat="46.60335" lon="5.50963">
        <ele>437.8</ele>
        <time>2020-02-24T09:03:57Z</time>
      </trkpt>
      <trkpt lat="46.60341" lon="5.50965">
        <ele>437.7</ele>
        <time>2020-02-24T09:04:00Z</time>
      </trkpt>
      <trkpt lat="46.60346" lon="5.50965">
        <ele>437.5</ele>
        <time>2020-02-24T09:04:02Z</time>
      </trkpt>
      <trkpt lat="46.60351" lon="5.50964">
        <ele>437.2</ele>
        <time>2020-02-24T09:04:05Z</time>
      </trkpt>
      <trkpt lat="46.60357" lon="5.50965">
        <ele>436.6</ele>
        <time>2020-02-24T09:04:10Z</time>
      </trkpt>
      <trkpt lat="46.60362" lon="5.50966">
        <ele>436.2</ele>
        <time>2020-02-24T09:04:13Z</time>
      </trkpt>
      <trkpt lat="46.60367" lon="5.50967">
        <ele>435.7</ele>
        <time>2020-02-24T09:04:17Z</time>
      </trkpt>
      <trkpt lat="46.60373" lon="5.50969">
        <ele>435.1</ele>
        <time>2020-02-24T09:04:22Z</time>
      </trkpt>
      <trkpt lat="46.60378" lon="5.5097">
        <ele>434.8</ele>
        <time>2020-02-24T09:04:25Z</time>
      </trkpt>
      <trkpt lat="46.60383" lon="5.50972">
        <ele>434.5</ele>
        <time>2020-02-24T09:04:29Z</time>
      </trkpt>
      <trkpt lat="46.60387" lon="5.50974">
        <ele>434</ele>
        <time>2020-02-24T09:04:34Z</time>
      </trkpt>
      <trkpt lat="46.60393" lon="5.50976">
        <ele>433.6</ele>
        <time>2020-02-24T09:04:38Z</time>
      </trkpt>
      <trkpt lat="46.60398" lon="5.50977">
        <ele>433</ele>
        <time>2020-02-24T09:04:42Z</time>
      </trkpt>
      <trkpt lat="46.60403" lon="5.50976">
        <ele>432.4</ele>
        <time>2020-02-24T09:04:48Z</time>
      </trkpt>
      <trkpt lat="46.60408" lon="5.50975">
        <ele>432</ele>
        <time>2020-02-24T09:04:53Z</time>
      </trkpt>
      <trkpt lat="46.60425" lon="5.50973">
        <ele>430.8</ele>
        <time>2020-02-24T09:05:08Z</time>
      </trkpt>
      <trkpt lat="46.60429" lon="5.50975">
        <ele>430.2</ele>
        <time>2020-02-24T09:05:12Z</time>
      </trkpt>
      <trkpt lat="46.60435" lon="5.50976">
        <ele>429.2</ele>
        <time>2020-02-24T09:05:18Z</time>
      </trkpt>
      <trkpt lat="46.60441" lon="5.50975">
        <ele>428.2</ele>
        <time>2020-02-24T09:05:24Z</time>
      </trkpt>
      <trkpt lat="46.60445" lon="5.50975">
        <ele>427.7</ele>
        <time>2020-02-24T09:05:28Z</time>
      </trkpt>
      <trkpt lat="46.60449" lon="5.50972">
        <ele>426.4</ele>
        <time>2020-02-24T09:05:35Z</time>
      </trkpt>
      <trkpt lat="46.60454" lon="5.50969">
        <ele>425.5</ele>
        <time>2020-02-24T09:05:41Z</time>
      </trkpt>
      <trkpt lat="46.60459" lon="5.50966">
        <ele>424.9</ele>
        <time>2020-02-24T09:05:47Z</time>
      </trkpt>
      <trkpt lat="46.60462" lon="5.50961">
        <ele>424.6</ele>
        <time>2020-02-24T09:05:52Z</time>
      </trkpt>
      <trkpt lat="46.60467" lon="5.50959">
        <ele>424.3</ele>
        <time>2020-02-24T09:05:57Z</time>
      </trkpt>
      <trkpt lat="46.60471" lon="5.50958">
        <ele>424.1</ele>
        <time>2020-02-24T09:06:01Z</time>
      </trkpt>
      <trkpt lat="46.60477" lon="5.50957">
        <ele>423.7</ele>
        <time>2020-02-24T09:06:07Z</time>
      </trkpt>
      <trkpt lat="46.60482" lon="5.50956">
        <ele>423.6</ele>
        <time>2020-02-24T09:06:13Z</time>
      </trkpt>
      <trkpt lat="46.60487" lon="5.50957">
        <ele>423.7</ele>
        <time>2020-02-24T09:06:18Z</time>
      </trkpt>
      <trkpt lat="46.605" lon="5.50955">
        <ele>425.3</ele>
        <time>2020-02-24T09:06:33Z</time>
      </trkpt>
      <trkpt lat="46.60513" lon="5.50957">
        <ele>425.5</ele>
        <time>2020-02-24T09:06:42Z</time>
      </trkpt>
      <trkpt lat="46.60519" lon="5.50957">
        <ele>425.3</ele>
        <time>2020-02-24T09:06:46Z</time>
      </trkpt>
      <trkpt lat="46.60524" lon="5.50956">
        <ele>424.7</ele>
        <time>2020-02-24T09:06:50Z</time>
      </trkpt>
      <trkpt lat="46.60528" lon="5.50956">
        <ele>423.8</ele>
        <time>2020-02-24T09:06:54Z</time>
      </trkpt>
      <trkpt lat="46.60533" lon="5.50955">
        <ele>422.2</ele>
        <time>2020-02-24T09:07:01Z</time>
      </trkpt>
      <trkpt lat="46.60538" lon="5.50954">
        <ele>421.3</ele>
        <time>2020-02-24T09:07:07Z</time>
      </trkpt>
      <trkpt lat="46.60542" lon="5.50953">
        <ele>420.9</ele>
        <time>2020-02-24T09:07:11Z</time>
      </trkpt>
      <trkpt lat="46.60547" lon="5.50949">
        <ele>420.2</ele>
        <time>2020-02-24T09:07:17Z</time>
      </trkpt>
      <trkpt lat="46.60552" lon="5.50946">
        <ele>419.7</ele>
        <time>2020-02-24T09:07:21Z</time>
      </trkpt>
      <trkpt lat="46.60557" lon="5.50945">
        <ele>419.2</ele>
        <time>2020-02-24T09:07:25Z</time>
      </trkpt>
      <trkpt lat="46.60562" lon="5.50943">
        <ele>418.1</ele>
        <time>2020-02-24T09:07:31Z</time>
      </trkpt>
      <trkpt lat="46.60568" lon="5.50941">
        <ele>416.8</ele>
        <time>2020-02-24T09:07:36Z</time>
      </trkpt>
      <trkpt lat="46.60573" lon="5.5094">
        <ele>415.5</ele>
        <time>2020-02-24T09:07:41Z</time>
      </trkpt>
      <trkpt lat="46.60578" lon="5.50939">
        <ele>414</ele>
        <time>2020-02-24T09:07:47Z</time>
      </trkpt>
      <trkpt lat="46.60583" lon="5.50938">
        <ele>412.5</ele>
        <time>2020-02-24T09:07:52Z</time>
      </trkpt>
      <trkpt lat="46.60589" lon="5.50937">
        <ele>411.1</ele>
        <time>2020-02-24T09:07:57Z</time>
      </trkpt>
      <trkpt lat="46.60594" lon="5.50936">
        <ele>409.9</ele>
        <time>2020-02-24T09:08:02Z</time>
      </trkpt>
      <trkpt lat="46.60599" lon="5.50936">
        <ele>408.8</ele>
        <time>2020-02-24T09:08:07Z</time>
      </trkpt>
      <trkpt lat="46.60604" lon="5.50936">
        <ele>407.6</ele>
        <time>2020-02-24T09:08:12Z</time>
      </trkpt>
      <trkpt lat="46.60608" lon="5.50932">
        <ele>405.6</ele>
        <time>2020-02-24T09:08:19Z</time>
      </trkpt>
      <trkpt lat="46.60613" lon="5.5093">
        <ele>403.7</ele>
        <time>2020-02-24T09:08:25Z</time>
      </trkpt>
      <trkpt lat="46.60618" lon="5.5093">
        <ele>402.2</ele>
        <time>2020-02-24T09:08:30Z</time>
      </trkpt>
      <trkpt lat="46.60623" lon="5.50928">
        <ele>400.2</ele>
        <time>2020-02-24T09:08:37Z</time>
      </trkpt>
      <trkpt lat="46.60628" lon="5.50926">
        <ele>399</ele>
        <time>2020-02-24T09:08:42Z</time>
      </trkpt>
      <trkpt lat="46.60634" lon="5.50927">
        <ele>398.1</ele>
        <time>2020-02-24T09:08:47Z</time>
      </trkpt>
      <trkpt lat="46.60638" lon="5.50921">
        <ele>397.5</ele>
        <time>2020-02-24T09:08:51Z</time>
      </trkpt>
      <trkpt lat="46.60642" lon="5.5092">
        <ele>396.9</ele>
        <time>2020-02-24T09:08:55Z</time>
      </trkpt>
      <trkpt lat="46.60647" lon="5.5092">
        <ele>396.3</ele>
        <time>2020-02-24T09:09:00Z</time>
      </trkpt>
      <trkpt lat="46.60652" lon="5.50918">
        <ele>395.9</ele>
        <time>2020-02-24T09:09:05Z</time>
      </trkpt>
      <trkpt lat="46.60664" lon="5.5091">
        <ele>394.2</ele>
        <time>2020-02-24T09:09:17Z</time>
      </trkpt>
      <trkpt lat="46.60669" lon="5.50909">
        <ele>393.7</ele>
        <time>2020-02-24T09:09:23Z</time>
      </trkpt>
      <trkpt lat="46.60674" lon="5.50908">
        <ele>393.3</ele>
        <time>2020-02-24T09:09:29Z</time>
      </trkpt>
      <trkpt lat="46.60678" lon="5.50906">
        <ele>392.2</ele>
        <time>2020-02-24T09:09:37Z</time>
      </trkpt>
      <trkpt lat="46.60684" lon="5.50898">
        <ele>385.4</ele>
        <time>2020-02-24T09:10:17Z</time>
      </trkpt>
      <trkpt lat="46.60688" lon="5.50894">
        <ele>385.6</ele>
        <time>2020-02-24T09:10:21Z</time>
      </trkpt>
      <trkpt lat="46.60693" lon="5.50892">
        <ele>385.7</ele>
        <time>2020-02-24T09:10:25Z</time>
      </trkpt>
      <trkpt lat="46.60697" lon="5.50889">
        <ele>385.9</ele>
        <time>2020-02-24T09:10:30Z</time>
      </trkpt>
      <trkpt lat="46.60702" lon="5.50888">
        <ele>385.7</ele>
        <time>2020-02-24T09:10:35Z</time>
      </trkpt>
      <trkpt lat="46.60707" lon="5.50885">
        <ele>384.9</ele>
        <time>2020-02-24T09:10:41Z</time>
      </trkpt>
      <trkpt lat="46.60711" lon="5.50881">
        <ele>383.7</ele>
        <time>2020-02-24T09:10:47Z</time>
      </trkpt>
      <trkpt lat="46.60715" lon="5.50877">
        <ele>382.2</ele>
        <time>2020-02-24T09:10:53Z</time>
      </trkpt>
      <trkpt lat="46.6072" lon="5.50874">
        <ele>380.6</ele>
        <time>2020-02-24T09:10:59Z</time>
      </trkpt>
      <trkpt lat="46.60751" lon="5.50858">
        <ele>370.9</ele>
        <time>2020-02-24T09:11:28Z</time>
      </trkpt>
      <trkpt lat="46.60755" lon="5.50851">
        <ele>370.2</ele>
        <time>2020-02-24T09:11:31Z</time>
      </trkpt>
      <trkpt lat="46.60757" lon="5.50845">
        <ele>369.8</ele>
        <time>2020-02-24T09:11:33Z</time>
      </trkpt>
      <trkpt lat="46.6076" lon="5.50838">
        <ele>369.2</ele>
        <time>2020-02-24T09:11:36Z</time>
      </trkpt>
      <trkpt lat="46.60763" lon="5.50832">
        <ele>368.4</ele>
        <time>2020-02-24T09:11:41Z</time>
      </trkpt>
      <trkpt lat="46.60764" lon="5.50824">
        <ele>367.8</ele>
        <time>2020-02-24T09:11:45Z</time>
      </trkpt>
      <trkpt lat="46.60764" lon="5.50817">
        <ele>367.3</ele>
        <time>2020-02-24T09:11:49Z</time>
      </trkpt>
      <trkpt lat="46.60767" lon="5.50811">
        <ele>366.2</ele>
        <time>2020-02-24T09:11:54Z</time>
      </trkpt>
      <trkpt lat="46.60769" lon="5.50805">
        <ele>365</ele>
        <time>2020-02-24T09:11:58Z</time>
      </trkpt>
      <trkpt lat="46.60772" lon="5.50799">
        <ele>363.1</ele>
        <time>2020-02-24T09:12:03Z</time>
      </trkpt>
      <trkpt lat="46.60775" lon="5.50793">
        <ele>361.4</ele>
        <time>2020-02-24T09:12:07Z</time>
      </trkpt>
      <trkpt lat="46.60778" lon="5.50787">
        <ele>359.3</ele>
        <time>2020-02-24T09:12:12Z</time>
      </trkpt>
      <trkpt lat="46.6078" lon="5.50781">
        <ele>357.7</ele>
        <time>2020-02-24T09:12:16Z</time>
      </trkpt>
      <trkpt lat="46.60783" lon="5.50774">
        <ele>356.2</ele>
        <time>2020-02-24T09:12:20Z</time>
      </trkpt>
      <trkpt lat="46.60786" lon="5.50769">
        <ele>354.5</ele>
        <time>2020-02-24T09:12:25Z</time>
      </trkpt>
      <trkpt lat="46.60788" lon="5.50763">
        <ele>352.4</ele>
        <time>2020-02-24T09:12:32Z</time>
      </trkpt>
      <trkpt lat="46.60792" lon="5.50756">
        <ele>350.9</ele>
        <time>2020-02-24T09:12:38Z</time>
      </trkpt>
      <trkpt lat="46.60794" lon="5.5075">
        <ele>350.1</ele>
        <time>2020-02-24T09:12:41Z</time>
      </trkpt>
      <trkpt lat="46.60798" lon="5.50745">
        <ele>348.9</ele>
        <time>2020-02-24T09:12:46Z</time>
      </trkpt>
      <trkpt lat="46.60802" lon="5.50742">
        <ele>347.6</ele>
        <time>2020-02-24T09:12:53Z</time>
      </trkpt>
      <trkpt lat="46.60805" lon="5.50737">
        <ele>346.6</ele>
        <time>2020-02-24T09:13:00Z</time>
      </trkpt>
      <trkpt lat="46.60809" lon="5.50733">
        <ele>346</ele>
        <time>2020-02-24T09:13:06Z</time>
      </trkpt>
      <trkpt lat="46.60812" lon="5.50728">
        <ele>345.7</ele>
        <time>2020-02-24T09:13:11Z</time>
      </trkpt>
      <trkpt lat="46.60814" lon="5.50721">
        <ele>345.3</ele>
        <time>2020-02-24T09:13:16Z</time>
      </trkpt>
      <trkpt lat="46.60819" lon="5.50718">
        <ele>344.8</ele>
        <time>2020-02-24T09:13:20Z</time>
      </trkpt>
      <trkpt lat="46.60823" lon="5.50713">
        <ele>344.3</ele>
        <time>2020-02-24T09:13:24Z</time>
      </trkpt>
      <trkpt lat="46.60827" lon="5.50708">
        <ele>343.8</ele>
        <time>2020-02-24T09:13:28Z</time>
      </trkpt>
      <trkpt lat="46.6083" lon="5.50703">
        <ele>343</ele>
        <time>2020-02-24T09:13:32Z</time>
      </trkpt>
      <trkpt lat="46.60835" lon="5.50701">
        <ele>341.8</ele>
        <time>2020-02-24T09:13:38Z</time>
      </trkpt>
      <trkpt lat="46.60841" lon="5.50702">
        <ele>340.8</ele>
        <time>2020-02-24T09:13:44Z</time>
      </trkpt>
      <trkpt lat="46.60845" lon="5.507">
        <ele>340.1</ele>
        <time>2020-02-24T09:13:48Z</time>
      </trkpt>
      <trkpt lat="46.6085" lon="5.50699">
        <ele>339.3</ele>
        <time>2020-02-24T09:13:53Z</time>
      </trkpt>
      <trkpt lat="46.60855" lon="5.50699">
        <ele>338.6</ele>
        <time>2020-02-24T09:13:58Z</time>
      </trkpt>
      <trkpt lat="46.6086" lon="5.507">
        <ele>338.2</ele>
        <time>2020-02-24T09:14:03Z</time>
      </trkpt>
      <trkpt lat="46.60865" lon="5.50701">
        <ele>337.7</ele>
        <time>2020-02-24T09:14:08Z</time>
      </trkpt>
      <trkpt lat="46.6087" lon="5.50702">
        <ele>337.3</ele>
        <time>2020-02-24T09:14:12Z</time>
      </trkpt>
      <trkpt lat="46.60875" lon="5.50702">
        <ele>336.5</ele>
        <time>2020-02-24T09:14:19Z</time>
      </trkpt>
      <trkpt lat="46.6088" lon="5.50699">
        <ele>335.9</ele>
        <time>2020-02-24T09:14:24Z</time>
      </trkpt>
      <trkpt lat="46.60884" lon="5.50696">
        <ele>335.3</ele>
        <time>2020-02-24T09:14:28Z</time>
      </trkpt>
      <trkpt lat="46.60889" lon="5.50693">
        <ele>334.3</ele>
        <time>2020-02-24T09:14:33Z</time>
      </trkpt>
      <trkpt lat="46.60894" lon="5.50691">
        <ele>333.4</ele>
        <time>2020-02-24T09:14:38Z</time>
      </trkpt>
      <trkpt lat="46.60904" lon="5.50689">
        <ele>331.6</ele>
        <time>2020-02-24T09:14:51Z</time>
      </trkpt>
      <trkpt lat="46.60908" lon="5.5069">
        <ele>331.6</ele>
        <time>2020-02-24T09:14:54Z</time>
      </trkpt>
      <trkpt lat="46.60914" lon="5.50692">
        <ele>331.5</ele>
        <time>2020-02-24T09:14:57Z</time>
      </trkpt>
      <trkpt lat="46.60918" lon="5.50694">
        <ele>331.3</ele>
        <time>2020-02-24T09:15:00Z</time>
      </trkpt>
      <trkpt lat="46.60923" lon="5.50696">
        <ele>331.1</ele>
        <time>2020-02-24T09:15:03Z</time>
      </trkpt>
      <trkpt lat="46.60928" lon="5.50695">
        <ele>330.3</ele>
        <time>2020-02-24T09:15:08Z</time>
      </trkpt>
      <trkpt lat="46.60933" lon="5.50694">
        <ele>329.5</ele>
        <time>2020-02-24T09:15:13Z</time>
      </trkpt>
      <trkpt lat="46.60937" lon="5.50692">
        <ele>329</ele>
        <time>2020-02-24T09:15:17Z</time>
      </trkpt>
      <trkpt lat="46.60941" lon="5.50689">
        <ele>328.5</ele>
        <time>2020-02-24T09:15:20Z</time>
      </trkpt>
      <trkpt lat="46.60945" lon="5.50684">
        <ele>328.1</ele>
        <time>2020-02-24T09:15:23Z</time>
      </trkpt>
      <trkpt lat="46.60948" lon="5.50679">
        <ele>327.7</ele>
        <time>2020-02-24T09:15:26Z</time>
      </trkpt>
      <trkpt lat="46.60951" lon="5.50672">
        <ele>327.4</ele>
        <time>2020-02-24T09:15:30Z</time>
      </trkpt>
      <trkpt lat="46.60953" lon="5.50665">
        <ele>327.2</ele>
        <time>2020-02-24T09:15:34Z</time>
      </trkpt>
      <trkpt lat="46.60955" lon="5.50659">
        <ele>327</ele>
        <time>2020-02-24T09:15:38Z</time>
      </trkpt>
      <trkpt lat="46.60958" lon="5.50653">
        <ele>326.7</ele>
        <time>2020-02-24T09:15:42Z</time>
      </trkpt>
      <trkpt lat="46.6096" lon="5.50646">
        <ele>326.6</ele>
        <time>2020-02-24T09:15:48Z</time>
      </trkpt>
      <trkpt lat="46.60962" lon="5.5064">
        <ele>326.4</ele>
        <time>2020-02-24T09:15:52Z</time>
      </trkpt>
      <trkpt lat="46.60965" lon="5.50634">
        <ele>326.4</ele>
        <time>2020-02-24T09:15:56Z</time>
      </trkpt>
      <trkpt lat="46.60968" lon="5.50629">
        <ele>326.6</ele>
        <time>2020-02-24T09:16:01Z</time>
      </trkpt>
      <trkpt lat="46.60971" lon="5.50623">
        <ele>327</ele>
        <time>2020-02-24T09:16:07Z</time>
      </trkpt>
      <trkpt lat="46.60975" lon="5.50619">
        <ele>327.7</ele>
        <time>2020-02-24T09:16:13Z</time>
      </trkpt>
      <trkpt lat="46.6098" lon="5.50617">
        <ele>328.6</ele>
        <time>2020-02-24T09:16:19Z</time>
      </trkpt>
      <trkpt lat="46.60984" lon="5.50614">
        <ele>329.3</ele>
        <time>2020-02-24T09:16:24Z</time>
      </trkpt>
      <trkpt lat="46.60989" lon="5.50611">
        <ele>329.7</ele>
        <time>2020-02-24T09:16:28Z</time>
      </trkpt>
      <trkpt lat="46.60993" lon="5.50608">
        <ele>329.9</ele>
        <time>2020-02-24T09:16:33Z</time>
      </trkpt>
      <trkpt lat="46.60998" lon="5.50606">
        <ele>330.2</ele>
        <time>2020-02-24T09:16:39Z</time>
      </trkpt>
      <trkpt lat="46.61002" lon="5.50604">
        <ele>330.4</ele>
        <time>2020-02-24T09:16:43Z</time>
      </trkpt>
      <trkpt lat="46.61006" lon="5.50601">
        <ele>330.6</ele>
        <time>2020-02-24T09:16:47Z</time>
      </trkpt>
      <trkpt lat="46.61011" lon="5.50597">
        <ele>330.8</ele>
        <time>2020-02-24T09:16:52Z</time>
      </trkpt>
      <trkpt lat="46.61015" lon="5.50593">
        <ele>331.1</ele>
        <time>2020-02-24T09:16:57Z</time>
      </trkpt>
      <trkpt lat="46.61019" lon="5.5059">
        <ele>331.5</ele>
        <time>2020-02-24T09:17:02Z</time>
      </trkpt>
      <trkpt lat="46.61023" lon="5.50586">
        <ele>331.8</ele>
        <time>2020-02-24T09:17:08Z</time>
      </trkpt>
      <trkpt lat="46.61027" lon="5.50582">
        <ele>332.4</ele>
        <time>2020-02-24T09:17:15Z</time>
      </trkpt>
      <trkpt lat="46.61027" lon="5.50576">
        <ele>333.5</ele>
        <time>2020-02-24T09:17:40Z</time>
      </trkpt>
      <trkpt lat="46.61031" lon="5.50577">
        <ele>334.5</ele>
        <time>2020-02-24T09:18:02Z</time>
      </trkpt>
      <trkpt lat="46.61034" lon="5.50571">
        <ele>334.4</ele>
        <time>2020-02-24T09:18:57Z</time>
      </trkpt>
      <trkpt lat="46.61039" lon="5.50567">
        <ele>334.4</ele>
        <time>2020-02-24T09:19:01Z</time>
      </trkpt>
      <trkpt lat="46.61043" lon="5.50564">
        <ele>334.5</ele>
        <time>2020-02-24T09:19:06Z</time>
      </trkpt>
      <trkpt lat="46.61047" lon="5.50561">
        <ele>334.6</ele>
        <time>2020-02-24T09:19:11Z</time>
      </trkpt>
      <trkpt lat="46.61051" lon="5.50555">
        <ele>334.4</ele>
        <time>2020-02-24T09:19:16Z</time>
      </trkpt>
      <trkpt lat="46.61055" lon="5.5055">
        <ele>334.1</ele>
        <time>2020-02-24T09:19:20Z</time>
      </trkpt>
      <trkpt lat="46.61059" lon="5.50546">
        <ele>333.9</ele>
        <time>2020-02-24T09:19:24Z</time>
      </trkpt>
      <trkpt lat="46.61064" lon="5.50543">
        <ele>333.4</ele>
        <time>2020-02-24T09:19:28Z</time>
      </trkpt>
      <trkpt lat="46.61067" lon="5.50539">
        <ele>332.9</ele>
        <time>2020-02-24T09:19:32Z</time>
      </trkpt>
      <trkpt lat="46.61071" lon="5.50535">
        <ele>332.4</ele>
        <time>2020-02-24T09:19:36Z</time>
      </trkpt>
      <trkpt lat="46.61075" lon="5.50531">
        <ele>331.8</ele>
        <time>2020-02-24T09:19:41Z</time>
      </trkpt>
      <trkpt lat="46.6108" lon="5.50531">
        <ele>331.1</ele>
        <time>2020-02-24T09:19:48Z</time>
      </trkpt>
      <trkpt lat="46.61084" lon="5.50529">
        <ele>330.7</ele>
        <time>2020-02-24T09:19:53Z</time>
      </trkpt>
      <trkpt lat="46.61089" lon="5.50526">
        <ele>330.2</ele>
        <time>2020-02-24T09:19:58Z</time>
      </trkpt>
      <trkpt lat="46.61094" lon="5.50522">
        <ele>329.8</ele>
        <time>2020-02-24T09:20:02Z</time>
      </trkpt>
      <trkpt lat="46.61098" lon="5.50519">
        <ele>329.2</ele>
        <time>2020-02-24T09:20:08Z</time>
      </trkpt>
      <trkpt lat="46.61102" lon="5.50513">
        <ele>327.9</ele>
        <time>2020-02-24T09:20:14Z</time>
      </trkpt>
      <trkpt lat="46.61104" lon="5.50506">
        <ele>326.5</ele>
        <time>2020-02-24T09:20:18Z</time>
      </trkpt>
      <trkpt lat="46.61104" lon="5.50499">
        <ele>324.9</ele>
        <time>2020-02-24T09:20:22Z</time>
      </trkpt>
      <trkpt lat="46.61107" lon="5.50493">
        <ele>322.5</ele>
        <time>2020-02-24T09:20:28Z</time>
      </trkpt>
      <trkpt lat="46.6111" lon="5.50487">
        <ele>320.8</ele>
        <time>2020-02-24T09:20:32Z</time>
      </trkpt>
      <trkpt lat="46.61112" lon="5.5048">
        <ele>319.6</ele>
        <time>2020-02-24T09:20:35Z</time>
      </trkpt>
      <trkpt lat="46.61119" lon="5.50465">
        <ele>313.9</ele>
        <time>2020-02-24T09:20:46Z</time>
      </trkpt>
      <trkpt lat="46.61123" lon="5.50461">
        <ele>312.7</ele>
        <time>2020-02-24T09:20:50Z</time>
      </trkpt>
      <trkpt lat="46.61127" lon="5.50457">
        <ele>311.6</ele>
        <time>2020-02-24T09:20:54Z</time>
      </trkpt>
      <trkpt lat="46.61129" lon="5.50451">
        <ele>310.9</ele>
        <time>2020-02-24T09:20:57Z</time>
      </trkpt>
      <trkpt lat="46.61132" lon="5.50445">
        <ele>310</ele>
        <time>2020-02-24T09:21:01Z</time>
      </trkpt>
      <trkpt lat="46.61135" lon="5.50439">
        <ele>309.4</ele>
        <time>2020-02-24T09:21:06Z</time>
      </trkpt>
      <trkpt lat="46.61137" lon="5.50434">
        <ele>309.3</ele>
        <time>2020-02-24T09:21:09Z</time>
      </trkpt>
      <trkpt lat="46.6114" lon="5.50428">
        <ele>309</ele>
        <time>2020-02-24T09:21:13Z</time>
      </trkpt>
      <trkpt lat="46.61143" lon="5.50422">
        <ele>308</ele>
        <time>2020-02-24T09:21:19Z</time>
      </trkpt>
      <trkpt lat="46.61145" lon="5.50415">
        <ele>306.7</ele>
        <time>2020-02-24T09:21:24Z</time>
      </trkpt>
      <trkpt lat="46.61148" lon="5.50408">
        <ele>305.4</ele>
        <time>2020-02-24T09:21:29Z</time>
      </trkpt>
      <trkpt lat="46.6115" lon="5.50401">
        <ele>304.6</ele>
        <time>2020-02-24T09:21:34Z</time>
      </trkpt>
      <trkpt lat="46.61152" lon="5.50394">
        <ele>304</ele>
        <time>2020-02-24T09:21:38Z</time>
      </trkpt>
      <trkpt lat="46.61153" lon="5.50387">
        <ele>303.4</ele>
        <time>2020-02-24T09:21:41Z</time>
      </trkpt>
      <trkpt lat="46.61156" lon="5.5038">
        <ele>302.7</ele>
        <time>2020-02-24T09:21:46Z</time>
      </trkpt>
      <trkpt lat="46.61158" lon="5.50374">
        <ele>302.3</ele>
        <time>2020-02-24T09:21:50Z</time>
      </trkpt>
      <trkpt lat="46.6116" lon="5.50367">
        <ele>301.8</ele>
        <time>2020-02-24T09:21:55Z</time>
      </trkpt>
      <trkpt lat="46.61163" lon="5.50361">
        <ele>301.6</ele>
        <time>2020-02-24T09:21:59Z</time>
      </trkpt>
      <trkpt lat="46.61165" lon="5.50354">
        <ele>301.3</ele>
        <time>2020-02-24T09:22:03Z</time>
      </trkpt>
      <trkpt lat="46.61166" lon="5.50346">
        <ele>301</ele>
        <time>2020-02-24T09:22:07Z</time>
      </trkpt>
      <trkpt lat="46.61168" lon="5.50339">
        <ele>300.9</ele>
        <time>2020-02-24T09:22:11Z</time>
      </trkpt>
      <trkpt lat="46.6117" lon="5.50331">
        <ele>300.9</ele>
        <time>2020-02-24T09:22:15Z</time>
      </trkpt>
      <trkpt lat="46.61173" lon="5.50325">
        <ele>301.1</ele>
        <time>2020-02-24T09:22:19Z</time>
      </trkpt>
      <trkpt lat="46.61176" lon="5.50319">
        <ele>301.5</ele>
        <time>2020-02-24T09:22:23Z</time>
      </trkpt>
      <trkpt lat="46.6118" lon="5.50314">
        <ele>302</ele>
        <time>2020-02-24T09:22:27Z</time>
      </trkpt>
      <trkpt lat="46.61183" lon="5.50309">
        <ele>302.4</ele>
        <time>2020-02-24T09:22:30Z</time>
      </trkpt>
      <trkpt lat="46.61186" lon="5.50304">
        <ele>302.8</ele>
        <time>2020-02-24T09:22:33Z</time>
      </trkpt>
      <trkpt lat="46.6119" lon="5.50297">
        <ele>303.6</ele>
        <time>2020-02-24T09:22:37Z</time>
      </trkpt>
      <trkpt lat="46.61193" lon="5.5029">
        <ele>304.5</ele>
        <time>2020-02-24T09:22:41Z</time>
      </trkpt>
      <trkpt lat="46.61197" lon="5.50284">
        <ele>305.4</ele>
        <time>2020-02-24T09:22:45Z</time>
      </trkpt>
      <trkpt lat="46.61202" lon="5.50281">
        <ele>306.2</ele>
        <time>2020-02-24T09:22:49Z</time>
      </trkpt>
      <trkpt lat="46.61206" lon="5.50279">
        <ele>307</ele>
        <time>2020-02-24T09:22:53Z</time>
      </trkpt>
      <trkpt lat="46.61211" lon="5.50277">
        <ele>307.6</ele>
        <time>2020-02-24T09:22:57Z</time>
      </trkpt>
      <trkpt lat="46.61215" lon="5.50274">
        <ele>308.1</ele>
        <time>2020-02-24T09:23:01Z</time>
      </trkpt>
      <trkpt lat="46.61219" lon="5.50269">
        <ele>308.3</ele>
        <time>2020-02-24T09:23:06Z</time>
      </trkpt>
      <trkpt lat="46.61224" lon="5.50266">
        <ele>308.4</ele>
        <time>2020-02-24T09:23:10Z</time>
      </trkpt>
      <trkpt lat="46.61238" lon="5.50259">
        <ele>308.9</ele>
        <time>2020-02-24T09:23:22Z</time>
      </trkpt>
      <trkpt lat="46.61243" lon="5.50258">
        <ele>308.8</ele>
        <time>2020-02-24T09:23:26Z</time>
      </trkpt>
      <trkpt lat="46.61247" lon="5.50255">
        <ele>308.6</ele>
        <time>2020-02-24T09:23:30Z</time>
      </trkpt>
      <trkpt lat="46.61252" lon="5.50253">
        <ele>308.4</ele>
        <time>2020-02-24T09:23:34Z</time>
      </trkpt>
      <trkpt lat="46.61257" lon="5.50254">
        <ele>308.1</ele>
        <time>2020-02-24T09:23:39Z</time>
      </trkpt>
      <trkpt lat="46.61262" lon="5.50255">
        <ele>307.8</ele>
        <time>2020-02-24T09:23:44Z</time>
      </trkpt>
      <trkpt lat="46.61267" lon="5.50252">
        <ele>307.6</ele>
        <time>2020-02-24T09:23:49Z</time>
      </trkpt>
      <trkpt lat="46.61271" lon="5.50249">
        <ele>307.5</ele>
        <time>2020-02-24T09:23:53Z</time>
      </trkpt>
      <trkpt lat="46.61277" lon="5.50246">
        <ele>307.3</ele>
        <time>2020-02-24T09:23:56Z</time>
      </trkpt>
      <trkpt lat="46.61281" lon="5.50242">
        <ele>307.1</ele>
        <time>2020-02-24T09:23:59Z</time>
      </trkpt>
      <trkpt lat="46.61286" lon="5.50238">
        <ele>307</ele>
        <time>2020-02-24T09:24:03Z</time>
      </trkpt>
      <trkpt lat="46.61291" lon="5.50238">
        <ele>306.7</ele>
        <time>2020-02-24T09:24:09Z</time>
      </trkpt>
      <trkpt lat="46.61296" lon="5.50237">
        <ele>306.5</ele>
        <time>2020-02-24T09:24:15Z</time>
      </trkpt>
      <trkpt lat="46.613" lon="5.50239">
        <ele>306.2</ele>
        <time>2020-02-24T09:24:19Z</time>
      </trkpt>
      <trkpt lat="46.61305" lon="5.5024">
        <ele>305.8</ele>
        <time>2020-02-24T09:24:23Z</time>
      </trkpt>
      <trkpt lat="46.6131" lon="5.5024">
        <ele>305.6</ele>
        <time>2020-02-24T09:24:26Z</time>
      </trkpt>
      <trkpt lat="46.61314" lon="5.50243">
        <ele>305.3</ele>
        <time>2020-02-24T09:24:29Z</time>
      </trkpt>
      <trkpt lat="46.61318" lon="5.50246">
        <ele>304.7</ele>
        <time>2020-02-24T09:24:33Z</time>
      </trkpt>
      <trkpt lat="46.61323" lon="5.50248">
        <ele>303.8</ele>
        <time>2020-02-24T09:24:37Z</time>
      </trkpt>
      <trkpt lat="46.61327" lon="5.50251">
        <ele>303</ele>
        <time>2020-02-24T09:24:41Z</time>
      </trkpt>
      <trkpt lat="46.61332" lon="5.50253">
        <ele>302.2</ele>
        <time>2020-02-24T09:24:45Z</time>
      </trkpt>
      <trkpt lat="46.61336" lon="5.50254">
        <ele>301.3</ele>
        <time>2020-02-24T09:24:50Z</time>
      </trkpt>
      <trkpt lat="46.61341" lon="5.50254">
        <ele>300.1</ele>
        <time>2020-02-24T09:24:57Z</time>
      </trkpt>
      <trkpt lat="46.61345" lon="5.50255">
        <ele>299.7</ele>
        <time>2020-02-24T09:25:01Z</time>
      </trkpt>
      <trkpt lat="46.61351" lon="5.50255">
        <ele>299.4</ele>
        <time>2020-02-24T09:25:04Z</time>
      </trkpt>
      <trkpt lat="46.61356" lon="5.50256">
        <ele>299.1</ele>
        <time>2020-02-24T09:25:07Z</time>
      </trkpt>
      <trkpt lat="46.6136" lon="5.50257">
        <ele>298.8</ele>
        <time>2020-02-24T09:25:11Z</time>
      </trkpt>
      <trkpt lat="46.61365" lon="5.50257">
        <ele>298.4</ele>
        <time>2020-02-24T09:25:17Z</time>
      </trkpt>
      <trkpt lat="46.61371" lon="5.50257">
        <ele>297.9</ele>
        <time>2020-02-24T09:25:23Z</time>
      </trkpt>
      <trkpt lat="46.61385" lon="5.50253">
        <ele>296.7</ele>
        <time>2020-02-24T09:25:33Z</time>
      </trkpt>
      <trkpt lat="46.6139" lon="5.5025">
        <ele>296.4</ele>
        <time>2020-02-24T09:25:39Z</time>
      </trkpt>
      <trkpt lat="46.61396" lon="5.50247">
        <ele>295.9</ele>
        <time>2020-02-24T09:25:43Z</time>
      </trkpt>
      <trkpt lat="46.61401" lon="5.50245">
        <ele>295.4</ele>
        <time>2020-02-24T09:25:47Z</time>
      </trkpt>
      <trkpt lat="46.61405" lon="5.50242">
        <ele>295</ele>
        <time>2020-02-24T09:25:51Z</time>
      </trkpt>
      <trkpt lat="46.6141" lon="5.50239">
        <ele>294.4</ele>
        <time>2020-02-24T09:25:57Z</time>
      </trkpt>
      <trkpt lat="46.61415" lon="5.50237">
        <ele>293.9</ele>
        <time>2020-02-24T09:26:02Z</time>
      </trkpt>
      <trkpt lat="46.61421" lon="5.50236">
        <ele>293.6</ele>
        <time>2020-02-24T09:26:06Z</time>
      </trkpt>
      <trkpt lat="46.61426" lon="5.50236">
        <ele>293.2</ele>
        <time>2020-02-24T09:26:11Z</time>
      </trkpt>
      <trkpt lat="46.61431" lon="5.50235">
        <ele>293.1</ele>
        <time>2020-02-24T09:26:16Z</time>
      </trkpt>
      <trkpt lat="46.61437" lon="5.50234">
        <ele>293</ele>
        <time>2020-02-24T09:26:20Z</time>
      </trkpt>
      <trkpt lat="46.61442" lon="5.50232">
        <ele>293</ele>
        <time>2020-02-24T09:26:24Z</time>
      </trkpt>
      <trkpt lat="46.61447" lon="5.50231">
        <ele>293.1</ele>
        <time>2020-02-24T09:26:28Z</time>
      </trkpt>
      <trkpt lat="46.61452" lon="5.50229">
        <ele>293.1</ele>
        <time>2020-02-24T09:26:32Z</time>
      </trkpt>
      <trkpt lat="46.61457" lon="5.50227">
        <ele>293.3</ele>
        <time>2020-02-24T09:26:36Z</time>
      </trkpt>
      <trkpt lat="46.61461" lon="5.50225">
        <ele>293.2</ele>
        <time>2020-02-24T09:26:40Z</time>
      </trkpt>
      <trkpt lat="46.61466" lon="5.50224">
        <ele>292.9</ele>
        <time>2020-02-24T09:26:44Z</time>
      </trkpt>
      <trkpt lat="46.61472" lon="5.50224">
        <ele>292.6</ele>
        <time>2020-02-24T09:26:48Z</time>
      </trkpt>
      <trkpt lat="46.61477" lon="5.50222">
        <ele>292.5</ele>
        <time>2020-02-24T09:26:52Z</time>
      </trkpt>
      <trkpt lat="46.61482" lon="5.50221">
        <ele>292.5</ele>
        <time>2020-02-24T09:26:57Z</time>
      </trkpt>
      <trkpt lat="46.61487" lon="5.50219">
        <ele>292.5</ele>
        <time>2020-02-24T09:27:01Z</time>
      </trkpt>
      <trkpt lat="46.61491" lon="5.50216">
        <ele>292.5</ele>
        <time>2020-02-24T09:27:05Z</time>
      </trkpt>
      <trkpt lat="46.61495" lon="5.50213">
        <ele>292.5</ele>
        <time>2020-02-24T09:27:09Z</time>
      </trkpt>
      <trkpt lat="46.615" lon="5.50212">
        <ele>292.5</ele>
        <time>2020-02-24T09:27:13Z</time>
      </trkpt>
      <trkpt lat="46.61505" lon="5.50211">
        <ele>292.4</ele>
        <time>2020-02-24T09:27:17Z</time>
      </trkpt>
      <trkpt lat="46.6151" lon="5.5021">
        <ele>292.5</ele>
        <time>2020-02-24T09:27:22Z</time>
      </trkpt>
      <trkpt lat="46.61515" lon="5.50209">
        <ele>292.8</ele>
        <time>2020-02-24T09:27:27Z</time>
      </trkpt>
      <trkpt lat="46.6152" lon="5.50207">
        <ele>293</ele>
        <time>2020-02-24T09:27:31Z</time>
      </trkpt>
      <trkpt lat="46.61525" lon="5.50206">
        <ele>293.1</ele>
        <time>2020-02-24T09:27:34Z</time>
      </trkpt>
      <trkpt lat="46.6153" lon="5.50204">
        <ele>293.2</ele>
        <time>2020-02-24T09:27:38Z</time>
      </trkpt>
      <trkpt lat="46.61535" lon="5.50202">
        <ele>293.2</ele>
        <time>2020-02-24T09:27:42Z</time>
      </trkpt>
      <trkpt lat="46.6154" lon="5.502">
        <ele>293.5</ele>
        <time>2020-02-24T09:27:47Z</time>
      </trkpt>
      <trkpt lat="46.61545" lon="5.50198">
        <ele>293.3</ele>
        <time>2020-02-24T09:27:52Z</time>
      </trkpt>
      <trkpt lat="46.6155" lon="5.50195">
        <ele>293.1</ele>
        <time>2020-02-24T09:27:56Z</time>
      </trkpt>
      <trkpt lat="46.61555" lon="5.50191">
        <ele>292.8</ele>
        <time>2020-02-24T09:28:00Z</time>
      </trkpt>
      <trkpt lat="46.6156" lon="5.50188">
        <ele>292.4</ele>
        <time>2020-02-24T09:28:04Z</time>
      </trkpt>
      <trkpt lat="46.61566" lon="5.50187">
        <ele>292</ele>
        <time>2020-02-24T09:28:09Z</time>
      </trkpt>
      <trkpt lat="46.6157" lon="5.50186">
        <ele>291.7</ele>
        <time>2020-02-24T09:28:12Z</time>
      </trkpt>
      <trkpt lat="46.61575" lon="5.50185">
        <ele>291.4</ele>
        <time>2020-02-24T09:28:16Z</time>
      </trkpt>
      <trkpt lat="46.6158" lon="5.50185">
        <ele>291.2</ele>
        <time>2020-02-24T09:28:20Z</time>
      </trkpt>
      <trkpt lat="46.61584" lon="5.50186">
        <ele>291</ele>
        <time>2020-02-24T09:28:24Z</time>
      </trkpt>
      <trkpt lat="46.6159" lon="5.50185">
        <ele>290.7</ele>
        <time>2020-02-24T09:28:29Z</time>
      </trkpt>
      <trkpt lat="46.61595" lon="5.50184">
        <ele>290.4</ele>
        <time>2020-02-24T09:28:33Z</time>
      </trkpt>
      <trkpt lat="46.61599" lon="5.50182">
        <ele>289.7</ele>
        <time>2020-02-24T09:28:37Z</time>
      </trkpt>
      <trkpt lat="46.61605" lon="5.5018">
        <ele>289</ele>
        <time>2020-02-24T09:28:41Z</time>
      </trkpt>
      <trkpt lat="46.6161" lon="5.50178">
        <ele>288.5</ele>
        <time>2020-02-24T09:28:44Z</time>
      </trkpt>
      <trkpt lat="46.61615" lon="5.50176">
        <ele>288</ele>
        <time>2020-02-24T09:28:48Z</time>
      </trkpt>
      <trkpt lat="46.6162" lon="5.50174">
        <ele>287.5</ele>
        <time>2020-02-24T09:28:52Z</time>
      </trkpt>
      <trkpt lat="46.61626" lon="5.50173">
        <ele>287.2</ele>
        <time>2020-02-24T09:28:56Z</time>
      </trkpt>
      <trkpt lat="46.61632" lon="5.50171">
        <ele>287.2</ele>
        <time>2020-02-24T09:29:00Z</time>
      </trkpt>
      <trkpt lat="46.61637" lon="5.50171">
        <ele>287.3</ele>
        <time>2020-02-24T09:29:04Z</time>
      </trkpt>
      <trkpt lat="46.61642" lon="5.50168">
        <ele>287.4</ele>
        <time>2020-02-24T09:29:10Z</time>
      </trkpt>
      <trkpt lat="46.61647" lon="5.50167">
        <ele>287.4</ele>
        <time>2020-02-24T09:29:16Z</time>
      </trkpt>
      <trkpt lat="46.61652" lon="5.50165">
        <ele>287.4</ele>
        <time>2020-02-24T09:29:20Z</time>
      </trkpt>
      <trkpt lat="46.61657" lon="5.50163">
        <ele>287.3</ele>
        <time>2020-02-24T09:29:23Z</time>
      </trkpt>
      <trkpt lat="46.61662" lon="5.50161">
        <ele>287.3</ele>
        <time>2020-02-24T09:29:26Z</time>
      </trkpt>
      <trkpt lat="46.61667" lon="5.50158">
        <ele>287.3</ele>
        <time>2020-02-24T09:29:30Z</time>
      </trkpt>
      <trkpt lat="46.61671" lon="5.50155">
        <ele>287.2</ele>
        <time>2020-02-24T09:29:35Z</time>
      </trkpt>
      <trkpt lat="46.61676" lon="5.50154">
        <ele>287</ele>
        <time>2020-02-24T09:29:39Z</time>
      </trkpt>
      <trkpt lat="46.61681" lon="5.50154">
        <ele>287</ele>
        <time>2020-02-24T09:29:43Z</time>
      </trkpt>
      <trkpt lat="46.61686" lon="5.50154">
        <ele>287</ele>
        <time>2020-02-24T09:29:47Z</time>
      </trkpt>
      <trkpt lat="46.61691" lon="5.50155">
        <ele>287.1</ele>
        <time>2020-02-24T09:29:51Z</time>
      </trkpt>
      <trkpt lat="46.61697" lon="5.50155">
        <ele>287.1</ele>
        <time>2020-02-24T09:29:54Z</time>
      </trkpt>
      <trkpt lat="46.61702" lon="5.50155">
        <ele>287.2</ele>
        <time>2020-02-24T09:29:58Z</time>
      </trkpt>
      <trkpt lat="46.61707" lon="5.50153">
        <ele>287.3</ele>
        <time>2020-02-24T09:30:03Z</time>
      </trkpt>
      <trkpt lat="46.61711" lon="5.50149">
        <ele>287.3</ele>
        <time>2020-02-24T09:30:07Z</time>
      </trkpt>
      <trkpt lat="46.61716" lon="5.50146">
        <ele>287.3</ele>
        <time>2020-02-24T09:30:11Z</time>
      </trkpt>
      <trkpt lat="46.61721" lon="5.50145">
        <ele>287.2</ele>
        <time>2020-02-24T09:30:15Z</time>
      </trkpt>
      <trkpt lat="46.61726" lon="5.50147">
        <ele>287.1</ele>
        <time>2020-02-24T09:30:20Z</time>
      </trkpt>
      <trkpt lat="46.61731" lon="5.50146">
        <ele>286.9</ele>
        <time>2020-02-24T09:30:24Z</time>
      </trkpt>
      <trkpt lat="46.61736" lon="5.50144">
        <ele>286.7</ele>
        <time>2020-02-24T09:30:29Z</time>
      </trkpt>
      <trkpt lat="46.61741" lon="5.50144">
        <ele>286.6</ele>
        <time>2020-02-24T09:30:33Z</time>
      </trkpt>
      <trkpt lat="46.61746" lon="5.50144">
        <ele>286.6</ele>
        <time>2020-02-24T09:30:36Z</time>
      </trkpt>
      <trkpt lat="46.61752" lon="5.50144">
        <ele>286.5</ele>
        <time>2020-02-24T09:30:40Z</time>
      </trkpt>
      <trkpt lat="46.61757" lon="5.50143">
        <ele>286.3</ele>
        <time>2020-02-24T09:30:45Z</time>
      </trkpt>
      <trkpt lat="46.61761" lon="5.50143">
        <ele>286.2</ele>
        <time>2020-02-24T09:30:49Z</time>
      </trkpt>
      <trkpt lat="46.61767" lon="5.50144">
        <ele>286.1</ele>
        <time>2020-02-24T09:30:53Z</time>
      </trkpt>
      <trkpt lat="46.61772" lon="5.50142">
        <ele>286</ele>
        <time>2020-02-24T09:30:57Z</time>
      </trkpt>
      <trkpt lat="46.61777" lon="5.50141">
        <ele>286.2</ele>
        <time>2020-02-24T09:31:02Z</time>
      </trkpt>
      <trkpt lat="46.61781" lon="5.50139">
        <ele>286.6</ele>
        <time>2020-02-24T09:31:06Z</time>
      </trkpt>
      <trkpt lat="46.61786" lon="5.50136">
        <ele>287.1</ele>
        <time>2020-02-24T09:31:12Z</time>
      </trkpt>
      <trkpt lat="46.6179" lon="5.50131">
        <ele>287.5</ele>
        <time>2020-02-24T09:31:16Z</time>
      </trkpt>
      <trkpt lat="46.61791" lon="5.50123">
        <ele>288</ele>
        <time>2020-02-24T09:31:21Z</time>
      </trkpt>
      <trkpt lat="46.61789" lon="5.50115">
        <ele>288.3</ele>
        <time>2020-02-24T09:31:25Z</time>
      </trkpt>
      <trkpt lat="46.61787" lon="5.50108">
        <ele>288.4</ele>
        <time>2020-02-24T09:31:29Z</time>
      </trkpt>
      <trkpt lat="46.61785" lon="5.50102">
        <ele>288.3</ele>
        <time>2020-02-24T09:31:34Z</time>
      </trkpt>
      <trkpt lat="46.61782" lon="5.50095">
        <ele>288.2</ele>
        <time>2020-02-24T09:31:39Z</time>
      </trkpt>
      <trkpt lat="46.61779" lon="5.50089">
        <ele>287.7</ele>
        <time>2020-02-24T09:31:45Z</time>
      </trkpt>
      <trkpt lat="46.61777" lon="5.50083">
        <ele>287.4</ele>
        <time>2020-02-24T09:31:50Z</time>
      </trkpt>
      <trkpt lat="46.61775" lon="5.50077">
        <ele>287</ele>
        <time>2020-02-24T09:31:54Z</time>
      </trkpt>
      <trkpt lat="46.61772" lon="5.50071">
        <ele>286.6</ele>
        <time>2020-02-24T09:31:58Z</time>
      </trkpt>
      <trkpt lat="46.61768" lon="5.50066">
        <ele>286.2</ele>
        <time>2020-02-24T09:32:02Z</time>
      </trkpt>
      <trkpt lat="46.61765" lon="5.50061">
        <ele>285.8</ele>
        <time>2020-02-24T09:32:06Z</time>
      </trkpt>
      <trkpt lat="46.61762" lon="5.50054">
        <ele>285.4</ele>
        <time>2020-02-24T09:32:10Z</time>
      </trkpt>
      <trkpt lat="46.61759" lon="5.50048">
        <ele>285.1</ele>
        <time>2020-02-24T09:32:15Z</time>
      </trkpt>
      <trkpt lat="46.61757" lon="5.50042">
        <ele>284.8</ele>
        <time>2020-02-24T09:32:22Z</time>
      </trkpt>
      <trkpt lat="46.61754" lon="5.50036">
        <ele>284.6</ele>
        <time>2020-02-24T09:32:27Z</time>
      </trkpt>
      <trkpt lat="46.61753" lon="5.50028">
        <ele>284.5</ele>
        <time>2020-02-24T09:32:31Z</time>
      </trkpt>
      <trkpt lat="46.61754" lon="5.50021">
        <ele>284.3</ele>
        <time>2020-02-24T09:32:36Z</time>
      </trkpt>
      <trkpt lat="46.61752" lon="5.50013">
        <ele>284</ele>
        <time>2020-02-24T09:32:42Z</time>
      </trkpt>
      <trkpt lat="46.61753" lon="5.50007">
        <ele>283.7</ele>
        <time>2020-02-24T09:32:48Z</time>
      </trkpt>
      <trkpt lat="46.61753" lon="5.49998">
        <ele>283.5</ele>
        <time>2020-02-24T09:32:53Z</time>
      </trkpt>
      <trkpt lat="46.61753" lon="5.49991">
        <ele>283.4</ele>
        <time>2020-02-24T09:32:58Z</time>
      </trkpt>
      <trkpt lat="46.61755" lon="5.49985">
        <ele>283.7</ele>
        <time>2020-02-24T09:33:04Z</time>
      </trkpt>
      <trkpt lat="46.61757" lon="5.49978">
        <ele>284.3</ele>
        <time>2020-02-24T09:33:10Z</time>
      </trkpt>
      <trkpt lat="46.61759" lon="5.49972">
        <ele>285.4</ele>
        <time>2020-02-24T09:33:18Z</time>
      </trkpt>
      <trkpt lat="46.61761" lon="5.49966">
        <ele>286.2</ele>
        <time>2020-02-24T09:33:23Z</time>
      </trkpt>
      <trkpt lat="46.61765" lon="5.49959">
        <ele>287.5</ele>
        <time>2020-02-24T09:33:29Z</time>
      </trkpt>
      <trkpt lat="46.61767" lon="5.49953">
        <ele>288.4</ele>
        <time>2020-02-24T09:33:33Z</time>
      </trkpt>
      <trkpt lat="46.61771" lon="5.49949">
        <ele>290.1</ele>
        <time>2020-02-24T09:33:41Z</time>
      </trkpt>
      <trkpt lat="46.61775" lon="5.49945">
        <ele>291.2</ele>
        <time>2020-02-24T09:33:47Z</time>
      </trkpt>
      <trkpt lat="46.6178" lon="5.49943">
        <ele>292.1</ele>
        <time>2020-02-24T09:33:53Z</time>
      </trkpt>
      <trkpt lat="46.61785" lon="5.49943">
        <ele>292.8</ele>
        <time>2020-02-24T09:34:00Z</time>
      </trkpt>
      <trkpt lat="46.6179" lon="5.49944">
        <ele>293</ele>
        <time>2020-02-24T09:34:05Z</time>
      </trkpt>
      <trkpt lat="46.61795" lon="5.49945">
        <ele>293</ele>
        <time>2020-02-24T09:34:09Z</time>
      </trkpt>
      <trkpt lat="46.618" lon="5.49948">
        <ele>292.8</ele>
        <time>2020-02-24T09:34:13Z</time>
      </trkpt>
      <trkpt lat="46.61804" lon="5.49949">
        <ele>292.5</ele>
        <time>2020-02-24T09:34:19Z</time>
      </trkpt>
      <trkpt lat="46.61809" lon="5.49948">
        <ele>292.1</ele>
        <time>2020-02-24T09:34:27Z</time>
      </trkpt>
      <trkpt lat="46.61814" lon="5.49949">
        <ele>292.1</ele>
        <time>2020-02-24T09:34:31Z</time>
      </trkpt>
      <trkpt lat="46.61819" lon="5.4995">
        <ele>292.1</ele>
        <time>2020-02-24T09:34:36Z</time>
      </trkpt>
      <trkpt lat="46.61824" lon="5.49952">
        <ele>292.1</ele>
        <time>2020-02-24T09:34:43Z</time>
      </trkpt>
      <trkpt lat="46.61829" lon="5.49952">
        <ele>291.9</ele>
        <time>2020-02-24T09:34:49Z</time>
      </trkpt>
      <trkpt lat="46.61835" lon="5.49954">
        <ele>291.7</ele>
        <time>2020-02-24T09:34:55Z</time>
      </trkpt>
      <trkpt lat="46.6184" lon="5.49955">
        <ele>291.6</ele>
        <time>2020-02-24T09:34:59Z</time>
      </trkpt>
      <trkpt lat="46.61845" lon="5.49955">
        <ele>291.5</ele>
        <time>2020-02-24T09:35:03Z</time>
      </trkpt>
      <trkpt lat="46.6185" lon="5.49956">
        <ele>291.6</ele>
        <time>2020-02-24T09:35:08Z</time>
      </trkpt>
      <trkpt lat="46.61855" lon="5.49955">
        <ele>291.8</ele>
        <time>2020-02-24T09:35:13Z</time>
      </trkpt>
      <trkpt lat="46.61859" lon="5.49952">
        <ele>291.9</ele>
        <time>2020-02-24T09:35:18Z</time>
      </trkpt>
      <trkpt lat="46.6186" lon="5.49945">
        <ele>291.8</ele>
        <time>2020-02-24T09:35:23Z</time>
      </trkpt>
      <trkpt lat="46.61857" lon="5.4994">
        <ele>291.8</ele>
        <time>2020-02-24T09:35:27Z</time>
      </trkpt>
      <trkpt lat="46.61854" lon="5.49934">
        <ele>291.9</ele>
        <time>2020-02-24T09:35:32Z</time>
      </trkpt>
      <trkpt lat="46.6185" lon="5.4993">
        <ele>292</ele>
        <time>2020-02-24T09:35:37Z</time>
      </trkpt>
      <trkpt lat="46.61846" lon="5.49926">
        <ele>292.1</ele>
        <time>2020-02-24T09:35:42Z</time>
      </trkpt>
      <trkpt lat="46.61842" lon="5.4992">
        <ele>292.2</ele>
        <time>2020-02-24T09:35:48Z</time>
      </trkpt>
      <trkpt lat="46.61838" lon="5.49916">
        <ele>292.4</ele>
        <time>2020-02-24T09:35:53Z</time>
      </trkpt>
      <trkpt lat="46.61834" lon="5.49911">
        <ele>292.5</ele>
        <time>2020-02-24T09:35:57Z</time>
      </trkpt>
      <trkpt lat="46.6183" lon="5.49906">
        <ele>292.8</ele>
        <time>2020-02-24T09:36:03Z</time>
      </trkpt>
      <trkpt lat="46.61826" lon="5.49901">
        <ele>293</ele>
        <time>2020-02-24T09:36:08Z</time>
      </trkpt>
      <trkpt lat="46.61823" lon="5.49897">
        <ele>293.4</ele>
        <time>2020-02-24T09:36:13Z</time>
      </trkpt>
      <trkpt lat="46.6182" lon="5.49891">
        <ele>294.1</ele>
        <time>2020-02-24T09:36:19Z</time>
      </trkpt>
      <trkpt lat="46.61818" lon="5.49885">
        <ele>294.8</ele>
        <time>2020-02-24T09:36:24Z</time>
      </trkpt>
      <trkpt lat="46.61819" lon="5.49878">
        <ele>296.7</ele>
        <time>2020-02-24T09:36:33Z</time>
      </trkpt>
      <trkpt lat="46.61818" lon="5.49871">
        <ele>298.4</ele>
        <time>2020-02-24T09:36:41Z</time>
      </trkpt>
      <trkpt lat="46.61818" lon="5.49863">
        <ele>299.4</ele>
        <time>2020-02-24T09:36:46Z</time>
      </trkpt>
      <trkpt lat="46.61818" lon="5.49855">
        <ele>300</ele>
        <time>2020-02-24T09:36:49Z</time>
      </trkpt>
      <trkpt lat="46.61818" lon="5.49848">
        <ele>300.6</ele>
        <time>2020-02-24T09:36:52Z</time>
      </trkpt>
      <trkpt lat="46.61819" lon="5.49841">
        <ele>301.6</ele>
        <time>2020-02-24T09:36:57Z</time>
      </trkpt>
      <trkpt lat="46.61818" lon="5.49835">
        <ele>302.4</ele>
        <time>2020-02-24T09:37:02Z</time>
      </trkpt>
      <trkpt lat="46.61817" lon="5.49828">
        <ele>303.1</ele>
        <time>2020-02-24T09:37:07Z</time>
      </trkpt>
      <trkpt lat="46.61818" lon="5.49821">
        <ele>303.6</ele>
        <time>2020-02-24T09:37:12Z</time>
      </trkpt>
      <trkpt lat="46.61816" lon="5.49815">
        <ele>304.3</ele>
        <time>2020-02-24T09:37:20Z</time>
      </trkpt>
      <trkpt lat="46.61816" lon="5.49808">
        <ele>304.8</ele>
        <time>2020-02-24T09:37:25Z</time>
      </trkpt>
      <trkpt lat="46.61815" lon="5.49801">
        <ele>305.4</ele>
        <time>2020-02-24T09:37:30Z</time>
      </trkpt>
      <trkpt lat="46.61814" lon="5.49794">
        <ele>306.1</ele>
        <time>2020-02-24T09:37:34Z</time>
      </trkpt>
      <trkpt lat="46.61812" lon="5.49787">
        <ele>306.8</ele>
        <time>2020-02-24T09:37:38Z</time>
      </trkpt>
      <trkpt lat="46.6181" lon="5.4978">
        <ele>307.3</ele>
        <time>2020-02-24T09:37:42Z</time>
      </trkpt>
      <trkpt lat="46.61807" lon="5.49774">
        <ele>307.7</ele>
        <time>2020-02-24T09:37:46Z</time>
      </trkpt>
      <trkpt lat="46.61806" lon="5.49767">
        <ele>308</ele>
        <time>2020-02-24T09:37:51Z</time>
      </trkpt>
      <trkpt lat="46.61803" lon="5.49762">
        <ele>308.1</ele>
        <time>2020-02-24T09:37:58Z</time>
      </trkpt>
      <trkpt lat="46.61801" lon="5.49756">
        <ele>308</ele>
        <time>2020-02-24T09:38:03Z</time>
      </trkpt>
      <trkpt lat="46.61799" lon="5.4975">
        <ele>307.7</ele>
        <time>2020-02-24T09:38:08Z</time>
      </trkpt>
      <trkpt lat="46.61795" lon="5.49746">
        <ele>307.5</ele>
        <time>2020-02-24T09:38:15Z</time>
      </trkpt>
      <trkpt lat="46.6179" lon="5.49742">
        <ele>307.4</ele>
        <time>2020-02-24T09:38:21Z</time>
      </trkpt>
      <trkpt lat="46.61787" lon="5.49738">
        <ele>307.5</ele>
        <time>2020-02-24T09:38:26Z</time>
      </trkpt>
      <trkpt lat="46.61783" lon="5.49733">
        <ele>307.6</ele>
        <time>2020-02-24T09:38:30Z</time>
      </trkpt>
      <trkpt lat="46.61779" lon="5.49729">
        <ele>307.7</ele>
        <time>2020-02-24T09:38:33Z</time>
      </trkpt>
      <trkpt lat="46.61775" lon="5.49725">
        <ele>307.7</ele>
        <time>2020-02-24T09:38:39Z</time>
      </trkpt>
      <trkpt lat="46.61771" lon="5.49721">
        <ele>307.7</ele>
        <time>2020-02-24T09:38:45Z</time>
      </trkpt>
      <trkpt lat="46.61766" lon="5.49718">
        <ele>308.1</ele>
        <time>2020-02-24T09:38:52Z</time>
      </trkpt>
      <trkpt lat="46.61761" lon="5.49715">
        <ele>308.1</ele>
        <time>2020-02-24T09:38:56Z</time>
      </trkpt>
      <trkpt lat="46.61757" lon="5.49711">
        <ele>308.1</ele>
        <time>2020-02-24T09:39:00Z</time>
      </trkpt>
      <trkpt lat="46.61753" lon="5.49706">
        <ele>308</ele>
        <time>2020-02-24T09:39:05Z</time>
      </trkpt>
      <trkpt lat="46.6175" lon="5.497">
        <ele>308</ele>
        <time>2020-02-24T09:39:11Z</time>
      </trkpt>
      <trkpt lat="46.61747" lon="5.49696">
        <ele>308.2</ele>
        <time>2020-02-24T09:39:16Z</time>
      </trkpt>
      <trkpt lat="46.61742" lon="5.49693">
        <ele>308.5</ele>
        <time>2020-02-24T09:39:20Z</time>
      </trkpt>
      <trkpt lat="46.61737" lon="5.4969">
        <ele>309.2</ele>
        <time>2020-02-24T09:39:26Z</time>
      </trkpt>
      <trkpt lat="46.61733" lon="5.49687">
        <ele>309.8</ele>
        <time>2020-02-24T09:39:31Z</time>
      </trkpt>
      <trkpt lat="46.61724" lon="5.4968">
        <ele>310.4</ele>
        <time>2020-02-24T09:39:45Z</time>
      </trkpt>
      <trkpt lat="46.61721" lon="5.49675">
        <ele>311</ele>
        <time>2020-02-24T09:39:51Z</time>
      </trkpt>
      <trkpt lat="46.61718" lon="5.49668">
        <ele>311.6</ele>
        <time>2020-02-24T09:39:58Z</time>
      </trkpt>
      <trkpt lat="46.61715" lon="5.49661">
        <ele>311.9</ele>
        <time>2020-02-24T09:40:02Z</time>
      </trkpt>
      <trkpt lat="46.61713" lon="5.49654">
        <ele>312.2</ele>
        <time>2020-02-24T09:40:06Z</time>
      </trkpt>
      <trkpt lat="46.61711" lon="5.49648">
        <ele>312.5</ele>
        <time>2020-02-24T09:40:10Z</time>
      </trkpt>
      <trkpt lat="46.6171" lon="5.49641">
        <ele>312.8</ele>
        <time>2020-02-24T09:40:15Z</time>
      </trkpt>
      <trkpt lat="46.61708" lon="5.49635">
        <ele>313.1</ele>
        <time>2020-02-24T09:40:21Z</time>
      </trkpt>
      <trkpt lat="46.61706" lon="5.49627">
        <ele>313.6</ele>
        <time>2020-02-24T09:40:27Z</time>
      </trkpt>
      <trkpt lat="46.61704" lon="5.4962">
        <ele>313.9</ele>
        <time>2020-02-24T09:40:31Z</time>
      </trkpt>
      <trkpt lat="46.61703" lon="5.49613">
        <ele>314.5</ele>
        <time>2020-02-24T09:40:36Z</time>
      </trkpt>
      <trkpt lat="46.61702" lon="5.49606">
        <ele>315.5</ele>
        <time>2020-02-24T09:40:43Z</time>
      </trkpt>
      <trkpt lat="46.617" lon="5.49599">
        <ele>316.1</ele>
        <time>2020-02-24T09:40:48Z</time>
      </trkpt>
      <trkpt lat="46.61698" lon="5.49594">
        <ele>316.9</ele>
        <time>2020-02-24T09:40:54Z</time>
      </trkpt>
      <trkpt lat="46.61695" lon="5.49587">
        <ele>317.3</ele>
        <time>2020-02-24T09:41:01Z</time>
      </trkpt>
      <trkpt lat="46.61692" lon="5.49583">
        <ele>317.5</ele>
        <time>2020-02-24T09:41:05Z</time>
      </trkpt>
      <trkpt lat="46.61689" lon="5.49577">
        <ele>317.7</ele>
        <time>2020-02-24T09:41:10Z</time>
      </trkpt>
      <trkpt lat="46.61686" lon="5.49572">
        <ele>317.9</ele>
        <time>2020-02-24T09:41:16Z</time>
      </trkpt>
      <trkpt lat="46.61681" lon="5.49568">
        <ele>318.2</ele>
        <time>2020-02-24T09:41:24Z</time>
      </trkpt>
      <trkpt lat="46.61677" lon="5.49563">
        <ele>318.3</ele>
        <time>2020-02-24T09:41:29Z</time>
      </trkpt>
      <trkpt lat="46.61674" lon="5.49559">
        <ele>318</ele>
        <time>2020-02-24T09:41:35Z</time>
      </trkpt>
      <trkpt lat="46.6167" lon="5.49556">
        <ele>317.5</ele>
        <time>2020-02-24T09:41:43Z</time>
      </trkpt>
      <trkpt lat="46.61665" lon="5.49554">
        <ele>317.8</ele>
        <time>2020-02-24T09:41:50Z</time>
      </trkpt>
      <trkpt lat="46.6166" lon="5.49551">
        <ele>318</ele>
        <time>2020-02-24T09:41:53Z</time>
      </trkpt>
      <trkpt lat="46.61656" lon="5.49548">
        <ele>318.3</ele>
        <time>2020-02-24T09:41:56Z</time>
      </trkpt>
      <trkpt lat="46.61651" lon="5.49545">
        <ele>318.6</ele>
        <time>2020-02-24T09:42:00Z</time>
      </trkpt>
      <trkpt lat="46.61647" lon="5.4954">
        <ele>318.8</ele>
        <time>2020-02-24T09:42:05Z</time>
      </trkpt>
      <trkpt lat="46.61644" lon="5.49534">
        <ele>318.7</ele>
        <time>2020-02-24T09:42:08Z</time>
      </trkpt>
      <trkpt lat="46.61643" lon="5.49527">
        <ele>318.5</ele>
        <time>2020-02-24T09:42:11Z</time>
      </trkpt>
      <trkpt lat="46.61641" lon="5.49521">
        <ele>318.2</ele>
        <time>2020-02-24T09:42:16Z</time>
      </trkpt>
      <trkpt lat="46.61636" lon="5.49517">
        <ele>317.9</ele>
        <time>2020-02-24T09:42:27Z</time>
      </trkpt>
      <trkpt lat="46.61632" lon="5.49515">
        <ele>317.6</ele>
        <time>2020-02-24T09:42:34Z</time>
      </trkpt>
      <trkpt lat="46.61627" lon="5.49514">
        <ele>317.5</ele>
        <time>2020-02-24T09:42:38Z</time>
      </trkpt>
      <trkpt lat="46.61622" lon="5.49514">
        <ele>317.7</ele>
        <time>2020-02-24T09:42:42Z</time>
      </trkpt>
      <trkpt lat="46.61617" lon="5.49512">
        <ele>317.9</ele>
        <time>2020-02-24T09:42:47Z</time>
      </trkpt>
      <trkpt lat="46.61612" lon="5.49512">
        <ele>318.2</ele>
        <time>2020-02-24T09:42:54Z</time>
      </trkpt>
      <trkpt lat="46.61606" lon="5.49514">
        <ele>318.2</ele>
        <time>2020-02-24T09:42:57Z</time>
      </trkpt>
      <trkpt lat="46.61601" lon="5.49515">
        <ele>318.4</ele>
        <time>2020-02-24T09:43:01Z</time>
      </trkpt>
      <trkpt lat="46.61597" lon="5.49516">
        <ele>318.7</ele>
        <time>2020-02-24T09:43:06Z</time>
      </trkpt>
      <trkpt lat="46.61592" lon="5.49515">
        <ele>319.2</ele>
        <time>2020-02-24T09:43:13Z</time>
      </trkpt>
      <trkpt lat="46.61586" lon="5.49513">
        <ele>319.6</ele>
        <time>2020-02-24T09:43:19Z</time>
      </trkpt>
      <trkpt lat="46.61582" lon="5.49511">
        <ele>319.8</ele>
        <time>2020-02-24T09:43:22Z</time>
      </trkpt>
      <trkpt lat="46.61577" lon="5.4951">
        <ele>320.1</ele>
        <time>2020-02-24T09:43:27Z</time>
      </trkpt>
      <trkpt lat="46.61572" lon="5.49509">
        <ele>320.8</ele>
        <time>2020-02-24T09:43:36Z</time>
      </trkpt>
      <trkpt lat="46.61568" lon="5.49506">
        <ele>321.4</ele>
        <time>2020-02-24T09:43:44Z</time>
      </trkpt>
      <trkpt lat="46.61564" lon="5.49503">
        <ele>321.7</ele>
        <time>2020-02-24T09:43:50Z</time>
      </trkpt>
      <trkpt lat="46.61559" lon="5.495">
        <ele>321.8</ele>
        <time>2020-02-24T09:43:55Z</time>
      </trkpt>
      <trkpt lat="46.61553" lon="5.49496">
        <ele>322</ele>
        <time>2020-02-24T09:43:58Z</time>
      </trkpt>
      <trkpt lat="46.61547" lon="5.49494">
        <ele>322.4</ele>
        <time>2020-02-24T09:44:02Z</time>
      </trkpt>
      <trkpt lat="46.61542" lon="5.49492">
        <ele>323.7</ele>
        <time>2020-02-24T09:44:09Z</time>
      </trkpt>
      <trkpt lat="46.61537" lon="5.49491">
        <ele>325.1</ele>
        <time>2020-02-24T09:44:15Z</time>
      </trkpt>
      <trkpt lat="46.61532" lon="5.49493">
        <ele>326.5</ele>
        <time>2020-02-24T09:44:21Z</time>
      </trkpt>
      <trkpt lat="46.61528" lon="5.49496">
        <ele>327.8</ele>
        <time>2020-02-24T09:44:28Z</time>
      </trkpt>
      <trkpt lat="46.61523" lon="5.49497">
        <ele>328.8</ele>
        <time>2020-02-24T09:44:34Z</time>
      </trkpt>
      <trkpt lat="46.61519" lon="5.49495">
        <ele>329.5</ele>
        <time>2020-02-24T09:44:40Z</time>
      </trkpt>
      <trkpt lat="46.61513" lon="5.49492">
        <ele>329.9</ele>
        <time>2020-02-24T09:44:45Z</time>
      </trkpt>
      <trkpt lat="46.61509" lon="5.49489">
        <ele>329.9</ele>
        <time>2020-02-24T09:44:48Z</time>
      </trkpt>
      <trkpt lat="46.61504" lon="5.49489">
        <ele>329.7</ele>
        <time>2020-02-24T09:44:57Z</time>
      </trkpt>
      <trkpt lat="46.615" lon="5.49485">
        <ele>329.3</ele>
        <time>2020-02-24T09:45:05Z</time>
      </trkpt>
      <trkpt lat="46.61496" lon="5.4948">
        <ele>329</ele>
        <time>2020-02-24T09:45:13Z</time>
      </trkpt>
      <trkpt lat="46.61492" lon="5.49475">
        <ele>328.8</ele>
        <time>2020-02-24T09:45:19Z</time>
      </trkpt>
      <trkpt lat="46.61488" lon="5.49471">
        <ele>328.5</ele>
        <time>2020-02-24T09:45:23Z</time>
      </trkpt>
      <trkpt lat="46.61484" lon="5.49467">
        <ele>328.2</ele>
        <time>2020-02-24T09:45:27Z</time>
      </trkpt>
      <trkpt lat="46.6148" lon="5.49463">
        <ele>328</ele>
        <time>2020-02-24T09:45:31Z</time>
      </trkpt>
      <trkpt lat="46.61476" lon="5.49458">
        <ele>328.1</ele>
        <time>2020-02-24T09:45:35Z</time>
      </trkpt>
      <trkpt lat="46.61473" lon="5.49453">
        <ele>328</ele>
        <time>2020-02-24T09:45:42Z</time>
      </trkpt>
      <trkpt lat="46.61472" lon="5.49447">
        <ele>327.4</ele>
        <time>2020-02-24T09:45:49Z</time>
      </trkpt>
      <trkpt lat="46.61471" lon="5.4944">
        <ele>326.6</ele>
        <time>2020-02-24T09:45:59Z</time>
      </trkpt>
      <trkpt lat="46.6147" lon="5.49433">
        <ele>326.8</ele>
        <time>2020-02-24T09:46:09Z</time>
      </trkpt>
      <trkpt lat="46.61468" lon="5.49427">
        <ele>327</ele>
        <time>2020-02-24T09:46:15Z</time>
      </trkpt>
      <trkpt lat="46.61466" lon="5.49421">
        <ele>327.2</ele>
        <time>2020-02-24T09:46:21Z</time>
      </trkpt>
      <trkpt lat="46.61463" lon="5.49417">
        <ele>327.5</ele>
        <time>2020-02-24T09:46:28Z</time>
      </trkpt>
      <trkpt lat="46.61462" lon="5.4941">
        <ele>327.4</ele>
        <time>2020-02-24T09:46:33Z</time>
      </trkpt>
      <trkpt lat="46.61459" lon="5.49404">
        <ele>327.3</ele>
        <time>2020-02-24T09:46:36Z</time>
      </trkpt>
      <trkpt lat="46.61456" lon="5.49399">
        <ele>327.1</ele>
        <time>2020-02-24T09:46:40Z</time>
      </trkpt>
      <trkpt lat="46.61454" lon="5.49392">
        <ele>327</ele>
        <time>2020-02-24T09:46:44Z</time>
      </trkpt>
      <trkpt lat="46.61452" lon="5.49384">
        <ele>326.8</ele>
        <time>2020-02-24T09:46:50Z</time>
      </trkpt>
      <trkpt lat="46.61454" lon="5.49377">
        <ele>327</ele>
        <time>2020-02-24T09:46:59Z</time>
      </trkpt>
      <trkpt lat="46.61455" lon="5.4937">
        <ele>327.1</ele>
        <time>2020-02-24T09:47:02Z</time>
      </trkpt>
      <trkpt lat="46.61456" lon="5.49363">
        <ele>327.4</ele>
        <time>2020-02-24T09:47:08Z</time>
      </trkpt>
      <trkpt lat="46.61455" lon="5.49356">
        <ele>328.1</ele>
        <time>2020-02-24T09:47:13Z</time>
      </trkpt>
      <trkpt lat="46.61454" lon="5.49348">
        <ele>329.2</ele>
        <time>2020-02-24T09:47:20Z</time>
      </trkpt>
      <trkpt lat="46.61453" lon="5.49341">
        <ele>329.6</ele>
        <time>2020-02-24T09:47:25Z</time>
      </trkpt>
      <trkpt lat="46.61452" lon="5.49334">
        <ele>329.9</ele>
        <time>2020-02-24T09:47:30Z</time>
      </trkpt>
      <trkpt lat="46.61451" lon="5.49327">
        <ele>330.4</ele>
        <time>2020-02-24T09:47:35Z</time>
      </trkpt>
      <trkpt lat="46.61451" lon="5.49321">
        <ele>330.7</ele>
        <time>2020-02-24T09:47:39Z</time>
      </trkpt>
      <trkpt lat="46.61451" lon="5.49313">
        <ele>331.2</ele>
        <time>2020-02-24T09:47:45Z</time>
      </trkpt>
      <trkpt lat="46.61452" lon="5.49305">
        <ele>331.6</ele>
        <time>2020-02-24T09:47:49Z</time>
      </trkpt>
      <trkpt lat="46.61454" lon="5.49297">
        <ele>332.2</ele>
        <time>2020-02-24T09:47:53Z</time>
      </trkpt>
      <trkpt lat="46.61455" lon="5.49289">
        <ele>332.9</ele>
        <time>2020-02-24T09:47:57Z</time>
      </trkpt>
      <trkpt lat="46.61454" lon="5.49282">
        <ele>333.9</ele>
        <time>2020-02-24T09:48:02Z</time>
      </trkpt>
      <trkpt lat="46.61453" lon="5.49275">
        <ele>334.8</ele>
        <time>2020-02-24T09:48:06Z</time>
      </trkpt>
      <trkpt lat="46.61451" lon="5.49268">
        <ele>335.6</ele>
        <time>2020-02-24T09:48:10Z</time>
      </trkpt>
      <trkpt lat="46.6145" lon="5.4926">
        <ele>336.6</ele>
        <time>2020-02-24T09:48:15Z</time>
      </trkpt>
      <trkpt lat="46.61449" lon="5.49253">
        <ele>337.2</ele>
        <time>2020-02-24T09:48:19Z</time>
      </trkpt>
      <trkpt lat="46.61448" lon="5.49246">
        <ele>337.6</ele>
        <time>2020-02-24T09:48:23Z</time>
      </trkpt>
      <trkpt lat="46.61447" lon="5.4924">
        <ele>338.1</ele>
        <time>2020-02-24T09:48:28Z</time>
      </trkpt>
      <trkpt lat="46.61445" lon="5.49233">
        <ele>338.6</ele>
        <time>2020-02-24T09:48:34Z</time>
      </trkpt>
      <trkpt lat="46.61447" lon="5.4924">
        <ele>338.2</ele>
        <time>2020-02-24T09:49:44Z</time>
      </trkpt>
      <trkpt lat="46.61443" lon="5.49236">
        <ele>336.8</ele>
        <time>2020-02-24T09:50:41Z</time>
      </trkpt>
      <trkpt lat="46.6144" lon="5.4923">
        <ele>336.5</ele>
        <time>2020-02-24T09:50:47Z</time>
      </trkpt>
      <trkpt lat="46.61436" lon="5.49226">
        <ele>336.4</ele>
        <time>2020-02-24T09:50:51Z</time>
      </trkpt>
      <trkpt lat="46.61432" lon="5.49223">
        <ele>336.3</ele>
        <time>2020-02-24T09:50:55Z</time>
      </trkpt>
      <trkpt lat="46.61427" lon="5.4922">
        <ele>336.1</ele>
        <time>2020-02-24T09:51:00Z</time>
      </trkpt>
      <trkpt lat="46.61423" lon="5.49217">
        <ele>335.8</ele>
        <time>2020-02-24T09:51:05Z</time>
      </trkpt>
      <trkpt lat="46.61418" lon="5.49216">
        <ele>335.4</ele>
        <time>2020-02-24T09:51:11Z</time>
      </trkpt>
      <trkpt lat="46.61414" lon="5.49215">
        <ele>335.1</ele>
        <time>2020-02-24T09:51:15Z</time>
      </trkpt>
      <trkpt lat="46.61409" lon="5.49215">
        <ele>334.6</ele>
        <time>2020-02-24T09:51:20Z</time>
      </trkpt>
      <trkpt lat="46.61404" lon="5.49216">
        <ele>334.1</ele>
        <time>2020-02-24T09:51:27Z</time>
      </trkpt>
      <trkpt lat="46.61399" lon="5.49215">
        <ele>334</ele>
        <time>2020-02-24T09:51:33Z</time>
      </trkpt>
      <trkpt lat="46.61395" lon="5.49213">
        <ele>334.1</ele>
        <time>2020-02-24T09:51:38Z</time>
      </trkpt>
      <trkpt lat="46.61389" lon="5.49209">
        <ele>334.1</ele>
        <time>2020-02-24T09:51:42Z</time>
      </trkpt>
      <trkpt lat="46.61384" lon="5.49206">
        <ele>334.1</ele>
        <time>2020-02-24T09:51:46Z</time>
      </trkpt>
      <trkpt lat="46.61379" lon="5.49204">
        <ele>334</ele>
        <time>2020-02-24T09:51:49Z</time>
      </trkpt>
      <trkpt lat="46.61374" lon="5.49201">
        <ele>333.9</ele>
        <time>2020-02-24T09:51:53Z</time>
      </trkpt>
      <trkpt lat="46.6137" lon="5.49199">
        <ele>333.5</ele>
        <time>2020-02-24T09:51:58Z</time>
      </trkpt>
      <trkpt lat="46.61366" lon="5.49196">
        <ele>332.9</ele>
        <time>2020-02-24T09:52:03Z</time>
      </trkpt>
      <trkpt lat="46.61361" lon="5.49194">
        <ele>332.3</ele>
        <time>2020-02-24T09:52:07Z</time>
      </trkpt>
      <trkpt lat="46.61357" lon="5.49191">
        <ele>331.3</ele>
        <time>2020-02-24T09:52:13Z</time>
      </trkpt>
      <trkpt lat="46.61352" lon="5.49188">
        <ele>330.6</ele>
        <time>2020-02-24T09:52:17Z</time>
      </trkpt>
      <trkpt lat="46.61347" lon="5.49185">
        <ele>329.9</ele>
        <time>2020-02-24T09:52:21Z</time>
      </trkpt>
      <trkpt lat="46.61343" lon="5.49182">
        <ele>329.1</ele>
        <time>2020-02-24T09:52:26Z</time>
      </trkpt>
      <trkpt lat="46.61338" lon="5.49181">
        <ele>328.5</ele>
        <time>2020-02-24T09:52:31Z</time>
      </trkpt>
      <trkpt lat="46.61333" lon="5.4918">
        <ele>327.9</ele>
        <time>2020-02-24T09:52:35Z</time>
      </trkpt>
      <trkpt lat="46.61327" lon="5.49179">
        <ele>327.2</ele>
        <time>2020-02-24T09:52:39Z</time>
      </trkpt>
      <trkpt lat="46.61322" lon="5.4918">
        <ele>326.6</ele>
        <time>2020-02-24T09:52:42Z</time>
      </trkpt>
      <trkpt lat="46.61316" lon="5.49181">
        <ele>326.2</ele>
        <time>2020-02-24T09:52:46Z</time>
      </trkpt>
      <trkpt lat="46.61311" lon="5.49182">
        <ele>326</ele>
        <time>2020-02-24T09:52:49Z</time>
      </trkpt>
      <trkpt lat="46.61306" lon="5.49182">
        <ele>326</ele>
        <time>2020-02-24T09:52:52Z</time>
      </trkpt>
      <trkpt lat="46.61301" lon="5.49179">
        <ele>325.8</ele>
        <time>2020-02-24T09:52:58Z</time>
      </trkpt>
      <trkpt lat="46.61298" lon="5.49175">
        <ele>325.6</ele>
        <time>2020-02-24T09:53:03Z</time>
      </trkpt>
      <trkpt lat="46.61294" lon="5.4917">
        <ele>325.2</ele>
        <time>2020-02-24T09:53:07Z</time>
      </trkpt>
      <trkpt lat="46.6129" lon="5.49165">
        <ele>325</ele>
        <time>2020-02-24T09:53:10Z</time>
      </trkpt>
      <trkpt lat="46.61286" lon="5.49161">
        <ele>324.7</ele>
        <time>2020-02-24T09:53:14Z</time>
      </trkpt>
      <trkpt lat="46.61281" lon="5.49157">
        <ele>324.6</ele>
        <time>2020-02-24T09:53:18Z</time>
      </trkpt>
      <trkpt lat="46.61277" lon="5.49155">
        <ele>324.8</ele>
        <time>2020-02-24T09:53:22Z</time>
      </trkpt>
      <trkpt lat="46.61272" lon="5.49153">
        <ele>325.1</ele>
        <time>2020-02-24T09:53:27Z</time>
      </trkpt>
      <trkpt lat="46.61267" lon="5.4915">
        <ele>325.2</ele>
        <time>2020-02-24T09:53:31Z</time>
      </trkpt>
      <trkpt lat="46.61262" lon="5.49147">
        <ele>325.6</ele>
        <time>2020-02-24T09:53:37Z</time>
      </trkpt>
      <trkpt lat="46.61257" lon="5.49147">
        <ele>325.7</ele>
        <time>2020-02-24T09:53:41Z</time>
      </trkpt>
      <trkpt lat="46.61251" lon="5.49148">
        <ele>325.6</ele>
        <time>2020-02-24T09:53:46Z</time>
      </trkpt>
      <trkpt lat="46.61246" lon="5.4915">
        <ele>325.3</ele>
        <time>2020-02-24T09:53:51Z</time>
      </trkpt>
      <trkpt lat="46.61241" lon="5.49152">
        <ele>325.3</ele>
        <time>2020-02-24T09:53:55Z</time>
      </trkpt>
      <trkpt lat="46.61236" lon="5.49153">
        <ele>325.2</ele>
        <time>2020-02-24T09:54:00Z</time>
      </trkpt>
      <trkpt lat="46.61231" lon="5.49153">
        <ele>325.2</ele>
        <time>2020-02-24T09:54:07Z</time>
      </trkpt>
      <trkpt lat="46.61226" lon="5.49153">
        <ele>325.3</ele>
        <time>2020-02-24T09:54:11Z</time>
      </trkpt>
      <trkpt lat="46.61222" lon="5.4915">
        <ele>325.5</ele>
        <time>2020-02-24T09:54:14Z</time>
      </trkpt>
      <trkpt lat="46.61218" lon="5.49147">
        <ele>325.9</ele>
        <time>2020-02-24T09:54:18Z</time>
      </trkpt>
      <trkpt lat="46.61213" lon="5.49144">
        <ele>326.1</ele>
        <time>2020-02-24T09:54:23Z</time>
      </trkpt>
      <trkpt lat="46.61209" lon="5.49141">
        <ele>326.2</ele>
        <time>2020-02-24T09:54:28Z</time>
      </trkpt>
      <trkpt lat="46.61204" lon="5.49139">
        <ele>326.1</ele>
        <time>2020-02-24T09:54:33Z</time>
      </trkpt>
      <trkpt lat="46.61199" lon="5.49137">
        <ele>325.7</ele>
        <time>2020-02-24T09:54:38Z</time>
      </trkpt>
      <trkpt lat="46.61193" lon="5.49136">
        <ele>325.3</ele>
        <time>2020-02-24T09:54:44Z</time>
      </trkpt>
      <trkpt lat="46.61188" lon="5.49134">
        <ele>325</ele>
        <time>2020-02-24T09:54:49Z</time>
      </trkpt>
      <trkpt lat="46.61184" lon="5.49133">
        <ele>324.9</ele>
        <time>2020-02-24T09:54:53Z</time>
      </trkpt>
      <trkpt lat="46.61178" lon="5.49131">
        <ele>324.5</ele>
        <time>2020-02-24T09:54:59Z</time>
      </trkpt>
      <trkpt lat="46.61173" lon="5.49128">
        <ele>324.1</ele>
        <time>2020-02-24T09:55:03Z</time>
      </trkpt>
      <trkpt lat="46.61169" lon="5.49124">
        <ele>323.6</ele>
        <time>2020-02-24T09:55:08Z</time>
      </trkpt>
      <trkpt lat="46.61165" lon="5.49121">
        <ele>323</ele>
        <time>2020-02-24T09:55:13Z</time>
      </trkpt>
      <trkpt lat="46.61161" lon="5.49118">
        <ele>322.7</ele>
        <time>2020-02-24T09:55:17Z</time>
      </trkpt>
      <trkpt lat="46.61156" lon="5.49113">
        <ele>322.6</ele>
        <time>2020-02-24T09:55:21Z</time>
      </trkpt>
      <trkpt lat="46.61152" lon="5.4911">
        <ele>322.6</ele>
        <time>2020-02-24T09:55:25Z</time>
      </trkpt>
      <trkpt lat="46.61148" lon="5.49106">
        <ele>322.6</ele>
        <time>2020-02-24T09:55:29Z</time>
      </trkpt>
      <trkpt lat="46.61144" lon="5.49101">
        <ele>322.7</ele>
        <time>2020-02-24T09:55:33Z</time>
      </trkpt>
      <trkpt lat="46.6114" lon="5.49097">
        <ele>322.9</ele>
        <time>2020-02-24T09:55:37Z</time>
      </trkpt>
      <trkpt lat="46.61143" lon="5.4909">
        <ele>326.6</ele>
        <time>2020-02-24T09:55:57Z</time>
      </trkpt>
      <trkpt lat="46.6114" lon="5.49084">
        <ele>327.6</ele>
        <time>2020-02-24T09:56:01Z</time>
      </trkpt>
      <trkpt lat="46.61136" lon="5.49079">
        <ele>328.4</ele>
        <time>2020-02-24T09:56:05Z</time>
      </trkpt>
      <trkpt lat="46.61132" lon="5.49074">
        <ele>329.4</ele>
        <time>2020-02-24T09:56:11Z</time>
      </trkpt>
      <trkpt lat="46.61129" lon="5.49069">
        <ele>329.6</ele>
        <time>2020-02-24T09:56:15Z</time>
      </trkpt>
      <trkpt lat="46.61127" lon="5.49063">
        <ele>329.7</ele>
        <time>2020-02-24T09:56:18Z</time>
      </trkpt>
      <trkpt lat="46.61124" lon="5.49057">
        <ele>329.7</ele>
        <time>2020-02-24T09:56:22Z</time>
      </trkpt>
      <trkpt lat="46.61121" lon="5.49052">
        <ele>329.8</ele>
        <time>2020-02-24T09:56:26Z</time>
      </trkpt>
      <trkpt lat="46.61117" lon="5.49048">
        <ele>330</ele>
        <time>2020-02-24T09:56:32Z</time>
      </trkpt>
      <trkpt lat="46.61112" lon="5.49044">
        <ele>330.4</ele>
        <time>2020-02-24T09:56:38Z</time>
      </trkpt>
      <trkpt lat="46.61107" lon="5.49042">
        <ele>330.5</ele>
        <time>2020-02-24T09:56:44Z</time>
      </trkpt>
      <trkpt lat="46.61102" lon="5.4904">
        <ele>330.5</ele>
        <time>2020-02-24T09:56:48Z</time>
      </trkpt>
      <trkpt lat="46.61099" lon="5.49036">
        <ele>330.4</ele>
        <time>2020-02-24T09:56:52Z</time>
      </trkpt>
      <trkpt lat="46.61094" lon="5.49031">
        <ele>330</ele>
        <time>2020-02-24T09:56:57Z</time>
      </trkpt>
      <trkpt lat="46.61091" lon="5.49027">
        <ele>329.7</ele>
        <time>2020-02-24T09:57:01Z</time>
      </trkpt>
      <trkpt lat="46.61087" lon="5.49023">
        <ele>329.3</ele>
        <time>2020-02-24T09:57:07Z</time>
      </trkpt>
      <trkpt lat="46.61082" lon="5.49017">
        <ele>328</ele>
        <time>2020-02-24T09:58:05Z</time>
      </trkpt>
      <trkpt lat="46.61081" lon="5.4901">
        <ele>328.3</ele>
        <time>2020-02-24T09:58:10Z</time>
      </trkpt>
      <trkpt lat="46.61081" lon="5.49003">
        <ele>328.6</ele>
        <time>2020-02-24T09:58:15Z</time>
      </trkpt>
      <trkpt lat="46.61082" lon="5.48996">
        <ele>329</ele>
        <time>2020-02-24T09:58:21Z</time>
      </trkpt>
      <trkpt lat="46.61082" lon="5.48989">
        <ele>329.4</ele>
        <time>2020-02-24T09:58:27Z</time>
      </trkpt>
      <trkpt lat="46.61082" lon="5.48981">
        <ele>329.9</ele>
        <time>2020-02-24T09:58:33Z</time>
      </trkpt>
      <trkpt lat="46.61083" lon="5.48975">
        <ele>330.1</ele>
        <time>2020-02-24T09:58:38Z</time>
      </trkpt>
      <trkpt lat="46.61084" lon="5.48968">
        <ele>330.3</ele>
        <time>2020-02-24T09:58:43Z</time>
      </trkpt>
      <trkpt lat="46.61085" lon="5.48962">
        <ele>330.5</ele>
        <time>2020-02-24T09:58:47Z</time>
      </trkpt>
      <trkpt lat="46.61087" lon="5.48954">
        <ele>330.7</ele>
        <time>2020-02-24T09:58:52Z</time>
      </trkpt>
      <trkpt lat="46.61088" lon="5.48947">
        <ele>331</ele>
        <time>2020-02-24T09:58:59Z</time>
      </trkpt>
      <trkpt lat="46.6109" lon="5.48941">
        <ele>331.3</ele>
        <time>2020-02-24T09:59:07Z</time>
      </trkpt>
      <trkpt lat="46.61093" lon="5.48933">
        <ele>331</ele>
        <time>2020-02-24T09:59:12Z</time>
      </trkpt>
      <trkpt lat="46.61095" lon="5.48927">
        <ele>330.8</ele>
        <time>2020-02-24T09:59:15Z</time>
      </trkpt>
      <trkpt lat="46.61098" lon="5.48921">
        <ele>330.5</ele>
        <time>2020-02-24T09:59:19Z</time>
      </trkpt>
      <trkpt lat="46.61102" lon="5.48918">
        <ele>329.9</ele>
        <time>2020-02-24T09:59:24Z</time>
      </trkpt>
      <trkpt lat="46.61106" lon="5.48915">
        <ele>329.1</ele>
        <time>2020-02-24T09:59:29Z</time>
      </trkpt>
      <trkpt lat="46.61111" lon="5.48914">
        <ele>328.3</ele>
        <time>2020-02-24T09:59:35Z</time>
      </trkpt>
      <trkpt lat="46.61116" lon="5.48912">
        <ele>327.9</ele>
        <time>2020-02-24T09:59:40Z</time>
      </trkpt>
      <trkpt lat="46.61116" lon="5.48906">
        <ele>325.6</ele>
        <time>2020-02-24T09:59:57Z</time>
      </trkpt>
      <trkpt lat="46.61112" lon="5.48902">
        <ele>324.7</ele>
        <time>2020-02-24T10:00:04Z</time>
      </trkpt>
      <trkpt lat="46.61115" lon="5.48898">
        <ele>321.4</ele>
        <time>2020-02-24T10:00:34Z</time>
      </trkpt>
      <trkpt lat="46.61119" lon="5.48893">
        <ele>320.6</ele>
        <time>2020-02-24T10:00:41Z</time>
      </trkpt>
      <trkpt lat="46.61118" lon="5.48885">
        <ele>319.5</ele>
        <time>2020-02-24T10:00:48Z</time>
      </trkpt>
      <trkpt lat="46.61121" lon="5.48879">
        <ele>317.9</ele>
        <time>2020-02-24T10:00:56Z</time>
      </trkpt>
      <trkpt lat="46.61123" lon="5.48872">
        <ele>315.9</ele>
        <time>2020-02-24T10:01:03Z</time>
      </trkpt>
      <trkpt lat="46.61127" lon="5.48866">
        <ele>308.2</ele>
        <time>2020-02-24T10:01:22Z</time>
      </trkpt>
      <trkpt lat="46.61132" lon="5.48865">
        <ele>306</ele>
        <time>2020-02-24T10:01:30Z</time>
      </trkpt>
      <trkpt lat="46.61134" lon="5.4886">
        <ele>302.7</ele>
        <time>2020-02-24T10:01:42Z</time>
      </trkpt>
      <trkpt lat="46.61131" lon="5.48844">
        <ele>301.2</ele>
        <time>2020-02-24T10:02:03Z</time>
      </trkpt>
      <trkpt lat="46.61128" lon="5.48828">
        <ele>296.6</ele>
        <time>2020-02-24T10:02:49Z</time>
      </trkpt>
      <trkpt lat="46.61125" lon="5.48823">
        <ele>295</ele>
        <time>2020-02-24T10:02:55Z</time>
      </trkpt>
      <trkpt lat="46.61121" lon="5.48818">
        <ele>293.2</ele>
        <time>2020-02-24T10:03:07Z</time>
      </trkpt>
      <trkpt lat="46.61119" lon="5.48811">
        <ele>293.1</ele>
        <time>2020-02-24T10:03:09Z</time>
      </trkpt>
      <trkpt lat="46.61113" lon="5.48806">
        <ele>293</ele>
        <time>2020-02-24T10:03:11Z</time>
      </trkpt>
      <trkpt lat="46.6111" lon="5.48799">
        <ele>292.9</ele>
        <time>2020-02-24T10:03:13Z</time>
      </trkpt>
      <trkpt lat="46.61105" lon="5.48794">
        <ele>292.8</ele>
        <time>2020-02-24T10:03:16Z</time>
      </trkpt>
      <trkpt lat="46.611" lon="5.48791">
        <ele>292.7</ele>
        <time>2020-02-24T10:03:19Z</time>
      </trkpt>
      <trkpt lat="46.61096" lon="5.48788">
        <ele>292.7</ele>
        <time>2020-02-24T10:03:21Z</time>
      </trkpt>
      <trkpt lat="46.61082" lon="5.48777">
        <ele>293.9</ele>
        <time>2020-02-24T10:03:40Z</time>
      </trkpt>
      <trkpt lat="46.61077" lon="5.48775">
        <ele>294.1</ele>
        <time>2020-02-24T10:03:42Z</time>
      </trkpt>
      <trkpt lat="46.61072" lon="5.48773">
        <ele>294.3</ele>
        <time>2020-02-24T10:03:44Z</time>
      </trkpt>
      <trkpt lat="46.61068" lon="5.48768">
        <ele>294.5</ele>
        <time>2020-02-24T10:03:48Z</time>
      </trkpt>
      <trkpt lat="46.61065" lon="5.48762">
        <ele>294.2</ele>
        <time>2020-02-24T10:03:54Z</time>
      </trkpt>
      <trkpt lat="46.61061" lon="5.48757">
        <ele>293.6</ele>
        <time>2020-02-24T10:04:00Z</time>
      </trkpt>
      <trkpt lat="46.61043" lon="5.48744">
        <ele>290.3</ele>
        <time>2020-02-24T10:04:25Z</time>
      </trkpt>
      <trkpt lat="46.61039" lon="5.48741">
        <ele>288.7</ele>
        <time>2020-02-24T10:04:34Z</time>
      </trkpt>
      <trkpt lat="46.61035" lon="5.48736">
        <ele>287.3</ele>
        <time>2020-02-24T10:04:48Z</time>
      </trkpt>
      <trkpt lat="46.61032" lon="5.48731">
        <ele>287.1</ele>
        <time>2020-02-24T10:05:10Z</time>
      </trkpt>
      <trkpt lat="46.61029" lon="5.48724">
        <ele>287.5</ele>
        <time>2020-02-24T10:05:18Z</time>
      </trkpt>
      <trkpt lat="46.61024" lon="5.48721">
        <ele>287.4</ele>
        <time>2020-02-24T10:05:22Z</time>
      </trkpt>
      <trkpt lat="46.61018" lon="5.48718">
        <ele>287.5</ele>
        <time>2020-02-24T10:05:24Z</time>
      </trkpt>
      <trkpt lat="46.61013" lon="5.48715">
        <ele>287.5</ele>
        <time>2020-02-24T10:05:26Z</time>
      </trkpt>
      <trkpt lat="46.61009" lon="5.48711">
        <ele>287.6</ele>
        <time>2020-02-24T10:05:28Z</time>
      </trkpt>
      <trkpt lat="46.61004" lon="5.48708">
        <ele>287.6</ele>
        <time>2020-02-24T10:05:31Z</time>
      </trkpt>
      <trkpt lat="46.61001" lon="5.48703">
        <ele>287.5</ele>
        <time>2020-02-24T10:05:35Z</time>
      </trkpt>
      <trkpt lat="46.60998" lon="5.48698">
        <ele>287.2</ele>
        <time>2020-02-24T10:05:39Z</time>
      </trkpt>
      <trkpt lat="46.60994" lon="5.48693">
        <ele>286.8</ele>
        <time>2020-02-24T10:05:43Z</time>
      </trkpt>
      <trkpt lat="46.60986" lon="5.48681">
        <ele>285</ele>
        <time>2020-02-24T10:05:53Z</time>
      </trkpt>
      <trkpt lat="46.60982" lon="5.48676">
        <ele>283.8</ele>
        <time>2020-02-24T10:06:02Z</time>
      </trkpt>
      <trkpt lat="46.60977" lon="5.48672">
        <ele>283.4</ele>
        <time>2020-02-24T10:06:05Z</time>
      </trkpt>
      <trkpt lat="46.60973" lon="5.48668">
        <ele>282.9</ele>
        <time>2020-02-24T10:06:08Z</time>
      </trkpt>
      <trkpt lat="46.60968" lon="5.48664">
        <ele>282.2</ele>
        <time>2020-02-24T10:06:12Z</time>
      </trkpt>
      <trkpt lat="46.60963" lon="5.48661">
        <ele>281.4</ele>
        <time>2020-02-24T10:06:16Z</time>
      </trkpt>
      <trkpt lat="46.60958" lon="5.48658">
        <ele>280.6</ele>
        <time>2020-02-24T10:06:20Z</time>
      </trkpt>
      <trkpt lat="46.60954" lon="5.48652">
        <ele>280.1</ele>
        <time>2020-02-24T10:06:23Z</time>
      </trkpt>
      <trkpt lat="46.6095" lon="5.48647">
        <ele>279.3</ele>
        <time>2020-02-24T10:06:27Z</time>
      </trkpt>
      <trkpt lat="46.60946" lon="5.48643">
        <ele>278.5</ele>
        <time>2020-02-24T10:06:31Z</time>
      </trkpt>
      <trkpt lat="46.60941" lon="5.48641">
        <ele>277.3</ele>
        <time>2020-02-24T10:06:36Z</time>
      </trkpt>
      <trkpt lat="46.60931" lon="5.4863">
        <ele>273.4</ele>
        <time>2020-02-24T10:06:50Z</time>
      </trkpt>
      <trkpt lat="46.60927" lon="5.48625">
        <ele>272.5</ele>
        <time>2020-02-24T10:06:58Z</time>
      </trkpt>
      <trkpt lat="46.60924" lon="5.4862">
        <ele>272.3</ele>
        <time>2020-02-24T10:07:07Z</time>
      </trkpt>
      <trkpt lat="46.6092" lon="5.48616">
        <ele>272.4</ele>
        <time>2020-02-24T10:07:11Z</time>
      </trkpt>
      <trkpt lat="46.60917" lon="5.48611">
        <ele>272.4</ele>
        <time>2020-02-24T10:07:13Z</time>
      </trkpt>
      <trkpt lat="46.60912" lon="5.48606">
        <ele>272.5</ele>
        <time>2020-02-24T10:07:16Z</time>
      </trkpt>
      <trkpt lat="46.60907" lon="5.48604">
        <ele>272.7</ele>
        <time>2020-02-24T10:07:20Z</time>
      </trkpt>
      <trkpt lat="46.60903" lon="5.48601">
        <ele>272.9</ele>
        <time>2020-02-24T10:07:23Z</time>
      </trkpt>
      <trkpt lat="46.60899" lon="5.48598">
        <ele>273.1</ele>
        <time>2020-02-24T10:07:26Z</time>
      </trkpt>
      <trkpt lat="46.60895" lon="5.48594">
        <ele>273.2</ele>
        <time>2020-02-24T10:07:29Z</time>
      </trkpt>
      <trkpt lat="46.6089" lon="5.4859">
        <ele>273.3</ele>
        <time>2020-02-24T10:07:33Z</time>
      </trkpt>
      <trkpt lat="46.60885" lon="5.48588">
        <ele>273</ele>
        <time>2020-02-24T10:07:38Z</time>
      </trkpt>
      <trkpt lat="46.6088" lon="5.48586">
        <ele>272.7</ele>
        <time>2020-02-24T10:07:42Z</time>
      </trkpt>
      <trkpt lat="46.60876" lon="5.48583">
        <ele>272.5</ele>
        <time>2020-02-24T10:07:46Z</time>
      </trkpt>
      <trkpt lat="46.60872" lon="5.48579">
        <ele>271.8</ele>
        <time>2020-02-24T10:07:52Z</time>
      </trkpt>
      <trkpt lat="46.60867" lon="5.48576">
        <ele>270.8</ele>
        <time>2020-02-24T10:07:58Z</time>
      </trkpt>
      <trkpt lat="46.60862" lon="5.48573">
        <ele>269.7</ele>
        <time>2020-02-24T10:08:03Z</time>
      </trkpt>
      <trkpt lat="46.60858" lon="5.48571">
        <ele>268.5</ele>
        <time>2020-02-24T10:08:09Z</time>
      </trkpt>
      <trkpt lat="46.60854" lon="5.48567">
        <ele>267.2</ele>
        <time>2020-02-24T10:08:15Z</time>
      </trkpt>
      <trkpt lat="46.60851" lon="5.48562">
        <ele>265.7</ele>
        <time>2020-02-24T10:08:23Z</time>
      </trkpt>
      <trkpt lat="46.60856" lon="5.48558">
        <ele>264.7</ele>
        <time>2020-02-24T10:08:29Z</time>
      </trkpt>
      <trkpt lat="46.6086" lon="5.48556">
        <ele>264.2</ele>
        <time>2020-02-24T10:08:35Z</time>
      </trkpt>
      <trkpt lat="46.60868" lon="5.48554">
        <ele>265.1</ele>
        <time>2020-02-24T10:09:23Z</time>
      </trkpt>
      <trkpt lat="46.60872" lon="5.48552">
        <ele>265.2</ele>
        <time>2020-02-24T10:09:30Z</time>
      </trkpt>
      <trkpt lat="46.60878" lon="5.48552">
        <ele>265.3</ele>
        <time>2020-02-24T10:09:35Z</time>
      </trkpt>
      <trkpt lat="46.60883" lon="5.48552">
        <ele>265.5</ele>
        <time>2020-02-24T10:09:38Z</time>
      </trkpt>
      <trkpt lat="46.60888" lon="5.48551">
        <ele>265.7</ele>
        <time>2020-02-24T10:09:45Z</time>
      </trkpt>
      <trkpt lat="46.60893" lon="5.4855">
        <ele>265.8</ele>
        <time>2020-02-24T10:09:48Z</time>
      </trkpt>
      <trkpt lat="46.60899" lon="5.48549">
        <ele>265.8</ele>
        <time>2020-02-24T10:09:50Z</time>
      </trkpt>
      <trkpt lat="46.60903" lon="5.4855">
        <ele>265.9</ele>
        <time>2020-02-24T10:09:55Z</time>
      </trkpt>
      <trkpt lat="46.60908" lon="5.48547">
        <ele>265.6</ele>
        <time>2020-02-24T10:10:05Z</time>
      </trkpt>
      <trkpt lat="46.60913" lon="5.48548">
        <ele>265.2</ele>
        <time>2020-02-24T10:10:12Z</time>
      </trkpt>
      <trkpt lat="46.60918" lon="5.48549">
        <ele>264.5</ele>
        <time>2020-02-24T10:10:18Z</time>
      </trkpt>
      <trkpt lat="46.60923" lon="5.48548">
        <ele>263.8</ele>
        <time>2020-02-24T10:10:23Z</time>
      </trkpt>
      <trkpt lat="46.60927" lon="5.48547">
        <ele>262.6</ele>
        <time>2020-02-24T10:10:29Z</time>
      </trkpt>
      <trkpt lat="46.60932" lon="5.48542">
        <ele>261.7</ele>
        <time>2020-02-24T10:10:34Z</time>
      </trkpt>
      <trkpt lat="46.60935" lon="5.48538">
        <ele>261.2</ele>
        <time>2020-02-24T10:10:38Z</time>
      </trkpt>
      <trkpt lat="46.60939" lon="5.48533">
        <ele>260.7</ele>
        <time>2020-02-24T10:10:42Z</time>
      </trkpt>
      <trkpt lat="46.60941" lon="5.48528">
        <ele>260.2</ele>
        <time>2020-02-24T10:10:45Z</time>
      </trkpt>
      <trkpt lat="46.60945" lon="5.48523">
        <ele>259.3</ele>
        <time>2020-02-24T10:10:52Z</time>
      </trkpt>
      <trkpt lat="46.60948" lon="5.48517">
        <ele>258.5</ele>
        <time>2020-02-24T10:10:57Z</time>
      </trkpt>
      <trkpt lat="46.60951" lon="5.48512">
        <ele>257.7</ele>
        <time>2020-02-24T10:11:02Z</time>
      </trkpt>
      <trkpt lat="46.60955" lon="5.48507">
        <ele>256.8</ele>
        <time>2020-02-24T10:11:07Z</time>
      </trkpt>
      <trkpt lat="46.60959" lon="5.48503">
        <ele>255.9</ele>
        <time>2020-02-24T10:11:12Z</time>
      </trkpt>
      <trkpt lat="46.60962" lon="5.48498">
        <ele>255.4</ele>
        <time>2020-02-24T10:11:16Z</time>
      </trkpt>
      <trkpt lat="46.60965" lon="5.48493">
        <ele>254.6</ele>
        <time>2020-02-24T10:11:21Z</time>
      </trkpt>
      <trkpt lat="46.60968" lon="5.48488">
        <ele>253.9</ele>
        <time>2020-02-24T10:11:25Z</time>
      </trkpt>
      <trkpt lat="46.60973" lon="5.48484">
        <ele>253.2</ele>
        <time>2020-02-24T10:11:29Z</time>
      </trkpt>
      <trkpt lat="46.60977" lon="5.48481">
        <ele>252.4</ele>
        <time>2020-02-24T10:11:34Z</time>
      </trkpt>
      <trkpt lat="46.60982" lon="5.48479">
        <ele>251.7</ele>
        <time>2020-02-24T10:11:40Z</time>
      </trkpt>
      <trkpt lat="46.60987" lon="5.48478">
        <ele>251.6</ele>
        <time>2020-02-24T10:11:44Z</time>
      </trkpt>
      <trkpt lat="46.60992" lon="5.48474">
        <ele>251.2</ele>
        <time>2020-02-24T10:11:49Z</time>
      </trkpt>
      <trkpt lat="46.60996" lon="5.48471">
        <ele>250.9</ele>
        <time>2020-02-24T10:11:53Z</time>
      </trkpt>
      <trkpt lat="46.61" lon="5.48467">
        <ele>250.6</ele>
        <time>2020-02-24T10:11:57Z</time>
      </trkpt>
      <trkpt lat="46.61004" lon="5.48462">
        <ele>250.4</ele>
        <time>2020-02-24T10:12:01Z</time>
      </trkpt>
      <trkpt lat="46.61008" lon="5.48458">
        <ele>250.1</ele>
        <time>2020-02-24T10:12:06Z</time>
      </trkpt>
      <trkpt lat="46.61011" lon="5.48451">
        <ele>249.5</ele>
        <time>2020-02-24T10:12:12Z</time>
      </trkpt>
      <trkpt lat="46.61014" lon="5.48445">
        <ele>248.6</ele>
        <time>2020-02-24T10:12:17Z</time>
      </trkpt>
      <trkpt lat="46.61017" lon="5.48437">
        <ele>247.7</ele>
        <time>2020-02-24T10:12:22Z</time>
      </trkpt>
      <trkpt lat="46.61018" lon="5.48431">
        <ele>246.8</ele>
        <time>2020-02-24T10:12:26Z</time>
      </trkpt>
      <trkpt lat="46.61021" lon="5.48423">
        <ele>245.9</ele>
        <time>2020-02-24T10:12:31Z</time>
      </trkpt>
      <trkpt lat="46.61023" lon="5.48417">
        <ele>245</ele>
        <time>2020-02-24T10:12:35Z</time>
      </trkpt>
      <trkpt lat="46.61025" lon="5.4841">
        <ele>244.2</ele>
        <time>2020-02-24T10:12:40Z</time>
      </trkpt>
      <trkpt lat="46.61026" lon="5.48403">
        <ele>243.5</ele>
        <time>2020-02-24T10:12:44Z</time>
      </trkpt>
      <trkpt lat="46.61026" lon="5.48395">
        <ele>243</ele>
        <time>2020-02-24T10:12:48Z</time>
      </trkpt>
      <trkpt lat="46.61026" lon="5.48389">
        <ele>242.7</ele>
        <time>2020-02-24T10:12:51Z</time>
      </trkpt>
      <trkpt lat="46.61026" lon="5.48381">
        <ele>242.1</ele>
        <time>2020-02-24T10:12:56Z</time>
      </trkpt>
      <trkpt lat="46.61027" lon="5.48372">
        <ele>241.7</ele>
        <time>2020-02-24T10:13:00Z</time>
      </trkpt>
      <trkpt lat="46.61027" lon="5.48364">
        <ele>241.4</ele>
        <time>2020-02-24T10:13:04Z</time>
      </trkpt>
      <trkpt lat="46.61028" lon="5.48358">
        <ele>241.1</ele>
        <time>2020-02-24T10:13:08Z</time>
      </trkpt>
      <trkpt lat="46.61029" lon="5.4835">
        <ele>240.5</ele>
        <time>2020-02-24T10:13:13Z</time>
      </trkpt>
      <trkpt lat="46.61029" lon="5.48343">
        <ele>240</ele>
        <time>2020-02-24T10:13:19Z</time>
      </trkpt>
      <trkpt lat="46.6103" lon="5.48336">
        <ele>239.7</ele>
        <time>2020-02-24T10:13:24Z</time>
      </trkpt>
      <trkpt lat="46.61032" lon="5.48328">
        <ele>239.5</ele>
        <time>2020-02-24T10:13:28Z</time>
      </trkpt>
      <trkpt lat="46.61033" lon="5.4832">
        <ele>239.4</ele>
        <time>2020-02-24T10:13:32Z</time>
      </trkpt>
      <trkpt lat="46.61033" lon="5.48313">
        <ele>239.3</ele>
        <time>2020-02-24T10:13:36Z</time>
      </trkpt>
      <trkpt lat="46.61033" lon="5.48307">
        <ele>239.2</ele>
        <time>2020-02-24T10:13:40Z</time>
      </trkpt>
      <trkpt lat="46.61033" lon="5.48299">
        <ele>239.1</ele>
        <time>2020-02-24T10:13:44Z</time>
      </trkpt>
      <trkpt lat="46.61034" lon="5.48292">
        <ele>238.9</ele>
        <time>2020-02-24T10:13:48Z</time>
      </trkpt>
      <trkpt lat="46.61034" lon="5.48284">
        <ele>238.8</ele>
        <time>2020-02-24T10:13:53Z</time>
      </trkpt>
      <trkpt lat="46.61034" lon="5.48277">
        <ele>238.6</ele>
        <time>2020-02-24T10:13:57Z</time>
      </trkpt>
      <trkpt lat="46.61035" lon="5.4827">
        <ele>238.3</ele>
        <time>2020-02-24T10:14:01Z</time>
      </trkpt>
      <trkpt lat="46.61035" lon="5.48263">
        <ele>238.1</ele>
        <time>2020-02-24T10:14:06Z</time>
      </trkpt>
      <trkpt lat="46.61035" lon="5.48256">
        <ele>237.8</ele>
        <time>2020-02-24T10:14:11Z</time>
      </trkpt>
      <trkpt lat="46.61036" lon="5.48249">
        <ele>237.4</ele>
        <time>2020-02-24T10:14:16Z</time>
      </trkpt>
      <trkpt lat="46.61036" lon="5.48242">
        <ele>237</ele>
        <time>2020-02-24T10:14:21Z</time>
      </trkpt>
      <trkpt lat="46.61037" lon="5.48235">
        <ele>236.5</ele>
        <time>2020-02-24T10:14:26Z</time>
      </trkpt>
      <trkpt lat="46.61038" lon="5.48228">
        <ele>236</ele>
        <time>2020-02-24T10:14:30Z</time>
      </trkpt>
      <trkpt lat="46.61039" lon="5.48222">
        <ele>235.5</ele>
        <time>2020-02-24T10:14:34Z</time>
      </trkpt>
      <trkpt lat="46.6104" lon="5.48214">
        <ele>234.9</ele>
        <time>2020-02-24T10:14:39Z</time>
      </trkpt>
      <trkpt lat="46.6104" lon="5.48208">
        <ele>234.3</ele>
        <time>2020-02-24T10:14:44Z</time>
      </trkpt>
      <trkpt lat="46.61041" lon="5.48201">
        <ele>233.8</ele>
        <time>2020-02-24T10:14:49Z</time>
      </trkpt>
      <trkpt lat="46.6104" lon="5.48194">
        <ele>233.5</ele>
        <time>2020-02-24T10:14:54Z</time>
      </trkpt>
      <trkpt lat="46.61041" lon="5.48187">
        <ele>233.4</ele>
        <time>2020-02-24T10:14:57Z</time>
      </trkpt>
      <trkpt lat="46.61042" lon="5.48179">
        <ele>233.3</ele>
        <time>2020-02-24T10:15:01Z</time>
      </trkpt>
      <trkpt lat="46.61042" lon="5.48171">
        <ele>233.2</ele>
        <time>2020-02-24T10:15:05Z</time>
      </trkpt>
      <trkpt lat="46.61042" lon="5.48164">
        <ele>233.4</ele>
        <time>2020-02-24T10:15:11Z</time>
      </trkpt>
      <trkpt lat="46.61042" lon="5.48157">
        <ele>233.7</ele>
        <time>2020-02-24T10:15:16Z</time>
      </trkpt>
      <trkpt lat="46.61041" lon="5.48149">
        <ele>233.7</ele>
        <time>2020-02-24T10:15:20Z</time>
      </trkpt>
      <trkpt lat="46.6104" lon="5.48142">
        <ele>233.6</ele>
        <time>2020-02-24T10:15:23Z</time>
      </trkpt>
      <trkpt lat="46.61041" lon="5.48135">
        <ele>233.6</ele>
        <time>2020-02-24T10:15:27Z</time>
      </trkpt>
      <trkpt lat="46.61043" lon="5.48129">
        <ele>233.7</ele>
        <time>2020-02-24T10:15:31Z</time>
      </trkpt>
      <trkpt lat="46.61045" lon="5.48121">
        <ele>233.9</ele>
        <time>2020-02-24T10:15:36Z</time>
      </trkpt>
      <trkpt lat="46.61046" lon="5.48113">
        <ele>234</ele>
        <time>2020-02-24T10:15:41Z</time>
      </trkpt>
      <trkpt lat="46.61047" lon="5.48106">
        <ele>233.9</ele>
        <time>2020-02-24T10:15:47Z</time>
      </trkpt>
      <trkpt lat="46.61047" lon="5.48099">
        <ele>233.8</ele>
        <time>2020-02-24T10:15:52Z</time>
      </trkpt>
      <trkpt lat="46.61049" lon="5.48093">
        <ele>233.6</ele>
        <time>2020-02-24T10:15:57Z</time>
      </trkpt>
      <trkpt lat="46.61049" lon="5.48085">
        <ele>233.4</ele>
        <time>2020-02-24T10:16:01Z</time>
      </trkpt>
      <trkpt lat="46.61049" lon="5.48078">
        <ele>233.4</ele>
        <time>2020-02-24T10:16:04Z</time>
      </trkpt>
      <trkpt lat="46.61049" lon="5.48071">
        <ele>233.3</ele>
        <time>2020-02-24T10:16:07Z</time>
      </trkpt>
      <trkpt lat="46.61049" lon="5.48064">
        <ele>233</ele>
        <time>2020-02-24T10:16:11Z</time>
      </trkpt>
      <trkpt lat="46.61048" lon="5.48057">
        <ele>232.7</ele>
        <time>2020-02-24T10:16:15Z</time>
      </trkpt>
      <trkpt lat="46.61046" lon="5.48049">
        <ele>232.3</ele>
        <time>2020-02-24T10:16:20Z</time>
      </trkpt>
      <trkpt lat="46.61044" lon="5.48042">
        <ele>231.9</ele>
        <time>2020-02-24T10:16:25Z</time>
      </trkpt>
      <trkpt lat="46.61044" lon="5.48035">
        <ele>231.6</ele>
        <time>2020-02-24T10:16:35Z</time>
      </trkpt>
      <trkpt lat="46.61041" lon="5.48029">
        <ele>231.7</ele>
        <time>2020-02-24T10:16:41Z</time>
      </trkpt>
      <trkpt lat="46.61038" lon="5.48023">
        <ele>231.6</ele>
        <time>2020-02-24T10:16:44Z</time>
      </trkpt>
      <trkpt lat="46.61035" lon="5.48017">
        <ele>231.5</ele>
        <time>2020-02-24T10:16:48Z</time>
      </trkpt>
      <trkpt lat="46.61031" lon="5.48013">
        <ele>231.1</ele>
        <time>2020-02-24T10:16:53Z</time>
      </trkpt>
      <trkpt lat="46.61029" lon="5.48007">
        <ele>230.7</ele>
        <time>2020-02-24T10:16:58Z</time>
      </trkpt>
      <trkpt lat="46.61025" lon="5.48">
        <ele>230.5</ele>
        <time>2020-02-24T10:17:03Z</time>
      </trkpt>
      <trkpt lat="46.61022" lon="5.47994">
        <ele>230.2</ele>
        <time>2020-02-24T10:17:08Z</time>
      </trkpt>
      <trkpt lat="46.6102" lon="5.47988">
        <ele>230.1</ele>
        <time>2020-02-24T10:17:12Z</time>
      </trkpt>
      <trkpt lat="46.61017" lon="5.47982">
        <ele>230.1</ele>
        <time>2020-02-24T10:17:16Z</time>
      </trkpt>
      <trkpt lat="46.61013" lon="5.47976">
        <ele>230.2</ele>
        <time>2020-02-24T10:17:21Z</time>
      </trkpt>
      <trkpt lat="46.61011" lon="5.4797">
        <ele>230.3</ele>
        <time>2020-02-24T10:17:26Z</time>
      </trkpt>
      <trkpt lat="46.61008" lon="5.47964">
        <ele>230.4</ele>
        <time>2020-02-24T10:17:31Z</time>
      </trkpt>
      <trkpt lat="46.61006" lon="5.47957">
        <ele>230.5</ele>
        <time>2020-02-24T10:17:37Z</time>
      </trkpt>
      <trkpt lat="46.61003" lon="5.4795">
        <ele>230.6</ele>
        <time>2020-02-24T10:17:41Z</time>
      </trkpt>
      <trkpt lat="46.60999" lon="5.47944">
        <ele>230.7</ele>
        <time>2020-02-24T10:17:45Z</time>
      </trkpt>
      <trkpt lat="46.60996" lon="5.47938">
        <ele>230.7</ele>
        <time>2020-02-24T10:17:49Z</time>
      </trkpt>
      <trkpt lat="46.60993" lon="5.47932">
        <ele>230.8</ele>
        <time>2020-02-24T10:17:53Z</time>
      </trkpt>
      <trkpt lat="46.6099" lon="5.47926">
        <ele>231.2</ele>
        <time>2020-02-24T10:18:01Z</time>
      </trkpt>
      <trkpt lat="46.60987" lon="5.47922">
        <ele>232.3</ele>
        <time>2020-02-24T10:18:12Z</time>
      </trkpt>
      <trkpt lat="46.60983" lon="5.47917">
        <ele>232.4</ele>
        <time>2020-02-24T10:18:18Z</time>
      </trkpt>
      <trkpt lat="46.6098" lon="5.47911">
        <ele>232.3</ele>
        <time>2020-02-24T10:18:22Z</time>
      </trkpt>
      <trkpt lat="46.60977" lon="5.47905">
        <ele>232</ele>
        <time>2020-02-24T10:18:27Z</time>
      </trkpt>
      <trkpt lat="46.60974" lon="5.479">
        <ele>231.7</ele>
        <time>2020-02-24T10:18:32Z</time>
      </trkpt>
      <trkpt lat="46.6097" lon="5.47895">
        <ele>231.5</ele>
        <time>2020-02-24T10:18:37Z</time>
      </trkpt>
      <trkpt lat="46.60968" lon="5.47889">
        <ele>231.4</ele>
        <time>2020-02-24T10:18:41Z</time>
      </trkpt>
      <trkpt lat="46.60964" lon="5.47884">
        <ele>231.4</ele>
        <time>2020-02-24T10:18:45Z</time>
      </trkpt>
      <trkpt lat="46.60961" lon="5.47878">
        <ele>231.3</ele>
        <time>2020-02-24T10:18:50Z</time>
      </trkpt>
      <trkpt lat="46.60957" lon="5.47873">
        <ele>231</ele>
        <time>2020-02-24T10:18:54Z</time>
      </trkpt>
      <trkpt lat="46.60954" lon="5.47867">
        <ele>230.6</ele>
        <time>2020-02-24T10:18:58Z</time>
      </trkpt>
      <trkpt lat="46.60951" lon="5.47861">
        <ele>230.1</ele>
        <time>2020-02-24T10:19:02Z</time>
      </trkpt>
      <trkpt lat="46.60948" lon="5.47854">
        <ele>229.8</ele>
        <time>2020-02-24T10:19:06Z</time>
      </trkpt>
      <trkpt lat="46.60945" lon="5.47849">
        <ele>229.7</ele>
        <time>2020-02-24T10:19:09Z</time>
      </trkpt>
      <trkpt lat="46.60941" lon="5.47844">
        <ele>229.7</ele>
        <time>2020-02-24T10:19:13Z</time>
      </trkpt>
      <trkpt lat="46.60937" lon="5.47838">
        <ele>229.9</ele>
        <time>2020-02-24T10:19:17Z</time>
      </trkpt>
      <trkpt lat="46.60933" lon="5.47833">
        <ele>230.2</ele>
        <time>2020-02-24T10:19:21Z</time>
      </trkpt>
      <trkpt lat="46.60929" lon="5.47827">
        <ele>230.6</ele>
        <time>2020-02-24T10:19:25Z</time>
      </trkpt>
      <trkpt lat="46.60926" lon="5.47821">
        <ele>230.7</ele>
        <time>2020-02-24T10:19:29Z</time>
      </trkpt>
      <trkpt lat="46.60923" lon="5.47814">
        <ele>230.9</ele>
        <time>2020-02-24T10:19:33Z</time>
      </trkpt>
      <trkpt lat="46.6092" lon="5.47808">
        <ele>231.2</ele>
        <time>2020-02-24T10:19:37Z</time>
      </trkpt>
      <trkpt lat="46.60917" lon="5.47803">
        <ele>231.3</ele>
        <time>2020-02-24T10:19:41Z</time>
      </trkpt>
      <trkpt lat="46.60913" lon="5.47799">
        <ele>231.2</ele>
        <time>2020-02-24T10:19:45Z</time>
      </trkpt>
      <trkpt lat="46.60909" lon="5.47793">
        <ele>231.2</ele>
        <time>2020-02-24T10:19:49Z</time>
      </trkpt>
      <trkpt lat="46.60906" lon="5.47788">
        <ele>231.3</ele>
        <time>2020-02-24T10:19:53Z</time>
      </trkpt>
      <trkpt lat="46.60903" lon="5.47783">
        <ele>231.5</ele>
        <time>2020-02-24T10:19:57Z</time>
      </trkpt>
      <trkpt lat="46.609" lon="5.47777">
        <ele>231.6</ele>
        <time>2020-02-24T10:20:02Z</time>
      </trkpt>
      <trkpt lat="46.60896" lon="5.47771">
        <ele>231.7</ele>
        <time>2020-02-24T10:20:07Z</time>
      </trkpt>
      <trkpt lat="46.60892" lon="5.47765">
        <ele>231.9</ele>
        <time>2020-02-24T10:20:11Z</time>
      </trkpt>
      <trkpt lat="46.60889" lon="5.4776">
        <ele>232.1</ele>
        <time>2020-02-24T10:20:15Z</time>
      </trkpt>
      <trkpt lat="46.60885" lon="5.47755">
        <ele>232.4</ele>
        <time>2020-02-24T10:20:20Z</time>
      </trkpt>
      <trkpt lat="46.60881" lon="5.4775">
        <ele>232.6</ele>
        <time>2020-02-24T10:20:25Z</time>
      </trkpt>
      <trkpt lat="46.60879" lon="5.47744">
        <ele>232.5</ele>
        <time>2020-02-24T10:20:29Z</time>
      </trkpt>
      <trkpt lat="46.60876" lon="5.47738">
        <ele>232.4</ele>
        <time>2020-02-24T10:20:34Z</time>
      </trkpt>
      <trkpt lat="46.60873" lon="5.47732">
        <ele>232.2</ele>
        <time>2020-02-24T10:20:39Z</time>
      </trkpt>
      <trkpt lat="46.60871" lon="5.47726">
        <ele>232.2</ele>
        <time>2020-02-24T10:20:44Z</time>
      </trkpt>
      <trkpt lat="46.60869" lon="5.47718">
        <ele>232.4</ele>
        <time>2020-02-24T10:20:49Z</time>
      </trkpt>
      <trkpt lat="46.60866" lon="5.47712">
        <ele>232.5</ele>
        <time>2020-02-24T10:20:53Z</time>
      </trkpt>
      <trkpt lat="46.60863" lon="5.47707">
        <ele>232.5</ele>
        <time>2020-02-24T10:20:58Z</time>
      </trkpt>
      <trkpt lat="46.6086" lon="5.477">
        <ele>232.5</ele>
        <time>2020-02-24T10:21:03Z</time>
      </trkpt>
      <trkpt lat="46.60857" lon="5.47695">
        <ele>232.4</ele>
        <time>2020-02-24T10:21:07Z</time>
      </trkpt>
      <trkpt lat="46.60854" lon="5.47689">
        <ele>232.2</ele>
        <time>2020-02-24T10:21:11Z</time>
      </trkpt>
      <trkpt lat="46.60849" lon="5.47686">
        <ele>232</ele>
        <time>2020-02-24T10:21:16Z</time>
      </trkpt>
      <trkpt lat="46.60845" lon="5.47681">
        <ele>231.8</ele>
        <time>2020-02-24T10:21:20Z</time>
      </trkpt>
      <trkpt lat="46.60842" lon="5.47675">
        <ele>231.7</ele>
        <time>2020-02-24T10:21:24Z</time>
      </trkpt>
      <trkpt lat="46.60837" lon="5.47672">
        <ele>231.6</ele>
        <time>2020-02-24T10:21:28Z</time>
      </trkpt>
      <trkpt lat="46.60833" lon="5.47669">
        <ele>231.6</ele>
        <time>2020-02-24T10:21:32Z</time>
      </trkpt>
      <trkpt lat="46.60829" lon="5.47665">
        <ele>231.6</ele>
        <time>2020-02-24T10:21:36Z</time>
      </trkpt>
      <trkpt lat="46.60828" lon="5.47658">
        <ele>231.4</ele>
        <time>2020-02-24T10:21:42Z</time>
      </trkpt>
      <trkpt lat="46.6083" lon="5.4765">
        <ele>231.1</ele>
        <time>2020-02-24T10:21:46Z</time>
      </trkpt>
      <trkpt lat="46.60832" lon="5.47643">
        <ele>230.9</ele>
        <time>2020-02-24T10:21:50Z</time>
      </trkpt>
      <trkpt lat="46.60835" lon="5.47636">
        <ele>230.8</ele>
        <time>2020-02-24T10:21:55Z</time>
      </trkpt>
      <trkpt lat="46.60836" lon="5.4763">
        <ele>231.3</ele>
        <time>2020-02-24T10:22:03Z</time>
      </trkpt>
      <trkpt lat="46.60839" lon="5.47623">
        <ele>231.7</ele>
        <time>2020-02-24T10:22:08Z</time>
      </trkpt>
      <trkpt lat="46.60841" lon="5.47616">
        <ele>231.8</ele>
        <time>2020-02-24T10:22:13Z</time>
      </trkpt>
      <trkpt lat="46.60841" lon="5.4761">
        <ele>231.4</ele>
        <time>2020-02-24T10:22:20Z</time>
      </trkpt>
      <trkpt lat="46.60839" lon="5.47603">
        <ele>230.7</ele>
        <time>2020-02-24T10:22:26Z</time>
      </trkpt>
      <trkpt lat="46.60836" lon="5.47599">
        <ele>230.4</ele>
        <time>2020-02-24T10:22:28Z</time>
      </trkpt>
      <trkpt lat="46.60832" lon="5.47593">
        <ele>230.1</ele>
        <time>2020-02-24T10:22:31Z</time>
      </trkpt>
      <trkpt lat="46.60829" lon="5.47588">
        <ele>229.6</ele>
        <time>2020-02-24T10:22:35Z</time>
      </trkpt>
      <trkpt lat="46.60827" lon="5.47582">
        <ele>229.2</ele>
        <time>2020-02-24T10:22:38Z</time>
      </trkpt>
      <trkpt lat="46.60824" lon="5.47576">
        <ele>228.7</ele>
        <time>2020-02-24T10:22:42Z</time>
      </trkpt>
      <trkpt lat="46.6082" lon="5.47569">
        <ele>228.2</ele>
        <time>2020-02-24T10:22:46Z</time>
      </trkpt>
      <trkpt lat="46.60816" lon="5.47564">
        <ele>227.8</ele>
        <time>2020-02-24T10:22:49Z</time>
      </trkpt>
      <trkpt lat="46.60813" lon="5.47559">
        <ele>227.4</ele>
        <time>2020-02-24T10:22:52Z</time>
      </trkpt>
      <trkpt lat="46.60809" lon="5.47554">
        <ele>227</ele>
        <time>2020-02-24T10:22:55Z</time>
      </trkpt>
      <trkpt lat="46.60804" lon="5.4755">
        <ele>226.7</ele>
        <time>2020-02-24T10:22:59Z</time>
      </trkpt>
      <trkpt lat="46.608" lon="5.47545">
        <ele>226.4</ele>
        <time>2020-02-24T10:23:03Z</time>
      </trkpt>
      <trkpt lat="46.60797" lon="5.47541">
        <ele>226.2</ele>
        <time>2020-02-24T10:23:07Z</time>
      </trkpt>
      <trkpt lat="46.60792" lon="5.47539">
        <ele>226.2</ele>
        <time>2020-02-24T10:23:11Z</time>
      </trkpt>
      <trkpt lat="46.60788" lon="5.47536">
        <ele>226.3</ele>
        <time>2020-02-24T10:23:15Z</time>
      </trkpt>
      <trkpt lat="46.60784" lon="5.4753">
        <ele>226.3</ele>
        <time>2020-02-24T10:23:19Z</time>
      </trkpt>
      <trkpt lat="46.6078" lon="5.47526">
        <ele>226.3</ele>
        <time>2020-02-24T10:23:24Z</time>
      </trkpt>
      <trkpt lat="46.60777" lon="5.47521">
        <ele>226.1</ele>
        <time>2020-02-24T10:23:28Z</time>
      </trkpt>
      <trkpt lat="46.60774" lon="5.47516">
        <ele>225.8</ele>
        <time>2020-02-24T10:23:32Z</time>
      </trkpt>
      <trkpt lat="46.6077" lon="5.47511">
        <ele>225.4</ele>
        <time>2020-02-24T10:23:36Z</time>
      </trkpt>
      <trkpt lat="46.60767" lon="5.47506">
        <ele>225</ele>
        <time>2020-02-24T10:23:40Z</time>
      </trkpt>
      <trkpt lat="46.60763" lon="5.47502">
        <ele>224.8</ele>
        <time>2020-02-24T10:23:43Z</time>
      </trkpt>
      <trkpt lat="46.60758" lon="5.47499">
        <ele>224.6</ele>
        <time>2020-02-24T10:23:46Z</time>
      </trkpt>
      <trkpt lat="46.60754" lon="5.47495">
        <ele>224.5</ele>
        <time>2020-02-24T10:23:50Z</time>
      </trkpt>
      <trkpt lat="46.6075" lon="5.47491">
        <ele>224.5</ele>
        <time>2020-02-24T10:23:54Z</time>
      </trkpt>
      <trkpt lat="46.60746" lon="5.47486">
        <ele>224.3</ele>
        <time>2020-02-24T10:23:59Z</time>
      </trkpt>
      <trkpt lat="46.60741" lon="5.47482">
        <ele>224.1</ele>
        <time>2020-02-24T10:24:04Z</time>
      </trkpt>
      <trkpt lat="46.60736" lon="5.47477">
        <ele>223.9</ele>
        <time>2020-02-24T10:24:09Z</time>
      </trkpt>
      <trkpt lat="46.60731" lon="5.47472">
        <ele>224</ele>
        <time>2020-02-24T10:24:14Z</time>
      </trkpt>
      <trkpt lat="46.60726" lon="5.47468">
        <ele>224.1</ele>
        <time>2020-02-24T10:24:18Z</time>
      </trkpt>
      <trkpt lat="46.60723" lon="5.47463">
        <ele>224.1</ele>
        <time>2020-02-24T10:24:22Z</time>
      </trkpt>
      <trkpt lat="46.6072" lon="5.47457">
        <ele>224</ele>
        <time>2020-02-24T10:24:27Z</time>
      </trkpt>
      <trkpt lat="46.60716" lon="5.47453">
        <ele>223.9</ele>
        <time>2020-02-24T10:24:32Z</time>
      </trkpt>
      <trkpt lat="46.60713" lon="5.47448">
        <ele>223.8</ele>
        <time>2020-02-24T10:24:35Z</time>
      </trkpt>
      <trkpt lat="46.60709" lon="5.47442">
        <ele>223.8</ele>
        <time>2020-02-24T10:24:39Z</time>
      </trkpt>
      <trkpt lat="46.60707" lon="5.47436">
        <ele>224</ele>
        <time>2020-02-24T10:24:43Z</time>
      </trkpt>
      <trkpt lat="46.60704" lon="5.47429">
        <ele>224.2</ele>
        <time>2020-02-24T10:24:48Z</time>
      </trkpt>
      <trkpt lat="46.60702" lon="5.47422">
        <ele>224.4</ele>
        <time>2020-02-24T10:24:52Z</time>
      </trkpt>
      <trkpt lat="46.60701" lon="5.47415">
        <ele>224.5</ele>
        <time>2020-02-24T10:24:56Z</time>
      </trkpt>
      <trkpt lat="46.607" lon="5.47408">
        <ele>224.7</ele>
        <time>2020-02-24T10:25:01Z</time>
      </trkpt>
      <trkpt lat="46.60699" lon="5.47401">
        <ele>225.2</ele>
        <time>2020-02-24T10:25:06Z</time>
      </trkpt>
      <trkpt lat="46.60699" lon="5.47394">
        <ele>225.6</ele>
        <time>2020-02-24T10:25:10Z</time>
      </trkpt>
      <trkpt lat="46.60697" lon="5.47388">
        <ele>225.7</ele>
        <time>2020-02-24T10:25:14Z</time>
      </trkpt>
      <trkpt lat="46.60694" lon="5.47382">
        <ele>225.8</ele>
        <time>2020-02-24T10:25:18Z</time>
      </trkpt>
      <trkpt lat="46.60692" lon="5.47376">
        <ele>225.6</ele>
        <time>2020-02-24T10:25:23Z</time>
      </trkpt>
      <trkpt lat="46.60687" lon="5.4737">
        <ele>225.5</ele>
        <time>2020-02-24T10:25:29Z</time>
      </trkpt>
      <trkpt lat="46.60682" lon="5.47368">
        <ele>225.6</ele>
        <time>2020-02-24T10:25:31Z</time>
      </trkpt>
      <trkpt lat="46.60678" lon="5.47366">
        <ele>225.6</ele>
        <time>2020-02-24T10:25:34Z</time>
      </trkpt>
      <trkpt lat="46.60673" lon="5.47364">
        <ele>225.5</ele>
        <time>2020-02-24T10:25:39Z</time>
      </trkpt>
      <trkpt lat="46.60668" lon="5.47362">
        <ele>225.5</ele>
        <time>2020-02-24T10:25:43Z</time>
      </trkpt>
      <trkpt lat="46.60663" lon="5.4736">
        <ele>225.5</ele>
        <time>2020-02-24T10:25:47Z</time>
      </trkpt>
      <trkpt lat="46.60658" lon="5.4736">
        <ele>225.5</ele>
        <time>2020-02-24T10:25:51Z</time>
      </trkpt>
      <trkpt lat="46.60653" lon="5.47361">
        <ele>225.6</ele>
        <time>2020-02-24T10:25:55Z</time>
      </trkpt>
      <trkpt lat="46.60649" lon="5.47362">
        <ele>225.9</ele>
        <time>2020-02-24T10:25:59Z</time>
      </trkpt>
      <trkpt lat="46.60644" lon="5.47361">
        <ele>226</ele>
        <time>2020-02-24T10:26:03Z</time>
      </trkpt>
      <trkpt lat="46.60639" lon="5.47362">
        <ele>226.2</ele>
        <time>2020-02-24T10:26:08Z</time>
      </trkpt>
      <trkpt lat="46.60634" lon="5.47362">
        <ele>225.9</ele>
        <time>2020-02-24T10:26:14Z</time>
      </trkpt>
      <trkpt lat="46.60629" lon="5.47361">
        <ele>225.5</ele>
        <time>2020-02-24T10:26:20Z</time>
      </trkpt>
      <trkpt lat="46.60623" lon="5.47361">
        <ele>225.2</ele>
        <time>2020-02-24T10:26:24Z</time>
      </trkpt>
      <trkpt lat="46.60617" lon="5.47361">
        <ele>225</ele>
        <time>2020-02-24T10:26:28Z</time>
      </trkpt>
      <trkpt lat="46.60612" lon="5.47359">
        <ele>224.8</ele>
        <time>2020-02-24T10:26:32Z</time>
      </trkpt>
      <trkpt lat="46.60607" lon="5.47356">
        <ele>224.4</ele>
        <time>2020-02-24T10:26:37Z</time>
      </trkpt>
      <trkpt lat="46.60603" lon="5.47353">
        <ele>224.1</ele>
        <time>2020-02-24T10:26:41Z</time>
      </trkpt>
      <trkpt lat="46.60599" lon="5.4735">
        <ele>223.7</ele>
        <time>2020-02-24T10:26:45Z</time>
      </trkpt>
      <trkpt lat="46.60594" lon="5.47347">
        <ele>223.2</ele>
        <time>2020-02-24T10:26:49Z</time>
      </trkpt>
      <trkpt lat="46.6059" lon="5.47343">
        <ele>222.9</ele>
        <time>2020-02-24T10:26:55Z</time>
      </trkpt>
      <trkpt lat="46.60586" lon="5.47339">
        <ele>222.6</ele>
        <time>2020-02-24T10:27:00Z</time>
      </trkpt>
      <trkpt lat="46.60582" lon="5.47334">
        <ele>222.4</ele>
        <time>2020-02-24T10:27:04Z</time>
      </trkpt>
      <trkpt lat="46.60576" lon="5.47323">
        <ele>222.1</ele>
        <time>2020-02-24T10:27:13Z</time>
      </trkpt>
      <trkpt lat="46.60572" lon="5.47317">
        <ele>222.3</ele>
        <time>2020-02-24T10:27:17Z</time>
      </trkpt>
      <trkpt lat="46.6057" lon="5.47311">
        <ele>222.3</ele>
        <time>2020-02-24T10:27:21Z</time>
      </trkpt>
      <trkpt lat="46.60568" lon="5.47305">
        <ele>222.4</ele>
        <time>2020-02-24T10:27:25Z</time>
      </trkpt>
      <trkpt lat="46.60566" lon="5.47298">
        <ele>222.7</ele>
        <time>2020-02-24T10:27:30Z</time>
      </trkpt>
      <trkpt lat="46.60565" lon="5.47291">
        <ele>223</ele>
        <time>2020-02-24T10:27:36Z</time>
      </trkpt>
      <trkpt lat="46.60565" lon="5.47283">
        <ele>223</ele>
        <time>2020-02-24T10:27:41Z</time>
      </trkpt>
      <trkpt lat="46.60564" lon="5.47276">
        <ele>223</ele>
        <time>2020-02-24T10:27:46Z</time>
      </trkpt>
      <trkpt lat="46.60561" lon="5.4727">
        <ele>222.7</ele>
        <time>2020-02-24T10:27:52Z</time>
      </trkpt>
      <trkpt lat="46.60557" lon="5.47266">
        <ele>222.4</ele>
        <time>2020-02-24T10:27:59Z</time>
      </trkpt>
      <trkpt lat="46.60552" lon="5.47263">
        <ele>222.4</ele>
        <time>2020-02-24T10:28:04Z</time>
      </trkpt>
      <trkpt lat="46.60548" lon="5.4726">
        <ele>222.3</ele>
        <time>2020-02-24T10:28:08Z</time>
      </trkpt>
      <trkpt lat="46.60543" lon="5.47258">
        <ele>222</ele>
        <time>2020-02-24T10:28:12Z</time>
      </trkpt>
      <trkpt lat="46.60539" lon="5.47254">
        <ele>221.8</ele>
        <time>2020-02-24T10:28:16Z</time>
      </trkpt>
      <trkpt lat="46.60535" lon="5.47249">
        <ele>221.6</ele>
        <time>2020-02-24T10:28:20Z</time>
      </trkpt>
      <trkpt lat="46.60531" lon="5.47246">
        <ele>221.5</ele>
        <time>2020-02-24T10:28:25Z</time>
      </trkpt>
      <trkpt lat="46.60527" lon="5.47242">
        <ele>221.2</ele>
        <time>2020-02-24T10:28:29Z</time>
      </trkpt>
      <trkpt lat="46.60522" lon="5.47239">
        <ele>220.9</ele>
        <time>2020-02-24T10:28:34Z</time>
      </trkpt>
      <trkpt lat="46.60518" lon="5.47235">
        <ele>220.5</ele>
        <time>2020-02-24T10:28:38Z</time>
      </trkpt>
      <trkpt lat="46.60513" lon="5.47231">
        <ele>220.3</ele>
        <time>2020-02-24T10:28:42Z</time>
      </trkpt>
      <trkpt lat="46.60507" lon="5.47226">
        <ele>220.3</ele>
        <time>2020-02-24T10:28:45Z</time>
      </trkpt>
      <trkpt lat="46.60503" lon="5.47221">
        <ele>220.2</ele>
        <time>2020-02-24T10:28:49Z</time>
      </trkpt>
      <trkpt lat="46.60499" lon="5.47217">
        <ele>219.9</ele>
        <time>2020-02-24T10:28:54Z</time>
      </trkpt>
      <trkpt lat="46.60494" lon="5.47215">
        <ele>219.7</ele>
        <time>2020-02-24T10:28:59Z</time>
      </trkpt>
      <trkpt lat="46.6049" lon="5.47214">
        <ele>219.4</ele>
        <time>2020-02-24T10:29:03Z</time>
      </trkpt>
      <trkpt lat="46.60485" lon="5.47212">
        <ele>219.1</ele>
        <time>2020-02-24T10:29:07Z</time>
      </trkpt>
      <trkpt lat="46.6048" lon="5.47209">
        <ele>218.5</ele>
        <time>2020-02-24T10:29:13Z</time>
      </trkpt>
      <trkpt lat="46.60475" lon="5.47205">
        <ele>218.2</ele>
        <time>2020-02-24T10:29:18Z</time>
      </trkpt>
      <trkpt lat="46.60471" lon="5.47202">
        <ele>217.9</ele>
        <time>2020-02-24T10:29:23Z</time>
      </trkpt>
      <trkpt lat="46.60465" lon="5.472">
        <ele>217.6</ele>
        <time>2020-02-24T10:29:28Z</time>
      </trkpt>
      <trkpt lat="46.6046" lon="5.47197">
        <ele>217.4</ele>
        <time>2020-02-24T10:29:32Z</time>
      </trkpt>
      <trkpt lat="46.60455" lon="5.47194">
        <ele>217.1</ele>
        <time>2020-02-24T10:29:36Z</time>
      </trkpt>
      <trkpt lat="46.60449" lon="5.47191">
        <ele>216.8</ele>
        <time>2020-02-24T10:29:40Z</time>
      </trkpt>
      <trkpt lat="46.60444" lon="5.47187">
        <ele>216.6</ele>
        <time>2020-02-24T10:29:44Z</time>
      </trkpt>
      <trkpt lat="46.60439" lon="5.47184">
        <ele>216.5</ele>
        <time>2020-02-24T10:29:48Z</time>
      </trkpt>
      <trkpt lat="46.60435" lon="5.47179">
        <ele>216.5</ele>
        <time>2020-02-24T10:29:53Z</time>
      </trkpt>
      <trkpt lat="46.60431" lon="5.47174">
        <ele>216.4</ele>
        <time>2020-02-24T10:29:57Z</time>
      </trkpt>
      <trkpt lat="46.60428" lon="5.4717">
        <ele>216.1</ele>
        <time>2020-02-24T10:30:01Z</time>
      </trkpt>
      <trkpt lat="46.60423" lon="5.47167">
        <ele>215.8</ele>
        <time>2020-02-24T10:30:05Z</time>
      </trkpt>
      <trkpt lat="46.60418" lon="5.47165">
        <ele>215.3</ele>
        <time>2020-02-24T10:30:10Z</time>
      </trkpt>
      <trkpt lat="46.60413" lon="5.47162">
        <ele>215</ele>
        <time>2020-02-24T10:30:14Z</time>
      </trkpt>
      <trkpt lat="46.60408" lon="5.4716">
        <ele>214.8</ele>
        <time>2020-02-24T10:30:19Z</time>
      </trkpt>
      <trkpt lat="46.60403" lon="5.47156">
        <ele>214.6</ele>
        <time>2020-02-24T10:30:24Z</time>
      </trkpt>
      <trkpt lat="46.60399" lon="5.47152">
        <ele>214.5</ele>
        <time>2020-02-24T10:30:29Z</time>
      </trkpt>
      <trkpt lat="46.60394" lon="5.47148">
        <ele>214.2</ele>
        <time>2020-02-24T10:30:32Z</time>
      </trkpt>
      <trkpt lat="46.6039" lon="5.47144">
        <ele>213.5</ele>
        <time>2020-02-24T10:30:37Z</time>
      </trkpt>
      <trkpt lat="46.60384" lon="5.47142">
        <ele>212.9</ele>
        <time>2020-02-24T10:30:41Z</time>
      </trkpt>
      <trkpt lat="46.60379" lon="5.4714">
        <ele>212.3</ele>
        <time>2020-02-24T10:30:45Z</time>
      </trkpt>
      <trkpt lat="46.60374" lon="5.47138">
        <ele>211.7</ele>
        <time>2020-02-24T10:30:49Z</time>
      </trkpt>
      <trkpt lat="46.60369" lon="5.47136">
        <ele>211.3</ele>
        <time>2020-02-24T10:30:53Z</time>
      </trkpt>
      <trkpt lat="46.60365" lon="5.47134">
        <ele>211</ele>
        <time>2020-02-24T10:30:57Z</time>
      </trkpt>
      <trkpt lat="46.6036" lon="5.47133">
        <ele>210.7</ele>
        <time>2020-02-24T10:31:02Z</time>
      </trkpt>
      <trkpt lat="46.60354" lon="5.47133">
        <ele>210.7</ele>
        <time>2020-02-24T10:31:07Z</time>
      </trkpt>
      <trkpt lat="46.6035" lon="5.47133">
        <ele>210.8</ele>
        <time>2020-02-24T10:31:11Z</time>
      </trkpt>
      <trkpt lat="46.60345" lon="5.47133">
        <ele>210.9</ele>
        <time>2020-02-24T10:31:16Z</time>
      </trkpt>
      <trkpt lat="46.60341" lon="5.4713">
        <ele>210.9</ele>
        <time>2020-02-24T10:31:23Z</time>
      </trkpt>
      <trkpt lat="46.60336" lon="5.47127">
        <ele>210.8</ele>
        <time>2020-02-24T10:31:30Z</time>
      </trkpt>
      <trkpt lat="46.60331" lon="5.47124">
        <ele>210.6</ele>
        <time>2020-02-24T10:31:35Z</time>
      </trkpt>
      <trkpt lat="46.60327" lon="5.47121">
        <ele>210.5</ele>
        <time>2020-02-24T10:31:39Z</time>
      </trkpt>
      <trkpt lat="46.60322" lon="5.47119">
        <ele>210.4</ele>
        <time>2020-02-24T10:31:43Z</time>
      </trkpt>
      <trkpt lat="46.60317" lon="5.47117">
        <ele>210.4</ele>
        <time>2020-02-24T10:31:46Z</time>
      </trkpt>
      <trkpt lat="46.60313" lon="5.47114">
        <ele>210.5</ele>
        <time>2020-02-24T10:31:50Z</time>
      </trkpt>
      <trkpt lat="46.60309" lon="5.4711">
        <ele>210.7</ele>
        <time>2020-02-24T10:31:55Z</time>
      </trkpt>
      <trkpt lat="46.60303" lon="5.47107">
        <ele>211</ele>
        <time>2020-02-24T10:32:00Z</time>
      </trkpt>
      <trkpt lat="46.60299" lon="5.47104">
        <ele>211.1</ele>
        <time>2020-02-24T10:32:03Z</time>
      </trkpt>
      <trkpt lat="46.60295" lon="5.47099">
        <ele>211.3</ele>
        <time>2020-02-24T10:32:08Z</time>
      </trkpt>
      <trkpt lat="46.60291" lon="5.47094">
        <ele>211.5</ele>
        <time>2020-02-24T10:32:12Z</time>
      </trkpt>
      <trkpt lat="46.60287" lon="5.4709">
        <ele>211.8</ele>
        <time>2020-02-24T10:32:17Z</time>
      </trkpt>
      <trkpt lat="46.60282" lon="5.47087">
        <ele>211.9</ele>
        <time>2020-02-24T10:32:22Z</time>
      </trkpt>
      <trkpt lat="46.60277" lon="5.47084">
        <ele>211.8</ele>
        <time>2020-02-24T10:32:26Z</time>
      </trkpt>
      <trkpt lat="46.60272" lon="5.4708">
        <ele>211.4</ele>
        <time>2020-02-24T10:32:31Z</time>
      </trkpt>
      <trkpt lat="46.60268" lon="5.47076">
        <ele>211.1</ele>
        <time>2020-02-24T10:32:35Z</time>
      </trkpt>
      <trkpt lat="46.60264" lon="5.47071">
        <ele>210.6</ele>
        <time>2020-02-24T10:32:40Z</time>
      </trkpt>
      <trkpt lat="46.6026" lon="5.47068">
        <ele>210.3</ele>
        <time>2020-02-24T10:32:44Z</time>
      </trkpt>
      <trkpt lat="46.60255" lon="5.47065">
        <ele>210.1</ele>
        <time>2020-02-24T10:32:49Z</time>
      </trkpt>
      <trkpt lat="46.6025" lon="5.47062">
        <ele>210</ele>
        <time>2020-02-24T10:32:55Z</time>
      </trkpt>
      <trkpt lat="46.60245" lon="5.47058">
        <ele>210</ele>
        <time>2020-02-24T10:32:59Z</time>
      </trkpt>
      <trkpt lat="46.60241" lon="5.47053">
        <ele>210.1</ele>
        <time>2020-02-24T10:33:02Z</time>
      </trkpt>
      <trkpt lat="46.60237" lon="5.4705">
        <ele>209.9</ele>
        <time>2020-02-24T10:33:06Z</time>
      </trkpt>
      <trkpt lat="46.60232" lon="5.47047">
        <ele>209.7</ele>
        <time>2020-02-24T10:33:10Z</time>
      </trkpt>
      <trkpt lat="46.60228" lon="5.47042">
        <ele>209.4</ele>
        <time>2020-02-24T10:33:14Z</time>
      </trkpt>
      <trkpt lat="46.60224" lon="5.47037">
        <ele>209.1</ele>
        <time>2020-02-24T10:33:18Z</time>
      </trkpt>
      <trkpt lat="46.6022" lon="5.47033">
        <ele>209</ele>
        <time>2020-02-24T10:33:21Z</time>
      </trkpt>
      <trkpt lat="46.60216" lon="5.4703">
        <ele>209</ele>
        <time>2020-02-24T10:33:25Z</time>
      </trkpt>
      <trkpt lat="46.60211" lon="5.47026">
        <ele>208.8</ele>
        <time>2020-02-24T10:33:30Z</time>
      </trkpt>
      <trkpt lat="46.60206" lon="5.47023">
        <ele>208.7</ele>
        <time>2020-02-24T10:33:35Z</time>
      </trkpt>
      <trkpt lat="46.60202" lon="5.47018">
        <ele>208.6</ele>
        <time>2020-02-24T10:33:40Z</time>
      </trkpt>
      <trkpt lat="46.60199" lon="5.47012">
        <ele>208.7</ele>
        <time>2020-02-24T10:33:47Z</time>
      </trkpt>
      <trkpt lat="46.60196" lon="5.47007">
        <ele>208.6</ele>
        <time>2020-02-24T10:33:52Z</time>
      </trkpt>
      <trkpt lat="46.60192" lon="5.47004">
        <ele>208.1</ele>
        <time>2020-02-24T10:33:58Z</time>
      </trkpt>
      <trkpt lat="46.60188" lon="5.46998">
        <ele>207.7</ele>
        <time>2020-02-24T10:34:03Z</time>
      </trkpt>
      <trkpt lat="46.60184" lon="5.46993">
        <ele>207.3</ele>
        <time>2020-02-24T10:34:07Z</time>
      </trkpt>
      <trkpt lat="46.6018" lon="5.46988">
        <ele>206.7</ele>
        <time>2020-02-24T10:34:12Z</time>
      </trkpt>
      <trkpt lat="46.60175" lon="5.46983">
        <ele>206.2</ele>
        <time>2020-02-24T10:34:17Z</time>
      </trkpt>
      <trkpt lat="46.60171" lon="5.46978">
        <ele>205.9</ele>
        <time>2020-02-24T10:34:21Z</time>
      </trkpt>
      <trkpt lat="46.60166" lon="5.46974">
        <ele>205.6</ele>
        <time>2020-02-24T10:34:25Z</time>
      </trkpt>
      <trkpt lat="46.60162" lon="5.46971">
        <ele>205.4</ele>
        <time>2020-02-24T10:34:29Z</time>
      </trkpt>
      <trkpt lat="46.60158" lon="5.46968">
        <ele>205.2</ele>
        <time>2020-02-24T10:34:33Z</time>
      </trkpt>
      <trkpt lat="46.60153" lon="5.46967">
        <ele>205</ele>
        <time>2020-02-24T10:34:37Z</time>
      </trkpt>
      <trkpt lat="46.60149" lon="5.46965">
        <ele>204.8</ele>
        <time>2020-02-24T10:34:41Z</time>
      </trkpt>
      <trkpt lat="46.60144" lon="5.46962">
        <ele>204.6</ele>
        <time>2020-02-24T10:34:46Z</time>
      </trkpt>
      <trkpt lat="46.6014" lon="5.46957">
        <ele>204.1</ele>
        <time>2020-02-24T10:34:52Z</time>
      </trkpt>
      <trkpt lat="46.60136" lon="5.46952">
        <ele>203.9</ele>
        <time>2020-02-24T10:34:59Z</time>
      </trkpt>
      <trkpt lat="46.60132" lon="5.46949">
        <ele>204.4</ele>
        <time>2020-02-24T10:35:05Z</time>
      </trkpt>
      <trkpt lat="46.60132" lon="5.46956">
        <ele>205.5</ele>
        <time>2020-02-24T10:35:16Z</time>
      </trkpt>
      <trkpt lat="46.60133" lon="5.46962">
        <ele>205.8</ele>
        <time>2020-02-24T10:35:22Z</time>
      </trkpt>
      <trkpt lat="46.60133" lon="5.46969">
        <ele>205.8</ele>
        <time>2020-02-24T10:35:27Z</time>
      </trkpt>
      <trkpt lat="46.60133" lon="5.46976">
        <ele>205.7</ele>
        <time>2020-02-24T10:35:31Z</time>
      </trkpt>
      <trkpt lat="46.60132" lon="5.46983">
        <ele>205.4</ele>
        <time>2020-02-24T10:35:36Z</time>
      </trkpt>
      <trkpt lat="46.60132" lon="5.4699">
        <ele>205</ele>
        <time>2020-02-24T10:35:41Z</time>
      </trkpt>
      <trkpt lat="46.60131" lon="5.46996">
        <ele>204.6</ele>
        <time>2020-02-24T10:35:46Z</time>
      </trkpt>
      <trkpt lat="46.60131" lon="5.47003">
        <ele>204.3</ele>
        <time>2020-02-24T10:35:51Z</time>
      </trkpt>
      <trkpt lat="46.60129" lon="5.4701">
        <ele>203.8</ele>
        <time>2020-02-24T10:35:57Z</time>
      </trkpt>
      <trkpt lat="46.60126" lon="5.47017">
        <ele>203</ele>
        <time>2020-02-24T10:36:03Z</time>
      </trkpt>
      <trkpt lat="46.60124" lon="5.47022">
        <ele>202.1</ele>
        <time>2020-02-24T10:36:08Z</time>
      </trkpt>
      <trkpt lat="46.60121" lon="5.47029">
        <ele>201.4</ele>
        <time>2020-02-24T10:36:12Z</time>
      </trkpt>
      <trkpt lat="46.60118" lon="5.47035">
        <ele>200.6</ele>
        <time>2020-02-24T10:36:16Z</time>
      </trkpt>
      <trkpt lat="46.60116" lon="5.47041">
        <ele>199.9</ele>
        <time>2020-02-24T10:36:20Z</time>
      </trkpt>
      <trkpt lat="46.60113" lon="5.47047">
        <ele>199.1</ele>
        <time>2020-02-24T10:36:25Z</time>
      </trkpt>
      <trkpt lat="46.60112" lon="5.47054">
        <ele>198.5</ele>
        <time>2020-02-24T10:36:30Z</time>
      </trkpt>
      <trkpt lat="46.6011" lon="5.4706">
        <ele>198.2</ele>
        <time>2020-02-24T10:36:35Z</time>
      </trkpt>
      <trkpt lat="46.60108" lon="5.47067">
        <ele>197.9</ele>
        <time>2020-02-24T10:36:40Z</time>
      </trkpt>
      <trkpt lat="46.60106" lon="5.47073">
        <ele>197.5</ele>
        <time>2020-02-24T10:36:44Z</time>
      </trkpt>
      <trkpt lat="46.60104" lon="5.4708">
        <ele>197.1</ele>
        <time>2020-02-24T10:36:48Z</time>
      </trkpt>
      <trkpt lat="46.60101" lon="5.47086">
        <ele>196.7</ele>
        <time>2020-02-24T10:36:52Z</time>
      </trkpt>
      <trkpt lat="46.60098" lon="5.47092">
        <ele>196.5</ele>
        <time>2020-02-24T10:36:56Z</time>
      </trkpt>
      <trkpt lat="46.60096" lon="5.47098">
        <ele>196.2</ele>
        <time>2020-02-24T10:37:01Z</time>
      </trkpt>
      <trkpt lat="46.60093" lon="5.47105">
        <ele>195.9</ele>
        <time>2020-02-24T10:37:06Z</time>
      </trkpt>
      <trkpt lat="46.6009" lon="5.47112">
        <ele>195.5</ele>
        <time>2020-02-24T10:37:11Z</time>
      </trkpt>
      <trkpt lat="46.60087" lon="5.47118">
        <ele>195.1</ele>
        <time>2020-02-24T10:37:16Z</time>
      </trkpt>
      <trkpt lat="46.60084" lon="5.47125">
        <ele>194.8</ele>
        <time>2020-02-24T10:37:21Z</time>
      </trkpt>
      <trkpt lat="46.60081" lon="5.47131">
        <ele>194.9</ele>
        <time>2020-02-24T10:37:24Z</time>
      </trkpt>
      <trkpt lat="46.60078" lon="5.47137">
        <ele>195.1</ele>
        <time>2020-02-24T10:37:27Z</time>
      </trkpt>
      <trkpt lat="46.60075" lon="5.47144">
        <ele>195.3</ele>
        <time>2020-02-24T10:37:31Z</time>
      </trkpt>
      <trkpt lat="46.60071" lon="5.4715">
        <ele>195.5</ele>
        <time>2020-02-24T10:37:34Z</time>
      </trkpt>
      <trkpt lat="46.60068" lon="5.47156">
        <ele>195.8</ele>
        <time>2020-02-24T10:37:36Z</time>
      </trkpt>
      <trkpt lat="46.60065" lon="5.47163">
        <ele>196.2</ele>
        <time>2020-02-24T10:37:39Z</time>
      </trkpt>
      <trkpt lat="46.60062" lon="5.47172">
        <ele>196.7</ele>
        <time>2020-02-24T10:37:42Z</time>
      </trkpt>
      <trkpt lat="46.60058" lon="5.47178">
        <ele>197</ele>
        <time>2020-02-24T10:37:44Z</time>
      </trkpt>
      <trkpt lat="46.60055" lon="5.47184">
        <ele>197.6</ele>
        <time>2020-02-24T10:37:47Z</time>
      </trkpt>
      <trkpt lat="46.60055" lon="5.47193">
        <ele>198.5</ele>
        <time>2020-02-24T10:37:51Z</time>
      </trkpt>
      <trkpt lat="46.60054" lon="5.472">
        <ele>199.4</ele>
        <time>2020-02-24T10:37:55Z</time>
      </trkpt>
      <trkpt lat="46.60053" lon="5.47206">
        <ele>201.1</ele>
        <time>2020-02-24T10:38:02Z</time>
      </trkpt>
      <trkpt lat="46.60052" lon="5.47215">
        <ele>202.7</ele>
        <time>2020-02-24T10:38:10Z</time>
      </trkpt>
      <trkpt lat="46.6005" lon="5.47222">
        <ele>203.1</ele>
        <time>2020-02-24T10:38:13Z</time>
      </trkpt>
      <trkpt lat="46.60048" lon="5.47229">
        <ele>203.8</ele>
        <time>2020-02-24T10:38:18Z</time>
      </trkpt>
      <trkpt lat="46.60046" lon="5.47236">
        <ele>204.7</ele>
        <time>2020-02-24T10:38:24Z</time>
      </trkpt>
      <trkpt lat="46.60045" lon="5.47242">
        <ele>205.2</ele>
        <time>2020-02-24T10:38:28Z</time>
      </trkpt>
      <trkpt lat="46.60044" lon="5.47249">
        <ele>205.6</ele>
        <time>2020-02-24T10:38:33Z</time>
      </trkpt>
      <trkpt lat="46.60046" lon="5.47256">
        <ele>206</ele>
        <time>2020-02-24T10:38:38Z</time>
      </trkpt>
      <trkpt lat="46.60048" lon="5.47262">
        <ele>206.2</ele>
        <time>2020-02-24T10:38:43Z</time>
      </trkpt>
      <trkpt lat="46.60052" lon="5.47267">
        <ele>206.5</ele>
        <time>2020-02-24T10:38:48Z</time>
      </trkpt>
      <trkpt lat="46.60055" lon="5.47272">
        <ele>207.1</ele>
        <time>2020-02-24T10:38:54Z</time>
      </trkpt>
      <trkpt lat="46.60058" lon="5.47278">
        <ele>207.4</ele>
        <time>2020-02-24T10:38:58Z</time>
      </trkpt>
      <trkpt lat="46.60061" lon="5.47283">
        <ele>207.7</ele>
        <time>2020-02-24T10:39:01Z</time>
      </trkpt>
      <trkpt lat="46.60063" lon="5.4729">
        <ele>208.2</ele>
        <time>2020-02-24T10:39:06Z</time>
      </trkpt>
      <trkpt lat="46.60064" lon="5.47298">
        <ele>208.6</ele>
        <time>2020-02-24T10:39:11Z</time>
      </trkpt>
      <trkpt lat="46.60065" lon="5.47306">
        <ele>209.3</ele>
        <time>2020-02-24T10:39:17Z</time>
      </trkpt>
      <trkpt lat="46.60065" lon="5.47313">
        <ele>210.1</ele>
        <time>2020-02-24T10:39:24Z</time>
      </trkpt>
      <trkpt lat="46.60061" lon="5.47317">
        <ele>211.2</ele>
        <time>2020-02-24T10:39:30Z</time>
      </trkpt>
      <trkpt lat="46.60058" lon="5.47343">
        <ele>214.5</ele>
        <time>2020-02-24T10:39:49Z</time>
      </trkpt>
      <trkpt lat="46.60058" lon="5.47351">
        <ele>214.2</ele>
        <time>2020-02-24T10:39:55Z</time>
      </trkpt>
      <trkpt lat="46.60056" lon="5.47357">
        <ele>214.1</ele>
        <time>2020-02-24T10:40:00Z</time>
      </trkpt>
      <trkpt lat="46.60054" lon="5.47363">
        <ele>213.9</ele>
        <time>2020-02-24T10:40:06Z</time>
      </trkpt>
      <trkpt lat="46.60052" lon="5.47369">
        <ele>213.4</ele>
        <time>2020-02-24T10:40:11Z</time>
      </trkpt>
      <trkpt lat="46.60049" lon="5.47375">
        <ele>212.4</ele>
        <time>2020-02-24T10:40:17Z</time>
      </trkpt>
      <trkpt lat="46.60048" lon="5.47382">
        <ele>211.3</ele>
        <time>2020-02-24T10:40:23Z</time>
      </trkpt>
      <trkpt lat="46.60046" lon="5.47388">
        <ele>210.1</ele>
        <time>2020-02-24T10:40:30Z</time>
      </trkpt>
      <trkpt lat="46.60043" lon="5.47394">
        <ele>208.7</ele>
        <time>2020-02-24T10:40:38Z</time>
      </trkpt>
      <trkpt lat="46.6004" lon="5.47401">
        <ele>207.8</ele>
        <time>2020-02-24T10:40:43Z</time>
      </trkpt>
      <trkpt lat="46.60038" lon="5.47406">
        <ele>206.5</ele>
        <time>2020-02-24T10:40:50Z</time>
      </trkpt>
      <trkpt lat="46.60038" lon="5.47415">
        <ele>205.7</ele>
        <time>2020-02-24T10:40:57Z</time>
      </trkpt>
      <trkpt lat="46.60037" lon="5.47425">
        <ele>205.7</ele>
        <time>2020-02-24T10:41:00Z</time>
      </trkpt>
      <trkpt lat="46.60036" lon="5.47431">
        <ele>205.7</ele>
        <time>2020-02-24T10:41:06Z</time>
      </trkpt>
      <trkpt lat="46.60035" lon="5.47439">
        <ele>210.8</ele>
        <time>2020-02-24T10:42:03Z</time>
      </trkpt>
      <trkpt lat="46.60035" lon="5.47446">
        <ele>211.7</ele>
        <time>2020-02-24T10:42:07Z</time>
      </trkpt>
      <trkpt lat="46.60034" lon="5.47454">
        <ele>212.7</ele>
        <time>2020-02-24T10:42:11Z</time>
      </trkpt>
      <trkpt lat="46.60033" lon="5.47462">
        <ele>213.6</ele>
        <time>2020-02-24T10:42:15Z</time>
      </trkpt>
      <trkpt lat="46.60032" lon="5.4747">
        <ele>214.3</ele>
        <time>2020-02-24T10:42:19Z</time>
      </trkpt>
      <trkpt lat="46.60031" lon="5.47478">
        <ele>214.8</ele>
        <time>2020-02-24T10:42:23Z</time>
      </trkpt>
      <trkpt lat="46.6003" lon="5.47485">
        <ele>215.2</ele>
        <time>2020-02-24T10:42:27Z</time>
      </trkpt>
      <trkpt lat="46.60029" lon="5.47492">
        <ele>215.6</ele>
        <time>2020-02-24T10:42:30Z</time>
      </trkpt>
      <trkpt lat="46.60027" lon="5.47498">
        <ele>215.8</ele>
        <time>2020-02-24T10:42:33Z</time>
      </trkpt>
      <trkpt lat="46.60026" lon="5.47505">
        <ele>215.8</ele>
        <time>2020-02-24T10:42:36Z</time>
      </trkpt>
      <trkpt lat="46.60025" lon="5.47512">
        <ele>215.9</ele>
        <time>2020-02-24T10:42:40Z</time>
      </trkpt>
      <trkpt lat="46.60024" lon="5.4752">
        <ele>216</ele>
        <time>2020-02-24T10:42:44Z</time>
      </trkpt>
      <trkpt lat="46.60023" lon="5.47527">
        <ele>216.2</ele>
        <time>2020-02-24T10:42:48Z</time>
      </trkpt>
      <trkpt lat="46.60022" lon="5.47534">
        <ele>216.5</ele>
        <time>2020-02-24T10:42:52Z</time>
      </trkpt>
      <trkpt lat="46.60022" lon="5.47543">
        <ele>217</ele>
        <time>2020-02-24T10:42:56Z</time>
      </trkpt>
      <trkpt lat="46.60022" lon="5.47549">
        <ele>217.5</ele>
        <time>2020-02-24T10:43:00Z</time>
      </trkpt>
      <trkpt lat="46.60021" lon="5.47556">
        <ele>217.8</ele>
        <time>2020-02-24T10:43:03Z</time>
      </trkpt>
      <trkpt lat="46.6002" lon="5.47564">
        <ele>218.4</ele>
        <time>2020-02-24T10:43:07Z</time>
      </trkpt>
      <trkpt lat="46.60018" lon="5.47572">
        <ele>218.8</ele>
        <time>2020-02-24T10:43:11Z</time>
      </trkpt>
      <trkpt lat="46.60017" lon="5.47579">
        <ele>219.3</ele>
        <time>2020-02-24T10:43:15Z</time>
      </trkpt>
      <trkpt lat="46.60016" lon="5.47587">
        <ele>220</ele>
        <time>2020-02-24T10:43:19Z</time>
      </trkpt>
      <trkpt lat="46.60014" lon="5.47594">
        <ele>220.4</ele>
        <time>2020-02-24T10:43:22Z</time>
      </trkpt>
      <trkpt lat="46.60014" lon="5.47601">
        <ele>220.6</ele>
        <time>2020-02-24T10:43:25Z</time>
      </trkpt>
      <trkpt lat="46.60014" lon="5.47608">
        <ele>220.9</ele>
        <time>2020-02-24T10:43:28Z</time>
      </trkpt>
      <trkpt lat="46.60014" lon="5.47615">
        <ele>221.1</ele>
        <time>2020-02-24T10:43:31Z</time>
      </trkpt>
      <trkpt lat="46.60014" lon="5.47623">
        <ele>221.3</ele>
        <time>2020-02-24T10:43:35Z</time>
      </trkpt>
      <trkpt lat="46.60014" lon="5.47631">
        <ele>221.6</ele>
        <time>2020-02-24T10:43:39Z</time>
      </trkpt>
      <trkpt lat="46.60014" lon="5.47638">
        <ele>221.8</ele>
        <time>2020-02-24T10:43:42Z</time>
      </trkpt>
      <trkpt lat="46.60014" lon="5.47644">
        <ele>221.9</ele>
        <time>2020-02-24T10:43:45Z</time>
      </trkpt>
      <trkpt lat="46.60014" lon="5.47651">
        <ele>221.9</ele>
        <time>2020-02-24T10:43:48Z</time>
      </trkpt>
      <trkpt lat="46.60013" lon="5.47659">
        <ele>221.9</ele>
        <time>2020-02-24T10:43:53Z</time>
      </trkpt>
      <trkpt lat="46.60012" lon="5.47666">
        <ele>222</ele>
        <time>2020-02-24T10:43:57Z</time>
      </trkpt>
      <trkpt lat="46.60011" lon="5.47673">
        <ele>222.3</ele>
        <time>2020-02-24T10:44:01Z</time>
      </trkpt>
      <trkpt lat="46.60009" lon="5.4768">
        <ele>222.5</ele>
        <time>2020-02-24T10:44:05Z</time>
      </trkpt>
      <trkpt lat="46.60007" lon="5.47687">
        <ele>222.9</ele>
        <time>2020-02-24T10:44:10Z</time>
      </trkpt>
      <trkpt lat="46.60006" lon="5.47696">
        <ele>223.2</ele>
        <time>2020-02-24T10:44:14Z</time>
      </trkpt>
      <trkpt lat="46.60005" lon="5.47703">
        <ele>223.4</ele>
        <time>2020-02-24T10:44:18Z</time>
      </trkpt>
      <trkpt lat="46.60005" lon="5.47711">
        <ele>223.5</ele>
        <time>2020-02-24T10:44:24Z</time>
      </trkpt>
      <trkpt lat="46.60004" lon="5.47719">
        <ele>223.1</ele>
        <time>2020-02-24T10:44:29Z</time>
      </trkpt>
      <trkpt lat="46.60003" lon="5.47726">
        <ele>222.8</ele>
        <time>2020-02-24T10:44:33Z</time>
      </trkpt>
      <trkpt lat="46.60002" lon="5.47733">
        <ele>222.4</ele>
        <time>2020-02-24T10:44:38Z</time>
      </trkpt>
      <trkpt lat="46.60002" lon="5.4774">
        <ele>221.8</ele>
        <time>2020-02-24T10:44:44Z</time>
      </trkpt>
      <trkpt lat="46.60002" lon="5.47749">
        <ele>221.1</ele>
        <time>2020-02-24T10:44:49Z</time>
      </trkpt>
      <trkpt lat="46.60003" lon="5.47756">
        <ele>220.1</ele>
        <time>2020-02-24T10:44:55Z</time>
      </trkpt>
      <trkpt lat="46.60001" lon="5.47762">
        <ele>218.8</ele>
        <time>2020-02-24T10:45:01Z</time>
      </trkpt>
      <trkpt lat="46.59992" lon="5.47786">
        <ele>212.3</ele>
        <time>2020-02-24T10:45:23Z</time>
      </trkpt>
      <trkpt lat="46.59993" lon="5.47794">
        <ele>211.7</ele>
        <time>2020-02-24T10:45:27Z</time>
      </trkpt>
      <trkpt lat="46.59992" lon="5.47803">
        <ele>211.4</ele>
        <time>2020-02-24T10:45:31Z</time>
      </trkpt>
      <trkpt lat="46.5999" lon="5.47811">
        <ele>211.4</ele>
        <time>2020-02-24T10:45:33Z</time>
      </trkpt>
      <trkpt lat="46.59987" lon="5.47822">
        <ele>211.4</ele>
        <time>2020-02-24T10:45:35Z</time>
      </trkpt>
      <trkpt lat="46.59985" lon="5.47833">
        <ele>211.6</ele>
        <time>2020-02-24T10:45:37Z</time>
      </trkpt>
      <trkpt lat="46.59986" lon="5.47857">
        <ele>212.8</ele>
        <time>2020-02-24T10:45:44Z</time>
      </trkpt>
      <trkpt lat="46.59989" lon="5.47862">
        <ele>214.3</ele>
        <time>2020-02-24T10:45:55Z</time>
      </trkpt>
      <trkpt lat="46.59992" lon="5.47869">
        <ele>215.2</ele>
        <time>2020-02-24T10:46:00Z</time>
      </trkpt>
      <trkpt lat="46.59996" lon="5.47872">
        <ele>215.7</ele>
        <time>2020-02-24T10:46:03Z</time>
      </trkpt>
      <trkpt lat="46.59998" lon="5.47879">
        <ele>216.2</ele>
        <time>2020-02-24T10:46:06Z</time>
      </trkpt>
      <trkpt lat="46.60001" lon="5.47886">
        <ele>216.7</ele>
        <time>2020-02-24T10:46:10Z</time>
      </trkpt>
      <trkpt lat="46.60003" lon="5.47892">
        <ele>217.2</ele>
        <time>2020-02-24T10:46:14Z</time>
      </trkpt>
      <trkpt lat="46.60003" lon="5.47898">
        <ele>217.8</ele>
        <time>2020-02-24T10:46:18Z</time>
      </trkpt>
      <trkpt lat="46.60005" lon="5.47906">
        <ele>218.6</ele>
        <time>2020-02-24T10:46:23Z</time>
      </trkpt>
      <trkpt lat="46.60007" lon="5.47912">
        <ele>219.3</ele>
        <time>2020-02-24T10:46:28Z</time>
      </trkpt>
      <trkpt lat="46.60007" lon="5.47919">
        <ele>219.7</ele>
        <time>2020-02-24T10:46:32Z</time>
      </trkpt>
      <trkpt lat="46.60007" lon="5.47927">
        <ele>220.5</ele>
        <time>2020-02-24T10:46:37Z</time>
      </trkpt>
      <trkpt lat="46.60009" lon="5.47934">
        <ele>221.4</ele>
        <time>2020-02-24T10:46:42Z</time>
      </trkpt>
      <trkpt lat="46.60011" lon="5.47941">
        <ele>222.3</ele>
        <time>2020-02-24T10:46:48Z</time>
      </trkpt>
      <trkpt lat="46.6001" lon="5.47947">
        <ele>223.4</ele>
        <time>2020-02-24T10:46:54Z</time>
      </trkpt>
      <trkpt lat="46.60007" lon="5.47953">
        <ele>224.6</ele>
        <time>2020-02-24T10:47:01Z</time>
      </trkpt>
      <trkpt lat="46.60006" lon="5.47961">
        <ele>225.6</ele>
        <time>2020-02-24T10:47:09Z</time>
      </trkpt>
      <trkpt lat="46.60006" lon="5.47968">
        <ele>225.9</ele>
        <time>2020-02-24T10:47:12Z</time>
      </trkpt>
      <trkpt lat="46.60007" lon="5.47976">
        <ele>226.2</ele>
        <time>2020-02-24T10:47:15Z</time>
      </trkpt>
      <trkpt lat="46.60007" lon="5.47984">
        <ele>226.7</ele>
        <time>2020-02-24T10:47:18Z</time>
      </trkpt>
      <trkpt lat="46.60008" lon="5.47991">
        <ele>227.3</ele>
        <time>2020-02-24T10:47:22Z</time>
      </trkpt>
      <trkpt lat="46.60008" lon="5.47998">
        <ele>227.8</ele>
        <time>2020-02-24T10:47:26Z</time>
      </trkpt>
      <trkpt lat="46.6001" lon="5.48005">
        <ele>228.3</ele>
        <time>2020-02-24T10:47:30Z</time>
      </trkpt>
      <trkpt lat="46.60011" lon="5.48012">
        <ele>228.8</ele>
        <time>2020-02-24T10:47:34Z</time>
      </trkpt>
      <trkpt lat="46.60012" lon="5.48019">
        <ele>229.3</ele>
        <time>2020-02-24T10:47:38Z</time>
      </trkpt>
      <trkpt lat="46.60013" lon="5.48025">
        <ele>229.6</ele>
        <time>2020-02-24T10:47:42Z</time>
      </trkpt>
      <trkpt lat="46.60014" lon="5.48032">
        <ele>230</ele>
        <time>2020-02-24T10:47:47Z</time>
      </trkpt>
      <trkpt lat="46.60014" lon="5.48039">
        <ele>230.4</ele>
        <time>2020-02-24T10:47:53Z</time>
      </trkpt>
      <trkpt lat="46.6001" lon="5.48043">
        <ele>230.7</ele>
        <time>2020-02-24T10:47:58Z</time>
      </trkpt>
      <trkpt lat="46.60006" lon="5.48045">
        <ele>230.9</ele>
        <time>2020-02-24T10:48:03Z</time>
      </trkpt>
      <trkpt lat="46.6" lon="5.48045">
        <ele>230.7</ele>
        <time>2020-02-24T10:48:09Z</time>
      </trkpt>
      <trkpt lat="46.59988" lon="5.48043">
        <ele>229.6</ele>
        <time>2020-02-24T10:48:20Z</time>
      </trkpt>
      <trkpt lat="46.59983" lon="5.48046">
        <ele>229.2</ele>
        <time>2020-02-24T10:48:24Z</time>
      </trkpt>
      <trkpt lat="46.59979" lon="5.48049">
        <ele>228.8</ele>
        <time>2020-02-24T10:48:27Z</time>
      </trkpt>
      <trkpt lat="46.59974" lon="5.48052">
        <ele>228.3</ele>
        <time>2020-02-24T10:48:31Z</time>
      </trkpt>
      <trkpt lat="46.59969" lon="5.48054">
        <ele>227.8</ele>
        <time>2020-02-24T10:48:36Z</time>
      </trkpt>
      <trkpt lat="46.59964" lon="5.48053">
        <ele>227.7</ele>
        <time>2020-02-24T10:48:41Z</time>
      </trkpt>
      <trkpt lat="46.59959" lon="5.48052">
        <ele>227.7</ele>
        <time>2020-02-24T10:48:46Z</time>
      </trkpt>
      <trkpt lat="46.59955" lon="5.48051">
        <ele>227.1</ele>
        <time>2020-02-24T10:48:52Z</time>
      </trkpt>
      <trkpt lat="46.5995" lon="5.48051">
        <ele>226.3</ele>
        <time>2020-02-24T10:48:57Z</time>
      </trkpt>
      <trkpt lat="46.59945" lon="5.48052">
        <ele>226</ele>
        <time>2020-02-24T10:49:00Z</time>
      </trkpt>
      <trkpt lat="46.5994" lon="5.48051">
        <ele>225.8</ele>
        <time>2020-02-24T10:49:05Z</time>
      </trkpt>
      <trkpt lat="46.59935" lon="5.48053">
        <ele>225.7</ele>
        <time>2020-02-24T10:49:09Z</time>
      </trkpt>
      <trkpt lat="46.5993" lon="5.48054">
        <ele>225.5</ele>
        <time>2020-02-24T10:49:12Z</time>
      </trkpt>
      <trkpt lat="46.59925" lon="5.48054">
        <ele>225.3</ele>
        <time>2020-02-24T10:49:16Z</time>
      </trkpt>
      <trkpt lat="46.5992" lon="5.48054">
        <ele>225.1</ele>
        <time>2020-02-24T10:49:20Z</time>
      </trkpt>
      <trkpt lat="46.59916" lon="5.48054">
        <ele>224.7</ele>
        <time>2020-02-24T10:49:26Z</time>
      </trkpt>
      <trkpt lat="46.59911" lon="5.48052">
        <ele>224.2</ele>
        <time>2020-02-24T10:49:32Z</time>
      </trkpt>
      <trkpt lat="46.59905" lon="5.48049">
        <ele>223.7</ele>
        <time>2020-02-24T10:49:36Z</time>
      </trkpt>
      <trkpt lat="46.599" lon="5.48048">
        <ele>223.3</ele>
        <time>2020-02-24T10:49:40Z</time>
      </trkpt>
      <trkpt lat="46.59896" lon="5.48047">
        <ele>223</ele>
        <time>2020-02-24T10:49:44Z</time>
      </trkpt>
      <trkpt lat="46.5989" lon="5.48047">
        <ele>222.3</ele>
        <time>2020-02-24T10:49:51Z</time>
      </trkpt>
      <trkpt lat="46.59885" lon="5.48046">
        <ele>221.3</ele>
        <time>2020-02-24T10:49:58Z</time>
      </trkpt>
      <trkpt lat="46.5988" lon="5.48046">
        <ele>220.6</ele>
        <time>2020-02-24T10:50:03Z</time>
      </trkpt>
      <trkpt lat="46.59876" lon="5.48045">
        <ele>220.1</ele>
        <time>2020-02-24T10:50:07Z</time>
      </trkpt>
      <trkpt lat="46.59871" lon="5.48045">
        <ele>219.5</ele>
        <time>2020-02-24T10:50:11Z</time>
      </trkpt>
      <trkpt lat="46.59865" lon="5.48046">
        <ele>219</ele>
        <time>2020-02-24T10:50:15Z</time>
      </trkpt>
      <trkpt lat="46.5986" lon="5.48048">
        <ele>218.8</ele>
        <time>2020-02-24T10:50:18Z</time>
      </trkpt>
      <trkpt lat="46.59856" lon="5.4805">
        <ele>218.4</ele>
        <time>2020-02-24T10:50:22Z</time>
      </trkpt>
      <trkpt lat="46.59851" lon="5.48051">
        <ele>218.2</ele>
        <time>2020-02-24T10:50:26Z</time>
      </trkpt>
      <trkpt lat="46.59847" lon="5.48053">
        <ele>217.7</ele>
        <time>2020-02-24T10:51:01Z</time>
      </trkpt>
      <trkpt lat="46.59851" lon="5.48053">
        <ele>220.5</ele>
        <time>2020-02-24T10:51:20Z</time>
      </trkpt>
      <trkpt lat="46.59854" lon="5.48059">
        <ele>221.5</ele>
        <time>2020-02-24T10:51:33Z</time>
      </trkpt>
      <trkpt lat="46.59855" lon="5.48066">
        <ele>222.1</ele>
        <time>2020-02-24T10:51:46Z</time>
      </trkpt>
      <trkpt lat="46.59856" lon="5.48072">
        <ele>222.6</ele>
        <time>2020-02-24T10:52:01Z</time>
      </trkpt>
      <trkpt lat="46.59858" lon="5.48078">
        <ele>224.2</ele>
        <time>2020-02-24T10:52:17Z</time>
      </trkpt>
      <trkpt lat="46.59862" lon="5.48074">
        <ele>224.3</ele>
        <time>2020-02-24T10:52:30Z</time>
      </trkpt>
      <trkpt lat="46.59858" lon="5.4808">
        <ele>223.7</ele>
        <time>2020-02-24T10:52:57Z</time>
      </trkpt>
      <trkpt lat="46.59854" lon="5.48082">
        <ele>222.4</ele>
        <time>2020-02-24T10:53:14Z</time>
      </trkpt>
      <trkpt lat="46.59858" lon="5.48083">
        <ele>219.3</ele>
        <time>2020-02-24T10:53:48Z</time>
      </trkpt>
      <trkpt lat="46.59852" lon="5.48072">
        <ele>230.5</ele>
        <time>2020-02-24T11:29:57Z</time>
      </trkpt>
      <trkpt lat="46.59849" lon="5.48064">
        <ele>230.6</ele>
        <time>2020-02-24T11:30:00Z</time>
      </trkpt>
      <trkpt lat="46.59845" lon="5.48061">
        <ele>231</ele>
        <time>2020-02-24T11:30:04Z</time>
      </trkpt>
      <trkpt lat="46.5984" lon="5.4806">
        <ele>231.6</ele>
        <time>2020-02-24T11:30:08Z</time>
      </trkpt>
      <trkpt lat="46.59835" lon="5.48061">
        <ele>232.4</ele>
        <time>2020-02-24T11:30:13Z</time>
      </trkpt>
      <trkpt lat="46.59831" lon="5.4806">
        <ele>233.3</ele>
        <time>2020-02-24T11:30:17Z</time>
      </trkpt>
      <trkpt lat="46.59825" lon="5.4806">
        <ele>234.3</ele>
        <time>2020-02-24T11:30:21Z</time>
      </trkpt>
      <trkpt lat="46.5982" lon="5.48061">
        <ele>235.6</ele>
        <time>2020-02-24T11:30:26Z</time>
      </trkpt>
      <trkpt lat="46.59815" lon="5.48062">
        <ele>236.4</ele>
        <time>2020-02-24T11:30:30Z</time>
      </trkpt>
      <trkpt lat="46.5981" lon="5.48063">
        <ele>236.7</ele>
        <time>2020-02-24T11:30:34Z</time>
      </trkpt>
      <trkpt lat="46.59805" lon="5.4806">
        <ele>236.6</ele>
        <time>2020-02-24T11:30:39Z</time>
      </trkpt>
      <trkpt lat="46.59801" lon="5.48057">
        <ele>236.7</ele>
        <time>2020-02-24T11:30:43Z</time>
      </trkpt>
      <trkpt lat="46.59796" lon="5.48053">
        <ele>237.1</ele>
        <time>2020-02-24T11:30:47Z</time>
      </trkpt>
      <trkpt lat="46.59792" lon="5.48049">
        <ele>237.4</ele>
        <time>2020-02-24T11:30:51Z</time>
      </trkpt>
      <trkpt lat="46.59789" lon="5.48044">
        <ele>237.8</ele>
        <time>2020-02-24T11:30:58Z</time>
      </trkpt>
      <trkpt lat="46.59785" lon="5.4804">
        <ele>237.9</ele>
        <time>2020-02-24T11:31:03Z</time>
      </trkpt>
      <trkpt lat="46.59782" lon="5.48036">
        <ele>238</ele>
        <time>2020-02-24T11:31:08Z</time>
      </trkpt>
      <trkpt lat="46.59777" lon="5.48033">
        <ele>238.3</ele>
        <time>2020-02-24T11:31:14Z</time>
      </trkpt>
      <trkpt lat="46.59773" lon="5.48031">
        <ele>238.4</ele>
        <time>2020-02-24T11:31:19Z</time>
      </trkpt>
      <trkpt lat="46.59768" lon="5.48029">
        <ele>237.9</ele>
        <time>2020-02-24T11:31:24Z</time>
      </trkpt>
      <trkpt lat="46.59765" lon="5.48025">
        <ele>237.2</ele>
        <time>2020-02-24T11:31:33Z</time>
      </trkpt>
      <trkpt lat="46.59763" lon="5.48018">
        <ele>235.8</ele>
        <time>2020-02-24T11:31:54Z</time>
      </trkpt>
      <trkpt lat="46.59759" lon="5.48013">
        <ele>235.6</ele>
        <time>2020-02-24T11:31:59Z</time>
      </trkpt>
      <trkpt lat="46.59755" lon="5.48009">
        <ele>236</ele>
        <time>2020-02-24T11:32:08Z</time>
      </trkpt>
      <trkpt lat="46.59754" lon="5.48003">
        <ele>236.1</ele>
        <time>2020-02-24T11:32:11Z</time>
      </trkpt>
      <trkpt lat="46.59751" lon="5.47996">
        <ele>236.2</ele>
        <time>2020-02-24T11:32:16Z</time>
      </trkpt>
      <trkpt lat="46.59747" lon="5.47991">
        <ele>229.6</ele>
        <time>2020-02-24T11:32:54Z</time>
      </trkpt>
      <trkpt lat="46.59745" lon="5.47984">
        <ele>228.8</ele>
        <time>2020-02-24T11:32:59Z</time>
      </trkpt>
      <trkpt lat="46.59743" lon="5.47979">
        <ele>228.5</ele>
        <time>2020-02-24T11:33:04Z</time>
      </trkpt>
      <trkpt lat="46.59742" lon="5.47972">
        <ele>228.9</ele>
        <time>2020-02-24T11:33:20Z</time>
      </trkpt>
      <trkpt lat="46.5974" lon="5.47964">
        <ele>225.2</ele>
        <time>2020-02-24T11:33:47Z</time>
      </trkpt>
      <trkpt lat="46.59738" lon="5.47957">
        <ele>225.5</ele>
        <time>2020-02-24T11:33:52Z</time>
      </trkpt>
      <trkpt lat="46.59736" lon="5.47951">
        <ele>226.5</ele>
        <time>2020-02-24T11:33:57Z</time>
      </trkpt>
      <trkpt lat="46.59734" lon="5.47944">
        <ele>228</ele>
        <time>2020-02-24T11:34:03Z</time>
      </trkpt>
      <trkpt lat="46.59732" lon="5.47938">
        <ele>229.2</ele>
        <time>2020-02-24T11:34:08Z</time>
      </trkpt>
      <trkpt lat="46.5973" lon="5.47932">
        <ele>230.3</ele>
        <time>2020-02-24T11:34:15Z</time>
      </trkpt>
      <trkpt lat="46.59729" lon="5.47925">
        <ele>232.2</ele>
        <time>2020-02-24T11:34:32Z</time>
      </trkpt>
      <trkpt lat="46.59734" lon="5.47923">
        <ele>232.8</ele>
        <time>2020-02-24T11:34:42Z</time>
      </trkpt>
      <trkpt lat="46.59738" lon="5.4792">
        <ele>233.6</ele>
        <time>2020-02-24T11:34:52Z</time>
      </trkpt>
      <trkpt lat="46.59736" lon="5.47914">
        <ele>234.3</ele>
        <time>2020-02-24T11:35:03Z</time>
      </trkpt>
      <trkpt lat="46.59732" lon="5.4791">
        <ele>238.8</ele>
        <time>2020-02-24T11:35:14Z</time>
      </trkpt>
      <trkpt lat="46.5973" lon="5.47904">
        <ele>243.2</ele>
        <time>2020-02-24T11:35:26Z</time>
      </trkpt>
      <trkpt lat="46.59727" lon="5.47899">
        <ele>243.6</ele>
        <time>2020-02-24T11:35:30Z</time>
      </trkpt>
      <trkpt lat="46.59724" lon="5.47894">
        <ele>243.8</ele>
        <time>2020-02-24T11:35:34Z</time>
      </trkpt>
      <trkpt lat="46.59721" lon="5.47888">
        <ele>243.9</ele>
        <time>2020-02-24T11:35:39Z</time>
      </trkpt>
      <trkpt lat="46.59718" lon="5.47882">
        <ele>244.1</ele>
        <time>2020-02-24T11:35:45Z</time>
      </trkpt>
      <trkpt lat="46.59715" lon="5.47875">
        <ele>244.4</ele>
        <time>2020-02-24T11:35:50Z</time>
      </trkpt>
      <trkpt lat="46.59712" lon="5.47867">
        <ele>244.5</ele>
        <time>2020-02-24T11:35:54Z</time>
      </trkpt>
      <trkpt lat="46.59712" lon="5.47861">
        <ele>244.2</ele>
        <time>2020-02-24T11:35:58Z</time>
      </trkpt>
      <trkpt lat="46.5971" lon="5.47854">
        <ele>243.6</ele>
        <time>2020-02-24T11:36:02Z</time>
      </trkpt>
      <trkpt lat="46.59709" lon="5.47847">
        <ele>243.1</ele>
        <time>2020-02-24T11:36:05Z</time>
      </trkpt>
      <trkpt lat="46.5971" lon="5.47839">
        <ele>242.4</ele>
        <time>2020-02-24T11:36:09Z</time>
      </trkpt>
      <trkpt lat="46.59711" lon="5.47832">
        <ele>241.8</ele>
        <time>2020-02-24T11:36:12Z</time>
      </trkpt>
      <trkpt lat="46.59711" lon="5.47824">
        <ele>240.9</ele>
        <time>2020-02-24T11:36:17Z</time>
      </trkpt>
      <trkpt lat="46.59712" lon="5.47817">
        <ele>240.2</ele>
        <time>2020-02-24T11:36:21Z</time>
      </trkpt>
      <trkpt lat="46.59712" lon="5.4781">
        <ele>239.7</ele>
        <time>2020-02-24T11:36:25Z</time>
      </trkpt>
      <trkpt lat="46.59713" lon="5.47803">
        <ele>239.4</ele>
        <time>2020-02-24T11:36:29Z</time>
      </trkpt>
      <trkpt lat="46.59712" lon="5.47795">
        <ele>239.3</ele>
        <time>2020-02-24T11:36:34Z</time>
      </trkpt>
      <trkpt lat="46.5971" lon="5.47789">
        <ele>239.1</ele>
        <time>2020-02-24T11:36:38Z</time>
      </trkpt>
      <trkpt lat="46.59709" lon="5.47781">
        <ele>239</ele>
        <time>2020-02-24T11:36:42Z</time>
      </trkpt>
      <trkpt lat="46.59709" lon="5.47775">
        <ele>239</ele>
        <time>2020-02-24T11:36:45Z</time>
      </trkpt>
      <trkpt lat="46.59708" lon="5.47768">
        <ele>239</ele>
        <time>2020-02-24T11:36:50Z</time>
      </trkpt>
      <trkpt lat="46.59705" lon="5.47762">
        <ele>239.1</ele>
        <time>2020-02-24T11:36:55Z</time>
      </trkpt>
      <trkpt lat="46.59702" lon="5.47755">
        <ele>239.5</ele>
        <time>2020-02-24T11:36:59Z</time>
      </trkpt>
      <trkpt lat="46.597" lon="5.47748">
        <ele>240.2</ele>
        <time>2020-02-24T11:37:04Z</time>
      </trkpt>
      <trkpt lat="46.59698" lon="5.47742">
        <ele>241.5</ele>
        <time>2020-02-24T11:37:10Z</time>
      </trkpt>
      <trkpt lat="46.59695" lon="5.47735">
        <ele>242.9</ele>
        <time>2020-02-24T11:37:14Z</time>
      </trkpt>
      <trkpt lat="46.59692" lon="5.47729">
        <ele>245.1</ele>
        <time>2020-02-24T11:37:19Z</time>
      </trkpt>
      <trkpt lat="46.59689" lon="5.47723">
        <ele>247</ele>
        <time>2020-02-24T11:37:23Z</time>
      </trkpt>
      <trkpt lat="46.59686" lon="5.47717">
        <ele>249.5</ele>
        <time>2020-02-24T11:37:28Z</time>
      </trkpt>
      <trkpt lat="46.59683" lon="5.47712">
        <ele>251.4</ele>
        <time>2020-02-24T11:37:32Z</time>
      </trkpt>
      <trkpt lat="46.5968" lon="5.47706">
        <ele>253.3</ele>
        <time>2020-02-24T11:37:36Z</time>
      </trkpt>
      <trkpt lat="46.59678" lon="5.477">
        <ele>255.5</ele>
        <time>2020-02-24T11:37:41Z</time>
      </trkpt>
      <trkpt lat="46.59675" lon="5.47693">
        <ele>257.4</ele>
        <time>2020-02-24T11:37:46Z</time>
      </trkpt>
      <trkpt lat="46.59672" lon="5.47688">
        <ele>259</ele>
        <time>2020-02-24T11:37:50Z</time>
      </trkpt>
      <trkpt lat="46.59669" lon="5.47684">
        <ele>260.3</ele>
        <time>2020-02-24T11:37:54Z</time>
      </trkpt>
      <trkpt lat="46.59666" lon="5.47678">
        <ele>261.7</ele>
        <time>2020-02-24T11:37:58Z</time>
      </trkpt>
      <trkpt lat="46.59664" lon="5.47672">
        <ele>262.9</ele>
        <time>2020-02-24T11:38:02Z</time>
      </trkpt>
      <trkpt lat="46.59663" lon="5.47664">
        <ele>263.9</ele>
        <time>2020-02-24T11:38:06Z</time>
      </trkpt>
      <trkpt lat="46.59664" lon="5.47656">
        <ele>264.7</ele>
        <time>2020-02-24T11:38:10Z</time>
      </trkpt>
      <trkpt lat="46.59664" lon="5.47649">
        <ele>265.2</ele>
        <time>2020-02-24T11:38:13Z</time>
      </trkpt>
      <trkpt lat="46.59665" lon="5.47642">
        <ele>266.3</ele>
        <time>2020-02-24T11:38:18Z</time>
      </trkpt>
      <trkpt lat="46.59666" lon="5.47636">
        <ele>267.1</ele>
        <time>2020-02-24T11:38:22Z</time>
      </trkpt>
      <trkpt lat="46.59667" lon="5.47629">
        <ele>267.9</ele>
        <time>2020-02-24T11:38:26Z</time>
      </trkpt>
      <trkpt lat="46.59667" lon="5.47622">
        <ele>268.7</ele>
        <time>2020-02-24T11:38:30Z</time>
      </trkpt>
      <trkpt lat="46.59667" lon="5.47615">
        <ele>269.8</ele>
        <time>2020-02-24T11:38:35Z</time>
      </trkpt>
      <trkpt lat="46.59666" lon="5.47607">
        <ele>270.7</ele>
        <time>2020-02-24T11:38:39Z</time>
      </trkpt>
      <trkpt lat="46.59665" lon="5.476">
        <ele>272.2</ele>
        <time>2020-02-24T11:38:46Z</time>
      </trkpt>
      <trkpt lat="46.59662" lon="5.47594">
        <ele>273.2</ele>
        <time>2020-02-24T11:38:51Z</time>
      </trkpt>
      <trkpt lat="46.5966" lon="5.47588">
        <ele>273.9</ele>
        <time>2020-02-24T11:38:56Z</time>
      </trkpt>
      <trkpt lat="46.59657" lon="5.47582">
        <ele>274.7</ele>
        <time>2020-02-24T11:39:02Z</time>
      </trkpt>
      <trkpt lat="46.59654" lon="5.47577">
        <ele>275.1</ele>
        <time>2020-02-24T11:39:08Z</time>
      </trkpt>
      <trkpt lat="46.5965" lon="5.47571">
        <ele>275.2</ele>
        <time>2020-02-24T11:39:13Z</time>
      </trkpt>
      <trkpt lat="46.59646" lon="5.47566">
        <ele>275.2</ele>
        <time>2020-02-24T11:39:18Z</time>
      </trkpt>
      <trkpt lat="46.59643" lon="5.47561">
        <ele>275.3</ele>
        <time>2020-02-24T11:39:24Z</time>
      </trkpt>
      <trkpt lat="46.59639" lon="5.47555">
        <ele>275.5</ele>
        <time>2020-02-24T11:39:29Z</time>
      </trkpt>
      <trkpt lat="46.59635" lon="5.47549">
        <ele>276.1</ele>
        <time>2020-02-24T11:39:33Z</time>
      </trkpt>
      <trkpt lat="46.59632" lon="5.47542">
        <ele>277</ele>
        <time>2020-02-24T11:39:38Z</time>
      </trkpt>
      <trkpt lat="46.59629" lon="5.47536">
        <ele>277.9</ele>
        <time>2020-02-24T11:39:42Z</time>
      </trkpt>
      <trkpt lat="46.59626" lon="5.4753">
        <ele>279</ele>
        <time>2020-02-24T11:39:46Z</time>
      </trkpt>
      <trkpt lat="46.59623" lon="5.47525">
        <ele>280.2</ele>
        <time>2020-02-24T11:39:50Z</time>
      </trkpt>
      <trkpt lat="46.59622" lon="5.47518">
        <ele>281.6</ele>
        <time>2020-02-24T11:39:55Z</time>
      </trkpt>
      <trkpt lat="46.59621" lon="5.4751">
        <ele>282.5</ele>
        <time>2020-02-24T11:40:00Z</time>
      </trkpt>
      <trkpt lat="46.59623" lon="5.47502">
        <ele>283.1</ele>
        <time>2020-02-24T11:40:04Z</time>
      </trkpt>
      <trkpt lat="46.59624" lon="5.47496">
        <ele>283.7</ele>
        <time>2020-02-24T11:40:08Z</time>
      </trkpt>
      <trkpt lat="46.59625" lon="5.47489">
        <ele>284.2</ele>
        <time>2020-02-24T11:40:11Z</time>
      </trkpt>
      <trkpt lat="46.59627" lon="5.47483">
        <ele>284.8</ele>
        <time>2020-02-24T11:40:14Z</time>
      </trkpt>
      <trkpt lat="46.59629" lon="5.47476">
        <ele>285.4</ele>
        <time>2020-02-24T11:40:18Z</time>
      </trkpt>
      <trkpt lat="46.5963" lon="5.47469">
        <ele>286.8</ele>
        <time>2020-02-24T11:40:25Z</time>
      </trkpt>
      <trkpt lat="46.59629" lon="5.47462">
        <ele>287.5</ele>
        <time>2020-02-24T11:40:30Z</time>
      </trkpt>
      <trkpt lat="46.59628" lon="5.47454">
        <ele>288</ele>
        <time>2020-02-24T11:40:35Z</time>
      </trkpt>
      <trkpt lat="46.59628" lon="5.47447">
        <ele>288.3</ele>
        <time>2020-02-24T11:40:40Z</time>
      </trkpt>
      <trkpt lat="46.59628" lon="5.4744">
        <ele>288.1</ele>
        <time>2020-02-24T11:40:46Z</time>
      </trkpt>
      <trkpt lat="46.59628" lon="5.47433">
        <ele>287.6</ele>
        <time>2020-02-24T11:40:52Z</time>
      </trkpt>
      <trkpt lat="46.59629" lon="5.47425">
        <ele>287.5</ele>
        <time>2020-02-24T11:40:56Z</time>
      </trkpt>
      <trkpt lat="46.59628" lon="5.47418">
        <ele>287.5</ele>
        <time>2020-02-24T11:41:00Z</time>
      </trkpt>
      <trkpt lat="46.59626" lon="5.47411">
        <ele>288</ele>
        <time>2020-02-24T11:41:05Z</time>
      </trkpt>
      <trkpt lat="46.59624" lon="5.47404">
        <ele>288.6</ele>
        <time>2020-02-24T11:41:11Z</time>
      </trkpt>
      <trkpt lat="46.59621" lon="5.47397">
        <ele>289.4</ele>
        <time>2020-02-24T11:41:16Z</time>
      </trkpt>
      <trkpt lat="46.59619" lon="5.4739">
        <ele>290.6</ele>
        <time>2020-02-24T11:41:22Z</time>
      </trkpt>
      <trkpt lat="46.59617" lon="5.47383">
        <ele>292.1</ele>
        <time>2020-02-24T11:41:28Z</time>
      </trkpt>
      <trkpt lat="46.59613" lon="5.47378">
        <ele>293.7</ele>
        <time>2020-02-24T11:41:34Z</time>
      </trkpt>
      <trkpt lat="46.5961" lon="5.47372">
        <ele>294.9</ele>
        <time>2020-02-24T11:41:39Z</time>
      </trkpt>
      <trkpt lat="46.59608" lon="5.47365">
        <ele>295.9</ele>
        <time>2020-02-24T11:41:45Z</time>
      </trkpt>
      <trkpt lat="46.59604" lon="5.47359">
        <ele>296.9</ele>
        <time>2020-02-24T11:41:50Z</time>
      </trkpt>
      <trkpt lat="46.596" lon="5.47354">
        <ele>298.2</ele>
        <time>2020-02-24T11:41:56Z</time>
      </trkpt>
      <trkpt lat="46.59597" lon="5.47349">
        <ele>299.2</ele>
        <time>2020-02-24T11:42:00Z</time>
      </trkpt>
      <trkpt lat="46.59593" lon="5.47344">
        <ele>300.4</ele>
        <time>2020-02-24T11:42:05Z</time>
      </trkpt>
      <trkpt lat="46.5959" lon="5.47339">
        <ele>302</ele>
        <time>2020-02-24T11:42:11Z</time>
      </trkpt>
      <trkpt lat="46.59585" lon="5.47338">
        <ele>303.3</ele>
        <time>2020-02-24T11:42:31Z</time>
      </trkpt>
      <trkpt lat="46.59583" lon="5.47331">
        <ele>303.7</ele>
        <time>2020-02-24T11:42:42Z</time>
      </trkpt>
      <trkpt lat="46.59582" lon="5.47323">
        <ele>304</ele>
        <time>2020-02-24T11:42:46Z</time>
      </trkpt>
      <trkpt lat="46.59582" lon="5.47314">
        <ele>304.4</ele>
        <time>2020-02-24T11:42:50Z</time>
      </trkpt>
      <trkpt lat="46.59583" lon="5.47306">
        <ele>304.9</ele>
        <time>2020-02-24T11:42:53Z</time>
      </trkpt>
      <trkpt lat="46.59582" lon="5.473">
        <ele>304.9</ele>
        <time>2020-02-24T11:42:57Z</time>
      </trkpt>
      <trkpt lat="46.59578" lon="5.47296">
        <ele>302.2</ele>
        <time>2020-02-24T11:43:02Z</time>
      </trkpt>
      <trkpt lat="46.59576" lon="5.47289">
        <ele>297.9</ele>
        <time>2020-02-24T11:43:07Z</time>
      </trkpt>
      <trkpt lat="46.59574" lon="5.47282">
        <ele>293</ele>
        <time>2020-02-24T11:43:12Z</time>
      </trkpt>
      <trkpt lat="46.59573" lon="5.47275">
        <ele>288.1</ele>
        <time>2020-02-24T11:43:17Z</time>
      </trkpt>
      <trkpt lat="46.59571" lon="5.47267">
        <ele>283.4</ele>
        <time>2020-02-24T11:43:22Z</time>
      </trkpt>
      <trkpt lat="46.59566" lon="5.47263">
        <ele>280.9</ele>
        <time>2020-02-24T11:43:25Z</time>
      </trkpt>
      <trkpt lat="46.59561" lon="5.4726">
        <ele>278.8</ele>
        <time>2020-02-24T11:43:28Z</time>
      </trkpt>
      <trkpt lat="46.59555" lon="5.47258">
        <ele>276.3</ele>
        <time>2020-02-24T11:43:32Z</time>
      </trkpt>
      <trkpt lat="46.59551" lon="5.47258">
        <ele>274</ele>
        <time>2020-02-24T11:43:37Z</time>
      </trkpt>
      <trkpt lat="46.59546" lon="5.47256">
        <ele>271.5</ele>
        <time>2020-02-24T11:43:45Z</time>
      </trkpt>
      <trkpt lat="46.59541" lon="5.47254">
        <ele>271.1</ele>
        <time>2020-02-24T11:43:52Z</time>
      </trkpt>
      <trkpt lat="46.59536" lon="5.47254">
        <ele>271.2</ele>
        <time>2020-02-24T11:43:56Z</time>
      </trkpt>
      <trkpt lat="46.5953" lon="5.47253">
        <ele>272</ele>
        <time>2020-02-24T11:44:02Z</time>
      </trkpt>
      <trkpt lat="46.59526" lon="5.47251">
        <ele>272.8</ele>
        <time>2020-02-24T11:44:06Z</time>
      </trkpt>
      <trkpt lat="46.59521" lon="5.47247">
        <ele>274.5</ele>
        <time>2020-02-24T11:44:11Z</time>
      </trkpt>
      <trkpt lat="46.59517" lon="5.47243">
        <ele>278</ele>
        <time>2020-02-24T11:44:17Z</time>
      </trkpt>
      <trkpt lat="46.59513" lon="5.4724">
        <ele>283.2</ele>
        <time>2020-02-24T11:44:23Z</time>
      </trkpt>
      <trkpt lat="46.59508" lon="5.47242">
        <ele>288.8</ele>
        <time>2020-02-24T11:44:38Z</time>
      </trkpt>
      <trkpt lat="46.59503" lon="5.4724">
        <ele>289.2</ele>
        <time>2020-02-24T11:44:42Z</time>
      </trkpt>
      <trkpt lat="46.59499" lon="5.4724">
        <ele>288.9</ele>
        <time>2020-02-24T11:44:46Z</time>
      </trkpt>
      <trkpt lat="46.59494" lon="5.47241">
        <ele>286.7</ele>
        <time>2020-02-24T11:44:56Z</time>
      </trkpt>
      <trkpt lat="46.59489" lon="5.47242">
        <ele>286</ele>
        <time>2020-02-24T11:45:00Z</time>
      </trkpt>
      <trkpt lat="46.59484" lon="5.47243">
        <ele>285.5</ele>
        <time>2020-02-24T11:45:03Z</time>
      </trkpt>
      <trkpt lat="46.59479" lon="5.47245">
        <ele>285</ele>
        <time>2020-02-24T11:45:06Z</time>
      </trkpt>
      <trkpt lat="46.59474" lon="5.47247">
        <ele>284.4</ele>
        <time>2020-02-24T11:45:09Z</time>
      </trkpt>
      <trkpt lat="46.59469" lon="5.47249">
        <ele>284</ele>
        <time>2020-02-24T11:45:12Z</time>
      </trkpt>
      <trkpt lat="46.59465" lon="5.47246">
        <ele>283.9</ele>
        <time>2020-02-24T11:45:20Z</time>
      </trkpt>
      <trkpt lat="46.5946" lon="5.47243">
        <ele>284.3</ele>
        <time>2020-02-24T11:45:29Z</time>
      </trkpt>
      <trkpt lat="46.5945" lon="5.47247">
        <ele>289.5</ele>
        <time>2020-02-24T11:45:48Z</time>
      </trkpt>
      <trkpt lat="46.59445" lon="5.4725">
        <ele>292.9</ele>
        <time>2020-02-24T11:45:55Z</time>
      </trkpt>
      <trkpt lat="46.5944" lon="5.47254">
        <ele>295.1</ele>
        <time>2020-02-24T11:46:00Z</time>
      </trkpt>
      <trkpt lat="46.59435" lon="5.47257">
        <ele>294.6</ele>
        <time>2020-02-24T11:46:07Z</time>
      </trkpt>
      <trkpt lat="46.5943" lon="5.4726">
        <ele>292.4</ele>
        <time>2020-02-24T11:46:14Z</time>
      </trkpt>
      <trkpt lat="46.59425" lon="5.47262">
        <ele>291.3</ele>
        <time>2020-02-24T11:46:17Z</time>
      </trkpt>
      <trkpt lat="46.5942" lon="5.47264">
        <ele>290.6</ele>
        <time>2020-02-24T11:46:19Z</time>
      </trkpt>
      <trkpt lat="46.59416" lon="5.47266">
        <ele>289.9</ele>
        <time>2020-02-24T11:46:21Z</time>
      </trkpt>
      <trkpt lat="46.59411" lon="5.47267">
        <ele>288.8</ele>
        <time>2020-02-24T11:46:24Z</time>
      </trkpt>
      <trkpt lat="46.59406" lon="5.47266">
        <ele>286.7</ele>
        <time>2020-02-24T11:46:30Z</time>
      </trkpt>
      <trkpt lat="46.59401" lon="5.47266">
        <ele>284.7</ele>
        <time>2020-02-24T11:46:36Z</time>
      </trkpt>
      <trkpt lat="46.59397" lon="5.47266">
        <ele>283.2</ele>
        <time>2020-02-24T11:46:40Z</time>
      </trkpt>
      <trkpt lat="46.59392" lon="5.47269">
        <ele>280.5</ele>
        <time>2020-02-24T11:46:48Z</time>
      </trkpt>
      <trkpt lat="46.59388" lon="5.47271">
        <ele>277.2</ele>
        <time>2020-02-24T11:46:58Z</time>
      </trkpt>
      <trkpt lat="46.59383" lon="5.4727">
        <ele>275.2</ele>
        <time>2020-02-24T11:47:05Z</time>
      </trkpt>
      <trkpt lat="46.59379" lon="5.4727">
        <ele>274.3</ele>
        <time>2020-02-24T11:47:10Z</time>
      </trkpt>
      <trkpt lat="46.59373" lon="5.47269">
        <ele>273.6</ele>
        <time>2020-02-24T11:47:15Z</time>
      </trkpt>
      <trkpt lat="46.59368" lon="5.47267">
        <ele>273.3</ele>
        <time>2020-02-24T11:47:19Z</time>
      </trkpt>
      <trkpt lat="46.59364" lon="5.47265">
        <ele>273.3</ele>
        <time>2020-02-24T11:47:23Z</time>
      </trkpt>
      <trkpt lat="46.59358" lon="5.47266">
        <ele>273.2</ele>
        <time>2020-02-24T11:47:28Z</time>
      </trkpt>
      <trkpt lat="46.59354" lon="5.47268">
        <ele>273.3</ele>
        <time>2020-02-24T11:47:31Z</time>
      </trkpt>
      <trkpt lat="46.59349" lon="5.4727">
        <ele>273.4</ele>
        <time>2020-02-24T11:47:35Z</time>
      </trkpt>
      <trkpt lat="46.59345" lon="5.47273">
        <ele>274.6</ele>
        <time>2020-02-24T11:48:05Z</time>
      </trkpt>
      <trkpt lat="46.5934" lon="5.47276">
        <ele>272.8</ele>
        <time>2020-02-24T11:48:20Z</time>
      </trkpt>
      <trkpt lat="46.59336" lon="5.47277">
        <ele>270.9</ele>
        <time>2020-02-24T11:48:30Z</time>
      </trkpt>
      <trkpt lat="46.59333" lon="5.47284">
        <ele>268.1</ele>
        <time>2020-02-24T11:48:41Z</time>
      </trkpt>
      <trkpt lat="46.59331" lon="5.47291">
        <ele>266.6</ele>
        <time>2020-02-24T11:48:46Z</time>
      </trkpt>
      <trkpt lat="46.59331" lon="5.47299">
        <ele>265.7</ele>
        <time>2020-02-24T11:48:50Z</time>
      </trkpt>
      <trkpt lat="46.59331" lon="5.47305">
        <ele>265.4</ele>
        <time>2020-02-24T11:48:52Z</time>
      </trkpt>
      <trkpt lat="46.5933" lon="5.47314">
        <ele>265.4</ele>
        <time>2020-02-24T11:48:54Z</time>
      </trkpt>
      <trkpt lat="46.59329" lon="5.47323">
        <ele>265.5</ele>
        <time>2020-02-24T11:48:56Z</time>
      </trkpt>
      <trkpt lat="46.59328" lon="5.4733">
        <ele>265.8</ele>
        <time>2020-02-24T11:48:58Z</time>
      </trkpt>
      <trkpt lat="46.59326" lon="5.47339">
        <ele>266.4</ele>
        <time>2020-02-24T11:49:01Z</time>
      </trkpt>
      <trkpt lat="46.59324" lon="5.47347">
        <ele>267.1</ele>
        <time>2020-02-24T11:49:04Z</time>
      </trkpt>
      <trkpt lat="46.59323" lon="5.47353">
        <ele>268</ele>
        <time>2020-02-24T11:49:07Z</time>
      </trkpt>
      <trkpt lat="46.59321" lon="5.4736">
        <ele>269</ele>
        <time>2020-02-24T11:49:11Z</time>
      </trkpt>
      <trkpt lat="46.59318" lon="5.47365">
        <ele>270.3</ele>
        <time>2020-02-24T11:49:17Z</time>
      </trkpt>
      <trkpt lat="46.59315" lon="5.4737">
        <ele>271.2</ele>
        <time>2020-02-24T11:49:22Z</time>
      </trkpt>
      <trkpt lat="46.59312" lon="5.47378">
        <ele>272.4</ele>
        <time>2020-02-24T11:49:26Z</time>
      </trkpt>
      <trkpt lat="46.59308" lon="5.47384">
        <ele>273.8</ele>
        <time>2020-02-24T11:49:30Z</time>
      </trkpt>
      <trkpt lat="46.59305" lon="5.47389">
        <ele>275.9</ele>
        <time>2020-02-24T11:49:36Z</time>
      </trkpt>
      <trkpt lat="46.59301" lon="5.47393">
        <ele>277.3</ele>
        <time>2020-02-24T11:49:40Z</time>
      </trkpt>
      <trkpt lat="46.59296" lon="5.47396">
        <ele>278.8</ele>
        <time>2020-02-24T11:49:44Z</time>
      </trkpt>
      <trkpt lat="46.59292" lon="5.474">
        <ele>280.1</ele>
        <time>2020-02-24T11:49:48Z</time>
      </trkpt>
      <trkpt lat="46.59287" lon="5.47402">
        <ele>281.3</ele>
        <time>2020-02-24T11:49:52Z</time>
      </trkpt>
      <trkpt lat="46.59282" lon="5.47401">
        <ele>282.4</ele>
        <time>2020-02-24T11:49:56Z</time>
      </trkpt>
      <trkpt lat="46.59277" lon="5.474">
        <ele>283.6</ele>
        <time>2020-02-24T11:50:01Z</time>
      </trkpt>
      <trkpt lat="46.59272" lon="5.474">
        <ele>284.4</ele>
        <time>2020-02-24T11:50:06Z</time>
      </trkpt>
      <trkpt lat="46.59267" lon="5.47399">
        <ele>284.9</ele>
        <time>2020-02-24T11:50:10Z</time>
      </trkpt>
      <trkpt lat="46.59262" lon="5.474">
        <ele>285.3</ele>
        <time>2020-02-24T11:50:15Z</time>
      </trkpt>
      <trkpt lat="46.59257" lon="5.474">
        <ele>285.8</ele>
        <time>2020-02-24T11:50:20Z</time>
      </trkpt>
      <trkpt lat="46.59252" lon="5.47399">
        <ele>286.2</ele>
        <time>2020-02-24T11:50:25Z</time>
      </trkpt>
      <trkpt lat="46.59246" lon="5.47397">
        <ele>286.3</ele>
        <time>2020-02-24T11:50:32Z</time>
      </trkpt>
      <trkpt lat="46.59243" lon="5.47392">
        <ele>286.2</ele>
        <time>2020-02-24T11:50:36Z</time>
      </trkpt>
      <trkpt lat="46.59239" lon="5.47388">
        <ele>285.9</ele>
        <time>2020-02-24T11:50:40Z</time>
      </trkpt>
      <trkpt lat="46.59235" lon="5.47383">
        <ele>285.5</ele>
        <time>2020-02-24T11:50:44Z</time>
      </trkpt>
      <trkpt lat="46.5923" lon="5.4738">
        <ele>285</ele>
        <time>2020-02-24T11:50:48Z</time>
      </trkpt>
      <trkpt lat="46.59225" lon="5.47376">
        <ele>284.3</ele>
        <time>2020-02-24T11:50:52Z</time>
      </trkpt>
      <trkpt lat="46.5922" lon="5.47372">
        <ele>283.5</ele>
        <time>2020-02-24T11:50:56Z</time>
      </trkpt>
      <trkpt lat="46.59216" lon="5.4737">
        <ele>282.6</ele>
        <time>2020-02-24T11:51:01Z</time>
      </trkpt>
      <trkpt lat="46.59211" lon="5.47366">
        <ele>281.7</ele>
        <time>2020-02-24T11:51:07Z</time>
      </trkpt>
      <trkpt lat="46.59207" lon="5.47365">
        <ele>280.8</ele>
        <time>2020-02-24T11:51:13Z</time>
      </trkpt>
      <trkpt lat="46.59202" lon="5.47365">
        <ele>280.4</ele>
        <time>2020-02-24T11:51:19Z</time>
      </trkpt>
      <trkpt lat="46.59197" lon="5.47368">
        <ele>279.3</ele>
        <time>2020-02-24T11:51:28Z</time>
      </trkpt>
      <trkpt lat="46.59194" lon="5.47363">
        <ele>278.8</ele>
        <time>2020-02-24T11:51:43Z</time>
      </trkpt>
      <trkpt lat="46.59193" lon="5.47357">
        <ele>279.4</ele>
        <time>2020-02-24T11:52:09Z</time>
      </trkpt>
      <trkpt lat="46.59191" lon="5.47363">
        <ele>280</ele>
        <time>2020-02-24T11:52:22Z</time>
      </trkpt>
      <trkpt lat="46.59189" lon="5.47371">
        <ele>280.2</ele>
        <time>2020-02-24T11:52:27Z</time>
      </trkpt>
      <trkpt lat="46.59188" lon="5.4738">
        <ele>280.1</ele>
        <time>2020-02-24T11:52:30Z</time>
      </trkpt>
      <trkpt lat="46.59186" lon="5.4739">
        <ele>280.2</ele>
        <time>2020-02-24T11:52:32Z</time>
      </trkpt>
      <trkpt lat="46.59184" lon="5.47399">
        <ele>280.3</ele>
        <time>2020-02-24T11:52:34Z</time>
      </trkpt>
      <trkpt lat="46.59183" lon="5.47406">
        <ele>280.4</ele>
        <time>2020-02-24T11:52:36Z</time>
      </trkpt>
      <trkpt lat="46.59181" lon="5.47413">
        <ele>280.7</ele>
        <time>2020-02-24T11:52:39Z</time>
      </trkpt>
      <trkpt lat="46.59179" lon="5.47419">
        <ele>281.1</ele>
        <time>2020-02-24T11:52:45Z</time>
      </trkpt>
      <trkpt lat="46.59176" lon="5.47425">
        <ele>281.1</ele>
        <time>2020-02-24T11:52:50Z</time>
      </trkpt>
      <trkpt lat="46.59175" lon="5.47418">
        <ele>278.6</ele>
        <time>2020-02-24T11:53:09Z</time>
      </trkpt>
      <trkpt lat="46.59176" lon="5.47411">
        <ele>278</ele>
        <time>2020-02-24T11:53:14Z</time>
      </trkpt>
      <trkpt lat="46.59178" lon="5.47403">
        <ele>277.5</ele>
        <time>2020-02-24T11:53:18Z</time>
      </trkpt>
      <trkpt lat="46.59179" lon="5.47396">
        <ele>277.2</ele>
        <time>2020-02-24T11:53:21Z</time>
      </trkpt>
      <trkpt lat="46.59181" lon="5.4739">
        <ele>276.8</ele>
        <time>2020-02-24T11:53:24Z</time>
      </trkpt>
      <trkpt lat="46.59182" lon="5.47384">
        <ele>276.3</ele>
        <time>2020-02-24T11:53:28Z</time>
      </trkpt>
      <trkpt lat="46.59183" lon="5.47377">
        <ele>275.7</ele>
        <time>2020-02-24T11:53:35Z</time>
      </trkpt>
      <trkpt lat="46.59183" lon="5.4737">
        <ele>275.5</ele>
        <time>2020-02-24T11:53:40Z</time>
      </trkpt>
      <trkpt lat="46.59183" lon="5.47363">
        <ele>275.2</ele>
        <time>2020-02-24T11:53:46Z</time>
      </trkpt>
      <trkpt lat="46.59185" lon="5.47358">
        <ele>274.7</ele>
        <time>2020-02-24T11:54:03Z</time>
      </trkpt>
      <trkpt lat="46.59187" lon="5.47352">
        <ele>274.1</ele>
        <time>2020-02-24T11:54:20Z</time>
      </trkpt>
      <trkpt lat="46.59188" lon="5.47345">
        <ele>272.9</ele>
        <time>2020-02-24T11:54:35Z</time>
      </trkpt>
      <trkpt lat="46.59186" lon="5.47338">
        <ele>271.3</ele>
        <time>2020-02-24T11:54:44Z</time>
      </trkpt>
      <trkpt lat="46.59182" lon="5.47334">
        <ele>270.5</ele>
        <time>2020-02-24T11:54:49Z</time>
      </trkpt>
      <trkpt lat="46.59177" lon="5.47334">
        <ele>270.3</ele>
        <time>2020-02-24T11:54:52Z</time>
      </trkpt>
      <trkpt lat="46.59172" lon="5.47336">
        <ele>270.2</ele>
        <time>2020-02-24T11:54:56Z</time>
      </trkpt>
      <trkpt lat="46.59167" lon="5.47334">
        <ele>270.5</ele>
        <time>2020-02-24T11:55:00Z</time>
      </trkpt>
      <trkpt lat="46.59163" lon="5.47332">
        <ele>271.2</ele>
        <time>2020-02-24T11:55:05Z</time>
      </trkpt>
      <trkpt lat="46.59159" lon="5.47329">
        <ele>271.7</ele>
        <time>2020-02-24T11:55:09Z</time>
      </trkpt>
      <trkpt lat="46.59154" lon="5.47327">
        <ele>272.8</ele>
        <time>2020-02-24T11:55:16Z</time>
      </trkpt>
      <trkpt lat="46.59149" lon="5.47324">
        <ele>273.6</ele>
        <time>2020-02-24T11:55:22Z</time>
      </trkpt>
      <trkpt lat="46.59144" lon="5.47322">
        <ele>274</ele>
        <time>2020-02-24T11:55:26Z</time>
      </trkpt>
      <trkpt lat="46.59139" lon="5.4732">
        <ele>274.1</ele>
        <time>2020-02-24T11:55:32Z</time>
      </trkpt>
      <trkpt lat="46.59134" lon="5.47318">
        <ele>274.1</ele>
        <time>2020-02-24T11:55:37Z</time>
      </trkpt>
      <trkpt lat="46.59129" lon="5.47316">
        <ele>274.1</ele>
        <time>2020-02-24T11:55:42Z</time>
      </trkpt>
      <trkpt lat="46.59125" lon="5.47315">
        <ele>274.3</ele>
        <time>2020-02-24T11:55:50Z</time>
      </trkpt>
      <trkpt lat="46.5912" lon="5.47316">
        <ele>274.8</ele>
        <time>2020-02-24T11:55:54Z</time>
      </trkpt>
      <trkpt lat="46.59115" lon="5.47315">
        <ele>275.3</ele>
        <time>2020-02-24T11:55:57Z</time>
      </trkpt>
      <trkpt lat="46.59109" lon="5.47313">
        <ele>276</ele>
        <time>2020-02-24T11:56:01Z</time>
      </trkpt>
      <trkpt lat="46.59105" lon="5.4731">
        <ele>276.4</ele>
        <time>2020-02-24T11:56:04Z</time>
      </trkpt>
      <trkpt lat="46.591" lon="5.47308">
        <ele>276.7</ele>
        <time>2020-02-24T11:56:07Z</time>
      </trkpt>
      <trkpt lat="46.59095" lon="5.47306">
        <ele>277.1</ele>
        <time>2020-02-24T11:56:11Z</time>
      </trkpt>
      <trkpt lat="46.5909" lon="5.47303">
        <ele>278.1</ele>
        <time>2020-02-24T11:56:20Z</time>
      </trkpt>
      <trkpt lat="46.59084" lon="5.47301">
        <ele>278.1</ele>
        <time>2020-02-24T11:56:24Z</time>
      </trkpt>
      <trkpt lat="46.59079" lon="5.473">
        <ele>278.1</ele>
        <time>2020-02-24T11:56:28Z</time>
      </trkpt>
      <trkpt lat="46.59074" lon="5.47298">
        <ele>277.6</ele>
        <time>2020-02-24T11:56:34Z</time>
      </trkpt>
      <trkpt lat="46.59075" lon="5.47292">
        <ele>276.6</ele>
        <time>2020-02-24T11:56:44Z</time>
      </trkpt>
      <trkpt lat="46.59079" lon="5.47289">
        <ele>276.1</ele>
        <time>2020-02-24T11:56:50Z</time>
      </trkpt>
      <trkpt lat="46.59083" lon="5.47285">
        <ele>275.8</ele>
        <time>2020-02-24T11:56:54Z</time>
      </trkpt>
      <trkpt lat="46.59087" lon="5.47281">
        <ele>275.5</ele>
        <time>2020-02-24T11:56:58Z</time>
      </trkpt>
      <trkpt lat="46.5909" lon="5.47277">
        <ele>275.3</ele>
        <time>2020-02-24T11:57:02Z</time>
      </trkpt>
      <trkpt lat="46.59094" lon="5.47271">
        <ele>275.3</ele>
        <time>2020-02-24T11:57:06Z</time>
      </trkpt>
      <trkpt lat="46.59098" lon="5.47266">
        <ele>275.4</ele>
        <time>2020-02-24T11:57:11Z</time>
      </trkpt>
      <trkpt lat="46.59102" lon="5.47262">
        <ele>275.4</ele>
        <time>2020-02-24T11:57:16Z</time>
      </trkpt>
      <trkpt lat="46.59105" lon="5.47256">
        <ele>275.4</ele>
        <time>2020-02-24T11:57:20Z</time>
      </trkpt>
      <trkpt lat="46.59108" lon="5.47249">
        <ele>275.4</ele>
        <time>2020-02-24T11:57:25Z</time>
      </trkpt>
      <trkpt lat="46.59111" lon="5.47242">
        <ele>275.6</ele>
        <time>2020-02-24T11:57:30Z</time>
      </trkpt>
      <trkpt lat="46.59113" lon="5.47236">
        <ele>275.8</ele>
        <time>2020-02-24T11:57:34Z</time>
      </trkpt>
      <trkpt lat="46.59115" lon="5.47229">
        <ele>276.1</ele>
        <time>2020-02-24T11:57:39Z</time>
      </trkpt>
      <trkpt lat="46.59117" lon="5.47223">
        <ele>276.1</ele>
        <time>2020-02-24T11:57:43Z</time>
      </trkpt>
      <trkpt lat="46.59119" lon="5.47216">
        <ele>276.4</ele>
        <time>2020-02-24T11:57:50Z</time>
      </trkpt>
      <trkpt lat="46.59123" lon="5.4721">
        <ele>276.6</ele>
        <time>2020-02-24T11:57:54Z</time>
      </trkpt>
      <trkpt lat="46.59126" lon="5.47204">
        <ele>276.8</ele>
        <time>2020-02-24T11:57:58Z</time>
      </trkpt>
      <trkpt lat="46.5913" lon="5.472">
        <ele>277.2</ele>
        <time>2020-02-24T11:58:02Z</time>
      </trkpt>
      <trkpt lat="46.59134" lon="5.47196">
        <ele>277.7</ele>
        <time>2020-02-24T11:58:07Z</time>
      </trkpt>
      <trkpt lat="46.59138" lon="5.47191">
        <ele>278.2</ele>
        <time>2020-02-24T11:58:11Z</time>
      </trkpt>
      <trkpt lat="46.59141" lon="5.47186">
        <ele>278.6</ele>
        <time>2020-02-24T11:58:15Z</time>
      </trkpt>
      <trkpt lat="46.59143" lon="5.47179">
        <ele>279</ele>
        <time>2020-02-24T11:58:20Z</time>
      </trkpt>
      <trkpt lat="46.59145" lon="5.47173">
        <ele>279.3</ele>
        <time>2020-02-24T11:58:23Z</time>
      </trkpt>
      <trkpt lat="46.59147" lon="5.47167">
        <ele>279.7</ele>
        <time>2020-02-24T11:58:28Z</time>
      </trkpt>
      <trkpt lat="46.5915" lon="5.47161">
        <ele>280.2</ele>
        <time>2020-02-24T11:58:34Z</time>
      </trkpt>
      <trkpt lat="46.59152" lon="5.47155">
        <ele>280.6</ele>
        <time>2020-02-24T11:58:38Z</time>
      </trkpt>
      <trkpt lat="46.59152" lon="5.47148">
        <ele>280.9</ele>
        <time>2020-02-24T11:58:42Z</time>
      </trkpt>
      <trkpt lat="46.59153" lon="5.47141">
        <ele>281.2</ele>
        <time>2020-02-24T11:58:46Z</time>
      </trkpt>
      <trkpt lat="46.59156" lon="5.47134">
        <ele>281.3</ele>
        <time>2020-02-24T11:58:50Z</time>
      </trkpt>
      <trkpt lat="46.59158" lon="5.47127">
        <ele>281.3</ele>
        <time>2020-02-24T11:58:54Z</time>
      </trkpt>
      <trkpt lat="46.59161" lon="5.47121">
        <ele>281.4</ele>
        <time>2020-02-24T11:58:59Z</time>
      </trkpt>
      <trkpt lat="46.59163" lon="5.47115">
        <ele>281.2</ele>
        <time>2020-02-24T11:59:06Z</time>
      </trkpt>
      <trkpt lat="46.59164" lon="5.47107">
        <ele>281</ele>
        <time>2020-02-24T11:59:12Z</time>
      </trkpt>
      <trkpt lat="46.59162" lon="5.471">
        <ele>281</ele>
        <time>2020-02-24T11:59:18Z</time>
      </trkpt>
      <trkpt lat="46.59159" lon="5.47094">
        <ele>281.2</ele>
        <time>2020-02-24T11:59:21Z</time>
      </trkpt>
      <trkpt lat="46.59158" lon="5.47087">
        <ele>281.7</ele>
        <time>2020-02-24T11:59:25Z</time>
      </trkpt>
      <trkpt lat="46.59155" lon="5.4708">
        <ele>282.2</ele>
        <time>2020-02-24T11:59:29Z</time>
      </trkpt>
      <trkpt lat="46.59153" lon="5.47072">
        <ele>282.6</ele>
        <time>2020-02-24T11:59:33Z</time>
      </trkpt>
      <trkpt lat="46.59151" lon="5.47065">
        <ele>283</ele>
        <time>2020-02-24T11:59:37Z</time>
      </trkpt>
      <trkpt lat="46.5915" lon="5.47056">
        <ele>283.4</ele>
        <time>2020-02-24T11:59:41Z</time>
      </trkpt>
      <trkpt lat="46.59149" lon="5.47049">
        <ele>283.9</ele>
        <time>2020-02-24T11:59:46Z</time>
      </trkpt>
      <trkpt lat="46.59148" lon="5.47042">
        <ele>284.2</ele>
        <time>2020-02-24T11:59:49Z</time>
      </trkpt>
      <trkpt lat="46.59146" lon="5.47036">
        <ele>284.8</ele>
        <time>2020-02-24T11:59:54Z</time>
      </trkpt>
      <trkpt lat="46.59143" lon="5.4703">
        <ele>285.3</ele>
        <time>2020-02-24T11:59:58Z</time>
      </trkpt>
      <trkpt lat="46.59141" lon="5.47024">
        <ele>285.7</ele>
        <time>2020-02-24T12:00:02Z</time>
      </trkpt>
      <trkpt lat="46.59137" lon="5.47018">
        <ele>286.3</ele>
        <time>2020-02-24T12:00:07Z</time>
      </trkpt>
      <trkpt lat="46.59134" lon="5.47014">
        <ele>287.2</ele>
        <time>2020-02-24T12:00:12Z</time>
      </trkpt>
      <trkpt lat="46.5913" lon="5.47009">
        <ele>288.1</ele>
        <time>2020-02-24T12:00:18Z</time>
      </trkpt>
      <trkpt lat="46.59126" lon="5.47005">
        <ele>288.6</ele>
        <time>2020-02-24T12:00:22Z</time>
      </trkpt>
      <trkpt lat="46.59123" lon="5.46999">
        <ele>289.2</ele>
        <time>2020-02-24T12:00:26Z</time>
      </trkpt>
      <trkpt lat="46.5912" lon="5.46994">
        <ele>289.7</ele>
        <time>2020-02-24T12:00:30Z</time>
      </trkpt>
      <trkpt lat="46.59115" lon="5.46992">
        <ele>289.9</ele>
        <time>2020-02-24T12:00:38Z</time>
      </trkpt>
      <trkpt lat="46.59111" lon="5.46989">
        <ele>290.3</ele>
        <time>2020-02-24T12:00:44Z</time>
      </trkpt>
      <trkpt lat="46.59107" lon="5.46986">
        <ele>290.9</ele>
        <time>2020-02-24T12:00:52Z</time>
      </trkpt>
      <trkpt lat="46.59106" lon="5.46979">
        <ele>290.6</ele>
        <time>2020-02-24T12:01:03Z</time>
      </trkpt>
      <trkpt lat="46.59102" lon="5.46975">
        <ele>290</ele>
        <time>2020-02-24T12:01:16Z</time>
      </trkpt>
      <trkpt lat="46.59097" lon="5.46974">
        <ele>289.9</ele>
        <time>2020-02-24T12:01:21Z</time>
      </trkpt>
      <trkpt lat="46.59096" lon="5.46966">
        <ele>288.6</ele>
        <time>2020-02-24T12:01:34Z</time>
      </trkpt>
      <trkpt lat="46.59092" lon="5.46963">
        <ele>287.5</ele>
        <time>2020-02-24T12:01:38Z</time>
      </trkpt>
      <trkpt lat="46.59088" lon="5.46959">
        <ele>286.4</ele>
        <time>2020-02-24T12:01:43Z</time>
      </trkpt>
      <trkpt lat="46.59083" lon="5.46956">
        <ele>286</ele>
        <time>2020-02-24T12:01:46Z</time>
      </trkpt>
      <trkpt lat="46.59078" lon="5.46951">
        <ele>285.7</ele>
        <time>2020-02-24T12:01:49Z</time>
      </trkpt>
      <trkpt lat="46.59073" lon="5.46948">
        <ele>285.4</ele>
        <time>2020-02-24T12:01:52Z</time>
      </trkpt>
      <trkpt lat="46.59068" lon="5.46947">
        <ele>285.1</ele>
        <time>2020-02-24T12:01:57Z</time>
      </trkpt>
      <trkpt lat="46.59063" lon="5.46946">
        <ele>285</ele>
        <time>2020-02-24T12:02:00Z</time>
      </trkpt>
      <trkpt lat="46.59058" lon="5.46945">
        <ele>284.9</ele>
        <time>2020-02-24T12:02:04Z</time>
      </trkpt>
      <trkpt lat="46.59054" lon="5.46947">
        <ele>284.5</ele>
        <time>2020-02-24T12:02:12Z</time>
      </trkpt>
      <trkpt lat="46.59049" lon="5.46947">
        <ele>283.8</ele>
        <time>2020-02-24T12:02:18Z</time>
      </trkpt>
      <trkpt lat="46.59045" lon="5.46944">
        <ele>283</ele>
        <time>2020-02-24T12:02:23Z</time>
      </trkpt>
      <trkpt lat="46.5904" lon="5.46943">
        <ele>282.1</ele>
        <time>2020-02-24T12:02:27Z</time>
      </trkpt>
      <trkpt lat="46.59034" lon="5.46942">
        <ele>280.9</ele>
        <time>2020-02-24T12:02:31Z</time>
      </trkpt>
      <trkpt lat="46.59029" lon="5.46942">
        <ele>279.3</ele>
        <time>2020-02-24T12:02:35Z</time>
      </trkpt>
      <trkpt lat="46.59024" lon="5.46939">
        <ele>277.1</ele>
        <time>2020-02-24T12:02:40Z</time>
      </trkpt>
      <trkpt lat="46.5902" lon="5.46936">
        <ele>274.6</ele>
        <time>2020-02-24T12:02:46Z</time>
      </trkpt>
      <trkpt lat="46.59016" lon="5.46932">
        <ele>272.6</ele>
        <time>2020-02-24T12:02:53Z</time>
      </trkpt>
      <trkpt lat="46.59012" lon="5.4693">
        <ele>271.7</ele>
        <time>2020-02-24T12:02:58Z</time>
      </trkpt>
      <trkpt lat="46.58999" lon="5.46932">
        <ele>272.3</ele>
        <time>2020-02-24T12:03:10Z</time>
      </trkpt>
      <trkpt lat="46.58994" lon="5.46936">
        <ele>273.4</ele>
        <time>2020-02-24T12:03:13Z</time>
      </trkpt>
      <trkpt lat="46.5899" lon="5.46939">
        <ele>274.8</ele>
        <time>2020-02-24T12:03:16Z</time>
      </trkpt>
      <trkpt lat="46.58984" lon="5.46937">
        <ele>276.5</ele>
        <time>2020-02-24T12:03:21Z</time>
      </trkpt>
      <trkpt lat="46.5898" lon="5.46934">
        <ele>277.9</ele>
        <time>2020-02-24T12:03:26Z</time>
      </trkpt>
      <trkpt lat="46.58977" lon="5.4693">
        <ele>279.4</ele>
        <time>2020-02-24T12:03:37Z</time>
      </trkpt>
      <trkpt lat="46.58973" lon="5.46927">
        <ele>280.5</ele>
        <time>2020-02-24T12:03:53Z</time>
      </trkpt>
      <trkpt lat="46.58969" lon="5.46922">
        <ele>280.5</ele>
        <time>2020-02-24T12:03:58Z</time>
      </trkpt>
      <trkpt lat="46.58964" lon="5.46918">
        <ele>280</ele>
        <time>2020-02-24T12:04:03Z</time>
      </trkpt>
      <trkpt lat="46.58959" lon="5.46915">
        <ele>279.3</ele>
        <time>2020-02-24T12:04:08Z</time>
      </trkpt>
      <trkpt lat="46.58955" lon="5.46912">
        <ele>278.5</ele>
        <time>2020-02-24T12:04:12Z</time>
      </trkpt>
      <trkpt lat="46.5895" lon="5.4691">
        <ele>277.2</ele>
        <time>2020-02-24T12:04:19Z</time>
      </trkpt>
      <trkpt lat="46.58945" lon="5.46909">
        <ele>277.2</ele>
        <time>2020-02-24T12:04:26Z</time>
      </trkpt>
      <trkpt lat="46.58939" lon="5.46907">
        <ele>276.9</ele>
        <time>2020-02-24T12:04:30Z</time>
      </trkpt>
      <trkpt lat="46.58934" lon="5.46907">
        <ele>276</ele>
        <time>2020-02-24T12:04:34Z</time>
      </trkpt>
      <trkpt lat="46.58929" lon="5.46906">
        <ele>274.3</ele>
        <time>2020-02-24T12:04:39Z</time>
      </trkpt>
      <trkpt lat="46.58924" lon="5.46905">
        <ele>272.4</ele>
        <time>2020-02-24T12:04:43Z</time>
      </trkpt>
      <trkpt lat="46.58919" lon="5.46904">
        <ele>270.7</ele>
        <time>2020-02-24T12:04:47Z</time>
      </trkpt>
      <trkpt lat="46.58915" lon="5.46898">
        <ele>269.9</ele>
        <time>2020-02-24T12:04:51Z</time>
      </trkpt>
      <trkpt lat="46.58911" lon="5.46894">
        <ele>269.6</ele>
        <time>2020-02-24T12:04:55Z</time>
      </trkpt>
      <trkpt lat="46.58907" lon="5.4689">
        <ele>269.7</ele>
        <time>2020-02-24T12:04:59Z</time>
      </trkpt>
      <trkpt lat="46.58903" lon="5.46887">
        <ele>270.1</ele>
        <time>2020-02-24T12:05:03Z</time>
      </trkpt>
      <trkpt lat="46.58898" lon="5.46884">
        <ele>270.6</ele>
        <time>2020-02-24T12:05:07Z</time>
      </trkpt>
      <trkpt lat="46.58893" lon="5.46881">
        <ele>271</ele>
        <time>2020-02-24T12:05:11Z</time>
      </trkpt>
      <trkpt lat="46.58889" lon="5.46878">
        <ele>271.2</ele>
        <time>2020-02-24T12:05:16Z</time>
      </trkpt>
      <trkpt lat="46.58885" lon="5.46874">
        <ele>271.5</ele>
        <time>2020-02-24T12:05:21Z</time>
      </trkpt>
      <trkpt lat="46.58881" lon="5.4687">
        <ele>271.7</ele>
        <time>2020-02-24T12:05:25Z</time>
      </trkpt>
      <trkpt lat="46.58876" lon="5.46867">
        <ele>271.9</ele>
        <time>2020-02-24T12:05:29Z</time>
      </trkpt>
      <trkpt lat="46.58872" lon="5.46864">
        <ele>272</ele>
        <time>2020-02-24T12:05:33Z</time>
      </trkpt>
      <trkpt lat="46.58867" lon="5.46862">
        <ele>272.2</ele>
        <time>2020-02-24T12:05:37Z</time>
      </trkpt>
      <trkpt lat="46.58863" lon="5.46859">
        <ele>272.3</ele>
        <time>2020-02-24T12:05:42Z</time>
      </trkpt>
      <trkpt lat="46.58858" lon="5.46855">
        <ele>272.3</ele>
        <time>2020-02-24T12:05:47Z</time>
      </trkpt>
      <trkpt lat="46.58854" lon="5.46851">
        <ele>271.8</ele>
        <time>2020-02-24T12:05:53Z</time>
      </trkpt>
      <trkpt lat="46.58849" lon="5.46849">
        <ele>271.6</ele>
        <time>2020-02-24T12:05:57Z</time>
      </trkpt>
      <trkpt lat="46.58844" lon="5.46848">
        <ele>271.4</ele>
        <time>2020-02-24T12:06:01Z</time>
      </trkpt>
      <trkpt lat="46.58839" lon="5.46848">
        <ele>271.2</ele>
        <time>2020-02-24T12:06:06Z</time>
      </trkpt>
      <trkpt lat="46.58835" lon="5.4685">
        <ele>270.9</ele>
        <time>2020-02-24T12:06:10Z</time>
      </trkpt>
      <trkpt lat="46.58831" lon="5.46854">
        <ele>270.7</ele>
        <time>2020-02-24T12:06:14Z</time>
      </trkpt>
      <trkpt lat="46.58827" lon="5.46859">
        <ele>270.1</ele>
        <time>2020-02-24T12:06:19Z</time>
      </trkpt>
      <trkpt lat="46.58822" lon="5.46863">
        <ele>269.6</ele>
        <time>2020-02-24T12:06:23Z</time>
      </trkpt>
      <trkpt lat="46.58819" lon="5.46867">
        <ele>268.7</ele>
        <time>2020-02-24T12:06:28Z</time>
      </trkpt>
      <trkpt lat="46.58815" lon="5.46871">
        <ele>267.6</ele>
        <time>2020-02-24T12:06:33Z</time>
      </trkpt>
      <trkpt lat="46.58812" lon="5.46877">
        <ele>266.5</ele>
        <time>2020-02-24T12:06:38Z</time>
      </trkpt>
      <trkpt lat="46.58809" lon="5.46883">
        <ele>265.1</ele>
        <time>2020-02-24T12:06:45Z</time>
      </trkpt>
      <trkpt lat="46.58806" lon="5.4689">
        <ele>264.5</ele>
        <time>2020-02-24T12:06:49Z</time>
      </trkpt>
      <trkpt lat="46.58803" lon="5.46897">
        <ele>263.8</ele>
        <time>2020-02-24T12:06:53Z</time>
      </trkpt>
      <trkpt lat="46.58801" lon="5.46903">
        <ele>263.2</ele>
        <time>2020-02-24T12:06:57Z</time>
      </trkpt>
      <trkpt lat="46.58798" lon="5.4691">
        <ele>262.8</ele>
        <time>2020-02-24T12:07:02Z</time>
      </trkpt>
      <trkpt lat="46.58796" lon="5.46917">
        <ele>262.5</ele>
        <time>2020-02-24T12:07:07Z</time>
      </trkpt>
      <trkpt lat="46.58793" lon="5.46924">
        <ele>262.2</ele>
        <time>2020-02-24T12:07:11Z</time>
      </trkpt>
      <trkpt lat="46.58791" lon="5.46932">
        <ele>261.9</ele>
        <time>2020-02-24T12:07:15Z</time>
      </trkpt>
      <trkpt lat="46.5879" lon="5.46939">
        <ele>261.5</ele>
        <time>2020-02-24T12:07:19Z</time>
      </trkpt>
      <trkpt lat="46.58787" lon="5.46945">
        <ele>261.1</ele>
        <time>2020-02-24T12:07:24Z</time>
      </trkpt>
      <trkpt lat="46.58784" lon="5.46951">
        <ele>260.9</ele>
        <time>2020-02-24T12:07:28Z</time>
      </trkpt>
      <trkpt lat="46.58781" lon="5.46958">
        <ele>260.8</ele>
        <time>2020-02-24T12:07:33Z</time>
      </trkpt>
      <trkpt lat="46.58777" lon="5.46963">
        <ele>260.7</ele>
        <time>2020-02-24T12:07:39Z</time>
      </trkpt>
      <trkpt lat="46.58774" lon="5.46975">
        <ele>260.5</ele>
        <time>2020-02-24T12:07:42Z</time>
      </trkpt>
      <trkpt lat="46.58773" lon="5.46982">
        <ele>260.5</ele>
        <time>2020-02-24T12:07:45Z</time>
      </trkpt>
      <trkpt lat="46.58771" lon="5.46988">
        <ele>260.3</ele>
        <time>2020-02-24T12:07:55Z</time>
      </trkpt>
      <trkpt lat="46.58768" lon="5.46999">
        <ele>260.2</ele>
        <time>2020-02-24T12:07:57Z</time>
      </trkpt>
      <trkpt lat="46.58765" lon="5.47005">
        <ele>260.1</ele>
        <time>2020-02-24T12:08:00Z</time>
      </trkpt>
      <trkpt lat="46.58763" lon="5.47012">
        <ele>260.2</ele>
        <time>2020-02-24T12:08:04Z</time>
      </trkpt>
      <trkpt lat="46.5876" lon="5.47018">
        <ele>260.5</ele>
        <time>2020-02-24T12:08:09Z</time>
      </trkpt>
      <trkpt lat="46.58756" lon="5.4702">
        <ele>260.6</ele>
        <time>2020-02-24T12:08:14Z</time>
      </trkpt>
      <trkpt lat="46.5875" lon="5.4702">
        <ele>260.7</ele>
        <time>2020-02-24T12:08:19Z</time>
      </trkpt>
      <trkpt lat="46.58745" lon="5.47018">
        <ele>260.8</ele>
        <time>2020-02-24T12:08:23Z</time>
      </trkpt>
      <trkpt lat="46.5874" lon="5.47017">
        <ele>260.4</ele>
        <time>2020-02-24T12:08:35Z</time>
      </trkpt>
      <trkpt lat="46.58733" lon="5.47014">
        <ele>259.6</ele>
        <time>2020-02-24T12:08:37Z</time>
      </trkpt>
      <trkpt lat="46.58728" lon="5.47012">
        <ele>258.6</ele>
        <time>2020-02-24T12:08:41Z</time>
      </trkpt>
      <trkpt lat="46.58724" lon="5.47011">
        <ele>257.3</ele>
        <time>2020-02-24T12:08:51Z</time>
      </trkpt>
      <trkpt lat="46.58717" lon="5.47009">
        <ele>256.3</ele>
        <time>2020-02-24T12:08:53Z</time>
      </trkpt>
      <trkpt lat="46.58712" lon="5.47008">
        <ele>254.7</ele>
        <time>2020-02-24T12:08:59Z</time>
      </trkpt>
      <trkpt lat="46.58707" lon="5.47008">
        <ele>253.2</ele>
        <time>2020-02-24T12:09:04Z</time>
      </trkpt>
      <trkpt lat="46.58702" lon="5.47009">
        <ele>251.6</ele>
        <time>2020-02-24T12:09:09Z</time>
      </trkpt>
      <trkpt lat="46.58698" lon="5.47012">
        <ele>250.2</ele>
        <time>2020-02-24T12:09:14Z</time>
      </trkpt>
      <trkpt lat="46.58693" lon="5.47013">
        <ele>248.9</ele>
        <time>2020-02-24T12:09:18Z</time>
      </trkpt>
      <trkpt lat="46.58688" lon="5.47014">
        <ele>247.4</ele>
        <time>2020-02-24T12:09:24Z</time>
      </trkpt>
      <trkpt lat="46.58683" lon="5.47014">
        <ele>246</ele>
        <time>2020-02-24T12:09:30Z</time>
      </trkpt>
      <trkpt lat="46.58677" lon="5.47014">
        <ele>245.1</ele>
        <time>2020-02-24T12:09:34Z</time>
      </trkpt>
      <trkpt lat="46.58673" lon="5.47019">
        <ele>244.8</ele>
        <time>2020-02-24T12:09:37Z</time>
      </trkpt>
      <trkpt lat="46.5867" lon="5.47024">
        <ele>244.6</ele>
        <time>2020-02-24T12:09:39Z</time>
      </trkpt>
      <trkpt lat="46.58666" lon="5.47031">
        <ele>244.5</ele>
        <time>2020-02-24T12:09:42Z</time>
      </trkpt>
      <trkpt lat="46.58661" lon="5.47035">
        <ele>244.6</ele>
        <time>2020-02-24T12:09:46Z</time>
      </trkpt>
      <trkpt lat="46.58656" lon="5.47036">
        <ele>245.2</ele>
        <time>2020-02-24T12:09:52Z</time>
      </trkpt>
      <trkpt lat="46.58651" lon="5.47035">
        <ele>245.8</ele>
        <time>2020-02-24T12:09:57Z</time>
      </trkpt>
      <trkpt lat="46.58646" lon="5.47033">
        <ele>246.3</ele>
        <time>2020-02-24T12:10:03Z</time>
      </trkpt>
      <trkpt lat="46.58642" lon="5.47031">
        <ele>246.1</ele>
        <time>2020-02-24T12:10:09Z</time>
      </trkpt>
      <trkpt lat="46.58637" lon="5.47028">
        <ele>245.8</ele>
        <time>2020-02-24T12:10:15Z</time>
      </trkpt>
      <trkpt lat="46.58633" lon="5.47025">
        <ele>245.7</ele>
        <time>2020-02-24T12:10:19Z</time>
      </trkpt>
      <trkpt lat="46.58629" lon="5.47021">
        <ele>245.6</ele>
        <time>2020-02-24T12:10:25Z</time>
      </trkpt>
      <trkpt lat="46.58624" lon="5.47018">
        <ele>245.6</ele>
        <time>2020-02-24T12:10:31Z</time>
      </trkpt>
      <trkpt lat="46.5862" lon="5.47013">
        <ele>245.3</ele>
        <time>2020-02-24T12:10:36Z</time>
      </trkpt>
      <trkpt lat="46.58616" lon="5.47008">
        <ele>244.9</ele>
        <time>2020-02-24T12:10:41Z</time>
      </trkpt>
      <trkpt lat="46.58612" lon="5.47003">
        <ele>244.8</ele>
        <time>2020-02-24T12:10:44Z</time>
      </trkpt>
      <trkpt lat="46.58608" lon="5.46997">
        <ele>244.9</ele>
        <time>2020-02-24T12:10:48Z</time>
      </trkpt>
      <trkpt lat="46.58605" lon="5.46991">
        <ele>245.1</ele>
        <time>2020-02-24T12:10:52Z</time>
      </trkpt>
      <trkpt lat="46.58602" lon="5.46985">
        <ele>245.2</ele>
        <time>2020-02-24T12:10:55Z</time>
      </trkpt>
      <trkpt lat="46.586" lon="5.46979">
        <ele>245.3</ele>
        <time>2020-02-24T12:10:59Z</time>
      </trkpt>
      <trkpt lat="46.58599" lon="5.46971">
        <ele>245.6</ele>
        <time>2020-02-24T12:11:05Z</time>
      </trkpt>
      <trkpt lat="46.58599" lon="5.46964">
        <ele>245.7</ele>
        <time>2020-02-24T12:11:10Z</time>
      </trkpt>
      <trkpt lat="46.58599" lon="5.46957">
        <ele>245.7</ele>
        <time>2020-02-24T12:11:14Z</time>
      </trkpt>
      <trkpt lat="46.58598" lon="5.4695">
        <ele>245.6</ele>
        <time>2020-02-24T12:11:19Z</time>
      </trkpt>
      <trkpt lat="46.58593" lon="5.46948">
        <ele>245</ele>
        <time>2020-02-24T12:11:29Z</time>
      </trkpt>
      <trkpt lat="46.58588" lon="5.46948">
        <ele>245.1</ele>
        <time>2020-02-24T12:11:34Z</time>
      </trkpt>
      <trkpt lat="46.58583" lon="5.46948">
        <ele>245.1</ele>
        <time>2020-02-24T12:11:38Z</time>
      </trkpt>
      <trkpt lat="46.58578" lon="5.46948">
        <ele>245.1</ele>
        <time>2020-02-24T12:11:42Z</time>
      </trkpt>
      <trkpt lat="46.58574" lon="5.46952">
        <ele>245</ele>
        <time>2020-02-24T12:11:47Z</time>
      </trkpt>
      <trkpt lat="46.58571" lon="5.46957">
        <ele>245.2</ele>
        <time>2020-02-24T12:11:54Z</time>
      </trkpt>
      <trkpt lat="46.58568" lon="5.46963">
        <ele>245.4</ele>
        <time>2020-02-24T12:12:00Z</time>
      </trkpt>
      <trkpt lat="46.58564" lon="5.46968">
        <ele>245.4</ele>
        <time>2020-02-24T12:12:05Z</time>
      </trkpt>
      <trkpt lat="46.5856" lon="5.46971">
        <ele>245.1</ele>
        <time>2020-02-24T12:12:09Z</time>
      </trkpt>
      <trkpt lat="46.58556" lon="5.46975">
        <ele>244.7</ele>
        <time>2020-02-24T12:12:14Z</time>
      </trkpt>
      <trkpt lat="46.58551" lon="5.46976">
        <ele>242.4</ele>
        <time>2020-02-24T12:12:27Z</time>
      </trkpt>
      <trkpt lat="46.58547" lon="5.4698">
        <ele>242</ele>
        <time>2020-02-24T12:12:32Z</time>
      </trkpt>
      <trkpt lat="46.58543" lon="5.46983">
        <ele>242.3</ele>
        <time>2020-02-24T12:12:39Z</time>
      </trkpt>
      <trkpt lat="46.58538" lon="5.46981">
        <ele>242.9</ele>
        <time>2020-02-24T12:12:44Z</time>
      </trkpt>
      <trkpt lat="46.58534" lon="5.46977">
        <ele>243.7</ele>
        <time>2020-02-24T12:12:50Z</time>
      </trkpt>
      <trkpt lat="46.5853" lon="5.46971">
        <ele>244.8</ele>
        <time>2020-02-24T12:12:58Z</time>
      </trkpt>
      <trkpt lat="46.58527" lon="5.46965">
        <ele>245.3</ele>
        <time>2020-02-24T12:13:04Z</time>
      </trkpt>
      <trkpt lat="46.58524" lon="5.4696">
        <ele>245.2</ele>
        <time>2020-02-24T12:13:08Z</time>
      </trkpt>
      <trkpt lat="46.58521" lon="5.46954">
        <ele>244.8</ele>
        <time>2020-02-24T12:13:12Z</time>
      </trkpt>
      <trkpt lat="46.58518" lon="5.46949">
        <ele>244.5</ele>
        <time>2020-02-24T12:13:18Z</time>
      </trkpt>
      <trkpt lat="46.58515" lon="5.46943">
        <ele>244.6</ele>
        <time>2020-02-24T12:13:24Z</time>
      </trkpt>
      <trkpt lat="46.58513" lon="5.46936">
        <ele>244.6</ele>
        <time>2020-02-24T12:13:30Z</time>
      </trkpt>
      <trkpt lat="46.5851" lon="5.46931">
        <ele>244.8</ele>
        <time>2020-02-24T12:13:35Z</time>
      </trkpt>
      <trkpt lat="46.58506" lon="5.46925">
        <ele>244.9</ele>
        <time>2020-02-24T12:13:39Z</time>
      </trkpt>
      <trkpt lat="46.58503" lon="5.4692">
        <ele>245</ele>
        <time>2020-02-24T12:13:42Z</time>
      </trkpt>
      <trkpt lat="46.585" lon="5.46915">
        <ele>245.1</ele>
        <time>2020-02-24T12:13:46Z</time>
      </trkpt>
      <trkpt lat="46.58497" lon="5.4691">
        <ele>245.2</ele>
        <time>2020-02-24T12:13:51Z</time>
      </trkpt>
      <trkpt lat="46.58494" lon="5.46904">
        <ele>245.5</ele>
        <time>2020-02-24T12:13:54Z</time>
      </trkpt>
      <trkpt lat="46.5849" lon="5.46897">
        <ele>245.8</ele>
        <time>2020-02-24T12:13:57Z</time>
      </trkpt>
      <trkpt lat="46.58486" lon="5.46892">
        <ele>246.9</ele>
        <time>2020-02-24T12:14:03Z</time>
      </trkpt>
      <trkpt lat="46.58482" lon="5.46889">
        <ele>248</ele>
        <time>2020-02-24T12:14:08Z</time>
      </trkpt>
      <trkpt lat="46.5848" lon="5.46882">
        <ele>249.8</ele>
        <time>2020-02-24T12:14:14Z</time>
      </trkpt>
      <trkpt lat="46.5848" lon="5.46875">
        <ele>250.8</ele>
        <time>2020-02-24T12:14:19Z</time>
      </trkpt>
      <trkpt lat="46.58479" lon="5.46867">
        <ele>251.1</ele>
        <time>2020-02-24T12:14:24Z</time>
      </trkpt>
      <trkpt lat="46.58476" lon="5.46861">
        <ele>251.3</ele>
        <time>2020-02-24T12:14:31Z</time>
      </trkpt>
      <trkpt lat="46.58473" lon="5.46855">
        <ele>251.2</ele>
        <time>2020-02-24T12:14:36Z</time>
      </trkpt>
      <trkpt lat="46.5847" lon="5.4685">
        <ele>251</ele>
        <time>2020-02-24T12:14:41Z</time>
      </trkpt>
      <trkpt lat="46.58468" lon="5.46844">
        <ele>250.7</ele>
        <time>2020-02-24T12:14:46Z</time>
      </trkpt>
      <trkpt lat="46.58465" lon="5.46837">
        <ele>250.3</ele>
        <time>2020-02-24T12:14:50Z</time>
      </trkpt>
      <trkpt lat="46.58462" lon="5.46829">
        <ele>250.1</ele>
        <time>2020-02-24T12:14:54Z</time>
      </trkpt>
      <trkpt lat="46.58459" lon="5.46823">
        <ele>250.1</ele>
        <time>2020-02-24T12:14:59Z</time>
      </trkpt>
      <trkpt lat="46.58457" lon="5.46816">
        <ele>250</ele>
        <time>2020-02-24T12:15:04Z</time>
      </trkpt>
      <trkpt lat="46.58455" lon="5.46809">
        <ele>249.8</ele>
        <time>2020-02-24T12:15:09Z</time>
      </trkpt>
      <trkpt lat="46.58454" lon="5.46802">
        <ele>249.3</ele>
        <time>2020-02-24T12:15:16Z</time>
      </trkpt>
      <trkpt lat="46.58453" lon="5.46795">
        <ele>248.9</ele>
        <time>2020-02-24T12:15:22Z</time>
      </trkpt>
      <trkpt lat="46.58453" lon="5.46787">
        <ele>248.4</ele>
        <time>2020-02-24T12:15:27Z</time>
      </trkpt>
      <trkpt lat="46.58453" lon="5.46779">
        <ele>248</ele>
        <time>2020-02-24T12:15:31Z</time>
      </trkpt>
      <trkpt lat="46.58454" lon="5.46772">
        <ele>247.5</ele>
        <time>2020-02-24T12:15:35Z</time>
      </trkpt>
      <trkpt lat="46.58455" lon="5.46765">
        <ele>247</ele>
        <time>2020-02-24T12:15:45Z</time>
      </trkpt>
      <trkpt lat="46.58458" lon="5.46756">
        <ele>246.6</ele>
        <time>2020-02-24T12:15:47Z</time>
      </trkpt>
      <trkpt lat="46.58462" lon="5.46751">
        <ele>246.4</ele>
        <time>2020-02-24T12:15:50Z</time>
      </trkpt>
      <trkpt lat="46.58466" lon="5.46746">
        <ele>246.1</ele>
        <time>2020-02-24T12:15:54Z</time>
      </trkpt>
      <trkpt lat="46.5847" lon="5.46741">
        <ele>246</ele>
        <time>2020-02-24T12:15:58Z</time>
      </trkpt>
      <trkpt lat="46.58474" lon="5.46736">
        <ele>246.2</ele>
        <time>2020-02-24T12:16:02Z</time>
      </trkpt>
      <trkpt lat="46.58477" lon="5.46732">
        <ele>246.8</ele>
        <time>2020-02-24T12:16:08Z</time>
      </trkpt>
      <trkpt lat="46.58481" lon="5.46726">
        <ele>247.3</ele>
        <time>2020-02-24T12:16:19Z</time>
      </trkpt>
      <trkpt lat="46.58485" lon="5.46721">
        <ele>247.4</ele>
        <time>2020-02-24T12:16:23Z</time>
      </trkpt>
      <trkpt lat="46.58489" lon="5.46718">
        <ele>247.4</ele>
        <time>2020-02-24T12:16:27Z</time>
      </trkpt>
      <trkpt lat="46.58493" lon="5.46714">
        <ele>247.3</ele>
        <time>2020-02-24T12:16:32Z</time>
      </trkpt>
      <trkpt lat="46.58497" lon="5.46709">
        <ele>247.2</ele>
        <time>2020-02-24T12:16:36Z</time>
      </trkpt>
      <trkpt lat="46.58502" lon="5.46705">
        <ele>247.1</ele>
        <time>2020-02-24T12:16:42Z</time>
      </trkpt>
      <trkpt lat="46.58505" lon="5.467">
        <ele>247.2</ele>
        <time>2020-02-24T12:16:49Z</time>
      </trkpt>
      <trkpt lat="46.58508" lon="5.46694">
        <ele>247.3</ele>
        <time>2020-02-24T12:16:55Z</time>
      </trkpt>
      <trkpt lat="46.58512" lon="5.4669">
        <ele>247.5</ele>
        <time>2020-02-24T12:17:00Z</time>
      </trkpt>
      <trkpt lat="46.58515" lon="5.46685">
        <ele>247.9</ele>
        <time>2020-02-24T12:17:06Z</time>
      </trkpt>
      <trkpt lat="46.58517" lon="5.46678">
        <ele>248.6</ele>
        <time>2020-02-24T12:17:13Z</time>
      </trkpt>
      <trkpt lat="46.58514" lon="5.46672">
        <ele>249.5</ele>
        <time>2020-02-24T12:17:18Z</time>
      </trkpt>
      <trkpt lat="46.5851" lon="5.46668">
        <ele>250.6</ele>
        <time>2020-02-24T12:17:23Z</time>
      </trkpt>
      <trkpt lat="46.58506" lon="5.46666">
        <ele>251.4</ele>
        <time>2020-02-24T12:17:28Z</time>
      </trkpt>
      <trkpt lat="46.585" lon="5.46665">
        <ele>252.5</ele>
        <time>2020-02-24T12:17:33Z</time>
      </trkpt>
      <trkpt lat="46.58496" lon="5.46664">
        <ele>253.7</ele>
        <time>2020-02-24T12:17:38Z</time>
      </trkpt>
      <trkpt lat="46.58493" lon="5.46659">
        <ele>255.1</ele>
        <time>2020-02-24T12:17:45Z</time>
      </trkpt>
      <trkpt lat="46.58488" lon="5.46658">
        <ele>257.9</ele>
        <time>2020-02-24T12:18:23Z</time>
      </trkpt>
      <trkpt lat="46.58483" lon="5.46656">
        <ele>258.1</ele>
        <time>2020-02-24T12:18:27Z</time>
      </trkpt>
      <trkpt lat="46.58478" lon="5.46653">
        <ele>258.2</ele>
        <time>2020-02-24T12:18:30Z</time>
      </trkpt>
      <trkpt lat="46.58473" lon="5.4665">
        <ele>258.5</ele>
        <time>2020-02-24T12:18:33Z</time>
      </trkpt>
      <trkpt lat="46.5847" lon="5.46645">
        <ele>258.9</ele>
        <time>2020-02-24T12:18:38Z</time>
      </trkpt>
      <trkpt lat="46.58468" lon="5.46638">
        <ele>259.6</ele>
        <time>2020-02-24T12:18:43Z</time>
      </trkpt>
      <trkpt lat="46.58467" lon="5.4663">
        <ele>260.3</ele>
        <time>2020-02-24T12:18:47Z</time>
      </trkpt>
      <trkpt lat="46.58466" lon="5.46623">
        <ele>261</ele>
        <time>2020-02-24T12:18:51Z</time>
      </trkpt>
      <trkpt lat="46.58464" lon="5.46617">
        <ele>261.7</ele>
        <time>2020-02-24T12:18:54Z</time>
      </trkpt>
      <trkpt lat="46.58469" lon="5.46614">
        <ele>262.5</ele>
        <time>2020-02-24T12:19:02Z</time>
      </trkpt>
      <trkpt lat="46.58466" lon="5.4661">
        <ele>262.5</ele>
        <time>2020-02-24T12:19:31Z</time>
      </trkpt>
      <trkpt lat="46.58465" lon="5.46603">
        <ele>261.4</ele>
        <time>2020-02-24T12:19:40Z</time>
      </trkpt>
      <trkpt lat="46.58462" lon="5.46596">
        <ele>260.9</ele>
        <time>2020-02-24T12:19:44Z</time>
      </trkpt>
      <trkpt lat="46.5846" lon="5.4659">
        <ele>260.6</ele>
        <time>2020-02-24T12:19:49Z</time>
      </trkpt>
      <trkpt lat="46.58456" lon="5.46585">
        <ele>260.8</ele>
        <time>2020-02-24T12:19:54Z</time>
      </trkpt>
      <trkpt lat="46.58452" lon="5.46581">
        <ele>261.5</ele>
        <time>2020-02-24T12:20:00Z</time>
      </trkpt>
      <trkpt lat="46.58447" lon="5.46578">
        <ele>262.3</ele>
        <time>2020-02-24T12:20:07Z</time>
      </trkpt>
      <trkpt lat="46.58444" lon="5.46575">
        <ele>263.3</ele>
        <time>2020-02-24T12:20:13Z</time>
      </trkpt>
      <trkpt lat="46.58439" lon="5.4657">
        <ele>266.7</ele>
        <time>2020-02-24T12:20:25Z</time>
      </trkpt>
      <trkpt lat="46.58436" lon="5.46566">
        <ele>267.8</ele>
        <time>2020-02-24T12:20:29Z</time>
      </trkpt>
      <trkpt lat="46.58432" lon="5.46562">
        <ele>270.2</ele>
        <time>2020-02-24T12:20:39Z</time>
      </trkpt>
      <trkpt lat="46.5843" lon="5.46556">
        <ele>271.7</ele>
        <time>2020-02-24T12:20:45Z</time>
      </trkpt>
      <trkpt lat="46.58427" lon="5.4655">
        <ele>273.1</ele>
        <time>2020-02-24T12:20:53Z</time>
      </trkpt>
      <trkpt lat="46.58424" lon="5.46545">
        <ele>273.8</ele>
        <time>2020-02-24T12:20:58Z</time>
      </trkpt>
      <trkpt lat="46.58421" lon="5.46539">
        <ele>274.5</ele>
        <time>2020-02-24T12:21:04Z</time>
      </trkpt>
      <trkpt lat="46.58418" lon="5.46534">
        <ele>275.5</ele>
        <time>2020-02-24T12:21:14Z</time>
      </trkpt>
      <trkpt lat="46.58415" lon="5.4653">
        <ele>276</ele>
        <time>2020-02-24T12:21:25Z</time>
      </trkpt>
      <trkpt lat="46.58411" lon="5.46525">
        <ele>276.3</ele>
        <time>2020-02-24T12:21:31Z</time>
      </trkpt>
      <trkpt lat="46.58408" lon="5.46519">
        <ele>276.9</ele>
        <time>2020-02-24T12:21:36Z</time>
      </trkpt>
      <trkpt lat="46.58404" lon="5.46513">
        <ele>277.8</ele>
        <time>2020-02-24T12:21:42Z</time>
      </trkpt>
      <trkpt lat="46.58401" lon="5.46507">
        <ele>279.1</ele>
        <time>2020-02-24T12:21:50Z</time>
      </trkpt>
      <trkpt lat="46.58398" lon="5.46501">
        <ele>279.9</ele>
        <time>2020-02-24T12:21:56Z</time>
      </trkpt>
      <trkpt lat="46.58394" lon="5.46497">
        <ele>280.7</ele>
        <time>2020-02-24T12:22:02Z</time>
      </trkpt>
      <trkpt lat="46.5839" lon="5.46492">
        <ele>281.6</ele>
        <time>2020-02-24T12:22:12Z</time>
      </trkpt>
      <trkpt lat="46.58386" lon="5.46488">
        <ele>282.3</ele>
        <time>2020-02-24T12:22:21Z</time>
      </trkpt>
      <trkpt lat="46.58382" lon="5.46485">
        <ele>282.3</ele>
        <time>2020-02-24T12:22:26Z</time>
      </trkpt>
      <trkpt lat="46.58378" lon="5.46481">
        <ele>282.6</ele>
        <time>2020-02-24T12:22:31Z</time>
      </trkpt>
      <trkpt lat="46.58373" lon="5.46479">
        <ele>283.2</ele>
        <time>2020-02-24T12:22:36Z</time>
      </trkpt>
      <trkpt lat="46.58369" lon="5.46477">
        <ele>283.7</ele>
        <time>2020-02-24T12:22:41Z</time>
      </trkpt>
      <trkpt lat="46.58365" lon="5.46473">
        <ele>284.4</ele>
        <time>2020-02-24T12:22:47Z</time>
      </trkpt>
      <trkpt lat="46.5836" lon="5.46471">
        <ele>285.2</ele>
        <time>2020-02-24T12:22:53Z</time>
      </trkpt>
      <trkpt lat="46.58356" lon="5.46469">
        <ele>286.2</ele>
        <time>2020-02-24T12:22:58Z</time>
      </trkpt>
      <trkpt lat="46.58351" lon="5.46464">
        <ele>286.6</ele>
        <time>2020-02-24T12:23:02Z</time>
      </trkpt>
      <trkpt lat="46.58347" lon="5.4646">
        <ele>286.8</ele>
        <time>2020-02-24T12:23:06Z</time>
      </trkpt>
      <trkpt lat="46.58343" lon="5.46457">
        <ele>286.8</ele>
        <time>2020-02-24T12:23:10Z</time>
      </trkpt>
      <trkpt lat="46.58338" lon="5.46452">
        <ele>286.7</ele>
        <time>2020-02-24T12:23:15Z</time>
      </trkpt>
      <trkpt lat="46.58333" lon="5.46447">
        <ele>286.6</ele>
        <time>2020-02-24T12:23:19Z</time>
      </trkpt>
      <trkpt lat="46.5833" lon="5.46443">
        <ele>286.7</ele>
        <time>2020-02-24T12:23:23Z</time>
      </trkpt>
      <trkpt lat="46.58327" lon="5.46437">
        <ele>287</ele>
        <time>2020-02-24T12:23:29Z</time>
      </trkpt>
      <trkpt lat="46.58324" lon="5.46431">
        <ele>287.4</ele>
        <time>2020-02-24T12:23:33Z</time>
      </trkpt>
      <trkpt lat="46.58321" lon="5.46426">
        <ele>288</ele>
        <time>2020-02-24T12:23:38Z</time>
      </trkpt>
      <trkpt lat="46.58317" lon="5.46421">
        <ele>288.5</ele>
        <time>2020-02-24T12:23:42Z</time>
      </trkpt>
      <trkpt lat="46.58314" lon="5.46416">
        <ele>289</ele>
        <time>2020-02-24T12:23:46Z</time>
      </trkpt>
      <trkpt lat="46.58312" lon="5.4641">
        <ele>289.9</ele>
        <time>2020-02-24T12:23:51Z</time>
      </trkpt>
      <trkpt lat="46.58313" lon="5.46403">
        <ele>291.2</ele>
        <time>2020-02-24T12:24:06Z</time>
      </trkpt>
      <trkpt lat="46.58317" lon="5.46399">
        <ele>290.3</ele>
        <time>2020-02-24T12:24:13Z</time>
      </trkpt>
      <trkpt lat="46.5832" lon="5.46394">
        <ele>289.4</ele>
        <time>2020-02-24T12:24:20Z</time>
      </trkpt>
      <trkpt lat="46.58321" lon="5.46387">
        <ele>287.5</ele>
        <time>2020-02-24T12:24:29Z</time>
      </trkpt>
      <trkpt lat="46.58317" lon="5.46381">
        <ele>285.9</ele>
        <time>2020-02-24T12:24:34Z</time>
      </trkpt>
      <trkpt lat="46.58312" lon="5.46383">
        <ele>285.1</ele>
        <time>2020-02-24T12:24:38Z</time>
      </trkpt>
      <trkpt lat="46.58306" lon="5.46385">
        <ele>285.1</ele>
        <time>2020-02-24T12:24:41Z</time>
      </trkpt>
      <trkpt lat="46.58301" lon="5.46385">
        <ele>285.3</ele>
        <time>2020-02-24T12:24:44Z</time>
      </trkpt>
      <trkpt lat="46.58297" lon="5.46389">
        <ele>288.6</ele>
        <time>2020-02-24T12:25:06Z</time>
      </trkpt>
      <trkpt lat="46.58295" lon="5.46383">
        <ele>290</ele>
        <time>2020-02-24T12:25:14Z</time>
      </trkpt>
      <trkpt lat="46.58292" lon="5.46376">
        <ele>291.4</ele>
        <time>2020-02-24T12:25:19Z</time>
      </trkpt>
      <trkpt lat="46.58289" lon="5.46371">
        <ele>292.9</ele>
        <time>2020-02-24T12:25:24Z</time>
      </trkpt>
      <trkpt lat="46.58284" lon="5.46366">
        <ele>294.2</ele>
        <time>2020-02-24T12:25:29Z</time>
      </trkpt>
      <trkpt lat="46.58279" lon="5.46362">
        <ele>295.4</ele>
        <time>2020-02-24T12:25:34Z</time>
      </trkpt>
      <trkpt lat="46.58274" lon="5.46361">
        <ele>296.1</ele>
        <time>2020-02-24T12:25:39Z</time>
      </trkpt>
      <trkpt lat="46.58271" lon="5.46358">
        <ele>296.7</ele>
        <time>2020-02-24T12:25:48Z</time>
      </trkpt>
      <trkpt lat="46.58266" lon="5.46355">
        <ele>296.7</ele>
        <time>2020-02-24T12:25:56Z</time>
      </trkpt>
      <trkpt lat="46.58261" lon="5.46352">
        <ele>296.8</ele>
        <time>2020-02-24T12:26:01Z</time>
      </trkpt>
      <trkpt lat="46.58257" lon="5.4635">
        <ele>296.8</ele>
        <time>2020-02-24T12:26:06Z</time>
      </trkpt>
      <trkpt lat="46.58252" lon="5.46349">
        <ele>297.6</ele>
        <time>2020-02-24T12:26:17Z</time>
      </trkpt>
      <trkpt lat="46.5825" lon="5.46355">
        <ele>298.9</ele>
        <time>2020-02-24T12:26:27Z</time>
      </trkpt>
      <trkpt lat="46.58248" lon="5.46361">
        <ele>302.4</ele>
        <time>2020-02-24T12:27:01Z</time>
      </trkpt>
      <trkpt lat="46.58243" lon="5.46361">
        <ele>303.4</ele>
        <time>2020-02-24T12:27:06Z</time>
      </trkpt>
      <trkpt lat="46.58238" lon="5.46359">
        <ele>303.9</ele>
        <time>2020-02-24T12:27:10Z</time>
      </trkpt>
      <trkpt lat="46.58233" lon="5.46358">
        <ele>304.5</ele>
        <time>2020-02-24T12:27:14Z</time>
      </trkpt>
      <trkpt lat="46.58227" lon="5.46357">
        <ele>305.1</ele>
        <time>2020-02-24T12:27:18Z</time>
      </trkpt>
      <trkpt lat="46.58222" lon="5.46355">
        <ele>305.8</ele>
        <time>2020-02-24T12:27:23Z</time>
      </trkpt>
      <trkpt lat="46.58218" lon="5.46356">
        <ele>306.8</ele>
        <time>2020-02-24T12:27:29Z</time>
      </trkpt>
      <trkpt lat="46.58213" lon="5.46357">
        <ele>307.4</ele>
        <time>2020-02-24T12:27:38Z</time>
      </trkpt>
      <trkpt lat="46.58214" lon="5.4635">
        <ele>307.3</ele>
        <time>2020-02-24T12:27:48Z</time>
      </trkpt>
      <trkpt lat="46.58217" lon="5.46345">
        <ele>307.8</ele>
        <time>2020-02-24T12:28:25Z</time>
      </trkpt>
      <trkpt lat="46.58219" lon="5.46351">
        <ele>307</ele>
        <time>2020-02-24T12:28:41Z</time>
      </trkpt>
      <trkpt lat="46.58222" lon="5.46356">
        <ele>306.9</ele>
        <time>2020-02-24T12:28:47Z</time>
      </trkpt>
      <trkpt lat="46.58217" lon="5.46358">
        <ele>307</ele>
        <time>2020-02-24T12:29:03Z</time>
      </trkpt>
      <trkpt lat="46.58213" lon="5.46359">
        <ele>307.3</ele>
        <time>2020-02-24T12:29:09Z</time>
      </trkpt>
      <trkpt lat="46.58216" lon="5.46365">
        <ele>307.8</ele>
        <time>2020-02-24T12:29:29Z</time>
      </trkpt>
      <trkpt lat="46.5822" lon="5.46362">
        <ele>309.3</ele>
        <time>2020-02-24T12:29:39Z</time>
      </trkpt>
      <trkpt lat="46.58218" lon="5.4637">
        <ele>313.1</ele>
        <time>2020-02-24T12:30:41Z</time>
      </trkpt>
      <trkpt lat="46.58216" lon="5.46376">
        <ele>313.4</ele>
        <time>2020-02-24T12:30:43Z</time>
      </trkpt>
      <trkpt lat="46.58215" lon="5.46383">
        <ele>314</ele>
        <time>2020-02-24T12:30:47Z</time>
      </trkpt>
      <trkpt lat="46.5821" lon="5.46386">
        <ele>315.3</ele>
        <time>2020-02-24T12:30:56Z</time>
      </trkpt>
      <trkpt lat="46.58205" lon="5.46386">
        <ele>315.5</ele>
        <time>2020-02-24T12:31:03Z</time>
      </trkpt>
      <trkpt lat="46.582" lon="5.46386">
        <ele>316.2</ele>
        <time>2020-02-24T12:31:20Z</time>
      </trkpt>
      <trkpt lat="46.58195" lon="5.46386">
        <ele>312.3</ele>
        <time>2020-02-24T12:32:00Z</time>
      </trkpt>
      <trkpt lat="46.58191" lon="5.46389">
        <ele>308.6</ele>
        <time>2020-02-24T12:32:10Z</time>
      </trkpt>
      <trkpt lat="46.58187" lon="5.46392">
        <ele>306.3</ele>
        <time>2020-02-24T12:32:16Z</time>
      </trkpt>
      <trkpt lat="46.58183" lon="5.46396">
        <ele>304.5</ele>
        <time>2020-02-24T12:32:21Z</time>
      </trkpt>
      <trkpt lat="46.58179" lon="5.46401">
        <ele>303.1</ele>
        <time>2020-02-24T12:32:26Z</time>
      </trkpt>
      <trkpt lat="46.58175" lon="5.46405">
        <ele>302.3</ele>
        <time>2020-02-24T12:32:30Z</time>
      </trkpt>
      <trkpt lat="46.58171" lon="5.46411">
        <ele>301.3</ele>
        <time>2020-02-24T12:32:34Z</time>
      </trkpt>
      <trkpt lat="46.58168" lon="5.46418">
        <ele>300.5</ele>
        <time>2020-02-24T12:32:38Z</time>
      </trkpt>
      <trkpt lat="46.58166" lon="5.46426">
        <ele>300.1</ele>
        <time>2020-02-24T12:32:42Z</time>
      </trkpt>
      <trkpt lat="46.58164" lon="5.46433">
        <ele>301.8</ele>
        <time>2020-02-24T12:33:29Z</time>
      </trkpt>
      <trkpt lat="46.5816" lon="5.4644">
        <ele>302.4</ele>
        <time>2020-02-24T12:33:33Z</time>
      </trkpt>
      <trkpt lat="46.58156" lon="5.46444">
        <ele>303.2</ele>
        <time>2020-02-24T12:33:37Z</time>
      </trkpt>
      <trkpt lat="46.58151" lon="5.46447">
        <ele>304.2</ele>
        <time>2020-02-24T12:33:43Z</time>
      </trkpt>
      <trkpt lat="46.58146" lon="5.4645">
        <ele>304.9</ele>
        <time>2020-02-24T12:33:49Z</time>
      </trkpt>
      <trkpt lat="46.58142" lon="5.46453">
        <ele>305.5</ele>
        <time>2020-02-24T12:33:53Z</time>
      </trkpt>
      <trkpt lat="46.58137" lon="5.46456">
        <ele>306.2</ele>
        <time>2020-02-24T12:33:58Z</time>
      </trkpt>
      <trkpt lat="46.58132" lon="5.4646">
        <ele>307.7</ele>
        <time>2020-02-24T12:34:04Z</time>
      </trkpt>
      <trkpt lat="46.58128" lon="5.46463">
        <ele>308.6</ele>
        <time>2020-02-24T12:34:07Z</time>
      </trkpt>
      <trkpt lat="46.58124" lon="5.46467">
        <ele>309.7</ele>
        <time>2020-02-24T12:34:11Z</time>
      </trkpt>
      <trkpt lat="46.5812" lon="5.46471">
        <ele>310.6</ele>
        <time>2020-02-24T12:34:15Z</time>
      </trkpt>
      <trkpt lat="46.58116" lon="5.46475">
        <ele>311.4</ele>
        <time>2020-02-24T12:34:18Z</time>
      </trkpt>
      <trkpt lat="46.58111" lon="5.46477">
        <ele>312.1</ele>
        <time>2020-02-24T12:34:21Z</time>
      </trkpt>
      <trkpt lat="46.58106" lon="5.46479">
        <ele>312.7</ele>
        <time>2020-02-24T12:34:24Z</time>
      </trkpt>
      <trkpt lat="46.58102" lon="5.46481">
        <ele>313.3</ele>
        <time>2020-02-24T12:34:27Z</time>
      </trkpt>
      <trkpt lat="46.58097" lon="5.46483">
        <ele>314.1</ele>
        <time>2020-02-24T12:34:31Z</time>
      </trkpt>
      <trkpt lat="46.58092" lon="5.46483">
        <ele>314.8</ele>
        <time>2020-02-24T12:34:35Z</time>
      </trkpt>
      <trkpt lat="46.58088" lon="5.46482">
        <ele>315.6</ele>
        <time>2020-02-24T12:34:39Z</time>
      </trkpt>
      <trkpt lat="46.58083" lon="5.46482">
        <ele>316.4</ele>
        <time>2020-02-24T12:34:44Z</time>
      </trkpt>
      <trkpt lat="46.58078" lon="5.46482">
        <ele>317.2</ele>
        <time>2020-02-24T12:34:50Z</time>
      </trkpt>
      <trkpt lat="46.58074" lon="5.46487">
        <ele>317.5</ele>
        <time>2020-02-24T12:34:55Z</time>
      </trkpt>
      <trkpt lat="46.5807" lon="5.46491">
        <ele>317.4</ele>
        <time>2020-02-24T12:35:00Z</time>
      </trkpt>
      <trkpt lat="46.58066" lon="5.46492">
        <ele>317.3</ele>
        <time>2020-02-24T12:35:04Z</time>
      </trkpt>
      <trkpt lat="46.58061" lon="5.46493">
        <ele>317.3</ele>
        <time>2020-02-24T12:35:08Z</time>
      </trkpt>
      <trkpt lat="46.58055" lon="5.46494">
        <ele>317.2</ele>
        <time>2020-02-24T12:35:13Z</time>
      </trkpt>
      <trkpt lat="46.58051" lon="5.46495">
        <ele>316.8</ele>
        <time>2020-02-24T12:35:17Z</time>
      </trkpt>
      <trkpt lat="46.58046" lon="5.46496">
        <ele>316</ele>
        <time>2020-02-24T12:35:21Z</time>
      </trkpt>
      <trkpt lat="46.58041" lon="5.46498">
        <ele>315.2</ele>
        <time>2020-02-24T12:35:25Z</time>
      </trkpt>
      <trkpt lat="46.58036" lon="5.465">
        <ele>314.5</ele>
        <time>2020-02-24T12:35:29Z</time>
      </trkpt>
      <trkpt lat="46.58031" lon="5.465">
        <ele>314.1</ele>
        <time>2020-02-24T12:35:33Z</time>
      </trkpt>
      <trkpt lat="46.58026" lon="5.46501">
        <ele>314</ele>
        <time>2020-02-24T12:35:38Z</time>
      </trkpt>
      <trkpt lat="46.58021" lon="5.46502">
        <ele>314.1</ele>
        <time>2020-02-24T12:35:42Z</time>
      </trkpt>
      <trkpt lat="46.58017" lon="5.46504">
        <ele>314.3</ele>
        <time>2020-02-24T12:35:47Z</time>
      </trkpt>
      <trkpt lat="46.58012" lon="5.46506">
        <ele>314.5</ele>
        <time>2020-02-24T12:35:51Z</time>
      </trkpt>
      <trkpt lat="46.58008" lon="5.46509">
        <ele>314.6</ele>
        <time>2020-02-24T12:35:55Z</time>
      </trkpt>
      <trkpt lat="46.58003" lon="5.46512">
        <ele>314.6</ele>
        <time>2020-02-24T12:36:00Z</time>
      </trkpt>
      <trkpt lat="46.57998" lon="5.46513">
        <ele>314.3</ele>
        <time>2020-02-24T12:36:05Z</time>
      </trkpt>
      <trkpt lat="46.57992" lon="5.46514">
        <ele>314</ele>
        <time>2020-02-24T12:36:09Z</time>
      </trkpt>
      <trkpt lat="46.57987" lon="5.46515">
        <ele>313.7</ele>
        <time>2020-02-24T12:36:12Z</time>
      </trkpt>
      <trkpt lat="46.57982" lon="5.46516">
        <ele>313.6</ele>
        <time>2020-02-24T12:36:16Z</time>
      </trkpt>
      <trkpt lat="46.57977" lon="5.46515">
        <ele>313.8</ele>
        <time>2020-02-24T12:36:21Z</time>
      </trkpt>
      <trkpt lat="46.57973" lon="5.46518">
        <ele>313.7</ele>
        <time>2020-02-24T12:36:31Z</time>
      </trkpt>
      <trkpt lat="46.57969" lon="5.4651">
        <ele>315.4</ele>
        <time>2020-02-24T12:37:09Z</time>
      </trkpt>
      <trkpt lat="46.57968" lon="5.46513">
        <ele>319.8</ele>
        <time>2020-02-24T12:37:49Z</time>
      </trkpt>
      <trkpt lat="46.57968" lon="5.46519">
        <ele>319.9</ele>
        <time>2020-02-24T12:37:56Z</time>
      </trkpt>
      <trkpt lat="46.57968" lon="5.46527">
        <ele>319.5</ele>
        <time>2020-02-24T12:38:04Z</time>
      </trkpt>
      <trkpt lat="46.5797" lon="5.46534">
        <ele>319.2</ele>
        <time>2020-02-24T12:38:09Z</time>
      </trkpt>
      <trkpt lat="46.57968" lon="5.46548">
        <ele>319</ele>
        <time>2020-02-24T12:38:35Z</time>
      </trkpt>
      <trkpt lat="46.57967" lon="5.46557">
        <ele>319</ele>
        <time>2020-02-24T12:38:38Z</time>
      </trkpt>
      <trkpt lat="46.57967" lon="5.46565">
        <ele>318.8</ele>
        <time>2020-02-24T12:38:42Z</time>
      </trkpt>
      <trkpt lat="46.57968" lon="5.46572">
        <ele>318.1</ele>
        <time>2020-02-24T12:38:48Z</time>
      </trkpt>
      <trkpt lat="46.57972" lon="5.46582">
        <ele>319.1</ele>
        <time>2020-02-24T12:39:27Z</time>
      </trkpt>
      <trkpt lat="46.57975" lon="5.46589">
        <ele>319.8</ele>
        <time>2020-02-24T12:39:30Z</time>
      </trkpt>
      <trkpt lat="46.57977" lon="5.46597">
        <ele>320.6</ele>
        <time>2020-02-24T12:39:33Z</time>
      </trkpt>
      <trkpt lat="46.5798" lon="5.46603">
        <ele>321.4</ele>
        <time>2020-02-24T12:39:36Z</time>
      </trkpt>
      <trkpt lat="46.57982" lon="5.4661">
        <ele>322.1</ele>
        <time>2020-02-24T12:39:39Z</time>
      </trkpt>
      <trkpt lat="46.57985" lon="5.46616">
        <ele>322.9</ele>
        <time>2020-02-24T12:39:43Z</time>
      </trkpt>
      <trkpt lat="46.57989" lon="5.4662">
        <ele>323.7</ele>
        <time>2020-02-24T12:39:46Z</time>
      </trkpt>
      <trkpt lat="46.57992" lon="5.46626">
        <ele>325</ele>
        <time>2020-02-24T12:39:52Z</time>
      </trkpt>
      <trkpt lat="46.57995" lon="5.46632">
        <ele>325.7</ele>
        <time>2020-02-24T12:39:57Z</time>
      </trkpt>
      <trkpt lat="46.57997" lon="5.46638">
        <ele>326.2</ele>
        <time>2020-02-24T12:40:03Z</time>
      </trkpt>
      <trkpt lat="46.58001" lon="5.46642">
        <ele>326.4</ele>
        <time>2020-02-24T12:40:08Z</time>
      </trkpt>
      <trkpt lat="46.58005" lon="5.46646">
        <ele>326.5</ele>
        <time>2020-02-24T12:40:13Z</time>
      </trkpt>
      <trkpt lat="46.5801" lon="5.46659">
        <ele>326.5</ele>
        <time>2020-02-24T12:40:25Z</time>
      </trkpt>
      <trkpt lat="46.58012" lon="5.46666">
        <ele>326.7</ele>
        <time>2020-02-24T12:40:29Z</time>
      </trkpt>
      <trkpt lat="46.58013" lon="5.46672">
        <ele>327.1</ele>
        <time>2020-02-24T12:40:32Z</time>
      </trkpt>
      <trkpt lat="46.58014" lon="5.4668">
        <ele>327.7</ele>
        <time>2020-02-24T12:40:36Z</time>
      </trkpt>
      <trkpt lat="46.58015" lon="5.46687">
        <ele>328.8</ele>
        <time>2020-02-24T12:40:41Z</time>
      </trkpt>
      <trkpt lat="46.58015" lon="5.46694">
        <ele>329.4</ele>
        <time>2020-02-24T12:40:44Z</time>
      </trkpt>
      <trkpt lat="46.58016" lon="5.46703">
        <ele>330.1</ele>
        <time>2020-02-24T12:40:47Z</time>
      </trkpt>
      <trkpt lat="46.58016" lon="5.4671">
        <ele>331.9</ele>
        <time>2020-02-24T12:40:55Z</time>
      </trkpt>
      <trkpt lat="46.58016" lon="5.46719">
        <ele>332.5</ele>
        <time>2020-02-24T12:41:00Z</time>
      </trkpt>
      <trkpt lat="46.58016" lon="5.46725">
        <ele>332.8</ele>
        <time>2020-02-24T12:41:04Z</time>
      </trkpt>
      <trkpt lat="46.58018" lon="5.46735">
        <ele>333</ele>
        <time>2020-02-24T12:41:07Z</time>
      </trkpt>
      <trkpt lat="46.58019" lon="5.46742">
        <ele>334.1</ele>
        <time>2020-02-24T12:41:14Z</time>
      </trkpt>
      <trkpt lat="46.58019" lon="5.46748">
        <ele>334.4</ele>
        <time>2020-02-24T12:41:16Z</time>
      </trkpt>
      <trkpt lat="46.58021" lon="5.46756">
        <ele>335.3</ele>
        <time>2020-02-24T12:41:22Z</time>
      </trkpt>
      <trkpt lat="46.58025" lon="5.46776">
        <ele>339.5</ele>
        <time>2020-02-24T12:41:53Z</time>
      </trkpt>
      <trkpt lat="46.58026" lon="5.46785">
        <ele>339.7</ele>
        <time>2020-02-24T12:41:56Z</time>
      </trkpt>
      <trkpt lat="46.58025" lon="5.46792">
        <ele>340.1</ele>
        <time>2020-02-24T12:42:00Z</time>
      </trkpt>
      <trkpt lat="46.58027" lon="5.46799">
        <ele>340.5</ele>
        <time>2020-02-24T12:42:04Z</time>
      </trkpt>
      <trkpt lat="46.58027" lon="5.46806">
        <ele>341.4</ele>
        <time>2020-02-24T12:42:11Z</time>
      </trkpt>
      <trkpt lat="46.58026" lon="5.46815">
        <ele>341.6</ele>
        <time>2020-02-24T12:42:13Z</time>
      </trkpt>
      <trkpt lat="46.58027" lon="5.46823">
        <ele>341.9</ele>
        <time>2020-02-24T12:42:15Z</time>
      </trkpt>
      <trkpt lat="46.58025" lon="5.46831">
        <ele>342.4</ele>
        <time>2020-02-24T12:42:18Z</time>
      </trkpt>
      <trkpt lat="46.58024" lon="5.46837">
        <ele>342.8</ele>
        <time>2020-02-24T12:42:21Z</time>
      </trkpt>
      <trkpt lat="46.58024" lon="5.46846">
        <ele>344</ele>
        <time>2020-02-24T12:42:26Z</time>
      </trkpt>
      <trkpt lat="46.58025" lon="5.46853">
        <ele>344.6</ele>
        <time>2020-02-24T12:42:28Z</time>
      </trkpt>
      <trkpt lat="46.58027" lon="5.46861">
        <ele>345.3</ele>
        <time>2020-02-24T12:42:30Z</time>
      </trkpt>
      <trkpt lat="46.58029" lon="5.46867">
        <ele>346</ele>
        <time>2020-02-24T12:42:32Z</time>
      </trkpt>
      <trkpt lat="46.58031" lon="5.46874">
        <ele>347.2</ele>
        <time>2020-02-24T12:42:36Z</time>
      </trkpt>
      <trkpt lat="46.58032" lon="5.46881">
        <ele>349.5</ele>
        <time>2020-02-24T12:42:42Z</time>
      </trkpt>
      <trkpt lat="46.58032" lon="5.46889">
        <ele>350.9</ele>
        <time>2020-02-24T12:42:46Z</time>
      </trkpt>
      <trkpt lat="46.58034" lon="5.46896">
        <ele>351.9</ele>
        <time>2020-02-24T12:42:50Z</time>
      </trkpt>
      <trkpt lat="46.58036" lon="5.46902">
        <ele>352.7</ele>
        <time>2020-02-24T12:42:53Z</time>
      </trkpt>
      <trkpt lat="46.58037" lon="5.46909">
        <ele>353.7</ele>
        <time>2020-02-24T12:42:58Z</time>
      </trkpt>
      <trkpt lat="46.58034" lon="5.46914">
        <ele>354.6</ele>
        <time>2020-02-24T12:43:31Z</time>
      </trkpt>
      <trkpt lat="46.58029" lon="5.46917">
        <ele>353.8</ele>
        <time>2020-02-24T12:43:37Z</time>
      </trkpt>
      <trkpt lat="46.58019" lon="5.46931">
        <ele>349.9</ele>
        <time>2020-02-24T12:44:07Z</time>
      </trkpt>
      <trkpt lat="46.58016" lon="5.46937">
        <ele>349.8</ele>
        <time>2020-02-24T12:44:11Z</time>
      </trkpt>
      <trkpt lat="46.58012" lon="5.46941">
        <ele>349.4</ele>
        <time>2020-02-24T12:44:16Z</time>
      </trkpt>
      <trkpt lat="46.58006" lon="5.46947">
        <ele>347.7</ele>
        <time>2020-02-24T12:44:31Z</time>
      </trkpt>
      <trkpt lat="46.58002" lon="5.46951">
        <ele>347.4</ele>
        <time>2020-02-24T12:44:36Z</time>
      </trkpt>
      <trkpt lat="46.57975" lon="5.46997">
        <ele>349.6</ele>
        <time>2020-02-24T12:45:45Z</time>
      </trkpt>
      <trkpt lat="46.57973" lon="5.47005">
        <ele>349.3</ele>
        <time>2020-02-24T12:45:47Z</time>
      </trkpt>
      <trkpt lat="46.57972" lon="5.47011">
        <ele>349</ele>
        <time>2020-02-24T12:45:49Z</time>
      </trkpt>
      <trkpt lat="46.57969" lon="5.47017">
        <ele>348.8</ele>
        <time>2020-02-24T12:45:57Z</time>
      </trkpt>
      <trkpt lat="46.57965" lon="5.47021">
        <ele>349.3</ele>
        <time>2020-02-24T12:46:03Z</time>
      </trkpt>
      <trkpt lat="46.57963" lon="5.47026">
        <ele>350.2</ele>
        <time>2020-02-24T12:46:13Z</time>
      </trkpt>
      <trkpt lat="46.57958" lon="5.47031">
        <ele>352.6</ele>
        <time>2020-02-24T12:46:23Z</time>
      </trkpt>
      <trkpt lat="46.57954" lon="5.47035">
        <ele>353.6</ele>
        <time>2020-02-24T12:46:26Z</time>
      </trkpt>
      <trkpt lat="46.57951" lon="5.4704">
        <ele>356.5</ele>
        <time>2020-02-24T12:46:35Z</time>
      </trkpt>
      <trkpt lat="46.57948" lon="5.47046">
        <ele>357.9</ele>
        <time>2020-02-24T12:46:41Z</time>
      </trkpt>
      <trkpt lat="46.57945" lon="5.47053">
        <ele>359.2</ele>
        <time>2020-02-24T12:46:50Z</time>
      </trkpt>
      <trkpt lat="46.57943" lon="5.4706">
        <ele>358.8</ele>
        <time>2020-02-24T12:46:57Z</time>
      </trkpt>
      <trkpt lat="46.57942" lon="5.47067">
        <ele>358.6</ele>
        <time>2020-02-24T12:46:59Z</time>
      </trkpt>
      <trkpt lat="46.5794" lon="5.47073">
        <ele>358.3</ele>
        <time>2020-02-24T12:47:01Z</time>
      </trkpt>
      <trkpt lat="46.57938" lon="5.4708">
        <ele>355.4</ele>
        <time>2020-02-24T12:47:20Z</time>
      </trkpt>
      <trkpt lat="46.57935" lon="5.47085">
        <ele>354.1</ele>
        <time>2020-02-24T12:47:25Z</time>
      </trkpt>
      <trkpt lat="46.57934" lon="5.47091">
        <ele>351.7</ele>
        <time>2020-02-24T12:47:34Z</time>
      </trkpt>
      <trkpt lat="46.57934" lon="5.47098">
        <ele>351</ele>
        <time>2020-02-24T12:47:43Z</time>
      </trkpt>
      <trkpt lat="46.57935" lon="5.47106">
        <ele>351.2</ele>
        <time>2020-02-24T12:47:47Z</time>
      </trkpt>
      <trkpt lat="46.57934" lon="5.47128">
        <ele>353.1</ele>
        <time>2020-02-24T12:48:00Z</time>
      </trkpt>
      <trkpt lat="46.57936" lon="5.47137">
        <ele>353.9</ele>
        <time>2020-02-24T12:48:06Z</time>
      </trkpt>
      <trkpt lat="46.5793" lon="5.47197">
        <ele>358.4</ele>
        <time>2020-02-24T12:48:59Z</time>
      </trkpt>
      <trkpt lat="46.57931" lon="5.47203">
        <ele>359.7</ele>
        <time>2020-02-24T12:49:06Z</time>
      </trkpt>
      <trkpt lat="46.5793" lon="5.4721">
        <ele>360</ele>
        <time>2020-02-24T12:49:09Z</time>
      </trkpt>
      <trkpt lat="46.57931" lon="5.47217">
        <ele>360.1</ele>
        <time>2020-02-24T12:49:11Z</time>
      </trkpt>
      <trkpt lat="46.57931" lon="5.47224">
        <ele>360.2</ele>
        <time>2020-02-24T12:49:15Z</time>
      </trkpt>
      <trkpt lat="46.5793" lon="5.47233">
        <ele>359.1</ele>
        <time>2020-02-24T12:49:45Z</time>
      </trkpt>
      <trkpt lat="46.57926" lon="5.47239">
        <ele>358.9</ele>
        <time>2020-02-24T12:49:47Z</time>
      </trkpt>
      <trkpt lat="46.57924" lon="5.47247">
        <ele>358.9</ele>
        <time>2020-02-24T12:49:49Z</time>
      </trkpt>
      <trkpt lat="46.57921" lon="5.47256">
        <ele>359</ele>
        <time>2020-02-24T12:49:51Z</time>
      </trkpt>
      <trkpt lat="46.57918" lon="5.47264">
        <ele>359.4</ele>
        <time>2020-02-24T12:49:54Z</time>
      </trkpt>
      <trkpt lat="46.57917" lon="5.47272">
        <ele>360.3</ele>
        <time>2020-02-24T12:49:59Z</time>
      </trkpt>
      <trkpt lat="46.57917" lon="5.47279">
        <ele>362.4</ele>
        <time>2020-02-24T12:50:07Z</time>
      </trkpt>
      <trkpt lat="46.57915" lon="5.47286">
        <ele>364.4</ele>
        <time>2020-02-24T12:50:13Z</time>
      </trkpt>
      <trkpt lat="46.57915" lon="5.47294">
        <ele>366.3</ele>
        <time>2020-02-24T12:50:19Z</time>
      </trkpt>
      <trkpt lat="46.57917" lon="5.47302">
        <ele>367.3</ele>
        <time>2020-02-24T12:50:23Z</time>
      </trkpt>
      <trkpt lat="46.57919" lon="5.47309">
        <ele>368.4</ele>
        <time>2020-02-24T12:50:30Z</time>
      </trkpt>
      <trkpt lat="46.5792" lon="5.47317">
        <ele>368.8</ele>
        <time>2020-02-24T12:50:33Z</time>
      </trkpt>
      <trkpt lat="46.57919" lon="5.47323">
        <ele>369.3</ele>
        <time>2020-02-24T12:50:38Z</time>
      </trkpt>
      <trkpt lat="46.5792" lon="5.4733">
        <ele>370</ele>
        <time>2020-02-24T12:50:44Z</time>
      </trkpt>
      <trkpt lat="46.57919" lon="5.47337">
        <ele>370.6</ele>
        <time>2020-02-24T12:50:52Z</time>
      </trkpt>
      <trkpt lat="46.57917" lon="5.47344">
        <ele>371.1</ele>
        <time>2020-02-24T12:50:58Z</time>
      </trkpt>
      <trkpt lat="46.57918" lon="5.47351">
        <ele>371.3</ele>
        <time>2020-02-24T12:51:02Z</time>
      </trkpt>
      <trkpt lat="46.57918" lon="5.47375">
        <ele>374.9</ele>
        <time>2020-02-24T12:51:41Z</time>
      </trkpt>
      <trkpt lat="46.57916" lon="5.47381">
        <ele>375.1</ele>
        <time>2020-02-24T12:51:44Z</time>
      </trkpt>
      <trkpt lat="46.57915" lon="5.47389">
        <ele>375.9</ele>
        <time>2020-02-24T12:51:50Z</time>
      </trkpt>
      <trkpt lat="46.57913" lon="5.47411">
        <ele>378.3</ele>
        <time>2020-02-24T12:52:03Z</time>
      </trkpt>
      <trkpt lat="46.57912" lon="5.47418">
        <ele>378.7</ele>
        <time>2020-02-24T12:52:06Z</time>
      </trkpt>
      <trkpt lat="46.57911" lon="5.47425">
        <ele>380</ele>
        <time>2020-02-24T12:52:12Z</time>
      </trkpt>
      <trkpt lat="46.57911" lon="5.47431">
        <ele>382.6</ele>
        <time>2020-02-24T12:52:21Z</time>
      </trkpt>
      <trkpt lat="46.57907" lon="5.47436">
        <ele>384.5</ele>
        <time>2020-02-24T12:52:28Z</time>
      </trkpt>
      <trkpt lat="46.57898" lon="5.47457">
        <ele>387.9</ele>
        <time>2020-02-24T12:52:46Z</time>
      </trkpt>
      <trkpt lat="46.57899" lon="5.47463">
        <ele>388.1</ele>
        <time>2020-02-24T12:52:54Z</time>
      </trkpt>
      <trkpt lat="46.57906" lon="5.47468">
        <ele>388.8</ele>
        <time>2020-02-24T12:53:08Z</time>
      </trkpt>
      <trkpt lat="46.5791" lon="5.47473">
        <ele>388.4</ele>
        <time>2020-02-24T12:53:24Z</time>
      </trkpt>
      <trkpt lat="46.57917" lon="5.47482">
        <ele>385.3</ele>
        <time>2020-02-24T12:53:44Z</time>
      </trkpt>
      <trkpt lat="46.57921" lon="5.47492">
        <ele>378.7</ele>
        <time>2020-02-24T12:54:33Z</time>
      </trkpt>
      <trkpt lat="46.57928" lon="5.47501">
        <ele>375.3</ele>
        <time>2020-02-24T12:54:48Z</time>
      </trkpt>
      <trkpt lat="46.57931" lon="5.47506">
        <ele>374.1</ele>
        <time>2020-02-24T12:54:54Z</time>
      </trkpt>
      <trkpt lat="46.57936" lon="5.47511">
        <ele>373.3</ele>
        <time>2020-02-24T12:54:59Z</time>
      </trkpt>
      <trkpt lat="46.57942" lon="5.47527">
        <ele>372.5</ele>
        <time>2020-02-24T12:55:02Z</time>
      </trkpt>
      <trkpt lat="46.57944" lon="5.47533">
        <ele>372.4</ele>
        <time>2020-02-24T12:55:04Z</time>
      </trkpt>
      <trkpt lat="46.57946" lon="5.47541">
        <ele>372.2</ele>
        <time>2020-02-24T12:55:07Z</time>
      </trkpt>
      <trkpt lat="46.57947" lon="5.47547">
        <ele>370</ele>
        <time>2020-02-24T12:55:19Z</time>
      </trkpt>
      <trkpt lat="46.57945" lon="5.47554">
        <ele>368.7</ele>
        <time>2020-02-24T12:55:24Z</time>
      </trkpt>
      <trkpt lat="46.57945" lon="5.47561">
        <ele>367.8</ele>
        <time>2020-02-24T12:55:28Z</time>
      </trkpt>
      <trkpt lat="46.57948" lon="5.47567">
        <ele>365.3</ele>
        <time>2020-02-24T12:55:37Z</time>
      </trkpt>
      <trkpt lat="46.5795" lon="5.47574">
        <ele>363.6</ele>
        <time>2020-02-24T12:55:43Z</time>
      </trkpt>
      <trkpt lat="46.57948" lon="5.4759">
        <ele>358.6</ele>
        <time>2020-02-24T12:56:00Z</time>
      </trkpt>
      <trkpt lat="46.57946" lon="5.47603">
        <ele>356.6</ele>
        <time>2020-02-24T12:56:20Z</time>
      </trkpt>
      <trkpt lat="46.57949" lon="5.47619">
        <ele>357.6</ele>
        <time>2020-02-24T12:56:29Z</time>
      </trkpt>
      <trkpt lat="46.57951" lon="5.47625">
        <ele>357.5</ele>
        <time>2020-02-24T12:56:31Z</time>
      </trkpt>
      <trkpt lat="46.57952" lon="5.47632">
        <ele>357.5</ele>
        <time>2020-02-24T12:56:34Z</time>
      </trkpt>
      <trkpt lat="46.57953" lon="5.47639">
        <ele>357.2</ele>
        <time>2020-02-24T12:56:49Z</time>
      </trkpt>
      <trkpt lat="46.57955" lon="5.47646">
        <ele>357</ele>
        <time>2020-02-24T12:56:57Z</time>
      </trkpt>
      <trkpt lat="46.57957" lon="5.47654">
        <ele>356.9</ele>
        <time>2020-02-24T12:56:59Z</time>
      </trkpt>
      <trkpt lat="46.5796" lon="5.4766">
        <ele>356.8</ele>
        <time>2020-02-24T12:57:01Z</time>
      </trkpt>
      <trkpt lat="46.57964" lon="5.47668">
        <ele>356.6</ele>
        <time>2020-02-24T12:57:04Z</time>
      </trkpt>
      <trkpt lat="46.57966" lon="5.47674">
        <ele>356.2</ele>
        <time>2020-02-24T12:57:16Z</time>
      </trkpt>
      <trkpt lat="46.57967" lon="5.47681">
        <ele>356.1</ele>
        <time>2020-02-24T12:57:25Z</time>
      </trkpt>
      <trkpt lat="46.57973" lon="5.4769">
        <ele>357.2</ele>
        <time>2020-02-24T12:57:43Z</time>
      </trkpt>
      <trkpt lat="46.57977" lon="5.47694">
        <ele>358</ele>
        <time>2020-02-24T12:57:47Z</time>
      </trkpt>
      <trkpt lat="46.5798" lon="5.47699">
        <ele>358.9</ele>
        <time>2020-02-24T12:57:56Z</time>
      </trkpt>
      <trkpt lat="46.57986" lon="5.47706">
        <ele>356.6</ele>
        <time>2020-02-24T12:58:13Z</time>
      </trkpt>
      <trkpt lat="46.57992" lon="5.47711">
        <ele>356.1</ele>
        <time>2020-02-24T12:58:17Z</time>
      </trkpt>
      <trkpt lat="46.57997" lon="5.47714">
        <ele>355.9</ele>
        <time>2020-02-24T12:58:21Z</time>
      </trkpt>
      <trkpt lat="46.58003" lon="5.47716">
        <ele>355.8</ele>
        <time>2020-02-24T12:58:24Z</time>
      </trkpt>
      <trkpt lat="46.58008" lon="5.47718">
        <ele>355.7</ele>
        <time>2020-02-24T12:58:27Z</time>
      </trkpt>
      <trkpt lat="46.58013" lon="5.47721">
        <ele>355.7</ele>
        <time>2020-02-24T12:58:31Z</time>
      </trkpt>
      <trkpt lat="46.58018" lon="5.47723">
        <ele>355.6</ele>
        <time>2020-02-24T12:58:34Z</time>
      </trkpt>
      <trkpt lat="46.58023" lon="5.47725">
        <ele>355.2</ele>
        <time>2020-02-24T12:58:38Z</time>
      </trkpt>
      <trkpt lat="46.58029" lon="5.47727">
        <ele>354.6</ele>
        <time>2020-02-24T12:58:43Z</time>
      </trkpt>
      <trkpt lat="46.58033" lon="5.47729">
        <ele>354.3</ele>
        <time>2020-02-24T12:58:46Z</time>
      </trkpt>
      <trkpt lat="46.58038" lon="5.47732">
        <ele>354.1</ele>
        <time>2020-02-24T12:58:49Z</time>
      </trkpt>
      <trkpt lat="46.58043" lon="5.47738">
        <ele>354</ele>
        <time>2020-02-24T12:58:51Z</time>
      </trkpt>
      <trkpt lat="46.58046" lon="5.47742">
        <ele>353.9</ele>
        <time>2020-02-24T12:58:53Z</time>
      </trkpt>
      <trkpt lat="46.58051" lon="5.47747">
        <ele>353.6</ele>
        <time>2020-02-24T12:58:56Z</time>
      </trkpt>
      <trkpt lat="46.58056" lon="5.47749">
        <ele>353</ele>
        <time>2020-02-24T12:59:00Z</time>
      </trkpt>
      <trkpt lat="46.5806" lon="5.47752">
        <ele>352.2</ele>
        <time>2020-02-24T12:59:05Z</time>
      </trkpt>
      <trkpt lat="46.58063" lon="5.47756">
        <ele>351.1</ele>
        <time>2020-02-24T12:59:10Z</time>
      </trkpt>
      <trkpt lat="46.58068" lon="5.47759">
        <ele>349</ele>
        <time>2020-02-24T12:59:17Z</time>
      </trkpt>
      <trkpt lat="46.58073" lon="5.47764">
        <ele>347.7</ele>
        <time>2020-02-24T12:59:21Z</time>
      </trkpt>
      <trkpt lat="46.58077" lon="5.47768">
        <ele>344.9</ele>
        <time>2020-02-24T12:59:28Z</time>
      </trkpt>
      <trkpt lat="46.58078" lon="5.47775">
        <ele>342.6</ele>
        <time>2020-02-24T12:59:33Z</time>
      </trkpt>
      <trkpt lat="46.58082" lon="5.4778">
        <ele>339.3</ele>
        <time>2020-02-24T12:59:42Z</time>
      </trkpt>
      <trkpt lat="46.58086" lon="5.47784">
        <ele>338.4</ele>
        <time>2020-02-24T12:59:46Z</time>
      </trkpt>
      <trkpt lat="46.58089" lon="5.4779">
        <ele>337.6</ele>
        <time>2020-02-24T12:59:50Z</time>
      </trkpt>
      <trkpt lat="46.58093" lon="5.47795">
        <ele>336.9</ele>
        <time>2020-02-24T12:59:54Z</time>
      </trkpt>
      <trkpt lat="46.58096" lon="5.478">
        <ele>336.1</ele>
        <time>2020-02-24T12:59:59Z</time>
      </trkpt>
      <trkpt lat="46.58099" lon="5.47804">
        <ele>335.6</ele>
        <time>2020-02-24T13:00:02Z</time>
      </trkpt>
      <trkpt lat="46.58103" lon="5.47809">
        <ele>334.9</ele>
        <time>2020-02-24T13:00:06Z</time>
      </trkpt>
      <trkpt lat="46.58104" lon="5.47816">
        <ele>334.2</ele>
        <time>2020-02-24T13:00:19Z</time>
      </trkpt>
      <trkpt lat="46.58105" lon="5.47822">
        <ele>334.3</ele>
        <time>2020-02-24T13:00:25Z</time>
      </trkpt>
      <trkpt lat="46.58109" lon="5.4783">
        <ele>334.2</ele>
        <time>2020-02-24T13:00:32Z</time>
      </trkpt>
      <trkpt lat="46.58108" lon="5.47837">
        <ele>334</ele>
        <time>2020-02-24T13:00:38Z</time>
      </trkpt>
      <trkpt lat="46.58106" lon="5.47844">
        <ele>333.8</ele>
        <time>2020-02-24T13:00:42Z</time>
      </trkpt>
      <trkpt lat="46.58108" lon="5.4785">
        <ele>334.7</ele>
        <time>2020-02-24T13:00:55Z</time>
      </trkpt>
      <trkpt lat="46.58114" lon="5.47856">
        <ele>340.7</ele>
        <time>2020-02-24T13:01:23Z</time>
      </trkpt>
      <trkpt lat="46.58118" lon="5.47861">
        <ele>346.6</ele>
        <time>2020-02-24T13:01:39Z</time>
      </trkpt>
      <trkpt lat="46.58122" lon="5.47864">
        <ele>347.7</ele>
        <time>2020-02-24T13:01:43Z</time>
      </trkpt>
      <trkpt lat="46.58126" lon="5.47869">
        <ele>348.2</ele>
        <time>2020-02-24T13:01:46Z</time>
      </trkpt>
      <trkpt lat="46.58129" lon="5.47874">
        <ele>349.3</ele>
        <time>2020-02-24T13:02:03Z</time>
      </trkpt>
      <trkpt lat="46.58132" lon="5.47877">
        <ele>349.1</ele>
        <time>2020-02-24T13:02:11Z</time>
      </trkpt>
      <trkpt lat="46.58134" lon="5.47884">
        <ele>348.5</ele>
        <time>2020-02-24T13:02:18Z</time>
      </trkpt>
      <trkpt lat="46.58136" lon="5.4789">
        <ele>348.1</ele>
        <time>2020-02-24T13:02:26Z</time>
      </trkpt>
      <trkpt lat="46.58144" lon="5.47901">
        <ele>356.1</ele>
        <time>2020-02-24T13:04:17Z</time>
      </trkpt>
      <trkpt lat="46.58149" lon="5.47903">
        <ele>358.3</ele>
        <time>2020-02-24T13:04:22Z</time>
      </trkpt>
      <trkpt lat="46.58153" lon="5.47908">
        <ele>360.8</ele>
        <time>2020-02-24T13:04:29Z</time>
      </trkpt>
      <trkpt lat="46.58158" lon="5.47911">
        <ele>362.6</ele>
        <time>2020-02-24T13:04:34Z</time>
      </trkpt>
      <trkpt lat="46.58161" lon="5.47916">
        <ele>364.3</ele>
        <time>2020-02-24T13:04:39Z</time>
      </trkpt>
      <trkpt lat="46.58164" lon="5.47921">
        <ele>367.1</ele>
        <time>2020-02-24T13:04:48Z</time>
      </trkpt>
      <trkpt lat="46.58169" lon="5.47926">
        <ele>368.3</ele>
        <time>2020-02-24T13:04:53Z</time>
      </trkpt>
      <trkpt lat="46.58172" lon="5.47931">
        <ele>369.3</ele>
        <time>2020-02-24T13:04:58Z</time>
      </trkpt>
      <trkpt lat="46.58176" lon="5.47935">
        <ele>370.8</ele>
        <time>2020-02-24T13:05:05Z</time>
      </trkpt>
      <trkpt lat="46.58179" lon="5.4794">
        <ele>372.3</ele>
        <time>2020-02-24T13:05:11Z</time>
      </trkpt>
      <trkpt lat="46.58182" lon="5.47947">
        <ele>373.9</ele>
        <time>2020-02-24T13:05:18Z</time>
      </trkpt>
      <trkpt lat="46.58185" lon="5.47953">
        <ele>375.8</ele>
        <time>2020-02-24T13:05:30Z</time>
      </trkpt>
      <trkpt lat="46.5819" lon="5.47967">
        <ele>377.3</ele>
        <time>2020-02-24T13:06:04Z</time>
      </trkpt>
      <trkpt lat="46.58192" lon="5.47974">
        <ele>376.8</ele>
        <time>2020-02-24T13:06:10Z</time>
      </trkpt>
      <trkpt lat="46.58195" lon="5.47979">
        <ele>376.3</ele>
        <time>2020-02-24T13:06:16Z</time>
      </trkpt>
      <trkpt lat="46.58199" lon="5.47983">
        <ele>375.4</ele>
        <time>2020-02-24T13:06:25Z</time>
      </trkpt>
      <trkpt lat="46.58204" lon="5.47986">
        <ele>374.8</ele>
        <time>2020-02-24T13:06:31Z</time>
      </trkpt>
      <trkpt lat="46.58208" lon="5.47988">
        <ele>374.8</ele>
        <time>2020-02-24T13:06:42Z</time>
      </trkpt>
      <trkpt lat="46.58213" lon="5.47991">
        <ele>374.8</ele>
        <time>2020-02-24T13:06:46Z</time>
      </trkpt>
      <trkpt lat="46.58217" lon="5.47994">
        <ele>374.5</ele>
        <time>2020-02-24T13:06:51Z</time>
      </trkpt>
      <trkpt lat="46.58222" lon="5.47996">
        <ele>374</ele>
        <time>2020-02-24T13:06:58Z</time>
      </trkpt>
      <trkpt lat="46.58228" lon="5.47996">
        <ele>373.9</ele>
        <time>2020-02-24T13:07:03Z</time>
      </trkpt>
      <trkpt lat="46.58232" lon="5.47997">
        <ele>374</ele>
        <time>2020-02-24T13:07:08Z</time>
      </trkpt>
      <trkpt lat="46.58237" lon="5.47995">
        <ele>374.3</ele>
        <time>2020-02-24T13:07:15Z</time>
      </trkpt>
      <trkpt lat="46.58242" lon="5.47993">
        <ele>374.2</ele>
        <time>2020-02-24T13:07:20Z</time>
      </trkpt>
      <trkpt lat="46.58246" lon="5.47989">
        <ele>374.5</ele>
        <time>2020-02-24T13:07:26Z</time>
      </trkpt>
      <trkpt lat="46.58251" lon="5.47987">
        <ele>374.6</ele>
        <time>2020-02-24T13:07:30Z</time>
      </trkpt>
      <trkpt lat="46.58256" lon="5.47985">
        <ele>374.5</ele>
        <time>2020-02-24T13:07:34Z</time>
      </trkpt>
      <trkpt lat="46.5826" lon="5.47982">
        <ele>375</ele>
        <time>2020-02-24T13:07:43Z</time>
      </trkpt>
      <trkpt lat="46.58263" lon="5.47977">
        <ele>375.2</ele>
        <time>2020-02-24T13:07:48Z</time>
      </trkpt>
      <trkpt lat="46.58268" lon="5.47974">
        <ele>375.2</ele>
        <time>2020-02-24T13:07:55Z</time>
      </trkpt>
      <trkpt lat="46.58272" lon="5.47971">
        <ele>375.3</ele>
        <time>2020-02-24T13:08:02Z</time>
      </trkpt>
      <trkpt lat="46.58277" lon="5.47971">
        <ele>375.2</ele>
        <time>2020-02-24T13:08:07Z</time>
      </trkpt>
      <trkpt lat="46.58282" lon="5.47969">
        <ele>375</ele>
        <time>2020-02-24T13:08:14Z</time>
      </trkpt>
      <trkpt lat="46.58286" lon="5.47968">
        <ele>375</ele>
        <time>2020-02-24T13:08:21Z</time>
      </trkpt>
      <trkpt lat="46.58291" lon="5.47967">
        <ele>374.5</ele>
        <time>2020-02-24T13:08:29Z</time>
      </trkpt>
      <trkpt lat="46.58296" lon="5.47967">
        <ele>374.2</ele>
        <time>2020-02-24T13:08:35Z</time>
      </trkpt>
      <trkpt lat="46.58302" lon="5.47966">
        <ele>373.8</ele>
        <time>2020-02-24T13:08:40Z</time>
      </trkpt>
      <trkpt lat="46.58307" lon="5.47966">
        <ele>373.4</ele>
        <time>2020-02-24T13:08:47Z</time>
      </trkpt>
      <trkpt lat="46.58312" lon="5.47964">
        <ele>373.3</ele>
        <time>2020-02-24T13:08:52Z</time>
      </trkpt>
      <trkpt lat="46.58317" lon="5.47964">
        <ele>373.2</ele>
        <time>2020-02-24T13:08:58Z</time>
      </trkpt>
      <trkpt lat="46.58321" lon="5.47963">
        <ele>373.2</ele>
        <time>2020-02-24T13:09:01Z</time>
      </trkpt>
      <trkpt lat="46.58326" lon="5.47961">
        <ele>373.2</ele>
        <time>2020-02-24T13:09:05Z</time>
      </trkpt>
      <trkpt lat="46.58331" lon="5.47959">
        <ele>373.3</ele>
        <time>2020-02-24T13:09:09Z</time>
      </trkpt>
      <trkpt lat="46.58336" lon="5.47958">
        <ele>373.4</ele>
        <time>2020-02-24T13:09:16Z</time>
      </trkpt>
      <trkpt lat="46.58341" lon="5.47955">
        <ele>373.5</ele>
        <time>2020-02-24T13:09:20Z</time>
      </trkpt>
      <trkpt lat="46.58346" lon="5.47952">
        <ele>374.3</ele>
        <time>2020-02-24T13:09:26Z</time>
      </trkpt>
      <trkpt lat="46.5835" lon="5.4795">
        <ele>374.9</ele>
        <time>2020-02-24T13:09:30Z</time>
      </trkpt>
      <trkpt lat="46.58355" lon="5.47947">
        <ele>375.6</ele>
        <time>2020-02-24T13:09:35Z</time>
      </trkpt>
      <trkpt lat="46.5836" lon="5.47945">
        <ele>376.4</ele>
        <time>2020-02-24T13:09:41Z</time>
      </trkpt>
      <trkpt lat="46.58365" lon="5.47941">
        <ele>376.8</ele>
        <time>2020-02-24T13:09:44Z</time>
      </trkpt>
      <trkpt lat="46.5837" lon="5.47937">
        <ele>377.1</ele>
        <time>2020-02-24T13:09:47Z</time>
      </trkpt>
      <trkpt lat="46.58375" lon="5.47934">
        <ele>377.3</ele>
        <time>2020-02-24T13:09:51Z</time>
      </trkpt>
      <trkpt lat="46.58378" lon="5.47929">
        <ele>377.4</ele>
        <time>2020-02-24T13:09:56Z</time>
      </trkpt>
      <trkpt lat="46.58382" lon="5.47925">
        <ele>377.4</ele>
        <time>2020-02-24T13:10:00Z</time>
      </trkpt>
      <trkpt lat="46.58387" lon="5.47921">
        <ele>377.4</ele>
        <time>2020-02-24T13:10:04Z</time>
      </trkpt>
      <trkpt lat="46.5839" lon="5.47915">
        <ele>377.2</ele>
        <time>2020-02-24T13:10:10Z</time>
      </trkpt>
      <trkpt lat="46.58392" lon="5.4791">
        <ele>376.9</ele>
        <time>2020-02-24T13:10:17Z</time>
      </trkpt>
      <trkpt lat="46.58395" lon="5.47904">
        <ele>376.4</ele>
        <time>2020-02-24T13:10:24Z</time>
      </trkpt>
      <trkpt lat="46.58399" lon="5.479">
        <ele>375.8</ele>
        <time>2020-02-24T13:10:31Z</time>
      </trkpt>
      <trkpt lat="46.58404" lon="5.47896">
        <ele>375.4</ele>
        <time>2020-02-24T13:10:36Z</time>
      </trkpt>
      <trkpt lat="46.58409" lon="5.47893">
        <ele>375.2</ele>
        <time>2020-02-24T13:10:41Z</time>
      </trkpt>
      <trkpt lat="46.58413" lon="5.47889">
        <ele>375</ele>
        <time>2020-02-24T13:10:45Z</time>
      </trkpt>
      <trkpt lat="46.58417" lon="5.47886">
        <ele>374.8</ele>
        <time>2020-02-24T13:10:50Z</time>
      </trkpt>
      <trkpt lat="46.58421" lon="5.47881">
        <ele>374.3</ele>
        <time>2020-02-24T13:10:58Z</time>
      </trkpt>
      <trkpt lat="46.58426" lon="5.47877">
        <ele>374.1</ele>
        <time>2020-02-24T13:11:05Z</time>
      </trkpt>
      <trkpt lat="46.5843" lon="5.47872">
        <ele>373.8</ele>
        <time>2020-02-24T13:11:12Z</time>
      </trkpt>
      <trkpt lat="46.58434" lon="5.47869">
        <ele>373.7</ele>
        <time>2020-02-24T13:11:16Z</time>
      </trkpt>
      <trkpt lat="46.58439" lon="5.47866">
        <ele>373.8</ele>
        <time>2020-02-24T13:11:20Z</time>
      </trkpt>
      <trkpt lat="46.58442" lon="5.47862">
        <ele>373.8</ele>
        <time>2020-02-24T13:11:25Z</time>
      </trkpt>
      <trkpt lat="46.58447" lon="5.47859">
        <ele>373.6</ele>
        <time>2020-02-24T13:11:32Z</time>
      </trkpt>
      <trkpt lat="46.58452" lon="5.47856">
        <ele>373.8</ele>
        <time>2020-02-24T13:11:39Z</time>
      </trkpt>
      <trkpt lat="46.58456" lon="5.47852">
        <ele>374.1</ele>
        <time>2020-02-24T13:11:43Z</time>
      </trkpt>
      <trkpt lat="46.5846" lon="5.4785">
        <ele>374.4</ele>
        <time>2020-02-24T13:11:48Z</time>
      </trkpt>
      <trkpt lat="46.58465" lon="5.47848">
        <ele>374.5</ele>
        <time>2020-02-24T13:11:53Z</time>
      </trkpt>
      <trkpt lat="46.5847" lon="5.47847">
        <ele>375</ele>
        <time>2020-02-24T13:12:01Z</time>
      </trkpt>
      <trkpt lat="46.58475" lon="5.47848">
        <ele>375.5</ele>
        <time>2020-02-24T13:12:07Z</time>
      </trkpt>
      <trkpt lat="46.58479" lon="5.47844">
        <ele>376.3</ele>
        <time>2020-02-24T13:12:19Z</time>
      </trkpt>
      <trkpt lat="46.58482" lon="5.47844">
        <ele>375.1</ele>
        <time>2020-02-24T13:12:54Z</time>
      </trkpt>
      <trkpt lat="46.58487" lon="5.47843">
        <ele>376.3</ele>
        <time>2020-02-24T13:13:06Z</time>
      </trkpt>
      <trkpt lat="46.58486" lon="5.47836">
        <ele>380.5</ele>
        <time>2020-02-24T13:13:47Z</time>
      </trkpt>
      <trkpt lat="46.58489" lon="5.47837">
        <ele>380.6</ele>
        <time>2020-02-24T13:14:35Z</time>
      </trkpt>
      <trkpt lat="46.58493" lon="5.47834">
        <ele>382</ele>
        <time>2020-02-24T13:15:02Z</time>
      </trkpt>
      <trkpt lat="46.58498" lon="5.4783">
        <ele>381.5</ele>
        <time>2020-02-24T13:15:13Z</time>
      </trkpt>
      <trkpt lat="46.58502" lon="5.47828">
        <ele>381.5</ele>
        <time>2020-02-24T13:15:20Z</time>
      </trkpt>
      <trkpt lat="46.58507" lon="5.47823">
        <ele>381.5</ele>
        <time>2020-02-24T13:15:24Z</time>
      </trkpt>
      <trkpt lat="46.58512" lon="5.47819">
        <ele>381.7</ele>
        <time>2020-02-24T13:15:29Z</time>
      </trkpt>
      <trkpt lat="46.58515" lon="5.47815">
        <ele>381.8</ele>
        <time>2020-02-24T13:15:33Z</time>
      </trkpt>
      <trkpt lat="46.5852" lon="5.4781">
        <ele>382.1</ele>
        <time>2020-02-24T13:15:37Z</time>
      </trkpt>
      <trkpt lat="46.58524" lon="5.47807">
        <ele>382.3</ele>
        <time>2020-02-24T13:15:42Z</time>
      </trkpt>
      <trkpt lat="46.58528" lon="5.47804">
        <ele>382.3</ele>
        <time>2020-02-24T13:15:46Z</time>
      </trkpt>
      <trkpt lat="46.58532" lon="5.478">
        <ele>382.4</ele>
        <time>2020-02-24T13:15:50Z</time>
      </trkpt>
      <trkpt lat="46.58537" lon="5.47796">
        <ele>382.3</ele>
        <time>2020-02-24T13:15:55Z</time>
      </trkpt>
      <trkpt lat="46.58541" lon="5.47792">
        <ele>382.4</ele>
        <time>2020-02-24T13:15:59Z</time>
      </trkpt>
      <trkpt lat="46.58546" lon="5.47789">
        <ele>382.4</ele>
        <time>2020-02-24T13:16:03Z</time>
      </trkpt>
      <trkpt lat="46.58551" lon="5.47788">
        <ele>382.3</ele>
        <time>2020-02-24T13:16:08Z</time>
      </trkpt>
      <trkpt lat="46.58555" lon="5.47785">
        <ele>382.3</ele>
        <time>2020-02-24T13:16:13Z</time>
      </trkpt>
      <trkpt lat="46.5856" lon="5.47782">
        <ele>381.8</ele>
        <time>2020-02-24T13:16:20Z</time>
      </trkpt>
      <trkpt lat="46.58564" lon="5.4778">
        <ele>381.4</ele>
        <time>2020-02-24T13:16:25Z</time>
      </trkpt>
      <trkpt lat="46.58569" lon="5.47777">
        <ele>380.9</ele>
        <time>2020-02-24T13:16:30Z</time>
      </trkpt>
      <trkpt lat="46.58574" lon="5.47776">
        <ele>380.2</ele>
        <time>2020-02-24T13:16:36Z</time>
      </trkpt>
      <trkpt lat="46.5858" lon="5.47774">
        <ele>380.1</ele>
        <time>2020-02-24T13:16:40Z</time>
      </trkpt>
      <trkpt lat="46.58585" lon="5.47773">
        <ele>380.2</ele>
        <time>2020-02-24T13:16:43Z</time>
      </trkpt>
      <trkpt lat="46.5859" lon="5.47771">
        <ele>380.6</ele>
        <time>2020-02-24T13:16:46Z</time>
      </trkpt>
      <trkpt lat="46.58595" lon="5.47771">
        <ele>381</ele>
        <time>2020-02-24T13:16:50Z</time>
      </trkpt>
      <trkpt lat="46.586" lon="5.47773">
        <ele>381.2</ele>
        <time>2020-02-24T13:16:55Z</time>
      </trkpt>
      <trkpt lat="46.58604" lon="5.47777">
        <ele>381.2</ele>
        <time>2020-02-24T13:16:59Z</time>
      </trkpt>
      <trkpt lat="46.58608" lon="5.47779">
        <ele>381</ele>
        <time>2020-02-24T13:17:04Z</time>
      </trkpt>
      <trkpt lat="46.58613" lon="5.4778">
        <ele>380.6</ele>
        <time>2020-02-24T13:17:09Z</time>
      </trkpt>
      <trkpt lat="46.58618" lon="5.47782">
        <ele>379.9</ele>
        <time>2020-02-24T13:17:15Z</time>
      </trkpt>
      <trkpt lat="46.58623" lon="5.47783">
        <ele>379.5</ele>
        <time>2020-02-24T13:17:20Z</time>
      </trkpt>
      <trkpt lat="46.58628" lon="5.47783">
        <ele>379.2</ele>
        <time>2020-02-24T13:17:24Z</time>
      </trkpt>
      <trkpt lat="46.58633" lon="5.47786">
        <ele>378.9</ele>
        <time>2020-02-24T13:17:30Z</time>
      </trkpt>
      <trkpt lat="46.58637" lon="5.47789">
        <ele>378.6</ele>
        <time>2020-02-24T13:17:34Z</time>
      </trkpt>
      <trkpt lat="46.5864" lon="5.47794">
        <ele>378.3</ele>
        <time>2020-02-24T13:17:39Z</time>
      </trkpt>
      <trkpt lat="46.58644" lon="5.47799">
        <ele>378.1</ele>
        <time>2020-02-24T13:17:43Z</time>
      </trkpt>
      <trkpt lat="46.58647" lon="5.47804">
        <ele>377.9</ele>
        <time>2020-02-24T13:17:48Z</time>
      </trkpt>
      <trkpt lat="46.58652" lon="5.47807">
        <ele>377.6</ele>
        <time>2020-02-24T13:17:54Z</time>
      </trkpt>
      <trkpt lat="46.58657" lon="5.47809">
        <ele>377</ele>
        <time>2020-02-24T13:18:01Z</time>
      </trkpt>
      <trkpt lat="46.58662" lon="5.47813">
        <ele>376.6</ele>
        <time>2020-02-24T13:18:05Z</time>
      </trkpt>
      <trkpt lat="46.58666" lon="5.47815">
        <ele>376.1</ele>
        <time>2020-02-24T13:18:09Z</time>
      </trkpt>
      <trkpt lat="46.5867" lon="5.47819">
        <ele>375.7</ele>
        <time>2020-02-24T13:18:15Z</time>
      </trkpt>
      <trkpt lat="46.58674" lon="5.47825">
        <ele>375</ele>
        <time>2020-02-24T13:18:22Z</time>
      </trkpt>
      <trkpt lat="46.58678" lon="5.4783">
        <ele>374</ele>
        <time>2020-02-24T13:18:27Z</time>
      </trkpt>
      <trkpt lat="46.58681" lon="5.47834">
        <ele>372.9</ele>
        <time>2020-02-24T13:18:32Z</time>
      </trkpt>
      <trkpt lat="46.58684" lon="5.47839">
        <ele>371.7</ele>
        <time>2020-02-24T13:18:38Z</time>
      </trkpt>
      <trkpt lat="46.58685" lon="5.47846">
        <ele>371.1</ele>
        <time>2020-02-24T13:18:43Z</time>
      </trkpt>
      <trkpt lat="46.58685" lon="5.47853">
        <ele>370.6</ele>
        <time>2020-02-24T13:18:54Z</time>
      </trkpt>
      <trkpt lat="46.58686" lon="5.47859">
        <ele>370</ele>
        <time>2020-02-24T13:19:02Z</time>
      </trkpt>
      <trkpt lat="46.58686" lon="5.47867">
        <ele>369.2</ele>
        <time>2020-02-24T13:19:10Z</time>
      </trkpt>
      <trkpt lat="46.58686" lon="5.47874">
        <ele>369</ele>
        <time>2020-02-24T13:19:16Z</time>
      </trkpt>
      <trkpt lat="46.58684" lon="5.47882">
        <ele>369</ele>
        <time>2020-02-24T13:19:20Z</time>
      </trkpt>
      <trkpt lat="46.58685" lon="5.4789">
        <ele>368.8</ele>
        <time>2020-02-24T13:19:24Z</time>
      </trkpt>
      <trkpt lat="46.58686" lon="5.47897">
        <ele>368.7</ele>
        <time>2020-02-24T13:19:28Z</time>
      </trkpt>
      <trkpt lat="46.58686" lon="5.47904">
        <ele>368.3</ele>
        <time>2020-02-24T13:19:33Z</time>
      </trkpt>
      <trkpt lat="46.58687" lon="5.47911">
        <ele>367.6</ele>
        <time>2020-02-24T13:19:39Z</time>
      </trkpt>
      <trkpt lat="46.58688" lon="5.47919">
        <ele>366.7</ele>
        <time>2020-02-24T13:19:45Z</time>
      </trkpt>
      <trkpt lat="46.58688" lon="5.47926">
        <ele>365.7</ele>
        <time>2020-02-24T13:19:50Z</time>
      </trkpt>
      <trkpt lat="46.58689" lon="5.47933">
        <ele>364.6</ele>
        <time>2020-02-24T13:19:57Z</time>
      </trkpt>
      <trkpt lat="46.5869" lon="5.47951">
        <ele>362.3</ele>
        <time>2020-02-24T13:20:10Z</time>
      </trkpt>
      <trkpt lat="46.58691" lon="5.47958">
        <ele>362</ele>
        <time>2020-02-24T13:20:14Z</time>
      </trkpt>
      <trkpt lat="46.58691" lon="5.47965">
        <ele>361.4</ele>
        <time>2020-02-24T13:20:19Z</time>
      </trkpt>
      <trkpt lat="46.58694" lon="5.47979">
        <ele>359.4</ele>
        <time>2020-02-24T13:20:30Z</time>
      </trkpt>
      <trkpt lat="46.58694" lon="5.47987">
        <ele>359.2</ele>
        <time>2020-02-24T13:20:36Z</time>
      </trkpt>
      <trkpt lat="46.58695" lon="5.47993">
        <ele>358.7</ele>
        <time>2020-02-24T13:20:42Z</time>
      </trkpt>
      <trkpt lat="46.58698" lon="5.48">
        <ele>358.1</ele>
        <time>2020-02-24T13:20:47Z</time>
      </trkpt>
      <trkpt lat="46.58697" lon="5.48018">
        <ele>357.9</ele>
        <time>2020-02-24T13:20:56Z</time>
      </trkpt>
      <trkpt lat="46.58698" lon="5.48026">
        <ele>358.6</ele>
        <time>2020-02-24T13:21:00Z</time>
      </trkpt>
      <trkpt lat="46.587" lon="5.48032">
        <ele>358.9</ele>
        <time>2020-02-24T13:21:02Z</time>
      </trkpt>
      <trkpt lat="46.58703" lon="5.4804">
        <ele>359.4</ele>
        <time>2020-02-24T13:21:05Z</time>
      </trkpt>
      <trkpt lat="46.58711" lon="5.4807">
        <ele>361.7</ele>
        <time>2020-02-24T13:21:21Z</time>
      </trkpt>
      <trkpt lat="46.58714" lon="5.48076">
        <ele>361.6</ele>
        <time>2020-02-24T13:21:25Z</time>
      </trkpt>
      <trkpt lat="46.58717" lon="5.48081">
        <ele>361.4</ele>
        <time>2020-02-24T13:21:29Z</time>
      </trkpt>
      <trkpt lat="46.5872" lon="5.48088">
        <ele>361.4</ele>
        <time>2020-02-24T13:21:35Z</time>
      </trkpt>
      <trkpt lat="46.58723" lon="5.48094">
        <ele>361.4</ele>
        <time>2020-02-24T13:21:39Z</time>
      </trkpt>
      <trkpt lat="46.5872" lon="5.48107">
        <ele>361.2</ele>
        <time>2020-02-24T13:21:47Z</time>
      </trkpt>
      <trkpt lat="46.58717" lon="5.4811">
        <ele>362.8</ele>
        <time>2020-02-24T13:22:47Z</time>
      </trkpt>
      <trkpt lat="46.58722" lon="5.4811">
        <ele>362.9</ele>
        <time>2020-02-24T13:22:53Z</time>
      </trkpt>
      <trkpt lat="46.58727" lon="5.48107">
        <ele>363.1</ele>
        <time>2020-02-24T13:22:57Z</time>
      </trkpt>
      <trkpt lat="46.58732" lon="5.48108">
        <ele>363.3</ele>
        <time>2020-02-24T13:23:00Z</time>
      </trkpt>
      <trkpt lat="46.58736" lon="5.48112">
        <ele>363.4</ele>
        <time>2020-02-24T13:23:03Z</time>
      </trkpt>
      <trkpt lat="46.58739" lon="5.48116">
        <ele>363.5</ele>
        <time>2020-02-24T13:23:06Z</time>
      </trkpt>
      <trkpt lat="46.58743" lon="5.4812">
        <ele>363.6</ele>
        <time>2020-02-24T13:23:09Z</time>
      </trkpt>
      <trkpt lat="46.58747" lon="5.48124">
        <ele>363.7</ele>
        <time>2020-02-24T13:23:12Z</time>
      </trkpt>
      <trkpt lat="46.58751" lon="5.48129">
        <ele>363.9</ele>
        <time>2020-02-24T13:23:16Z</time>
      </trkpt>
      <trkpt lat="46.58756" lon="5.48134">
        <ele>364.2</ele>
        <time>2020-02-24T13:23:20Z</time>
      </trkpt>
      <trkpt lat="46.58761" lon="5.48138">
        <ele>364.5</ele>
        <time>2020-02-24T13:23:25Z</time>
      </trkpt>
      <trkpt lat="46.58765" lon="5.48139">
        <ele>365</ele>
        <time>2020-02-24T13:23:29Z</time>
      </trkpt>
      <trkpt lat="46.5877" lon="5.4814">
        <ele>365.4</ele>
        <time>2020-02-24T13:23:33Z</time>
      </trkpt>
      <trkpt lat="46.58775" lon="5.48141">
        <ele>366.1</ele>
        <time>2020-02-24T13:23:39Z</time>
      </trkpt>
      <trkpt lat="46.58779" lon="5.4814">
        <ele>366.7</ele>
        <time>2020-02-24T13:23:42Z</time>
      </trkpt>
      <trkpt lat="46.58784" lon="5.48139">
        <ele>367.4</ele>
        <time>2020-02-24T13:23:45Z</time>
      </trkpt>
      <trkpt lat="46.58789" lon="5.48139">
        <ele>368.3</ele>
        <time>2020-02-24T13:23:49Z</time>
      </trkpt>
      <trkpt lat="46.58794" lon="5.4814">
        <ele>369.3</ele>
        <time>2020-02-24T13:23:53Z</time>
      </trkpt>
      <trkpt lat="46.58798" lon="5.48139">
        <ele>370.3</ele>
        <time>2020-02-24T13:24:01Z</time>
      </trkpt>
      <trkpt lat="46.588" lon="5.48145">
        <ele>370.9</ele>
        <time>2020-02-24T13:24:09Z</time>
      </trkpt>
      <trkpt lat="46.58804" lon="5.48151">
        <ele>371.1</ele>
        <time>2020-02-24T13:24:13Z</time>
      </trkpt>
      <trkpt lat="46.58808" lon="5.48156">
        <ele>371.2</ele>
        <time>2020-02-24T13:24:17Z</time>
      </trkpt>
      <trkpt lat="46.58813" lon="5.48156">
        <ele>371.5</ele>
        <time>2020-02-24T13:24:21Z</time>
      </trkpt>
      <trkpt lat="46.58818" lon="5.48156">
        <ele>371.7</ele>
        <time>2020-02-24T13:24:24Z</time>
      </trkpt>
      <trkpt lat="46.58824" lon="5.48158">
        <ele>372.2</ele>
        <time>2020-02-24T13:24:28Z</time>
      </trkpt>
      <trkpt lat="46.58829" lon="5.48161">
        <ele>372.9</ele>
        <time>2020-02-24T13:24:33Z</time>
      </trkpt>
      <trkpt lat="46.58833" lon="5.48165">
        <ele>373.5</ele>
        <time>2020-02-24T13:24:38Z</time>
      </trkpt>
      <trkpt lat="46.58837" lon="5.48169">
        <ele>373.7</ele>
        <time>2020-02-24T13:24:41Z</time>
      </trkpt>
      <trkpt lat="46.5884" lon="5.48174">
        <ele>373.9</ele>
        <time>2020-02-24T13:24:44Z</time>
      </trkpt>
      <trkpt lat="46.58845" lon="5.48177">
        <ele>374.1</ele>
        <time>2020-02-24T13:24:47Z</time>
      </trkpt>
      <trkpt lat="46.58849" lon="5.4818">
        <ele>374.5</ele>
        <time>2020-02-24T13:24:51Z</time>
      </trkpt>
      <trkpt lat="46.58854" lon="5.48184">
        <ele>375</ele>
        <time>2020-02-24T13:24:55Z</time>
      </trkpt>
      <trkpt lat="46.58859" lon="5.48188">
        <ele>375.5</ele>
        <time>2020-02-24T13:24:59Z</time>
      </trkpt>
      <trkpt lat="46.58863" lon="5.4819">
        <ele>376.1</ele>
        <time>2020-02-24T13:25:03Z</time>
      </trkpt>
      <trkpt lat="46.58868" lon="5.48192">
        <ele>377.1</ele>
        <time>2020-02-24T13:25:07Z</time>
      </trkpt>
      <trkpt lat="46.58873" lon="5.48195">
        <ele>378</ele>
        <time>2020-02-24T13:25:11Z</time>
      </trkpt>
      <trkpt lat="46.58878" lon="5.48197">
        <ele>378.8</ele>
        <time>2020-02-24T13:25:16Z</time>
      </trkpt>
      <trkpt lat="46.58882" lon="5.48198">
        <ele>379.5</ele>
        <time>2020-02-24T13:25:23Z</time>
      </trkpt>
      <trkpt lat="46.58887" lon="5.48202">
        <ele>380.1</ele>
        <time>2020-02-24T13:25:30Z</time>
      </trkpt>
      <trkpt lat="46.5889" lon="5.48206">
        <ele>380.2</ele>
        <time>2020-02-24T13:25:33Z</time>
      </trkpt>
      <trkpt lat="46.58894" lon="5.48211">
        <ele>380.2</ele>
        <time>2020-02-24T13:25:38Z</time>
      </trkpt>
      <trkpt lat="46.58896" lon="5.48216">
        <ele>380.2</ele>
        <time>2020-02-24T13:25:46Z</time>
      </trkpt>
      <trkpt lat="46.58899" lon="5.48223">
        <ele>380</ele>
        <time>2020-02-24T13:25:52Z</time>
      </trkpt>
      <trkpt lat="46.58903" lon="5.48228">
        <ele>380</ele>
        <time>2020-02-24T13:25:55Z</time>
      </trkpt>
      <trkpt lat="46.58907" lon="5.48234">
        <ele>379.8</ele>
        <time>2020-02-24T13:25:58Z</time>
      </trkpt>
      <trkpt lat="46.5891" lon="5.48239">
        <ele>379.8</ele>
        <time>2020-02-24T13:26:11Z</time>
      </trkpt>
      <trkpt lat="46.58914" lon="5.48244">
        <ele>380.5</ele>
        <time>2020-02-24T13:26:25Z</time>
      </trkpt>
      <trkpt lat="46.58918" lon="5.4825">
        <ele>380.8</ele>
        <time>2020-02-24T13:26:31Z</time>
      </trkpt>
      <trkpt lat="46.5892" lon="5.48256">
        <ele>380.7</ele>
        <time>2020-02-24T13:26:35Z</time>
      </trkpt>
      <trkpt lat="46.58924" lon="5.48262">
        <ele>380.5</ele>
        <time>2020-02-24T13:26:41Z</time>
      </trkpt>
      <trkpt lat="46.58927" lon="5.48268">
        <ele>380.2</ele>
        <time>2020-02-24T13:26:46Z</time>
      </trkpt>
      <trkpt lat="46.5893" lon="5.48275">
        <ele>380.1</ele>
        <time>2020-02-24T13:26:50Z</time>
      </trkpt>
      <trkpt lat="46.58932" lon="5.48281">
        <ele>380.1</ele>
        <time>2020-02-24T13:26:58Z</time>
      </trkpt>
      <trkpt lat="46.58934" lon="5.48288">
        <ele>380.5</ele>
        <time>2020-02-24T13:27:07Z</time>
      </trkpt>
      <trkpt lat="46.58936" lon="5.48295">
        <ele>380.7</ele>
        <time>2020-02-24T13:27:13Z</time>
      </trkpt>
      <trkpt lat="46.58936" lon="5.48302">
        <ele>380.3</ele>
        <time>2020-02-24T13:27:18Z</time>
      </trkpt>
      <trkpt lat="46.58934" lon="5.48309">
        <ele>379.7</ele>
        <time>2020-02-24T13:27:24Z</time>
      </trkpt>
      <trkpt lat="46.58932" lon="5.48321">
        <ele>379</ele>
        <time>2020-02-24T13:27:42Z</time>
      </trkpt>
      <trkpt lat="46.58929" lon="5.48327">
        <ele>379.4</ele>
        <time>2020-02-24T13:27:48Z</time>
      </trkpt>
      <trkpt lat="46.58927" lon="5.48333">
        <ele>379.8</ele>
        <time>2020-02-24T13:27:55Z</time>
      </trkpt>
      <trkpt lat="46.58923" lon="5.48338">
        <ele>380.2</ele>
        <time>2020-02-24T13:28:01Z</time>
      </trkpt>
      <trkpt lat="46.58921" lon="5.48345">
        <ele>381.3</ele>
        <time>2020-02-24T13:28:08Z</time>
      </trkpt>
      <trkpt lat="46.58918" lon="5.4835">
        <ele>383.3</ele>
        <time>2020-02-24T13:28:16Z</time>
      </trkpt>
      <trkpt lat="46.58913" lon="5.48351">
        <ele>385.6</ele>
        <time>2020-02-24T13:28:25Z</time>
      </trkpt>
      <trkpt lat="46.58908" lon="5.48352">
        <ele>387.4</ele>
        <time>2020-02-24T13:28:34Z</time>
      </trkpt>
      <trkpt lat="46.58904" lon="5.48356">
        <ele>389.1</ele>
        <time>2020-02-24T13:28:41Z</time>
      </trkpt>
      <trkpt lat="46.58899" lon="5.48356">
        <ele>391.9</ele>
        <time>2020-02-24T13:28:52Z</time>
      </trkpt>
      <trkpt lat="46.58894" lon="5.48356">
        <ele>393.9</ele>
        <time>2020-02-24T13:29:01Z</time>
      </trkpt>
      <trkpt lat="46.5889" lon="5.48359">
        <ele>396</ele>
        <time>2020-02-24T13:29:10Z</time>
      </trkpt>
      <trkpt lat="46.58886" lon="5.4836">
        <ele>397.9</ele>
        <time>2020-02-24T13:29:17Z</time>
      </trkpt>
      <trkpt lat="46.58881" lon="5.48361">
        <ele>399</ele>
        <time>2020-02-24T13:29:21Z</time>
      </trkpt>
      <trkpt lat="46.58876" lon="5.48362">
        <ele>400.8</ele>
        <time>2020-02-24T13:29:28Z</time>
      </trkpt>
      <trkpt lat="46.58872" lon="5.48365">
        <ele>402.7</ele>
        <time>2020-02-24T13:29:38Z</time>
      </trkpt>
      <trkpt lat="46.58864" lon="5.48367">
        <ele>403.3</ele>
        <time>2020-02-24T13:29:42Z</time>
      </trkpt>
      <trkpt lat="46.58859" lon="5.48369">
        <ele>403.6</ele>
        <time>2020-02-24T13:29:44Z</time>
      </trkpt>
      <trkpt lat="46.58853" lon="5.48371">
        <ele>404.1</ele>
        <time>2020-02-24T13:29:47Z</time>
      </trkpt>
      <trkpt lat="46.58848" lon="5.48374">
        <ele>404.7</ele>
        <time>2020-02-24T13:29:50Z</time>
      </trkpt>
      <trkpt lat="46.58843" lon="5.48376">
        <ele>405.2</ele>
        <time>2020-02-24T13:29:53Z</time>
      </trkpt>
      <trkpt lat="46.58838" lon="5.48377">
        <ele>406.1</ele>
        <time>2020-02-24T13:29:58Z</time>
      </trkpt>
      <trkpt lat="46.58833" lon="5.48376">
        <ele>406.9</ele>
        <time>2020-02-24T13:30:03Z</time>
      </trkpt>
      <trkpt lat="46.58817" lon="5.4837">
        <ele>408.9</ele>
        <time>2020-02-24T13:30:25Z</time>
      </trkpt>
      <trkpt lat="46.58797" lon="5.48371">
        <ele>408.5</ele>
        <time>2020-02-24T13:30:46Z</time>
      </trkpt>
      <trkpt lat="46.58792" lon="5.48371">
        <ele>407.8</ele>
        <time>2020-02-24T13:30:55Z</time>
      </trkpt>
      <trkpt lat="46.58772" lon="5.48374">
        <ele>407.8</ele>
        <time>2020-02-24T13:31:06Z</time>
      </trkpt>
      <trkpt lat="46.58767" lon="5.48375">
        <ele>407.7</ele>
        <time>2020-02-24T13:31:09Z</time>
      </trkpt>
      <trkpt lat="46.58761" lon="5.48377">
        <ele>407.5</ele>
        <time>2020-02-24T13:31:13Z</time>
      </trkpt>
      <trkpt lat="46.58757" lon="5.4838">
        <ele>407.2</ele>
        <time>2020-02-24T13:31:16Z</time>
      </trkpt>
      <trkpt lat="46.58752" lon="5.48381">
        <ele>407</ele>
        <time>2020-02-24T13:31:21Z</time>
      </trkpt>
      <trkpt lat="46.58747" lon="5.48382">
        <ele>407.1</ele>
        <time>2020-02-24T13:31:27Z</time>
      </trkpt>
      <trkpt lat="46.58742" lon="5.48384">
        <ele>408.1</ele>
        <time>2020-02-24T13:31:34Z</time>
      </trkpt>
      <trkpt lat="46.58737" lon="5.48385">
        <ele>409.1</ele>
        <time>2020-02-24T13:31:41Z</time>
      </trkpt>
      <trkpt lat="46.58733" lon="5.48386">
        <ele>409.1</ele>
        <time>2020-02-24T13:31:45Z</time>
      </trkpt>
      <trkpt lat="46.58728" lon="5.48386">
        <ele>408.8</ele>
        <time>2020-02-24T13:31:48Z</time>
      </trkpt>
      <trkpt lat="46.58723" lon="5.48386">
        <ele>408.3</ele>
        <time>2020-02-24T13:31:53Z</time>
      </trkpt>
      <trkpt lat="46.58708" lon="5.48399">
        <ele>407.2</ele>
        <time>2020-02-24T13:32:16Z</time>
      </trkpt>
      <trkpt lat="46.58704" lon="5.48402">
        <ele>407.3</ele>
        <time>2020-02-24T13:32:19Z</time>
      </trkpt>
      <trkpt lat="46.58698" lon="5.48404">
        <ele>407.2</ele>
        <time>2020-02-24T13:32:23Z</time>
      </trkpt>
      <trkpt lat="46.58693" lon="5.48406">
        <ele>406.8</ele>
        <time>2020-02-24T13:32:27Z</time>
      </trkpt>
      <trkpt lat="46.58683" lon="5.48415">
        <ele>404.8</ele>
        <time>2020-02-24T13:32:42Z</time>
      </trkpt>
      <trkpt lat="46.58678" lon="5.48417">
        <ele>405.5</ele>
        <time>2020-02-24T13:32:49Z</time>
      </trkpt>
      <trkpt lat="46.58672" lon="5.48419">
        <ele>405.9</ele>
        <time>2020-02-24T13:32:51Z</time>
      </trkpt>
      <trkpt lat="46.58668" lon="5.48421">
        <ele>406.8</ele>
        <time>2020-02-24T13:32:55Z</time>
      </trkpt>
      <trkpt lat="46.58663" lon="5.48423">
        <ele>407.9</ele>
        <time>2020-02-24T13:33:01Z</time>
      </trkpt>
      <trkpt lat="46.58658" lon="5.48426">
        <ele>408.6</ele>
        <time>2020-02-24T13:33:08Z</time>
      </trkpt>
      <trkpt lat="46.58654" lon="5.48429">
        <ele>409.1</ele>
        <time>2020-02-24T13:33:15Z</time>
      </trkpt>
      <trkpt lat="46.58649" lon="5.48433">
        <ele>409.4</ele>
        <time>2020-02-24T13:33:20Z</time>
      </trkpt>
      <trkpt lat="46.58646" lon="5.48438">
        <ele>409.5</ele>
        <time>2020-02-24T13:33:24Z</time>
      </trkpt>
      <trkpt lat="46.58642" lon="5.48444">
        <ele>409.5</ele>
        <time>2020-02-24T13:33:28Z</time>
      </trkpt>
      <trkpt lat="46.58639" lon="5.48449">
        <ele>409.3</ele>
        <time>2020-02-24T13:33:34Z</time>
      </trkpt>
      <trkpt lat="46.58638" lon="5.48456">
        <ele>408.1</ele>
        <time>2020-02-24T13:33:43Z</time>
      </trkpt>
      <trkpt lat="46.58629" lon="5.48487">
        <ele>401.7</ele>
        <time>2020-02-24T13:34:14Z</time>
      </trkpt>
      <trkpt lat="46.58628" lon="5.48496">
        <ele>401.7</ele>
        <time>2020-02-24T13:34:17Z</time>
      </trkpt>
      <trkpt lat="46.58627" lon="5.48505">
        <ele>401.7</ele>
        <time>2020-02-24T13:34:20Z</time>
      </trkpt>
      <trkpt lat="46.58626" lon="5.48512">
        <ele>401.6</ele>
        <time>2020-02-24T13:34:24Z</time>
      </trkpt>
      <trkpt lat="46.58624" lon="5.4852">
        <ele>401.7</ele>
        <time>2020-02-24T13:34:28Z</time>
      </trkpt>
      <trkpt lat="46.58624" lon="5.48527">
        <ele>401.9</ele>
        <time>2020-02-24T13:34:32Z</time>
      </trkpt>
      <trkpt lat="46.58623" lon="5.48534">
        <ele>402.7</ele>
        <time>2020-02-24T13:34:40Z</time>
      </trkpt>
      <trkpt lat="46.58624" lon="5.48541">
        <ele>403.7</ele>
        <time>2020-02-24T13:34:46Z</time>
      </trkpt>
      <trkpt lat="46.58623" lon="5.48548">
        <ele>405.1</ele>
        <time>2020-02-24T13:34:53Z</time>
      </trkpt>
      <trkpt lat="46.58624" lon="5.48555">
        <ele>406.5</ele>
        <time>2020-02-24T13:35:00Z</time>
      </trkpt>
      <trkpt lat="46.58623" lon="5.48562">
        <ele>407.9</ele>
        <time>2020-02-24T13:35:07Z</time>
      </trkpt>
      <trkpt lat="46.58622" lon="5.4857">
        <ele>409.3</ele>
        <time>2020-02-24T13:35:15Z</time>
      </trkpt>
      <trkpt lat="46.58621" lon="5.48576">
        <ele>410</ele>
        <time>2020-02-24T13:35:38Z</time>
      </trkpt>
      <trkpt lat="46.58622" lon="5.48584">
        <ele>409.6</ele>
        <time>2020-02-24T13:35:49Z</time>
      </trkpt>
      <trkpt lat="46.58623" lon="5.48591">
        <ele>409.7</ele>
        <time>2020-02-24T13:35:56Z</time>
      </trkpt>
      <trkpt lat="46.58621" lon="5.48597">
        <ele>409.8</ele>
        <time>2020-02-24T13:36:03Z</time>
      </trkpt>
      <trkpt lat="46.58617" lon="5.486">
        <ele>410</ele>
        <time>2020-02-24T13:36:13Z</time>
      </trkpt>
      <trkpt lat="46.58612" lon="5.48601">
        <ele>410.1</ele>
        <time>2020-02-24T13:37:27Z</time>
      </trkpt>
      <trkpt lat="46.58608" lon="5.48605">
        <ele>412.2</ele>
        <time>2020-02-24T13:38:44Z</time>
      </trkpt>
      <trkpt lat="46.58609" lon="5.48612">
        <ele>412</ele>
        <time>2020-02-24T13:38:48Z</time>
      </trkpt>
      <trkpt lat="46.58609" lon="5.48619">
        <ele>411.6</ele>
        <time>2020-02-24T13:38:52Z</time>
      </trkpt>
      <trkpt lat="46.5861" lon="5.48626">
        <ele>411</ele>
        <time>2020-02-24T13:38:57Z</time>
      </trkpt>
      <trkpt lat="46.58612" lon="5.48633">
        <ele>410.6</ele>
        <time>2020-02-24T13:39:02Z</time>
      </trkpt>
      <trkpt lat="46.58613" lon="5.4864">
        <ele>410.3</ele>
        <time>2020-02-24T13:39:06Z</time>
      </trkpt>
      <trkpt lat="46.58613" lon="5.48647">
        <ele>410.1</ele>
        <time>2020-02-24T13:39:10Z</time>
      </trkpt>
      <trkpt lat="46.58615" lon="5.48654">
        <ele>409.9</ele>
        <time>2020-02-24T13:39:15Z</time>
      </trkpt>
      <trkpt lat="46.58615" lon="5.48661">
        <ele>409.3</ele>
        <time>2020-02-24T13:39:20Z</time>
      </trkpt>
      <trkpt lat="46.58613" lon="5.48667">
        <ele>408.6</ele>
        <time>2020-02-24T13:39:26Z</time>
      </trkpt>
      <trkpt lat="46.58608" lon="5.48685">
        <ele>407.6</ele>
        <time>2020-02-24T13:39:44Z</time>
      </trkpt>
      <trkpt lat="46.58608" lon="5.48692">
        <ele>408.4</ele>
        <time>2020-02-24T13:39:52Z</time>
      </trkpt>
      <trkpt lat="46.5861" lon="5.48698">
        <ele>408.7</ele>
        <time>2020-02-24T13:39:59Z</time>
      </trkpt>
      <trkpt lat="46.5861" lon="5.48705">
        <ele>409.5</ele>
        <time>2020-02-24T13:40:09Z</time>
      </trkpt>
      <trkpt lat="46.58609" lon="5.48712">
        <ele>409.9</ele>
        <time>2020-02-24T13:40:13Z</time>
      </trkpt>
      <trkpt lat="46.5861" lon="5.48719">
        <ele>410.1</ele>
        <time>2020-02-24T13:40:15Z</time>
      </trkpt>
      <trkpt lat="46.58608" lon="5.48726">
        <ele>410.7</ele>
        <time>2020-02-24T13:40:18Z</time>
      </trkpt>
      <trkpt lat="46.58606" lon="5.48742">
        <ele>413.3</ele>
        <time>2020-02-24T13:40:32Z</time>
      </trkpt>
      <trkpt lat="46.58609" lon="5.48747">
        <ele>413.3</ele>
        <time>2020-02-24T13:40:37Z</time>
      </trkpt>
      <trkpt lat="46.58611" lon="5.48754">
        <ele>413.7</ele>
        <time>2020-02-24T13:40:44Z</time>
      </trkpt>
      <trkpt lat="46.58613" lon="5.4876">
        <ele>415.4</ele>
        <time>2020-02-24T13:40:52Z</time>
      </trkpt>
      <trkpt lat="46.58616" lon="5.48766">
        <ele>416.7</ele>
        <time>2020-02-24T13:40:56Z</time>
      </trkpt>
      <trkpt lat="46.5862" lon="5.48771">
        <ele>417.4</ele>
        <time>2020-02-24T13:40:58Z</time>
      </trkpt>
      <trkpt lat="46.58623" lon="5.48776">
        <ele>418.4</ele>
        <time>2020-02-24T13:41:01Z</time>
      </trkpt>
      <trkpt lat="46.58626" lon="5.48781">
        <ele>419.5</ele>
        <time>2020-02-24T13:41:05Z</time>
      </trkpt>
      <trkpt lat="46.58629" lon="5.48786">
        <ele>421</ele>
        <time>2020-02-24T13:41:12Z</time>
      </trkpt>
      <trkpt lat="46.58631" lon="5.48792">
        <ele>421.9</ele>
        <time>2020-02-24T13:41:18Z</time>
      </trkpt>
      <trkpt lat="46.58634" lon="5.48797">
        <ele>421.9</ele>
        <time>2020-02-24T13:41:32Z</time>
      </trkpt>
      <trkpt lat="46.58642" lon="5.48798">
        <ele>421.9</ele>
        <time>2020-02-24T13:41:47Z</time>
      </trkpt>
      <trkpt lat="46.58646" lon="5.48794">
        <ele>421.5</ele>
        <time>2020-02-24T13:42:00Z</time>
      </trkpt>
      <trkpt lat="46.58651" lon="5.48792">
        <ele>421</ele>
        <time>2020-02-24T13:42:08Z</time>
      </trkpt>
      <trkpt lat="46.58655" lon="5.4879">
        <ele>420.7</ele>
        <time>2020-02-24T13:42:12Z</time>
      </trkpt>
      <trkpt lat="46.5866" lon="5.48789">
        <ele>420.3</ele>
        <time>2020-02-24T13:42:17Z</time>
      </trkpt>
      <trkpt lat="46.58666" lon="5.4879">
        <ele>419.9</ele>
        <time>2020-02-24T13:42:21Z</time>
      </trkpt>
      <trkpt lat="46.58671" lon="5.48791">
        <ele>419.7</ele>
        <time>2020-02-24T13:42:27Z</time>
      </trkpt>
      <trkpt lat="46.58676" lon="5.48793">
        <ele>419.3</ele>
        <time>2020-02-24T13:42:34Z</time>
      </trkpt>
      <trkpt lat="46.5868" lon="5.48794">
        <ele>418.9</ele>
        <time>2020-02-24T13:42:38Z</time>
      </trkpt>
      <trkpt lat="46.58693" lon="5.48802">
        <ele>416.8</ele>
        <time>2020-02-24T13:42:48Z</time>
      </trkpt>
      <trkpt lat="46.58698" lon="5.48804">
        <ele>415.7</ele>
        <time>2020-02-24T13:42:55Z</time>
      </trkpt>
      <trkpt lat="46.58702" lon="5.48804">
        <ele>414.6</ele>
        <time>2020-02-24T13:43:03Z</time>
      </trkpt>
      <trkpt lat="46.58707" lon="5.48802">
        <ele>413.3</ele>
        <time>2020-02-24T13:43:09Z</time>
      </trkpt>
      <trkpt lat="46.58712" lon="5.48799">
        <ele>412</ele>
        <time>2020-02-24T13:43:14Z</time>
      </trkpt>
      <trkpt lat="46.58716" lon="5.48796">
        <ele>410.6</ele>
        <time>2020-02-24T13:43:20Z</time>
      </trkpt>
      <trkpt lat="46.58725" lon="5.48806">
        <ele>403.9</ele>
        <time>2020-02-24T13:43:40Z</time>
      </trkpt>
      <trkpt lat="46.58726" lon="5.4882">
        <ele>399.6</ele>
        <time>2020-02-24T13:43:54Z</time>
      </trkpt>
      <trkpt lat="46.58725" lon="5.48826">
        <ele>398.3</ele>
        <time>2020-02-24T13:43:59Z</time>
      </trkpt>
      <trkpt lat="46.58722" lon="5.48833">
        <ele>397.2</ele>
        <time>2020-02-24T13:44:04Z</time>
      </trkpt>
      <trkpt lat="46.5872" lon="5.48839">
        <ele>396.4</ele>
        <time>2020-02-24T13:44:09Z</time>
      </trkpt>
      <trkpt lat="46.58718" lon="5.48845">
        <ele>396.1</ele>
        <time>2020-02-24T13:44:17Z</time>
      </trkpt>
      <trkpt lat="46.58705" lon="5.48859">
        <ele>398</ele>
        <time>2020-02-24T13:44:46Z</time>
      </trkpt>
      <trkpt lat="46.58697" lon="5.48875">
        <ele>399.9</ele>
        <time>2020-02-24T13:44:57Z</time>
      </trkpt>
      <trkpt lat="46.58696" lon="5.48882">
        <ele>400.8</ele>
        <time>2020-02-24T13:45:03Z</time>
      </trkpt>
      <trkpt lat="46.58692" lon="5.48888">
        <ele>401.3</ele>
        <time>2020-02-24T13:45:06Z</time>
      </trkpt>
      <trkpt lat="46.58688" lon="5.48893">
        <ele>402.1</ele>
        <time>2020-02-24T13:45:10Z</time>
      </trkpt>
      <trkpt lat="46.58686" lon="5.489">
        <ele>403.4</ele>
        <time>2020-02-24T13:45:15Z</time>
      </trkpt>
      <trkpt lat="46.58688" lon="5.48922">
        <ele>406.4</ele>
        <time>2020-02-24T13:45:32Z</time>
      </trkpt>
      <trkpt lat="46.58691" lon="5.4893">
        <ele>406.8</ele>
        <time>2020-02-24T13:45:36Z</time>
      </trkpt>
      <trkpt lat="46.58693" lon="5.48937">
        <ele>407.7</ele>
        <time>2020-02-24T13:45:42Z</time>
      </trkpt>
      <trkpt lat="46.58695" lon="5.48944">
        <ele>408.6</ele>
        <time>2020-02-24T13:45:47Z</time>
      </trkpt>
      <trkpt lat="46.58696" lon="5.4895">
        <ele>409.1</ele>
        <time>2020-02-24T13:45:51Z</time>
      </trkpt>
      <trkpt lat="46.58697" lon="5.48958">
        <ele>409.4</ele>
        <time>2020-02-24T13:45:55Z</time>
      </trkpt>
      <trkpt lat="46.587" lon="5.48963">
        <ele>409.6</ele>
        <time>2020-02-24T13:46:01Z</time>
      </trkpt>
      <trkpt lat="46.58702" lon="5.4897">
        <ele>409.1</ele>
        <time>2020-02-24T13:46:07Z</time>
      </trkpt>
      <trkpt lat="46.58705" lon="5.48982">
        <ele>407.4</ele>
        <time>2020-02-24T13:46:17Z</time>
      </trkpt>
      <trkpt lat="46.58707" lon="5.48989">
        <ele>406.8</ele>
        <time>2020-02-24T13:46:24Z</time>
      </trkpt>
      <trkpt lat="46.58708" lon="5.48996">
        <ele>406</ele>
        <time>2020-02-24T13:46:29Z</time>
      </trkpt>
      <trkpt lat="46.5871" lon="5.49003">
        <ele>405.2</ele>
        <time>2020-02-24T13:46:34Z</time>
      </trkpt>
      <trkpt lat="46.58712" lon="5.4901">
        <ele>404.3</ele>
        <time>2020-02-24T13:46:39Z</time>
      </trkpt>
      <trkpt lat="46.58711" lon="5.49017">
        <ele>403.7</ele>
        <time>2020-02-24T13:46:42Z</time>
      </trkpt>
      <trkpt lat="46.58709" lon="5.49023">
        <ele>403.2</ele>
        <time>2020-02-24T13:46:44Z</time>
      </trkpt>
      <trkpt lat="46.58707" lon="5.49031">
        <ele>402.1</ele>
        <time>2020-02-24T13:46:48Z</time>
      </trkpt>
      <trkpt lat="46.58708" lon="5.49037">
        <ele>400.8</ele>
        <time>2020-02-24T13:46:52Z</time>
      </trkpt>
      <trkpt lat="46.58709" lon="5.49044">
        <ele>399.8</ele>
        <time>2020-02-24T13:46:56Z</time>
      </trkpt>
      <trkpt lat="46.5871" lon="5.49051">
        <ele>399</ele>
        <time>2020-02-24T13:47:00Z</time>
      </trkpt>
      <trkpt lat="46.58713" lon="5.49056">
        <ele>398</ele>
        <time>2020-02-24T13:47:05Z</time>
      </trkpt>
      <trkpt lat="46.58714" lon="5.49063">
        <ele>396.2</ele>
        <time>2020-02-24T13:47:13Z</time>
      </trkpt>
      <trkpt lat="46.58714" lon="5.4907">
        <ele>394</ele>
        <time>2020-02-24T13:47:22Z</time>
      </trkpt>
      <trkpt lat="46.58714" lon="5.49077">
        <ele>393</ele>
        <time>2020-02-24T13:47:28Z</time>
      </trkpt>
      <trkpt lat="46.58714" lon="5.49086">
        <ele>392.5</ele>
        <time>2020-02-24T13:47:33Z</time>
      </trkpt>
      <trkpt lat="46.58719" lon="5.491">
        <ele>391.3</ele>
        <time>2020-02-24T13:47:41Z</time>
      </trkpt>
      <trkpt lat="46.5872" lon="5.49106">
        <ele>391.2</ele>
        <time>2020-02-24T13:47:45Z</time>
      </trkpt>
      <trkpt lat="46.58723" lon="5.49121">
        <ele>395.5</ele>
        <time>2020-02-24T13:48:20Z</time>
      </trkpt>
      <trkpt lat="46.58727" lon="5.49126">
        <ele>395.7</ele>
        <time>2020-02-24T13:48:24Z</time>
      </trkpt>
      <trkpt lat="46.58731" lon="5.4913">
        <ele>395.7</ele>
        <time>2020-02-24T13:48:28Z</time>
      </trkpt>
      <trkpt lat="46.58734" lon="5.49135">
        <ele>395.8</ele>
        <time>2020-02-24T13:48:31Z</time>
      </trkpt>
      <trkpt lat="46.58738" lon="5.49141">
        <ele>395.5</ele>
        <time>2020-02-24T13:48:35Z</time>
      </trkpt>
      <trkpt lat="46.58741" lon="5.49147">
        <ele>395.2</ele>
        <time>2020-02-24T13:48:39Z</time>
      </trkpt>
      <trkpt lat="46.58744" lon="5.49153">
        <ele>394.8</ele>
        <time>2020-02-24T13:48:43Z</time>
      </trkpt>
      <trkpt lat="46.58748" lon="5.4916">
        <ele>394.4</ele>
        <time>2020-02-24T13:48:47Z</time>
      </trkpt>
      <trkpt lat="46.58751" lon="5.49165">
        <ele>394.1</ele>
        <time>2020-02-24T13:48:51Z</time>
      </trkpt>
      <trkpt lat="46.58754" lon="5.4917">
        <ele>393.9</ele>
        <time>2020-02-24T13:48:56Z</time>
      </trkpt>
      <trkpt lat="46.58759" lon="5.49175">
        <ele>393.6</ele>
        <time>2020-02-24T13:49:00Z</time>
      </trkpt>
      <trkpt lat="46.58763" lon="5.49178">
        <ele>393.1</ele>
        <time>2020-02-24T13:49:04Z</time>
      </trkpt>
      <trkpt lat="46.58767" lon="5.49184">
        <ele>392.3</ele>
        <time>2020-02-24T13:49:09Z</time>
      </trkpt>
      <trkpt lat="46.58769" lon="5.49189">
        <ele>391.2</ele>
        <time>2020-02-24T13:49:15Z</time>
      </trkpt>
      <trkpt lat="46.58773" lon="5.49196">
        <ele>390.2</ele>
        <time>2020-02-24T13:49:22Z</time>
      </trkpt>
      <trkpt lat="46.58777" lon="5.49199">
        <ele>389.4</ele>
        <time>2020-02-24T13:49:28Z</time>
      </trkpt>
      <trkpt lat="46.5878" lon="5.49205">
        <ele>388.6</ele>
        <time>2020-02-24T13:49:32Z</time>
      </trkpt>
      <trkpt lat="46.58783" lon="5.49211">
        <ele>387.5</ele>
        <time>2020-02-24T13:49:36Z</time>
      </trkpt>
      <trkpt lat="46.58787" lon="5.49217">
        <ele>386.3</ele>
        <time>2020-02-24T13:49:41Z</time>
      </trkpt>
      <trkpt lat="46.58791" lon="5.4922">
        <ele>385.6</ele>
        <time>2020-02-24T13:49:44Z</time>
      </trkpt>
      <trkpt lat="46.58796" lon="5.49223">
        <ele>384.8</ele>
        <time>2020-02-24T13:49:47Z</time>
      </trkpt>
      <trkpt lat="46.588" lon="5.49227">
        <ele>383.9</ele>
        <time>2020-02-24T13:49:51Z</time>
      </trkpt>
      <trkpt lat="46.58805" lon="5.4923">
        <ele>383</ele>
        <time>2020-02-24T13:49:55Z</time>
      </trkpt>
      <trkpt lat="46.58809" lon="5.49234">
        <ele>382.5</ele>
        <time>2020-02-24T13:49:58Z</time>
      </trkpt>
      <trkpt lat="46.58813" lon="5.49238">
        <ele>382</ele>
        <time>2020-02-24T13:50:02Z</time>
      </trkpt>
      <trkpt lat="46.58816" lon="5.49244">
        <ele>381.4</ele>
        <time>2020-02-24T13:50:08Z</time>
      </trkpt>
      <trkpt lat="46.58825" lon="5.49257">
        <ele>381.1</ele>
        <time>2020-02-24T13:50:20Z</time>
      </trkpt>
      <trkpt lat="46.58828" lon="5.49263">
        <ele>381.1</ele>
        <time>2020-02-24T13:50:25Z</time>
      </trkpt>
      <trkpt lat="46.58831" lon="5.49268">
        <ele>381.1</ele>
        <time>2020-02-24T13:50:28Z</time>
      </trkpt>
      <trkpt lat="46.58836" lon="5.49272">
        <ele>381.2</ele>
        <time>2020-02-24T13:50:32Z</time>
      </trkpt>
      <trkpt lat="46.5884" lon="5.49276">
        <ele>381.3</ele>
        <time>2020-02-24T13:50:36Z</time>
      </trkpt>
      <trkpt lat="46.58844" lon="5.4928">
        <ele>381.4</ele>
        <time>2020-02-24T13:50:40Z</time>
      </trkpt>
      <trkpt lat="46.58848" lon="5.49285">
        <ele>381.6</ele>
        <time>2020-02-24T13:50:44Z</time>
      </trkpt>
      <trkpt lat="46.58851" lon="5.4929">
        <ele>381.8</ele>
        <time>2020-02-24T13:50:48Z</time>
      </trkpt>
      <trkpt lat="46.58855" lon="5.49295">
        <ele>382</ele>
        <time>2020-02-24T13:50:53Z</time>
      </trkpt>
      <trkpt lat="46.58859" lon="5.493">
        <ele>382.2</ele>
        <time>2020-02-24T13:50:58Z</time>
      </trkpt>
      <trkpt lat="46.58862" lon="5.49305">
        <ele>382.8</ele>
        <time>2020-02-24T13:51:04Z</time>
      </trkpt>
      <trkpt lat="46.58866" lon="5.4931">
        <ele>383.2</ele>
        <time>2020-02-24T13:51:08Z</time>
      </trkpt>
      <trkpt lat="46.5887" lon="5.49317">
        <ele>383.5</ele>
        <time>2020-02-24T13:51:13Z</time>
      </trkpt>
      <trkpt lat="46.58874" lon="5.49321">
        <ele>383.8</ele>
        <time>2020-02-24T13:51:18Z</time>
      </trkpt>
      <trkpt lat="46.58879" lon="5.49324">
        <ele>383.9</ele>
        <time>2020-02-24T13:51:23Z</time>
      </trkpt>
      <trkpt lat="46.58883" lon="5.49327">
        <ele>384</ele>
        <time>2020-02-24T13:51:27Z</time>
      </trkpt>
      <trkpt lat="46.58886" lon="5.49331">
        <ele>383.9</ele>
        <time>2020-02-24T13:51:32Z</time>
      </trkpt>
      <trkpt lat="46.58891" lon="5.49332">
        <ele>383.3</ele>
        <time>2020-02-24T13:51:41Z</time>
      </trkpt>
      <trkpt lat="46.58897" lon="5.49333">
        <ele>382.7</ele>
        <time>2020-02-24T13:51:46Z</time>
      </trkpt>
      <trkpt lat="46.58901" lon="5.49334">
        <ele>382.2</ele>
        <time>2020-02-24T13:51:51Z</time>
      </trkpt>
      <trkpt lat="46.58907" lon="5.49332">
        <ele>381.4</ele>
        <time>2020-02-24T13:51:56Z</time>
      </trkpt>
      <trkpt lat="46.58913" lon="5.49332">
        <ele>380.4</ele>
        <time>2020-02-24T13:52:01Z</time>
      </trkpt>
      <trkpt lat="46.58918" lon="5.49331">
        <ele>379.8</ele>
        <time>2020-02-24T13:52:05Z</time>
      </trkpt>
      <trkpt lat="46.58922" lon="5.49329">
        <ele>379.2</ele>
        <time>2020-02-24T13:52:09Z</time>
      </trkpt>
      <trkpt lat="46.58927" lon="5.49327">
        <ele>378.2</ele>
        <time>2020-02-24T13:52:15Z</time>
      </trkpt>
      <trkpt lat="46.58931" lon="5.49326">
        <ele>376.9</ele>
        <time>2020-02-24T13:52:21Z</time>
      </trkpt>
      <trkpt lat="46.58936" lon="5.49325">
        <ele>375.4</ele>
        <time>2020-02-24T13:52:27Z</time>
      </trkpt>
      <trkpt lat="46.58942" lon="5.49324">
        <ele>374.1</ele>
        <time>2020-02-24T13:52:32Z</time>
      </trkpt>
      <trkpt lat="46.58947" lon="5.49324">
        <ele>373.1</ele>
        <time>2020-02-24T13:52:36Z</time>
      </trkpt>
      <trkpt lat="46.58952" lon="5.49323">
        <ele>372</ele>
        <time>2020-02-24T13:52:40Z</time>
      </trkpt>
      <trkpt lat="46.58956" lon="5.49322">
        <ele>370.8</ele>
        <time>2020-02-24T13:52:45Z</time>
      </trkpt>
      <trkpt lat="46.58961" lon="5.49319">
        <ele>369.8</ele>
        <time>2020-02-24T13:52:49Z</time>
      </trkpt>
      <trkpt lat="46.58965" lon="5.49318">
        <ele>368.9</ele>
        <time>2020-02-24T13:52:53Z</time>
      </trkpt>
      <trkpt lat="46.5897" lon="5.49317">
        <ele>368.2</ele>
        <time>2020-02-24T13:52:57Z</time>
      </trkpt>
      <trkpt lat="46.58974" lon="5.49317">
        <ele>367.8</ele>
        <time>2020-02-24T13:53:00Z</time>
      </trkpt>
      <trkpt lat="46.5898" lon="5.49318">
        <ele>367.4</ele>
        <time>2020-02-24T13:53:04Z</time>
      </trkpt>
      <trkpt lat="46.58985" lon="5.4932">
        <ele>367.1</ele>
        <time>2020-02-24T13:53:09Z</time>
      </trkpt>
      <trkpt lat="46.58989" lon="5.49323">
        <ele>366.9</ele>
        <time>2020-02-24T13:53:14Z</time>
      </trkpt>
      <trkpt lat="46.58994" lon="5.49326">
        <ele>366.8</ele>
        <time>2020-02-24T13:53:19Z</time>
      </trkpt>
      <trkpt lat="46.58998" lon="5.4933">
        <ele>366.3</ele>
        <time>2020-02-24T13:53:26Z</time>
      </trkpt>
      <trkpt lat="46.59002" lon="5.49335">
        <ele>366</ele>
        <time>2020-02-24T13:53:31Z</time>
      </trkpt>
      <trkpt lat="46.59006" lon="5.49339">
        <ele>365.9</ele>
        <time>2020-02-24T13:53:35Z</time>
      </trkpt>
      <trkpt lat="46.59009" lon="5.49344">
        <ele>366</ele>
        <time>2020-02-24T13:53:39Z</time>
      </trkpt>
      <trkpt lat="46.59012" lon="5.49349">
        <ele>366.6</ele>
        <time>2020-02-24T13:54:13Z</time>
      </trkpt>
      <trkpt lat="46.59016" lon="5.49357">
        <ele>366.2</ele>
        <time>2020-02-24T13:54:17Z</time>
      </trkpt>
      <trkpt lat="46.59018" lon="5.49363">
        <ele>365.9</ele>
        <time>2020-02-24T13:54:20Z</time>
      </trkpt>
      <trkpt lat="46.59022" lon="5.49369">
        <ele>365.8</ele>
        <time>2020-02-24T13:54:24Z</time>
      </trkpt>
      <trkpt lat="46.59026" lon="5.49374">
        <ele>365.7</ele>
        <time>2020-02-24T13:54:29Z</time>
      </trkpt>
      <trkpt lat="46.59031" lon="5.49374">
        <ele>365.4</ele>
        <time>2020-02-24T13:54:33Z</time>
      </trkpt>
      <trkpt lat="46.59036" lon="5.49376">
        <ele>365.1</ele>
        <time>2020-02-24T13:54:36Z</time>
      </trkpt>
      <trkpt lat="46.5904" lon="5.49376">
        <ele>364.6</ele>
        <time>2020-02-24T13:54:39Z</time>
      </trkpt>
      <trkpt lat="46.59046" lon="5.49376">
        <ele>364.2</ele>
        <time>2020-02-24T13:54:42Z</time>
      </trkpt>
      <trkpt lat="46.59051" lon="5.49376">
        <ele>363.7</ele>
        <time>2020-02-24T13:54:45Z</time>
      </trkpt>
      <trkpt lat="46.59056" lon="5.49377">
        <ele>363.3</ele>
        <time>2020-02-24T13:54:48Z</time>
      </trkpt>
      <trkpt lat="46.59061" lon="5.49378">
        <ele>362.7</ele>
        <time>2020-02-24T13:54:52Z</time>
      </trkpt>
      <trkpt lat="46.59065" lon="5.4938">
        <ele>362.5</ele>
        <time>2020-02-24T13:54:55Z</time>
      </trkpt>
      <trkpt lat="46.5907" lon="5.49382">
        <ele>362.1</ele>
        <time>2020-02-24T13:54:59Z</time>
      </trkpt>
      <trkpt lat="46.59075" lon="5.49385">
        <ele>361.7</ele>
        <time>2020-02-24T13:55:03Z</time>
      </trkpt>
      <trkpt lat="46.5908" lon="5.49387">
        <ele>361.3</ele>
        <time>2020-02-24T13:55:07Z</time>
      </trkpt>
      <trkpt lat="46.59084" lon="5.4939">
        <ele>360.8</ele>
        <time>2020-02-24T13:55:11Z</time>
      </trkpt>
      <trkpt lat="46.59089" lon="5.49393">
        <ele>360.2</ele>
        <time>2020-02-24T13:55:15Z</time>
      </trkpt>
      <trkpt lat="46.59103" lon="5.49394">
        <ele>359.3</ele>
        <time>2020-02-24T13:55:27Z</time>
      </trkpt>
      <trkpt lat="46.59107" lon="5.49391">
        <ele>359.2</ele>
        <time>2020-02-24T13:55:30Z</time>
      </trkpt>
      <trkpt lat="46.59111" lon="5.49387">
        <ele>359.1</ele>
        <time>2020-02-24T13:55:34Z</time>
      </trkpt>
      <trkpt lat="46.59115" lon="5.49382">
        <ele>358.9</ele>
        <time>2020-02-24T13:55:38Z</time>
      </trkpt>
      <trkpt lat="46.59119" lon="5.49377">
        <ele>358.6</ele>
        <time>2020-02-24T13:55:43Z</time>
      </trkpt>
      <trkpt lat="46.59122" lon="5.49372">
        <ele>357.6</ele>
        <time>2020-02-24T13:55:51Z</time>
      </trkpt>
      <trkpt lat="46.59126" lon="5.49368">
        <ele>356.8</ele>
        <time>2020-02-24T13:55:56Z</time>
      </trkpt>
      <trkpt lat="46.59131" lon="5.49366">
        <ele>356</ele>
        <time>2020-02-24T13:56:00Z</time>
      </trkpt>
      <trkpt lat="46.59135" lon="5.49365">
        <ele>355.2</ele>
        <time>2020-02-24T13:56:04Z</time>
      </trkpt>
      <trkpt lat="46.5914" lon="5.49362">
        <ele>354.5</ele>
        <time>2020-02-24T13:56:08Z</time>
      </trkpt>
      <trkpt lat="46.59145" lon="5.49359">
        <ele>354</ele>
        <time>2020-02-24T13:56:12Z</time>
      </trkpt>
      <trkpt lat="46.5915" lon="5.49356">
        <ele>353.7</ele>
        <time>2020-02-24T13:56:17Z</time>
      </trkpt>
      <trkpt lat="46.59155" lon="5.49353">
        <ele>353.7</ele>
        <time>2020-02-24T13:56:21Z</time>
      </trkpt>
      <trkpt lat="46.59158" lon="5.4935">
        <ele>353.9</ele>
        <time>2020-02-24T13:56:26Z</time>
      </trkpt>
      <trkpt lat="46.59163" lon="5.49346">
        <ele>354</ele>
        <time>2020-02-24T13:56:31Z</time>
      </trkpt>
      <trkpt lat="46.59165" lon="5.4934">
        <ele>354</ele>
        <time>2020-02-24T13:56:37Z</time>
      </trkpt>
      <trkpt lat="46.59161" lon="5.49335">
        <ele>353.5</ele>
        <time>2020-02-24T13:57:05Z</time>
      </trkpt>
      <trkpt lat="46.59161" lon="5.49339">
        <ele>353.9</ele>
        <time>2020-02-24T13:58:49Z</time>
      </trkpt>
      <trkpt lat="46.59163" lon="5.49362">
        <ele>360.6</ele>
        <time>2020-02-24T13:59:05Z</time>
      </trkpt>
      <trkpt lat="46.59161" lon="5.49376">
        <ele>365</ele>
        <time>2020-02-24T13:59:18Z</time>
      </trkpt>
      <trkpt lat="46.59159" lon="5.49384">
        <ele>366.2</ele>
        <time>2020-02-24T13:59:23Z</time>
      </trkpt>
      <trkpt lat="46.59158" lon="5.4939">
        <ele>367.8</ele>
        <time>2020-02-24T13:59:28Z</time>
      </trkpt>
      <trkpt lat="46.59157" lon="5.49397">
        <ele>369.3</ele>
        <time>2020-02-24T13:59:33Z</time>
      </trkpt>
      <trkpt lat="46.59158" lon="5.49404">
        <ele>370.9</ele>
        <time>2020-02-24T13:59:38Z</time>
      </trkpt>
      <trkpt lat="46.59159" lon="5.49412">
        <ele>372.4</ele>
        <time>2020-02-24T13:59:43Z</time>
      </trkpt>
      <trkpt lat="46.59158" lon="5.49419">
        <ele>373.4</ele>
        <time>2020-02-24T13:59:47Z</time>
      </trkpt>
      <trkpt lat="46.59156" lon="5.49425">
        <ele>374.3</ele>
        <time>2020-02-24T13:59:51Z</time>
      </trkpt>
      <trkpt lat="46.59154" lon="5.49431">
        <ele>375.1</ele>
        <time>2020-02-24T13:59:55Z</time>
      </trkpt>
      <trkpt lat="46.5915" lon="5.49428">
        <ele>373.8</ele>
        <time>2020-02-24T14:00:36Z</time>
      </trkpt>
      <trkpt lat="46.59146" lon="5.4943">
        <ele>373</ele>
        <time>2020-02-24T14:00:46Z</time>
      </trkpt>
      <trkpt lat="46.59141" lon="5.49428">
        <ele>370.6</ele>
        <time>2020-02-24T14:01:15Z</time>
      </trkpt>
      <trkpt lat="46.59137" lon="5.4943">
        <ele>368.7</ele>
        <time>2020-02-24T14:01:49Z</time>
      </trkpt>
      <trkpt lat="46.59132" lon="5.4943">
        <ele>367.5</ele>
        <time>2020-02-24T14:02:13Z</time>
      </trkpt>
      <trkpt lat="46.59128" lon="5.49431">
        <ele>366.5</ele>
        <time>2020-02-24T14:02:35Z</time>
      </trkpt>
      <trkpt lat="46.59125" lon="5.49436">
        <ele>366</ele>
        <time>2020-02-24T14:02:44Z</time>
      </trkpt>
      <trkpt lat="46.59129" lon="5.4944">
        <ele>363</ele>
        <time>2020-02-24T14:03:41Z</time>
      </trkpt>
      <trkpt lat="46.59135" lon="5.49442">
        <ele>362.5</ele>
        <time>2020-02-24T14:03:44Z</time>
      </trkpt>
      <trkpt lat="46.59141" lon="5.49445">
        <ele>362</ele>
        <time>2020-02-24T14:03:47Z</time>
      </trkpt>
      <trkpt lat="46.59145" lon="5.49449">
        <ele>361.5</ele>
        <time>2020-02-24T14:03:50Z</time>
      </trkpt>
      <trkpt lat="46.59147" lon="5.49456">
        <ele>360.9</ele>
        <time>2020-02-24T14:03:56Z</time>
      </trkpt>
      <trkpt lat="46.59146" lon="5.49463">
        <ele>360.9</ele>
        <time>2020-02-24T14:04:01Z</time>
      </trkpt>
      <trkpt lat="46.59145" lon="5.49471">
        <ele>361.1</ele>
        <time>2020-02-24T14:04:06Z</time>
      </trkpt>
      <trkpt lat="46.59144" lon="5.49478">
        <ele>361.2</ele>
        <time>2020-02-24T14:04:10Z</time>
      </trkpt>
      <trkpt lat="46.59142" lon="5.49484">
        <ele>361.6</ele>
        <time>2020-02-24T14:04:14Z</time>
      </trkpt>
      <trkpt lat="46.59139" lon="5.49491">
        <ele>362.1</ele>
        <time>2020-02-24T14:04:18Z</time>
      </trkpt>
      <trkpt lat="46.59136" lon="5.49496">
        <ele>362.8</ele>
        <time>2020-02-24T14:04:22Z</time>
      </trkpt>
      <trkpt lat="46.59133" lon="5.49503">
        <ele>363.9</ele>
        <time>2020-02-24T14:04:27Z</time>
      </trkpt>
      <trkpt lat="46.5913" lon="5.49508">
        <ele>364.6</ele>
        <time>2020-02-24T14:04:31Z</time>
      </trkpt>
      <trkpt lat="46.59127" lon="5.49514">
        <ele>365.2</ele>
        <time>2020-02-24T14:04:35Z</time>
      </trkpt>
      <trkpt lat="46.59123" lon="5.4952">
        <ele>365.8</ele>
        <time>2020-02-24T14:04:40Z</time>
      </trkpt>
      <trkpt lat="46.5912" lon="5.49524">
        <ele>366.2</ele>
        <time>2020-02-24T14:04:42Z</time>
      </trkpt>
      <trkpt lat="46.59116" lon="5.4953">
        <ele>366.9</ele>
        <time>2020-02-24T14:04:47Z</time>
      </trkpt>
      <trkpt lat="46.59112" lon="5.49533">
        <ele>367.4</ele>
        <time>2020-02-24T14:04:50Z</time>
      </trkpt>
      <trkpt lat="46.59108" lon="5.49536">
        <ele>367.9</ele>
        <time>2020-02-24T14:04:53Z</time>
      </trkpt>
      <trkpt lat="46.59104" lon="5.4954">
        <ele>368.8</ele>
        <time>2020-02-24T14:04:59Z</time>
      </trkpt>
      <trkpt lat="46.59103" lon="5.49547">
        <ele>370.6</ele>
        <time>2020-02-24T14:05:10Z</time>
      </trkpt>
      <trkpt lat="46.59101" lon="5.49554">
        <ele>371.7</ele>
        <time>2020-02-24T14:05:16Z</time>
      </trkpt>
      <trkpt lat="46.59102" lon="5.49562">
        <ele>371.9</ele>
        <time>2020-02-24T14:05:18Z</time>
      </trkpt>
      <trkpt lat="46.59103" lon="5.49569">
        <ele>372.1</ele>
        <time>2020-02-24T14:05:20Z</time>
      </trkpt>
      <trkpt lat="46.59105" lon="5.49576">
        <ele>372.1</ele>
        <time>2020-02-24T14:05:23Z</time>
      </trkpt>
      <trkpt lat="46.59107" lon="5.49582">
        <ele>372</ele>
        <time>2020-02-24T14:05:28Z</time>
      </trkpt>
      <trkpt lat="46.5911" lon="5.49587">
        <ele>371.4</ele>
        <time>2020-02-24T14:05:33Z</time>
      </trkpt>
      <trkpt lat="46.59114" lon="5.49591">
        <ele>371</ele>
        <time>2020-02-24T14:05:36Z</time>
      </trkpt>
      <trkpt lat="46.59118" lon="5.49595">
        <ele>370.7</ele>
        <time>2020-02-24T14:05:39Z</time>
      </trkpt>
      <trkpt lat="46.59122" lon="5.49598">
        <ele>370.3</ele>
        <time>2020-02-24T14:05:42Z</time>
      </trkpt>
      <trkpt lat="46.59127" lon="5.49602">
        <ele>369.8</ele>
        <time>2020-02-24T14:05:47Z</time>
      </trkpt>
      <trkpt lat="46.59132" lon="5.49605">
        <ele>369.2</ele>
        <time>2020-02-24T14:05:52Z</time>
      </trkpt>
      <trkpt lat="46.59136" lon="5.49608">
        <ele>368.7</ele>
        <time>2020-02-24T14:05:56Z</time>
      </trkpt>
      <trkpt lat="46.5914" lon="5.49611">
        <ele>368.2</ele>
        <time>2020-02-24T14:05:59Z</time>
      </trkpt>
      <trkpt lat="46.59145" lon="5.49613">
        <ele>367.6</ele>
        <time>2020-02-24T14:06:02Z</time>
      </trkpt>
      <trkpt lat="46.5915" lon="5.49615">
        <ele>366.1</ele>
        <time>2020-02-24T14:06:07Z</time>
      </trkpt>
      <trkpt lat="46.59155" lon="5.49615">
        <ele>364.5</ele>
        <time>2020-02-24T14:06:11Z</time>
      </trkpt>
      <trkpt lat="46.59159" lon="5.49617">
        <ele>362.9</ele>
        <time>2020-02-24T14:06:15Z</time>
      </trkpt>
      <trkpt lat="46.59161" lon="5.49623">
        <ele>361.5</ele>
        <time>2020-02-24T14:06:19Z</time>
      </trkpt>
      <trkpt lat="46.5916" lon="5.4963">
        <ele>360.2</ele>
        <time>2020-02-24T14:06:24Z</time>
      </trkpt>
      <trkpt lat="46.59157" lon="5.49634">
        <ele>358.6</ele>
        <time>2020-02-24T14:06:31Z</time>
      </trkpt>
      <trkpt lat="46.59152" lon="5.49638">
        <ele>357.3</ele>
        <time>2020-02-24T14:06:37Z</time>
      </trkpt>
      <trkpt lat="46.59148" lon="5.49642">
        <ele>356.6</ele>
        <time>2020-02-24T14:06:42Z</time>
      </trkpt>
      <trkpt lat="46.59143" lon="5.49644">
        <ele>356</ele>
        <time>2020-02-24T14:06:46Z</time>
      </trkpt>
      <trkpt lat="46.59139" lon="5.49649">
        <ele>355.4</ele>
        <time>2020-02-24T14:06:50Z</time>
      </trkpt>
      <trkpt lat="46.59134" lon="5.49653">
        <ele>354.7</ele>
        <time>2020-02-24T14:06:53Z</time>
      </trkpt>
      <trkpt lat="46.5913" lon="5.49657">
        <ele>353.8</ele>
        <time>2020-02-24T14:06:56Z</time>
      </trkpt>
      <trkpt lat="46.59126" lon="5.49661">
        <ele>352.9</ele>
        <time>2020-02-24T14:06:59Z</time>
      </trkpt>
      <trkpt lat="46.59121" lon="5.49663">
        <ele>351.7</ele>
        <time>2020-02-24T14:07:03Z</time>
      </trkpt>
      <trkpt lat="46.59116" lon="5.49664">
        <ele>350.6</ele>
        <time>2020-02-24T14:07:07Z</time>
      </trkpt>
      <trkpt lat="46.59112" lon="5.49668">
        <ele>349.4</ele>
        <time>2020-02-24T14:07:11Z</time>
      </trkpt>
      <trkpt lat="46.59109" lon="5.49673">
        <ele>348.9</ele>
        <time>2020-02-24T14:07:13Z</time>
      </trkpt>
      <trkpt lat="46.59105" lon="5.4968">
        <ele>348.3</ele>
        <time>2020-02-24T14:07:15Z</time>
      </trkpt>
      <trkpt lat="46.59101" lon="5.49686">
        <ele>347.6</ele>
        <time>2020-02-24T14:07:18Z</time>
      </trkpt>
      <trkpt lat="46.59097" lon="5.49692">
        <ele>347</ele>
        <time>2020-02-24T14:07:21Z</time>
      </trkpt>
      <trkpt lat="46.59092" lon="5.49699">
        <ele>346.4</ele>
        <time>2020-02-24T14:07:24Z</time>
      </trkpt>
      <trkpt lat="46.59089" lon="5.49704">
        <ele>345.9</ele>
        <time>2020-02-24T14:07:27Z</time>
      </trkpt>
      <trkpt lat="46.59086" lon="5.4971">
        <ele>345.4</ele>
        <time>2020-02-24T14:07:31Z</time>
      </trkpt>
      <trkpt lat="46.59083" lon="5.49716">
        <ele>344.7</ele>
        <time>2020-02-24T14:07:36Z</time>
      </trkpt>
      <trkpt lat="46.59078" lon="5.49717">
        <ele>341.2</ele>
        <time>2020-02-24T14:07:53Z</time>
      </trkpt>
      <trkpt lat="46.59074" lon="5.49722">
        <ele>339.5</ele>
        <time>2020-02-24T14:07:59Z</time>
      </trkpt>
      <trkpt lat="46.5907" lon="5.49726">
        <ele>337.8</ele>
        <time>2020-02-24T14:08:05Z</time>
      </trkpt>
      <trkpt lat="46.59065" lon="5.49729">
        <ele>337</ele>
        <time>2020-02-24T14:08:08Z</time>
      </trkpt>
      <trkpt lat="46.59061" lon="5.49734">
        <ele>336.3</ele>
        <time>2020-02-24T14:08:11Z</time>
      </trkpt>
      <trkpt lat="46.59057" lon="5.49738">
        <ele>335.2</ele>
        <time>2020-02-24T14:08:16Z</time>
      </trkpt>
      <trkpt lat="46.59053" lon="5.49742">
        <ele>334.3</ele>
        <time>2020-02-24T14:08:22Z</time>
      </trkpt>
      <trkpt lat="46.59049" lon="5.49746">
        <ele>333.6</ele>
        <time>2020-02-24T14:08:27Z</time>
      </trkpt>
      <trkpt lat="46.59045" lon="5.4975">
        <ele>332.9</ele>
        <time>2020-02-24T14:08:33Z</time>
      </trkpt>
      <trkpt lat="46.59041" lon="5.49754">
        <ele>332.3</ele>
        <time>2020-02-24T14:08:38Z</time>
      </trkpt>
      <trkpt lat="46.59037" lon="5.49758">
        <ele>331.7</ele>
        <time>2020-02-24T14:08:43Z</time>
      </trkpt>
      <trkpt lat="46.59033" lon="5.49761">
        <ele>330.9</ele>
        <time>2020-02-24T14:08:49Z</time>
      </trkpt>
      <trkpt lat="46.59029" lon="5.49765">
        <ele>330.5</ele>
        <time>2020-02-24T14:08:53Z</time>
      </trkpt>
      <trkpt lat="46.59026" lon="5.49769">
        <ele>330.2</ele>
        <time>2020-02-24T14:08:57Z</time>
      </trkpt>
      <trkpt lat="46.59021" lon="5.49772">
        <ele>329.2</ele>
        <time>2020-02-24T14:09:03Z</time>
      </trkpt>
      <trkpt lat="46.59016" lon="5.49775">
        <ele>328.6</ele>
        <time>2020-02-24T14:09:08Z</time>
      </trkpt>
      <trkpt lat="46.59001" lon="5.49784">
        <ele>324.9</ele>
        <time>2020-02-24T14:09:31Z</time>
      </trkpt>
      <trkpt lat="46.58997" lon="5.49788">
        <ele>324.5</ele>
        <time>2020-02-24T14:09:35Z</time>
      </trkpt>
      <trkpt lat="46.58992" lon="5.49792">
        <ele>324</ele>
        <time>2020-02-24T14:09:39Z</time>
      </trkpt>
      <trkpt lat="46.58988" lon="5.49797">
        <ele>323.4</ele>
        <time>2020-02-24T14:09:43Z</time>
      </trkpt>
      <trkpt lat="46.58985" lon="5.49801">
        <ele>322.6</ele>
        <time>2020-02-24T14:09:48Z</time>
      </trkpt>
      <trkpt lat="46.58981" lon="5.49805">
        <ele>322</ele>
        <time>2020-02-24T14:09:55Z</time>
      </trkpt>
      <trkpt lat="46.58975" lon="5.49807">
        <ele>322</ele>
        <time>2020-02-24T14:10:00Z</time>
      </trkpt>
      <trkpt lat="46.58971" lon="5.4981">
        <ele>322.1</ele>
        <time>2020-02-24T14:10:03Z</time>
      </trkpt>
      <trkpt lat="46.5897" lon="5.49817">
        <ele>322.4</ele>
        <time>2020-02-24T14:10:12Z</time>
      </trkpt>
      <trkpt lat="46.58974" lon="5.4982">
        <ele>321.7</ele>
        <time>2020-02-24T14:10:18Z</time>
      </trkpt>
      <trkpt lat="46.58978" lon="5.49823">
        <ele>319.5</ele>
        <time>2020-02-24T14:10:26Z</time>
      </trkpt>
      <trkpt lat="46.58983" lon="5.49823">
        <ele>317.8</ele>
        <time>2020-02-24T14:10:32Z</time>
      </trkpt>
      <trkpt lat="46.58988" lon="5.49824">
        <ele>315.9</ele>
        <time>2020-02-24T14:10:37Z</time>
      </trkpt>
      <trkpt lat="46.58993" lon="5.49825">
        <ele>313.2</ele>
        <time>2020-02-24T14:10:45Z</time>
      </trkpt>
      <trkpt lat="46.58988" lon="5.49825">
        <ele>310.8</ele>
        <time>2020-02-24T14:10:56Z</time>
      </trkpt>
      <trkpt lat="46.58989" lon="5.49828">
        <ele>308.9</ele>
        <time>2020-02-24T14:11:10Z</time>
      </trkpt>
      <trkpt lat="46.58991" lon="5.49837">
        <ele>307.5</ele>
        <time>2020-02-24T14:11:15Z</time>
      </trkpt>
      <trkpt lat="46.58991" lon="5.49844">
        <ele>306.5</ele>
        <time>2020-02-24T14:11:18Z</time>
      </trkpt>
      <trkpt lat="46.58991" lon="5.4985">
        <ele>305.5</ele>
        <time>2020-02-24T14:11:21Z</time>
      </trkpt>
      <trkpt lat="46.58991" lon="5.49857">
        <ele>304.2</ele>
        <time>2020-02-24T14:11:25Z</time>
      </trkpt>
      <trkpt lat="46.58992" lon="5.49864">
        <ele>302.7</ele>
        <time>2020-02-24T14:11:30Z</time>
      </trkpt>
      <trkpt lat="46.58993" lon="5.49871">
        <ele>301.4</ele>
        <time>2020-02-24T14:11:35Z</time>
      </trkpt>
      <trkpt lat="46.58995" lon="5.49877">
        <ele>300.2</ele>
        <time>2020-02-24T14:11:40Z</time>
      </trkpt>
      <trkpt lat="46.58997" lon="5.49884">
        <ele>298.8</ele>
        <time>2020-02-24T14:11:45Z</time>
      </trkpt>
      <trkpt lat="46.58997" lon="5.49891">
        <ele>297.3</ele>
        <time>2020-02-24T14:11:49Z</time>
      </trkpt>
      <trkpt lat="46.58999" lon="5.49898">
        <ele>294.8</ele>
        <time>2020-02-24T14:11:55Z</time>
      </trkpt>
      <trkpt lat="46.59002" lon="5.49903">
        <ele>292.2</ele>
        <time>2020-02-24T14:12:00Z</time>
      </trkpt>
      <trkpt lat="46.59006" lon="5.49908">
        <ele>289</ele>
        <time>2020-02-24T14:12:06Z</time>
      </trkpt>
      <trkpt lat="46.59011" lon="5.49911">
        <ele>286.7</ele>
        <time>2020-02-24T14:12:10Z</time>
      </trkpt>
      <trkpt lat="46.59015" lon="5.49915">
        <ele>284.5</ele>
        <time>2020-02-24T14:12:14Z</time>
      </trkpt>
      <trkpt lat="46.59019" lon="5.4992">
        <ele>282.1</ele>
        <time>2020-02-24T14:12:19Z</time>
      </trkpt>
      <trkpt lat="46.59024" lon="5.49924">
        <ele>280.4</ele>
        <time>2020-02-24T14:12:23Z</time>
      </trkpt>
      <trkpt lat="46.59027" lon="5.4993">
        <ele>277.2</ele>
        <time>2020-02-24T14:12:31Z</time>
      </trkpt>
      <trkpt lat="46.59032" lon="5.49935">
        <ele>275.7</ele>
        <time>2020-02-24T14:12:35Z</time>
      </trkpt>
      <trkpt lat="46.59034" lon="5.4994">
        <ele>274.1</ele>
        <time>2020-02-24T14:12:40Z</time>
      </trkpt>
      <trkpt lat="46.59037" lon="5.49945">
        <ele>272.6</ele>
        <time>2020-02-24T14:12:45Z</time>
      </trkpt>
      <trkpt lat="46.59041" lon="5.49949">
        <ele>271.1</ele>
        <time>2020-02-24T14:12:51Z</time>
      </trkpt>
      <trkpt lat="46.59051" lon="5.49955">
        <ele>268.5</ele>
        <time>2020-02-24T14:13:01Z</time>
      </trkpt>
      <trkpt lat="46.59055" lon="5.49957">
        <ele>267.3</ele>
        <time>2020-02-24T14:13:07Z</time>
      </trkpt>
      <trkpt lat="46.5906" lon="5.49959">
        <ele>266.6</ele>
        <time>2020-02-24T14:13:11Z</time>
      </trkpt>
      <trkpt lat="46.59064" lon="5.49961">
        <ele>265.9</ele>
        <time>2020-02-24T14:13:15Z</time>
      </trkpt>
      <trkpt lat="46.5907" lon="5.49964">
        <ele>265.3</ele>
        <time>2020-02-24T14:13:20Z</time>
      </trkpt>
      <trkpt lat="46.59075" lon="5.49966">
        <ele>264.7</ele>
        <time>2020-02-24T14:13:24Z</time>
      </trkpt>
      <trkpt lat="46.5908" lon="5.49968">
        <ele>264.2</ele>
        <time>2020-02-24T14:13:28Z</time>
      </trkpt>
      <trkpt lat="46.59085" lon="5.49969">
        <ele>263.3</ele>
        <time>2020-02-24T14:13:33Z</time>
      </trkpt>
      <trkpt lat="46.59091" lon="5.49971">
        <ele>262.4</ele>
        <time>2020-02-24T14:13:37Z</time>
      </trkpt>
      <trkpt lat="46.59095" lon="5.49972">
        <ele>261.8</ele>
        <time>2020-02-24T14:13:40Z</time>
      </trkpt>
      <trkpt lat="46.591" lon="5.49973">
        <ele>261.2</ele>
        <time>2020-02-24T14:13:43Z</time>
      </trkpt>
      <trkpt lat="46.59106" lon="5.49973">
        <ele>260.4</ele>
        <time>2020-02-24T14:13:47Z</time>
      </trkpt>
      <trkpt lat="46.59111" lon="5.49974">
        <ele>259.6</ele>
        <time>2020-02-24T14:13:51Z</time>
      </trkpt>
      <trkpt lat="46.59116" lon="5.49976">
        <ele>259.1</ele>
        <time>2020-02-24T14:13:55Z</time>
      </trkpt>
      <trkpt lat="46.5912" lon="5.49978">
        <ele>258.6</ele>
        <time>2020-02-24T14:13:59Z</time>
      </trkpt>
      <trkpt lat="46.59124" lon="5.49981">
        <ele>258</ele>
        <time>2020-02-24T14:14:04Z</time>
      </trkpt>
      <trkpt lat="46.59129" lon="5.49985">
        <ele>257.3</ele>
        <time>2020-02-24T14:14:09Z</time>
      </trkpt>
      <trkpt lat="46.59134" lon="5.49987">
        <ele>256.8</ele>
        <time>2020-02-24T14:14:14Z</time>
      </trkpt>
      <trkpt lat="46.59139" lon="5.49992">
        <ele>256.5</ele>
        <time>2020-02-24T14:14:17Z</time>
      </trkpt>
      <trkpt lat="46.59142" lon="5.49997">
        <ele>256.4</ele>
        <time>2020-02-24T14:14:22Z</time>
      </trkpt>
      <trkpt lat="46.59146" lon="5.50002">
        <ele>256.4</ele>
        <time>2020-02-24T14:14:27Z</time>
      </trkpt>
      <trkpt lat="46.59182" lon="5.50033">
        <ele>259.9</ele>
        <time>2020-02-24T14:15:07Z</time>
      </trkpt>
      <trkpt lat="46.59188" lon="5.50035">
        <ele>260</ele>
        <time>2020-02-24T14:15:11Z</time>
      </trkpt>
      <trkpt lat="46.59193" lon="5.50036">
        <ele>259.9</ele>
        <time>2020-02-24T14:15:15Z</time>
      </trkpt>
      <trkpt lat="46.59198" lon="5.50037">
        <ele>259.6</ele>
        <time>2020-02-24T14:15:19Z</time>
      </trkpt>
      <trkpt lat="46.59204" lon="5.50037">
        <ele>259.4</ele>
        <time>2020-02-24T14:15:23Z</time>
      </trkpt>
      <trkpt lat="46.59209" lon="5.50037">
        <ele>259.3</ele>
        <time>2020-02-24T14:15:27Z</time>
      </trkpt>
      <trkpt lat="46.59213" lon="5.50039">
        <ele>259.4</ele>
        <time>2020-02-24T14:15:31Z</time>
      </trkpt>
      <trkpt lat="46.59217" lon="5.50042">
        <ele>259.5</ele>
        <time>2020-02-24T14:15:34Z</time>
      </trkpt>
      <trkpt lat="46.59224" lon="5.50056">
        <ele>259.3</ele>
        <time>2020-02-24T14:15:44Z</time>
      </trkpt>
      <trkpt lat="46.59227" lon="5.50063">
        <ele>259.2</ele>
        <time>2020-02-24T14:15:48Z</time>
      </trkpt>
      <trkpt lat="46.59231" lon="5.50069">
        <ele>259.1</ele>
        <time>2020-02-24T14:15:52Z</time>
      </trkpt>
      <trkpt lat="46.59235" lon="5.50074">
        <ele>259.2</ele>
        <time>2020-02-24T14:15:55Z</time>
      </trkpt>
      <trkpt lat="46.59239" lon="5.50078">
        <ele>259.3</ele>
        <time>2020-02-24T14:15:59Z</time>
      </trkpt>
      <trkpt lat="46.59242" lon="5.50084">
        <ele>259.4</ele>
        <time>2020-02-24T14:16:04Z</time>
      </trkpt>
      <trkpt lat="46.59245" lon="5.50089">
        <ele>259.7</ele>
        <time>2020-02-24T14:16:08Z</time>
      </trkpt>
      <trkpt lat="46.59248" lon="5.50095">
        <ele>259.9</ele>
        <time>2020-02-24T14:16:14Z</time>
      </trkpt>
      <trkpt lat="46.59252" lon="5.501">
        <ele>259.2</ele>
        <time>2020-02-24T14:16:24Z</time>
      </trkpt>
      <trkpt lat="46.59256" lon="5.50105">
        <ele>258.8</ele>
        <time>2020-02-24T14:16:30Z</time>
      </trkpt>
      <trkpt lat="46.5926" lon="5.5011">
        <ele>258.8</ele>
        <time>2020-02-24T14:16:34Z</time>
      </trkpt>
      <trkpt lat="46.59264" lon="5.50112">
        <ele>259.3</ele>
        <time>2020-02-24T14:16:41Z</time>
      </trkpt>
      <trkpt lat="46.59269" lon="5.50113">
        <ele>259.7</ele>
        <time>2020-02-24T14:16:45Z</time>
      </trkpt>
      <trkpt lat="46.59274" lon="5.50115">
        <ele>260.5</ele>
        <time>2020-02-24T14:16:49Z</time>
      </trkpt>
      <trkpt lat="46.59278" lon="5.50117">
        <ele>261.4</ele>
        <time>2020-02-24T14:16:53Z</time>
      </trkpt>
      <trkpt lat="46.59283" lon="5.50121">
        <ele>262.3</ele>
        <time>2020-02-24T14:16:57Z</time>
      </trkpt>
      <trkpt lat="46.59288" lon="5.50124">
        <ele>263.6</ele>
        <time>2020-02-24T14:17:02Z</time>
      </trkpt>
      <trkpt lat="46.59292" lon="5.50127">
        <ele>264.6</ele>
        <time>2020-02-24T14:17:06Z</time>
      </trkpt>
      <trkpt lat="46.59296" lon="5.50131">
        <ele>265.5</ele>
        <time>2020-02-24T14:17:11Z</time>
      </trkpt>
      <trkpt lat="46.593" lon="5.50135">
        <ele>266.4</ele>
        <time>2020-02-24T14:17:16Z</time>
      </trkpt>
      <trkpt lat="46.59304" lon="5.50138">
        <ele>267</ele>
        <time>2020-02-24T14:17:21Z</time>
      </trkpt>
      <trkpt lat="46.59309" lon="5.50142">
        <ele>267.7</ele>
        <time>2020-02-24T14:17:27Z</time>
      </trkpt>
      <trkpt lat="46.59313" lon="5.50145">
        <ele>268.2</ele>
        <time>2020-02-24T14:17:33Z</time>
      </trkpt>
      <trkpt lat="46.59317" lon="5.50148">
        <ele>268.4</ele>
        <time>2020-02-24T14:17:38Z</time>
      </trkpt>
      <trkpt lat="46.59322" lon="5.50151">
        <ele>268.6</ele>
        <time>2020-02-24T14:17:43Z</time>
      </trkpt>
      <trkpt lat="46.59327" lon="5.50153">
        <ele>268.4</ele>
        <time>2020-02-24T14:17:48Z</time>
      </trkpt>
      <trkpt lat="46.59331" lon="5.50156">
        <ele>268</ele>
        <time>2020-02-24T14:17:53Z</time>
      </trkpt>
      <trkpt lat="46.59335" lon="5.5016">
        <ele>267.2</ele>
        <time>2020-02-24T14:17:59Z</time>
      </trkpt>
      <trkpt lat="46.5934" lon="5.50163">
        <ele>266</ele>
        <time>2020-02-24T14:18:05Z</time>
      </trkpt>
      <trkpt lat="46.59345" lon="5.50164">
        <ele>264.9</ele>
        <time>2020-02-24T14:18:10Z</time>
      </trkpt>
      <trkpt lat="46.5935" lon="5.50165">
        <ele>264.1</ele>
        <time>2020-02-24T14:18:16Z</time>
      </trkpt>
      <trkpt lat="46.59355" lon="5.50166">
        <ele>263.6</ele>
        <time>2020-02-24T14:18:20Z</time>
      </trkpt>
      <trkpt lat="46.5936" lon="5.50168">
        <ele>263.2</ele>
        <time>2020-02-24T14:18:25Z</time>
      </trkpt>
      <trkpt lat="46.59364" lon="5.50171">
        <ele>263</ele>
        <time>2020-02-24T14:18:30Z</time>
      </trkpt>
      <trkpt lat="46.59369" lon="5.50176">
        <ele>263</ele>
        <time>2020-02-24T14:18:34Z</time>
      </trkpt>
      <trkpt lat="46.59373" lon="5.5018">
        <ele>262.9</ele>
        <time>2020-02-24T14:18:37Z</time>
      </trkpt>
      <trkpt lat="46.59377" lon="5.50184">
        <ele>262.6</ele>
        <time>2020-02-24T14:18:41Z</time>
      </trkpt>
      <trkpt lat="46.5938" lon="5.5019">
        <ele>262.2</ele>
        <time>2020-02-24T14:18:45Z</time>
      </trkpt>
      <trkpt lat="46.59382" lon="5.50197">
        <ele>261.8</ele>
        <time>2020-02-24T14:18:51Z</time>
      </trkpt>
      <trkpt lat="46.59384" lon="5.50204">
        <ele>261.7</ele>
        <time>2020-02-24T14:18:55Z</time>
      </trkpt>
      <trkpt lat="46.59385" lon="5.50212">
        <ele>261.7</ele>
        <time>2020-02-24T14:19:00Z</time>
      </trkpt>
      <trkpt lat="46.59386" lon="5.50219">
        <ele>261.5</ele>
        <time>2020-02-24T14:19:05Z</time>
      </trkpt>
      <trkpt lat="46.59388" lon="5.50226">
        <ele>261.7</ele>
        <time>2020-02-24T14:19:14Z</time>
      </trkpt>
      <trkpt lat="46.59389" lon="5.50233">
        <ele>263</ele>
        <time>2020-02-24T14:19:20Z</time>
      </trkpt>
      <trkpt lat="46.59388" lon="5.50239">
        <ele>264.6</ele>
        <time>2020-02-24T14:19:26Z</time>
      </trkpt>
      <trkpt lat="46.59389" lon="5.50246">
        <ele>266.4</ele>
        <time>2020-02-24T14:19:33Z</time>
      </trkpt>
      <trkpt lat="46.59386" lon="5.50253">
        <ele>267.8</ele>
        <time>2020-02-24T14:19:40Z</time>
      </trkpt>
      <trkpt lat="46.59385" lon="5.50261">
        <ele>267.8</ele>
        <time>2020-02-24T14:19:43Z</time>
      </trkpt>
      <trkpt lat="46.59383" lon="5.5027">
        <ele>267.6</ele>
        <time>2020-02-24T14:19:46Z</time>
      </trkpt>
      <trkpt lat="46.59382" lon="5.50278">
        <ele>267.2</ele>
        <time>2020-02-24T14:19:49Z</time>
      </trkpt>
      <trkpt lat="46.59383" lon="5.50285">
        <ele>266.8</ele>
        <time>2020-02-24T14:19:52Z</time>
      </trkpt>
      <trkpt lat="46.59384" lon="5.50293">
        <ele>265.9</ele>
        <time>2020-02-24T14:19:56Z</time>
      </trkpt>
      <trkpt lat="46.59387" lon="5.50298">
        <ele>264.1</ele>
        <time>2020-02-24T14:20:02Z</time>
      </trkpt>
      <trkpt lat="46.59392" lon="5.50299">
        <ele>262.2</ele>
        <time>2020-02-24T14:20:09Z</time>
      </trkpt>
      <trkpt lat="46.59397" lon="5.50299">
        <ele>260.6</ele>
        <time>2020-02-24T14:20:16Z</time>
      </trkpt>
      <trkpt lat="46.59401" lon="5.50295">
        <ele>254.8</ele>
        <time>2020-02-24T14:21:32Z</time>
      </trkpt>
      <trkpt lat="46.59405" lon="5.50291">
        <ele>254.9</ele>
        <time>2020-02-24T14:21:36Z</time>
      </trkpt>
      <trkpt lat="46.5941" lon="5.50287">
        <ele>255.2</ele>
        <time>2020-02-24T14:21:40Z</time>
      </trkpt>
      <trkpt lat="46.59415" lon="5.50284">
        <ele>255.3</ele>
        <time>2020-02-24T14:21:44Z</time>
      </trkpt>
      <trkpt lat="46.59419" lon="5.50279">
        <ele>255.3</ele>
        <time>2020-02-24T14:21:48Z</time>
      </trkpt>
      <trkpt lat="46.59422" lon="5.50273">
        <ele>254.6</ele>
        <time>2020-02-24T14:21:55Z</time>
      </trkpt>
      <trkpt lat="46.59423" lon="5.50266">
        <ele>254</ele>
        <time>2020-02-24T14:22:00Z</time>
      </trkpt>
      <trkpt lat="46.59426" lon="5.5026">
        <ele>253.7</ele>
        <time>2020-02-24T14:22:03Z</time>
      </trkpt>
      <trkpt lat="46.59429" lon="5.50254">
        <ele>253.2</ele>
        <time>2020-02-24T14:22:07Z</time>
      </trkpt>
      <trkpt lat="46.59433" lon="5.50249">
        <ele>252.4</ele>
        <time>2020-02-24T14:22:13Z</time>
      </trkpt>
      <trkpt lat="46.59437" lon="5.50244">
        <ele>252.1</ele>
        <time>2020-02-24T14:22:17Z</time>
      </trkpt>
      <trkpt lat="46.59441" lon="5.5024">
        <ele>251.8</ele>
        <time>2020-02-24T14:22:22Z</time>
      </trkpt>
      <trkpt lat="46.59444" lon="5.50242">
        <ele>253.3</ele>
        <time>2020-02-24T14:23:19Z</time>
      </trkpt>
      <trkpt lat="46.59445" lon="5.5025">
        <ele>253</ele>
        <time>2020-02-24T14:23:24Z</time>
      </trkpt>
      <trkpt lat="46.59445" lon="5.50257">
        <ele>253</ele>
        <time>2020-02-24T14:23:30Z</time>
      </trkpt>
      <trkpt lat="46.59443" lon="5.50263">
        <ele>253</ele>
        <time>2020-02-24T14:23:37Z</time>
      </trkpt>
      <trkpt lat="46.59445" lon="5.50256">
        <ele>252.3</ele>
        <time>2020-02-24T14:23:50Z</time>
      </trkpt>
      <trkpt lat="46.59448" lon="5.50251">
        <ele>251.6</ele>
        <time>2020-02-24T14:23:56Z</time>
      </trkpt>
      <trkpt lat="46.59451" lon="5.50245">
        <ele>251.2</ele>
        <time>2020-02-24T14:24:00Z</time>
      </trkpt>
      <trkpt lat="46.59454" lon="5.50238">
        <ele>250.8</ele>
        <time>2020-02-24T14:24:04Z</time>
      </trkpt>
      <trkpt lat="46.59459" lon="5.50235">
        <ele>249.6</ele>
        <time>2020-02-24T14:24:10Z</time>
      </trkpt>
      <trkpt lat="46.59464" lon="5.50237">
        <ele>248.5</ele>
        <time>2020-02-24T14:24:15Z</time>
      </trkpt>
      <trkpt lat="46.59469" lon="5.5024">
        <ele>247.3</ele>
        <time>2020-02-24T14:24:20Z</time>
      </trkpt>
      <trkpt lat="46.59474" lon="5.50243">
        <ele>246.4</ele>
        <time>2020-02-24T14:24:24Z</time>
      </trkpt>
      <trkpt lat="46.59478" lon="5.5025">
        <ele>245.6</ele>
        <time>2020-02-24T14:24:27Z</time>
      </trkpt>
      <trkpt lat="46.59482" lon="5.50256">
        <ele>244.8</ele>
        <time>2020-02-24T14:24:31Z</time>
      </trkpt>
      <trkpt lat="46.59484" lon="5.50262">
        <ele>244.2</ele>
        <time>2020-02-24T14:24:34Z</time>
      </trkpt>
      <trkpt lat="46.59486" lon="5.50269">
        <ele>243.5</ele>
        <time>2020-02-24T14:24:37Z</time>
      </trkpt>
      <trkpt lat="46.59488" lon="5.50275">
        <ele>242.9</ele>
        <time>2020-02-24T14:24:40Z</time>
      </trkpt>
      <trkpt lat="46.59491" lon="5.50282">
        <ele>242.4</ele>
        <time>2020-02-24T14:24:44Z</time>
      </trkpt>
      <trkpt lat="46.59495" lon="5.50287">
        <ele>242.3</ele>
        <time>2020-02-24T14:24:48Z</time>
      </trkpt>
      <trkpt lat="46.59498" lon="5.50293">
        <ele>242.4</ele>
        <time>2020-02-24T14:24:52Z</time>
      </trkpt>
      <trkpt lat="46.59501" lon="5.50299">
        <ele>242.7</ele>
        <time>2020-02-24T14:24:56Z</time>
      </trkpt>
      <trkpt lat="46.59504" lon="5.50305">
        <ele>243.2</ele>
        <time>2020-02-24T14:25:00Z</time>
      </trkpt>
      <trkpt lat="46.59507" lon="5.5031">
        <ele>243.8</ele>
        <time>2020-02-24T14:25:04Z</time>
      </trkpt>
      <trkpt lat="46.59511" lon="5.50315">
        <ele>244.2</ele>
        <time>2020-02-24T14:25:08Z</time>
      </trkpt>
      <trkpt lat="46.59515" lon="5.50318">
        <ele>244.6</ele>
        <time>2020-02-24T14:25:12Z</time>
      </trkpt>
      <trkpt lat="46.59519" lon="5.50322">
        <ele>244.6</ele>
        <time>2020-02-24T14:25:16Z</time>
      </trkpt>
      <trkpt lat="46.59523" lon="5.50326">
        <ele>244.5</ele>
        <time>2020-02-24T14:25:22Z</time>
      </trkpt>
      <trkpt lat="46.59527" lon="5.50328">
        <ele>244.3</ele>
        <time>2020-02-24T14:25:28Z</time>
      </trkpt>
      <trkpt lat="46.59532" lon="5.50329">
        <ele>243.5</ele>
        <time>2020-02-24T14:25:34Z</time>
      </trkpt>
      <trkpt lat="46.59538" lon="5.50328">
        <ele>243</ele>
        <time>2020-02-24T14:25:38Z</time>
      </trkpt>
      <trkpt lat="46.59544" lon="5.50327">
        <ele>242</ele>
        <time>2020-02-24T14:25:44Z</time>
      </trkpt>
      <trkpt lat="46.59548" lon="5.50325">
        <ele>241.5</ele>
        <time>2020-02-24T14:25:48Z</time>
      </trkpt>
      <trkpt lat="46.59554" lon="5.50321">
        <ele>241.5</ele>
        <time>2020-02-24T14:25:51Z</time>
      </trkpt>
      <trkpt lat="46.59559" lon="5.50317">
        <ele>241.7</ele>
        <time>2020-02-24T14:25:54Z</time>
      </trkpt>
      <trkpt lat="46.59563" lon="5.50313">
        <ele>242.1</ele>
        <time>2020-02-24T14:25:57Z</time>
      </trkpt>
      <trkpt lat="46.59567" lon="5.50307">
        <ele>242.5</ele>
        <time>2020-02-24T14:26:01Z</time>
      </trkpt>
      <trkpt lat="46.59569" lon="5.503">
        <ele>242.8</ele>
        <time>2020-02-24T14:26:07Z</time>
      </trkpt>
      <trkpt lat="46.59571" lon="5.50293">
        <ele>243</ele>
        <time>2020-02-24T14:26:13Z</time>
      </trkpt>
      <trkpt lat="46.59576" lon="5.50288">
        <ele>243.6</ele>
        <time>2020-02-24T14:26:17Z</time>
      </trkpt>
      <trkpt lat="46.5958" lon="5.50284">
        <ele>244.5</ele>
        <time>2020-02-24T14:26:21Z</time>
      </trkpt>
      <trkpt lat="46.59585" lon="5.50281">
        <ele>245.1</ele>
        <time>2020-02-24T14:26:26Z</time>
      </trkpt>
      <trkpt lat="46.5959" lon="5.50279">
        <ele>245.3</ele>
        <time>2020-02-24T14:26:30Z</time>
      </trkpt>
      <trkpt lat="46.59595" lon="5.50278">
        <ele>245.5</ele>
        <time>2020-02-24T14:26:35Z</time>
      </trkpt>
      <trkpt lat="46.59599" lon="5.50278">
        <ele>245.4</ele>
        <time>2020-02-24T14:26:41Z</time>
      </trkpt>
      <trkpt lat="46.59604" lon="5.50277">
        <ele>245</ele>
        <time>2020-02-24T14:26:47Z</time>
      </trkpt>
      <trkpt lat="46.59609" lon="5.50276">
        <ele>244.5</ele>
        <time>2020-02-24T14:26:54Z</time>
      </trkpt>
      <trkpt lat="46.59614" lon="5.50276">
        <ele>244.3</ele>
        <time>2020-02-24T14:26:59Z</time>
      </trkpt>
      <trkpt lat="46.59619" lon="5.50274">
        <ele>244.5</ele>
        <time>2020-02-24T14:27:03Z</time>
      </trkpt>
      <trkpt lat="46.59624" lon="5.50272">
        <ele>244.6</ele>
        <time>2020-02-24T14:27:06Z</time>
      </trkpt>
      <trkpt lat="46.59629" lon="5.50269">
        <ele>244.9</ele>
        <time>2020-02-24T14:27:11Z</time>
      </trkpt>
      <trkpt lat="46.59635" lon="5.50269">
        <ele>245.1</ele>
        <time>2020-02-24T14:27:16Z</time>
      </trkpt>
      <trkpt lat="46.59639" lon="5.50269">
        <ele>245.3</ele>
        <time>2020-02-24T14:27:19Z</time>
      </trkpt>
      <trkpt lat="46.59645" lon="5.50268">
        <ele>245.4</ele>
        <time>2020-02-24T14:27:23Z</time>
      </trkpt>
      <trkpt lat="46.59649" lon="5.50266">
        <ele>245.6</ele>
        <time>2020-02-24T14:27:27Z</time>
      </trkpt>
      <trkpt lat="46.59654" lon="5.50264">
        <ele>245.8</ele>
        <time>2020-02-24T14:27:35Z</time>
      </trkpt>
      <trkpt lat="46.59659" lon="5.50261">
        <ele>245.6</ele>
        <time>2020-02-24T14:27:40Z</time>
      </trkpt>
      <trkpt lat="46.59664" lon="5.5026">
        <ele>245.5</ele>
        <time>2020-02-24T14:27:45Z</time>
      </trkpt>
      <trkpt lat="46.5967" lon="5.50258">
        <ele>245.4</ele>
        <time>2020-02-24T14:27:51Z</time>
      </trkpt>
      <trkpt lat="46.59676" lon="5.50254">
        <ele>245.5</ele>
        <time>2020-02-24T14:27:54Z</time>
      </trkpt>
      <trkpt lat="46.59681" lon="5.50251">
        <ele>245.6</ele>
        <time>2020-02-24T14:27:56Z</time>
      </trkpt>
      <trkpt lat="46.59686" lon="5.50249">
        <ele>245.8</ele>
        <time>2020-02-24T14:27:59Z</time>
      </trkpt>
      <trkpt lat="46.59691" lon="5.50245">
        <ele>246.3</ele>
        <time>2020-02-24T14:28:03Z</time>
      </trkpt>
      <trkpt lat="46.59695" lon="5.50242">
        <ele>246.9</ele>
        <time>2020-02-24T14:28:10Z</time>
      </trkpt>
      <trkpt lat="46.59699" lon="5.50238">
        <ele>247.2</ele>
        <time>2020-02-24T14:28:17Z</time>
      </trkpt>
      <trkpt lat="46.59701" lon="5.50232">
        <ele>247.2</ele>
        <time>2020-02-24T14:28:22Z</time>
      </trkpt>
      <trkpt lat="46.59696" lon="5.50218">
        <ele>247.3</ele>
        <time>2020-02-24T14:28:48Z</time>
      </trkpt>
      <trkpt lat="46.59669" lon="5.5028">
        <ele>255.2</ele>
      </trkpt>
      <trkpt lat="46.59681" lon="5.50317">
        <ele>257.3</ele>
      </trkpt>
      <trkpt lat="46.59743" lon="5.50302">
        <ele>261.1</ele>
      </trkpt>
      <trkpt lat="46.598" lon="5.5026">
        <ele>270.8</ele>
      </trkpt>
      <trkpt lat="46.59895" lon="5.50212">
        <ele>270</ele>
      </trkpt>
      <trkpt lat="46.59887" lon="5.50274">
        <ele>289.5</ele>
      </trkpt>
      <trkpt lat="46.59844" lon="5.50385">
        <ele>311.8</ele>
      </trkpt>
      <trkpt lat="46.59823" lon="5.50447">
        <ele>303.2</ele>
      </trkpt>
      <trkpt lat="46.59831" lon="5.50503">
        <ele>317.4</ele>
      </trkpt>
      <trkpt lat="46.5985" lon="5.50625">
        <ele>341.9</ele>
      </trkpt>
      <trkpt lat="46.59858" lon="5.50526">
        <ele>335.8</ele>
      </trkpt>
      <trkpt lat="46.59897" lon="5.50421">
        <ele>334</ele>
      </trkpt>
      <trkpt lat="46.59971" lon="5.5043">
        <ele>346.7</ele>
      </trkpt>
      <trkpt lat="46.60023" lon="5.50503">
        <ele>361.9</ele>
      </trkpt>
    </trkseg>
  </trk>
</gpx>